<?xml version='1.0' encoding='UTF-8'?><gpx version="1.1" creator="JPX - https://github.com/jenetics/jpx" xmlns="http://www.topografix.com/GPX/1/1"><trk><trkseg><trkpt lat="43.0510748" lon="12.3307122"><ele>297.8</ele><time>2026-05-01T06:12:32.965Z</time></trkpt><trkpt lat="43.051148" lon="12.3305009"><ele>297.6</ele><time>2026-05-01T06:12:54.952Z</time></trkpt><trkpt lat="43.0510646" lon="12.3304082"><ele>297.4</ele><time>2026-05-01T06:12:56.97Z</time></trkpt><trkpt lat="43.0510001" lon="12.3303528"><ele>297.2</ele><time>2026-05-01T06:12:59.96Z</time></trkpt><trkpt lat="43.0509311" lon="12.3303476"><ele>297.0</ele><time>2026-05-01T06:13:02.974Z</time></trkpt><trkpt lat="43.050898" lon="12.3302714"><ele>297.0</ele><time>2026-05-01T06:14:04.881Z</time></trkpt><trkpt lat="43.0509928" lon="12.3303223"><ele>297.0</ele><time>2026-05-01T06:14:35.982Z</time></trkpt><trkpt lat="43.0511247" lon="12.3304131"><ele>297.0</ele><time>2026-05-01T06:14:49.973Z</time></trkpt><trkpt lat="43.051125" lon="12.3307412"><ele>297.0</ele><time>2026-05-01T06:18:18.953Z</time></trkpt><trkpt lat="43.0511337" lon="12.3305648"><ele>297.0</ele><time>2026-05-01T06:18:20.97Z</time></trkpt><trkpt lat="43.0511634" lon="12.3304449"><ele>297.0</ele><time>2026-05-01T06:18:33.97Z</time></trkpt><trkpt lat="43.0510988" lon="12.3304348"><ele>297.0</ele><time>2026-05-01T06:27:27.969Z</time></trkpt><trkpt lat="43.0510388" lon="12.3304646"><ele>297.0</ele><time>2026-05-01T06:27:32.956Z</time></trkpt><trkpt lat="43.0509619" lon="12.3304558"><ele>297.0</ele><time>2026-05-01T06:27:35.976Z</time></trkpt><trkpt lat="43.050911" lon="12.3305159"><ele>297.0</ele><time>2026-05-01T06:27:42.957Z</time></trkpt><trkpt lat="43.0508853" lon="12.3306014"><ele>297.0</ele><time>2026-05-01T06:27:48.973Z</time></trkpt><trkpt lat="43.0508768" lon="12.3305069"><ele>297.0</ele><time>2026-05-01T06:28:12.007Z</time></trkpt><trkpt lat="43.0509368" lon="12.3304627"><ele>297.0</ele><time>2026-05-01T06:28:22.989Z</time></trkpt><trkpt lat="43.0510023" lon="12.330479"><ele>297.0</ele><time>2026-05-01T06:28:31.962Z</time></trkpt><trkpt lat="43.0510607" lon="12.3305191"><ele>297.0</ele><time>2026-05-01T06:28:39.883Z</time></trkpt><trkpt lat="43.0510191" lon="12.3304421"><ele>297.0</ele><time>2026-05-01T06:29:19.979Z</time></trkpt><trkpt lat="43.0510731" lon="12.3305156"><ele>297.0</ele><time>2026-05-01T06:29:28.941Z</time></trkpt><trkpt lat="43.0511389" lon="12.3305205"><ele>297.0</ele><time>2026-05-01T06:29:31.95Z</time></trkpt><trkpt lat="43.0512208" lon="12.3304815"><ele>297.0</ele><time>2026-05-01T06:29:46Z</time></trkpt><trkpt lat="43.0512928" lon="12.3304188"><ele>297.0</ele><time>2026-05-01T06:29:48.951Z</time></trkpt><trkpt lat="43.0513463" lon="12.3303732"><ele>297.0</ele><time>2026-05-01T06:29:50.888Z</time></trkpt><trkpt lat="43.0513925" lon="12.3302898"><ele>297.0</ele><time>2026-05-01T06:29:52.956Z</time></trkpt><trkpt lat="43.051439" lon="12.3302057"><ele>297.0</ele><time>2026-05-01T06:29:55.981Z</time></trkpt><trkpt lat="43.051482" lon="12.3301287"><ele>297.0</ele><time>2026-05-01T06:30:00Z</time></trkpt><trkpt lat="43.0514662" lon="12.3300448"><ele>297.0</ele><time>2026-05-01T06:30:01.983Z</time></trkpt><trkpt lat="43.0514533" lon="12.3299525"><ele>297.0</ele><time>2026-05-01T06:30:03.967Z</time></trkpt><trkpt lat="43.0514451" lon="12.3298572"><ele>297.0</ele><time>2026-05-01T06:30:05.964Z</time></trkpt><trkpt lat="43.0514411" lon="12.3297558"><ele>297.0</ele><time>2026-05-01T06:30:07.966Z</time></trkpt><trkpt lat="43.0514375" lon="12.3296613"><ele>297.0</ele><time>2026-05-01T06:30:09.97Z</time></trkpt><trkpt lat="43.0514288" lon="12.3295506"><ele>296.8333333333333</ele><time>2026-05-01T06:30:12.145Z</time></trkpt><trkpt lat="43.0514217" lon="12.3294472"><ele>296.6666666666667</ele><time>2026-05-01T06:30:14.016Z</time></trkpt><trkpt lat="43.0514112" lon="12.3293252"><ele>296.5</ele><time>2026-05-01T06:30:16.977Z</time></trkpt><trkpt lat="43.0514233" lon="12.3292036"><ele>296.33333333333337</ele><time>2026-05-01T06:30:19.96Z</time></trkpt><trkpt lat="43.0514272" lon="12.3290774"><ele>296.1666666666667</ele><time>2026-05-01T06:30:22.897Z</time></trkpt><trkpt lat="43.0514364" lon="12.3289534"><ele>296.0</ele><time>2026-05-01T06:30:25.953Z</time></trkpt><trkpt lat="43.0514522" lon="12.3288224"><ele>296.0</ele><time>2026-05-01T06:30:28.966Z</time></trkpt><trkpt lat="43.0514911" lon="12.3287174"><ele>296.0</ele><time>2026-05-01T06:30:31.949Z</time></trkpt><trkpt lat="43.0514837" lon="12.3286122"><ele>296.0</ele><time>2026-05-01T06:30:35.973Z</time></trkpt><trkpt lat="43.05142" lon="12.3286497"><ele>296.0</ele><time>2026-05-01T06:30:38.951Z</time></trkpt><trkpt lat="43.0513497" lon="12.3286557"><ele>296.0</ele><time>2026-05-01T06:31:32.969Z</time></trkpt><trkpt lat="43.0512836" lon="12.3286096"><ele>296.0</ele><time>2026-05-01T06:31:36.954Z</time></trkpt><trkpt lat="43.0512229" lon="12.3285201"><ele>296.0</ele><time>2026-05-01T06:31:40.979Z</time></trkpt><trkpt lat="43.0511694" lon="12.3284316"><ele>296.0</ele><time>2026-05-01T06:31:42.972Z</time></trkpt><trkpt lat="43.051113" lon="12.3283371"><ele>296.0</ele><time>2026-05-01T06:31:44.97Z</time></trkpt><trkpt lat="43.0510619" lon="12.3282542"><ele>296.0</ele><time>2026-05-01T06:31:46.954Z</time></trkpt><trkpt lat="43.0510087" lon="12.3281957"><ele>296.0</ele><time>2026-05-01T06:31:49.026Z</time></trkpt><trkpt lat="43.0509595" lon="12.328137"><ele>296.0</ele><time>2026-05-01T06:31:50.955Z</time></trkpt><trkpt lat="43.0508986" lon="12.3280725"><ele>296.1666666666667</ele><time>2026-05-01T06:31:52.958Z</time></trkpt><trkpt lat="43.0508344" lon="12.3280087"><ele>296.33333333333337</ele><time>2026-05-01T06:31:54.961Z</time></trkpt><trkpt lat="43.0507683" lon="12.3279502"><ele>296.5</ele><time>2026-05-01T06:31:56.961Z</time></trkpt><trkpt lat="43.0507107" lon="12.3278787"><ele>296.6666666666667</ele><time>2026-05-01T06:31:58.958Z</time></trkpt><trkpt lat="43.0506544" lon="12.327806"><ele>296.8333333333333</ele><time>2026-05-01T06:32:00.955Z</time></trkpt><trkpt lat="43.0505929" lon="12.3277463"><ele>297.0</ele><time>2026-05-01T06:32:02.957Z</time></trkpt><trkpt lat="43.0505315" lon="12.3276864"><ele>296.5</ele><time>2026-05-01T06:32:04.964Z</time></trkpt><trkpt lat="43.0504684" lon="12.3276269"><ele>296.0</ele><time>2026-05-01T06:32:06.952Z</time></trkpt><trkpt lat="43.0504075" lon="12.3275632"><ele>295.5</ele><time>2026-05-01T06:32:08.969Z</time></trkpt><trkpt lat="43.050343" lon="12.3275004"><ele>295.0</ele><time>2026-05-01T06:32:10.975Z</time></trkpt><trkpt lat="43.0502801" lon="12.3274365"><ele>294.5</ele><time>2026-05-01T06:32:12.967Z</time></trkpt><trkpt lat="43.0502187" lon="12.3273772"><ele>294.0</ele><time>2026-05-01T06:32:14.968Z</time></trkpt><trkpt lat="43.050158" lon="12.3273243"><ele>294.0</ele><time>2026-05-01T06:32:16.955Z</time></trkpt><trkpt lat="43.050094" lon="12.3272763"><ele>294.0</ele><time>2026-05-01T06:32:18.969Z</time></trkpt><trkpt lat="43.0500289" lon="12.327226"><ele>294.0</ele><time>2026-05-01T06:32:20.978Z</time></trkpt><trkpt lat="43.0499641" lon="12.3271739"><ele>294.0</ele><time>2026-05-01T06:32:22.999Z</time></trkpt><trkpt lat="43.0499" lon="12.3271136"><ele>294.0</ele><time>2026-05-01T06:32:24.98Z</time></trkpt><trkpt lat="43.0498326" lon="12.3270449"><ele>294.0</ele><time>2026-05-01T06:32:26.965Z</time></trkpt><trkpt lat="43.0497715" lon="12.3269792"><ele>293.85714285714283</ele><time>2026-05-01T06:32:29.066Z</time></trkpt><trkpt lat="43.0497016" lon="12.3269346"><ele>293.7142857142857</ele><time>2026-05-01T06:32:30.978Z</time></trkpt><trkpt lat="43.0496312" lon="12.3268847"><ele>293.57142857142856</ele><time>2026-05-01T06:32:32.958Z</time></trkpt><trkpt lat="43.049572" lon="12.3268277"><ele>293.42857142857144</ele><time>2026-05-01T06:32:34.969Z</time></trkpt><trkpt lat="43.0495177" lon="12.3267654"><ele>293.2857142857143</ele><time>2026-05-01T06:32:36.958Z</time></trkpt><trkpt lat="43.0494627" lon="12.3267007"><ele>293.1428571428571</ele><time>2026-05-01T06:32:38.959Z</time></trkpt><trkpt lat="43.0494077" lon="12.3266402"><ele>293.0</ele><time>2026-05-01T06:32:40.978Z</time></trkpt><trkpt lat="43.0493626" lon="12.3265742"><ele>293.0</ele><time>2026-05-01T06:32:42.961Z</time></trkpt><trkpt lat="43.0493388" lon="12.3264943"><ele>293.0</ele><time>2026-05-01T06:32:44.966Z</time></trkpt><trkpt lat="43.0493499" lon="12.326401"><ele>293.0</ele><time>2026-05-01T06:32:46.954Z</time></trkpt><trkpt lat="43.0493821" lon="12.3263039"><ele>293.0</ele><time>2026-05-01T06:32:48.953Z</time></trkpt><trkpt lat="43.0494437" lon="12.3262063"><ele>293.0</ele><time>2026-05-01T06:32:50.974Z</time></trkpt><trkpt lat="43.049499" lon="12.3261039"><ele>293.0</ele><time>2026-05-01T06:32:52.962Z</time></trkpt><trkpt lat="43.0495621" lon="12.3259903"><ele>293.0</ele><time>2026-05-01T06:32:54.966Z</time></trkpt><trkpt lat="43.0496314" lon="12.3258617"><ele>293.0</ele><time>2026-05-01T06:32:56.972Z</time></trkpt><trkpt lat="43.0496735" lon="12.3257904"><ele>293.0</ele><time>2026-05-01T06:32:57.954Z</time></trkpt><trkpt lat="43.049716" lon="12.3257145"><ele>293.0</ele><time>2026-05-01T06:32:58.967Z</time></trkpt><trkpt lat="43.0497571" lon="12.3256353"><ele>293.0</ele><time>2026-05-01T06:32:59.952Z</time></trkpt><trkpt lat="43.0497952" lon="12.3255501"><ele>293.0</ele><time>2026-05-01T06:33:00.969Z</time></trkpt><trkpt lat="43.0498374" lon="12.3254713"><ele>292.1428571428571</ele><time>2026-05-01T06:33:01.97Z</time></trkpt><trkpt lat="43.049881" lon="12.3253935"><ele>291.2857142857143</ele><time>2026-05-01T06:33:03Z</time></trkpt><trkpt lat="43.0499151" lon="12.3253143"><ele>290.42857142857144</ele><time>2026-05-01T06:33:03.969Z</time></trkpt><trkpt lat="43.0499351" lon="12.3252255"><ele>289.57142857142856</ele><time>2026-05-01T06:33:04.982Z</time></trkpt><trkpt lat="43.0499395" lon="12.325129"><ele>288.7142857142857</ele><time>2026-05-01T06:33:05.98Z</time></trkpt><trkpt lat="43.0499156" lon="12.3250376"><ele>287.85714285714283</ele><time>2026-05-01T06:33:06.967Z</time></trkpt><trkpt lat="43.0498833" lon="12.3249518"><ele>287.0</ele><time>2026-05-01T06:33:07.974Z</time></trkpt><trkpt lat="43.0498413" lon="12.3248753"><ele>287.0</ele><time>2026-05-01T06:33:08.969Z</time></trkpt><trkpt lat="43.049797" lon="12.3248088"><ele>287.0</ele><time>2026-05-01T06:33:09.974Z</time></trkpt><trkpt lat="43.0497486" lon="12.3247505"><ele>287.0</ele><time>2026-05-01T06:33:10.97Z</time></trkpt><trkpt lat="43.0496733" lon="12.3246347"><ele>287.0</ele><time>2026-05-01T06:33:12.955Z</time></trkpt><trkpt lat="43.0495916" lon="12.3245213"><ele>287.0</ele><time>2026-05-01T06:33:14.97Z</time></trkpt><trkpt lat="43.0495251" lon="12.324404"><ele>285.8</ele><time>2026-05-01T06:33:16.963Z</time></trkpt><trkpt lat="43.0494619" lon="12.3242916"><ele>284.6</ele><time>2026-05-01T06:33:18.969Z</time></trkpt><trkpt lat="43.0494015" lon="12.3241786"><ele>283.40000000000003</ele><time>2026-05-01T06:33:20.954Z</time></trkpt><trkpt lat="43.0493363" lon="12.3240488"><ele>282.2</ele><time>2026-05-01T06:33:22.967Z</time></trkpt><trkpt lat="43.0492717" lon="12.3239285"><ele>281.0</ele><time>2026-05-01T06:33:24.973Z</time></trkpt><trkpt lat="43.0492026" lon="12.3238055"><ele>280.6</ele><time>2026-05-01T06:33:26.964Z</time></trkpt><trkpt lat="43.0491314" lon="12.3236828"><ele>280.20000000000005</ele><time>2026-05-01T06:33:28.972Z</time></trkpt><trkpt lat="43.049064" lon="12.3235658"><ele>279.79999999999995</ele><time>2026-05-01T06:33:30.954Z</time></trkpt><trkpt lat="43.0490065" lon="12.3234607"><ele>279.4</ele><time>2026-05-01T06:33:32.968Z</time></trkpt><trkpt lat="43.0489671" lon="12.3233452"><ele>279.0</ele><time>2026-05-01T06:33:34.965Z</time></trkpt><trkpt lat="43.0489246" lon="12.3232236"><ele>279.59999999999997</ele><time>2026-05-01T06:33:36.962Z</time></trkpt><trkpt lat="43.0488869" lon="12.3230922"><ele>280.2</ele><time>2026-05-01T06:33:38.964Z</time></trkpt><trkpt lat="43.0488298" lon="12.3229577"><ele>280.79999999999995</ele><time>2026-05-01T06:33:40.968Z</time></trkpt><trkpt lat="43.0487878" lon="12.3228414"><ele>281.4</ele><time>2026-05-01T06:33:42.973Z</time></trkpt><trkpt lat="43.0487392" lon="12.3227194"><ele>282.0</ele><time>2026-05-01T06:33:44.976Z</time></trkpt><trkpt lat="43.0486728" lon="12.3226071"><ele>282.0</ele><time>2026-05-01T06:33:46.961Z</time></trkpt><trkpt lat="43.0485936" lon="12.3225076"><ele>282.0</ele><time>2026-05-01T06:33:48.972Z</time></trkpt><trkpt lat="43.048515" lon="12.3224202"><ele>282.0</ele><time>2026-05-01T06:33:50.968Z</time></trkpt><trkpt lat="43.0484276" lon="12.3223385"><ele>282.0</ele><time>2026-05-01T06:33:52.965Z</time></trkpt><trkpt lat="43.0483358" lon="12.3222504"><ele>282.0</ele><time>2026-05-01T06:33:54.977Z</time></trkpt><trkpt lat="43.048254" lon="12.3221608"><ele>281.6</ele><time>2026-05-01T06:33:56.971Z</time></trkpt><trkpt lat="43.0481664" lon="12.3220733"><ele>281.2</ele><time>2026-05-01T06:33:58.969Z</time></trkpt><trkpt lat="43.0480905" lon="12.3219715"><ele>280.8</ele><time>2026-05-01T06:34:00.97Z</time></trkpt><trkpt lat="43.0480107" lon="12.3218707"><ele>280.4</ele><time>2026-05-01T06:34:02.955Z</time></trkpt><trkpt lat="43.0479291" lon="12.3217497"><ele>280.0</ele><time>2026-05-01T06:34:04.971Z</time></trkpt><trkpt lat="43.0478673" lon="12.3216007"><ele>280.0</ele><time>2026-05-01T06:34:06.975Z</time></trkpt><trkpt lat="43.0478387" lon="12.3215209"><ele>280.0</ele><time>2026-05-01T06:34:07.965Z</time></trkpt><trkpt lat="43.0478097" lon="12.321433"><ele>280.0</ele><time>2026-05-01T06:34:08.969Z</time></trkpt><trkpt lat="43.0477815" lon="12.3213462"><ele>280.0</ele><time>2026-05-01T06:34:09.963Z</time></trkpt><trkpt lat="43.0477559" lon="12.3212506"><ele>280.0</ele><time>2026-05-01T06:34:10.962Z</time></trkpt><trkpt lat="43.0477247" lon="12.3211571"><ele>280.0</ele><time>2026-05-01T06:34:11.967Z</time></trkpt><trkpt lat="43.0476962" lon="12.3210556"><ele>280.0</ele><time>2026-05-01T06:34:12.971Z</time></trkpt><trkpt lat="43.0476644" lon="12.3209567"><ele>279.16666666666663</ele><time>2026-05-01T06:34:13.974Z</time></trkpt><trkpt lat="43.0476346" lon="12.3208559"><ele>278.3333333333333</ele><time>2026-05-01T06:34:14.955Z</time></trkpt><trkpt lat="43.0476059" lon="12.3207527"><ele>277.5</ele><time>2026-05-01T06:34:15.963Z</time></trkpt><trkpt lat="43.0475763" lon="12.3206478"><ele>276.6666666666667</ele><time>2026-05-01T06:34:16.97Z</time></trkpt><trkpt lat="43.0475448" lon="12.3205408"><ele>275.83333333333337</ele><time>2026-05-01T06:34:17.965Z</time></trkpt><trkpt lat="43.0475109" lon="12.3204324"><ele>275.0</ele><time>2026-05-01T06:34:18.978Z</time></trkpt><trkpt lat="43.047478" lon="12.3203272"><ele>274.0</ele><time>2026-05-01T06:34:19.965Z</time></trkpt><trkpt lat="43.0474463" lon="12.3202164"><ele>273.0</ele><time>2026-05-01T06:34:21Z</time></trkpt><trkpt lat="43.0474222" lon="12.3201034"><ele>272.0</ele><time>2026-05-01T06:34:21.958Z</time></trkpt><trkpt lat="43.0473955" lon="12.3199921"><ele>271.0</ele><time>2026-05-01T06:34:22.971Z</time></trkpt><trkpt lat="43.0473665" lon="12.3198845"><ele>270.0</ele><time>2026-05-01T06:34:23.964Z</time></trkpt><trkpt lat="43.0473329" lon="12.3197772"><ele>269.0</ele><time>2026-05-01T06:34:24.956Z</time></trkpt><trkpt lat="43.0472963" lon="12.3196656"><ele>268.1666666666667</ele><time>2026-05-01T06:34:25.971Z</time></trkpt><trkpt lat="43.0472651" lon="12.3195617"><ele>267.33333333333337</ele><time>2026-05-01T06:34:26.961Z</time></trkpt><trkpt lat="43.0472389" lon="12.3194576"><ele>266.5</ele><time>2026-05-01T06:34:27.969Z</time></trkpt><trkpt lat="43.0472065" lon="12.3193508"><ele>265.6666666666667</ele><time>2026-05-01T06:34:28.971Z</time></trkpt><trkpt lat="43.0471711" lon="12.31925"><ele>264.8333333333333</ele><time>2026-05-01T06:34:29.968Z</time></trkpt><trkpt lat="43.0471389" lon="12.3191502"><ele>264.0</ele><time>2026-05-01T06:34:30.952Z</time></trkpt><trkpt lat="43.047107" lon="12.3190547"><ele>264.0</ele><time>2026-05-01T06:34:31.972Z</time></trkpt><trkpt lat="43.047083" lon="12.3189685"><ele>264.0</ele><time>2026-05-01T06:34:32.964Z</time></trkpt><trkpt lat="43.0470385" lon="12.3188277"><ele>264.0</ele><time>2026-05-01T06:34:34.965Z</time></trkpt><trkpt lat="43.0469577" lon="12.3187449"><ele>264.0</ele><time>2026-05-01T06:34:36.958Z</time></trkpt><trkpt lat="43.0468864" lon="12.3186814"><ele>264.0</ele><time>2026-05-01T06:34:39Z</time></trkpt><trkpt lat="43.0468522" lon="12.318585"><ele>264.0</ele><time>2026-05-01T06:34:40.98Z</time></trkpt><trkpt lat="43.0468272" lon="12.3184564"><ele>263.0</ele><time>2026-05-01T06:34:42.993Z</time></trkpt><trkpt lat="43.0467943" lon="12.318319"><ele>262.0</ele><time>2026-05-01T06:34:44.95Z</time></trkpt><trkpt lat="43.0467556" lon="12.3181714"><ele>261.0</ele><time>2026-05-01T06:34:46.952Z</time></trkpt><trkpt lat="43.0467294" lon="12.3180199"><ele>260.0</ele><time>2026-05-01T06:34:48.951Z</time></trkpt><trkpt lat="43.0467047" lon="12.3178594"><ele>260.5</ele><time>2026-05-01T06:34:50.95Z</time></trkpt><trkpt lat="43.0466719" lon="12.3177057"><ele>261.0</ele><time>2026-05-01T06:34:52.95Z</time></trkpt><trkpt lat="43.046636" lon="12.3175487"><ele>261.5</ele><time>2026-05-01T06:34:54.952Z</time></trkpt><trkpt lat="43.0466043" lon="12.3174036"><ele>262.0</ele><time>2026-05-01T06:34:56.963Z</time></trkpt><trkpt lat="43.0465708" lon="12.317263"><ele>260.6</ele><time>2026-05-01T06:34:58.95Z</time></trkpt><trkpt lat="43.0465326" lon="12.3171144"><ele>259.2</ele><time>2026-05-01T06:35:00.949Z</time></trkpt><trkpt lat="43.0464974" lon="12.316972"><ele>257.8</ele><time>2026-05-01T06:35:02.958Z</time></trkpt><trkpt lat="43.0464636" lon="12.3168286"><ele>256.4</ele><time>2026-05-01T06:35:04.95Z</time></trkpt><trkpt lat="43.0464267" lon="12.3166943"><ele>255.0</ele><time>2026-05-01T06:35:06.95Z</time></trkpt><trkpt lat="43.0463926" lon="12.3165567"><ele>255.0</ele><time>2026-05-01T06:35:08.95Z</time></trkpt><trkpt lat="43.0463576" lon="12.316411"><ele>255.0</ele><time>2026-05-01T06:35:10.953Z</time></trkpt><trkpt lat="43.0463192" lon="12.3162678"><ele>255.0</ele><time>2026-05-01T06:35:12.951Z</time></trkpt><trkpt lat="43.0462921" lon="12.3161166"><ele>255.0</ele><time>2026-05-01T06:35:14.958Z</time></trkpt><trkpt lat="43.0462571" lon="12.3159702"><ele>254.6</ele><time>2026-05-01T06:35:16.951Z</time></trkpt><trkpt lat="43.0462189" lon="12.3158298"><ele>254.2</ele><time>2026-05-01T06:35:18.948Z</time></trkpt><trkpt lat="43.0461858" lon="12.3156962"><ele>253.8</ele><time>2026-05-01T06:35:20.95Z</time></trkpt><trkpt lat="43.0461494" lon="12.3155609"><ele>253.4</ele><time>2026-05-01T06:35:22.951Z</time></trkpt><trkpt lat="43.0461049" lon="12.315432"><ele>253.0</ele><time>2026-05-01T06:35:24.952Z</time></trkpt><trkpt lat="43.0460669" lon="12.3152891"><ele>253.8</ele><time>2026-05-01T06:35:26.954Z</time></trkpt><trkpt lat="43.0460367" lon="12.3151526"><ele>254.60000000000002</ele><time>2026-05-01T06:35:28.961Z</time></trkpt><trkpt lat="43.0460109" lon="12.3150222"><ele>255.39999999999998</ele><time>2026-05-01T06:35:30.951Z</time></trkpt><trkpt lat="43.0459795" lon="12.3148955"><ele>256.2</ele><time>2026-05-01T06:35:32.962Z</time></trkpt><trkpt lat="43.0459417" lon="12.3147779"><ele>257.0</ele><time>2026-05-01T06:35:34.968Z</time></trkpt><trkpt lat="43.045907" lon="12.3146566"><ele>257.0</ele><time>2026-05-01T06:35:37Z</time></trkpt><trkpt lat="43.0458806" lon="12.3145308"><ele>257.0</ele><time>2026-05-01T06:35:38.974Z</time></trkpt><trkpt lat="43.0458588" lon="12.3144084"><ele>257.0</ele><time>2026-05-01T06:35:40.96Z</time></trkpt><trkpt lat="43.045826" lon="12.3142905"><ele>257.0</ele><time>2026-05-01T06:35:43Z</time></trkpt><trkpt lat="43.0457936" lon="12.3141698"><ele>257.0</ele><time>2026-05-01T06:35:44.977Z</time></trkpt><trkpt lat="43.0457618" lon="12.3140589"><ele>257.2</ele><time>2026-05-01T06:35:46.977Z</time></trkpt><trkpt lat="43.0457272" lon="12.3139092"><ele>257.4</ele><time>2026-05-01T06:35:49.862Z</time></trkpt><trkpt lat="43.0456708" lon="12.3138089"><ele>257.6</ele><time>2026-05-01T06:35:51.968Z</time></trkpt><trkpt lat="43.0456495" lon="12.3136877"><ele>257.8</ele><time>2026-05-01T06:35:53.992Z</time></trkpt><trkpt lat="43.0456321" lon="12.3135688"><ele>258.0</ele><time>2026-05-01T06:35:55.98Z</time></trkpt><trkpt lat="43.0456097" lon="12.3134505"><ele>258.0</ele><time>2026-05-01T06:35:57.964Z</time></trkpt><trkpt lat="43.0455837" lon="12.3133324"><ele>258.0</ele><time>2026-05-01T06:35:59.955Z</time></trkpt><trkpt lat="43.045556" lon="12.3132182"><ele>258.0</ele><time>2026-05-01T06:36:01.967Z</time></trkpt><trkpt lat="43.0455344" lon="12.3130989"><ele>258.0</ele><time>2026-05-01T06:36:03.971Z</time></trkpt><trkpt lat="43.0455098" lon="12.3129908"><ele>258.0</ele><time>2026-05-01T06:36:05.805Z</time></trkpt><trkpt lat="43.0454748" lon="12.312857"><ele>257.2</ele><time>2026-05-01T06:36:07.973Z</time></trkpt><trkpt lat="43.0454529" lon="12.312727"><ele>256.4</ele><time>2026-05-01T06:36:09.988Z</time></trkpt><trkpt lat="43.0454223" lon="12.3126076"><ele>255.59999999999997</ele><time>2026-05-01T06:36:11.959Z</time></trkpt><trkpt lat="43.0453985" lon="12.3124876"><ele>254.79999999999998</ele><time>2026-05-01T06:36:13.97Z</time></trkpt><trkpt lat="43.0453657" lon="12.3123734"><ele>254.0</ele><time>2026-05-01T06:36:15.981Z</time></trkpt><trkpt lat="43.0453388" lon="12.3122635"><ele>253.66666666666669</ele><time>2026-05-01T06:36:17.96Z</time></trkpt><trkpt lat="43.0453077" lon="12.3121568"><ele>253.33333333333334</ele><time>2026-05-01T06:36:19.972Z</time></trkpt><trkpt lat="43.0452861" lon="12.3120585"><ele>253.0</ele><time>2026-05-01T06:36:21.966Z</time></trkpt><trkpt lat="43.0452558" lon="12.3119483"><ele>252.66666666666669</ele><time>2026-05-01T06:36:24.97Z</time></trkpt><trkpt lat="43.0452825" lon="12.3118547"><ele>252.33333333333334</ele><time>2026-05-01T06:36:28.966Z</time></trkpt><trkpt lat="43.0453707" lon="12.3118186"><ele>252.0</ele><time>2026-05-01T06:36:31.936Z</time></trkpt><trkpt lat="43.0454464" lon="12.3117991"><ele>252.0</ele><time>2026-05-01T06:36:33.879Z</time></trkpt><trkpt lat="43.0455329" lon="12.3117588"><ele>252.0</ele><time>2026-05-01T06:36:35.963Z</time></trkpt><trkpt lat="43.0456144" lon="12.3117205"><ele>252.0</ele><time>2026-05-01T06:36:37.955Z</time></trkpt><trkpt lat="43.045693" lon="12.3116796"><ele>252.0</ele><time>2026-05-01T06:36:40.031Z</time></trkpt><trkpt lat="43.0457681" lon="12.3116406"><ele>252.0</ele><time>2026-05-01T06:36:41.978Z</time></trkpt><trkpt lat="43.045843" lon="12.3115901"><ele>252.0</ele><time>2026-05-01T06:36:43.966Z</time></trkpt><trkpt lat="43.0459187" lon="12.3115288"><ele>251.66666666666666</ele><time>2026-05-01T06:36:45.984Z</time></trkpt><trkpt lat="43.0460002" lon="12.3114659"><ele>251.33333333333331</ele><time>2026-05-01T06:36:47.951Z</time></trkpt><trkpt lat="43.0460712" lon="12.3113992"><ele>251.0</ele><time>2026-05-01T06:36:49.976Z</time></trkpt><trkpt lat="43.0461505" lon="12.3113342"><ele>250.66666666666666</ele><time>2026-05-01T06:36:51.963Z</time></trkpt><trkpt lat="43.0462255" lon="12.3112841"><ele>250.33333333333331</ele><time>2026-05-01T06:36:53.907Z</time></trkpt><trkpt lat="43.0463037" lon="12.3112356"><ele>250.0</ele><time>2026-05-01T06:36:55.97Z</time></trkpt><trkpt lat="43.0463822" lon="12.3111793"><ele>250.0</ele><time>2026-05-01T06:36:57.974Z</time></trkpt><trkpt lat="43.0464684" lon="12.3111303"><ele>250.0</ele><time>2026-05-01T06:36:59.968Z</time></trkpt><trkpt lat="43.0465533" lon="12.3110716"><ele>250.0</ele><time>2026-05-01T06:37:01.97Z</time></trkpt><trkpt lat="43.0466396" lon="12.3110007"><ele>250.0</ele><time>2026-05-01T06:37:03.978Z</time></trkpt><trkpt lat="43.0467178" lon="12.3109293"><ele>250.0</ele><time>2026-05-01T06:37:05.967Z</time></trkpt><trkpt lat="43.0467944" lon="12.3108556"><ele>250.0</ele><time>2026-05-01T06:37:07.969Z</time></trkpt><trkpt lat="43.0468673" lon="12.3107734"><ele>250.0</ele><time>2026-05-01T06:37:09.969Z</time></trkpt><trkpt lat="43.0469335" lon="12.3106748"><ele>250.0</ele><time>2026-05-01T06:37:11.966Z</time></trkpt><trkpt lat="43.0470115" lon="12.3105856"><ele>250.0</ele><time>2026-05-01T06:37:13.97Z</time></trkpt><trkpt lat="43.047084" lon="12.3105017"><ele>250.0</ele><time>2026-05-01T06:37:15.952Z</time></trkpt><trkpt lat="43.0471569" lon="12.3104201"><ele>249.4</ele><time>2026-05-01T06:37:17.968Z</time></trkpt><trkpt lat="43.0472297" lon="12.310341"><ele>248.8</ele><time>2026-05-01T06:37:19.974Z</time></trkpt><trkpt lat="43.0473005" lon="12.3102718"><ele>248.2</ele><time>2026-05-01T06:37:21.972Z</time></trkpt><trkpt lat="43.0473568" lon="12.3101985"><ele>247.6</ele><time>2026-05-01T06:37:23.969Z</time></trkpt><trkpt lat="43.0473688" lon="12.3100596"><ele>247.0</ele><time>2026-05-01T06:37:25.974Z</time></trkpt><trkpt lat="43.0473286" lon="12.3099393"><ele>246.99999999999997</ele><time>2026-05-01T06:37:27.973Z</time></trkpt><trkpt lat="43.0472762" lon="12.3098084"><ele>247.0</ele><time>2026-05-01T06:37:29.972Z</time></trkpt><trkpt lat="43.0472178" lon="12.3096621"><ele>247.0</ele><time>2026-05-01T06:37:31.973Z</time></trkpt><trkpt lat="43.0471875" lon="12.3095817"><ele>247.0</ele><time>2026-05-01T06:37:33Z</time></trkpt><trkpt lat="43.0471595" lon="12.3095023"><ele>246.99999999999997</ele><time>2026-05-01T06:37:33.97Z</time></trkpt><trkpt lat="43.047125" lon="12.3094219"><ele>247.0</ele><time>2026-05-01T06:37:34.968Z</time></trkpt><trkpt lat="43.0470919" lon="12.3093325"><ele>246.39999999999998</ele><time>2026-05-01T06:37:35.959Z</time></trkpt><trkpt lat="43.047062" lon="12.3092481"><ele>245.79999999999998</ele><time>2026-05-01T06:37:36.951Z</time></trkpt><trkpt lat="43.0470345" lon="12.3091651"><ele>245.2</ele><time>2026-05-01T06:37:37.957Z</time></trkpt><trkpt lat="43.0469798" lon="12.3090134"><ele>244.6</ele><time>2026-05-01T06:37:39.972Z</time></trkpt><trkpt lat="43.0469309" lon="12.3088672"><ele>244.0</ele><time>2026-05-01T06:37:41.972Z</time></trkpt><trkpt lat="43.0468765" lon="12.3087412"><ele>243.83333333333331</ele><time>2026-05-01T06:37:43.973Z</time></trkpt><trkpt lat="43.0468303" lon="12.3086278"><ele>243.66666666666666</ele><time>2026-05-01T06:37:45.962Z</time></trkpt><trkpt lat="43.046787" lon="12.3085134"><ele>243.5</ele><time>2026-05-01T06:37:47.958Z</time></trkpt><trkpt lat="43.0467442" lon="12.3084082"><ele>243.33333333333331</ele><time>2026-05-01T06:37:49.959Z</time></trkpt><trkpt lat="43.0467037" lon="12.308309"><ele>243.16666666666666</ele><time>2026-05-01T06:37:51.954Z</time></trkpt><trkpt lat="43.0466688" lon="12.3082033"><ele>243.0</ele><time>2026-05-01T06:37:53.961Z</time></trkpt><trkpt lat="43.0466372" lon="12.308099"><ele>243.33333333333334</ele><time>2026-05-01T06:37:56Z</time></trkpt><trkpt lat="43.0466313" lon="12.3080112"><ele>243.66666666666669</ele><time>2026-05-01T06:37:57.958Z</time></trkpt><trkpt lat="43.0466561" lon="12.3078953"><ele>244.0</ele><time>2026-05-01T06:37:59.94Z</time></trkpt><trkpt lat="43.0466146" lon="12.3078304"><ele>244.33333333333334</ele><time>2026-05-01T06:38:00.863Z</time></trkpt><trkpt lat="43.046612" lon="12.3076867"><ele>244.66666666666669</ele><time>2026-05-01T06:38:02.968Z</time></trkpt><trkpt lat="43.0466249" lon="12.3075673"><ele>245.0</ele><time>2026-05-01T06:38:04.958Z</time></trkpt><trkpt lat="43.0466212" lon="12.3074432"><ele>246.50000000000003</ele><time>2026-05-01T06:38:06.957Z</time></trkpt><trkpt lat="43.0466207" lon="12.3073173"><ele>248.0</ele><time>2026-05-01T06:38:08.944Z</time></trkpt><trkpt lat="43.0466199" lon="12.3072016"><ele>249.5</ele><time>2026-05-01T06:38:10.955Z</time></trkpt><trkpt lat="43.0466146" lon="12.3071021"><ele>251.0</ele><time>2026-05-01T06:38:12.952Z</time></trkpt><trkpt lat="43.0466103" lon="12.3069957"><ele>252.50000000000003</ele><time>2026-05-01T06:38:14.972Z</time></trkpt><trkpt lat="43.0466025" lon="12.3068889"><ele>254.0</ele><time>2026-05-01T06:38:16.974Z</time></trkpt><trkpt lat="43.0465842" lon="12.3067657"><ele>254.83333333333334</ele><time>2026-05-01T06:38:19.32Z</time></trkpt><trkpt lat="43.0465599" lon="12.3066405"><ele>255.66666666666669</ele><time>2026-05-01T06:38:21.722Z</time></trkpt><trkpt lat="43.0465368" lon="12.3065107"><ele>256.5</ele><time>2026-05-01T06:38:23.99Z</time></trkpt><trkpt lat="43.0465233" lon="12.3064076"><ele>257.3333333333333</ele><time>2026-05-01T06:38:25.93Z</time></trkpt><trkpt lat="43.0465155" lon="12.3062875"><ele>258.16666666666663</ele><time>2026-05-01T06:38:27.977Z</time></trkpt><trkpt lat="43.0464986" lon="12.3061684"><ele>259.0</ele><time>2026-05-01T06:38:29.979Z</time></trkpt><trkpt lat="43.0464794" lon="12.306053"><ele>259.16666666666663</ele><time>2026-05-01T06:38:31.97Z</time></trkpt><trkpt lat="43.0464677" lon="12.3059394"><ele>259.3333333333333</ele><time>2026-05-01T06:38:33.965Z</time></trkpt><trkpt lat="43.0464791" lon="12.3058186"><ele>259.5</ele><time>2026-05-01T06:38:35.964Z</time></trkpt><trkpt lat="43.046506" lon="12.3056989"><ele>259.6666666666667</ele><time>2026-05-01T06:38:37.968Z</time></trkpt><trkpt lat="43.0465289" lon="12.3055795"><ele>259.83333333333337</ele><time>2026-05-01T06:38:39.973Z</time></trkpt><trkpt lat="43.0465454" lon="12.3054764"><ele>260.0</ele><time>2026-05-01T06:38:42.071Z</time></trkpt><trkpt lat="43.0465654" lon="12.305329"><ele>260.0</ele><time>2026-05-01T06:38:44.554Z</time></trkpt><trkpt lat="43.0465843" lon="12.3051961"><ele>260.0</ele><time>2026-05-01T06:38:46.957Z</time></trkpt><trkpt lat="43.0466038" lon="12.3050869"><ele>260.0</ele><time>2026-05-01T06:38:48.966Z</time></trkpt><trkpt lat="43.0466175" lon="12.3049686"><ele>260.0</ele><time>2026-05-01T06:38:50.953Z</time></trkpt><trkpt lat="43.0466287" lon="12.3048561"><ele>260.0</ele><time>2026-05-01T06:38:52.937Z</time></trkpt><trkpt lat="43.0466396" lon="12.3047626"><ele>260.0</ele><time>2026-05-01T06:38:54.967Z</time></trkpt><trkpt lat="43.0466603" lon="12.304681"><ele>260.5</ele><time>2026-05-01T06:38:56.969Z</time></trkpt><trkpt lat="43.0466771" lon="12.304597"><ele>261.0</ele><time>2026-05-01T06:38:58.928Z</time></trkpt><trkpt lat="43.0466965" lon="12.3044721"><ele>261.5</ele><time>2026-05-01T06:39:01.95Z</time></trkpt><trkpt lat="43.0467128" lon="12.3043834"><ele>262.0</ele><time>2026-05-01T06:39:03.953Z</time></trkpt><trkpt lat="43.0467149" lon="12.3042877"><ele>262.5</ele><time>2026-05-01T06:39:05.959Z</time></trkpt><trkpt lat="43.0467251" lon="12.3041846"><ele>263.0</ele><time>2026-05-01T06:39:08.007Z</time></trkpt><trkpt lat="43.0467441" lon="12.3040724"><ele>263.0</ele><time>2026-05-01T06:39:09.959Z</time></trkpt><trkpt lat="43.0467713" lon="12.3039566"><ele>263.0</ele><time>2026-05-01T06:39:11.969Z</time></trkpt><trkpt lat="43.0467966" lon="12.3038544"><ele>263.0</ele><time>2026-05-01T06:39:14.042Z</time></trkpt><trkpt lat="43.0468034" lon="12.3037533"><ele>263.0</ele><time>2026-05-01T06:39:15.969Z</time></trkpt><trkpt lat="43.0467997" lon="12.3036542"><ele>263.0</ele><time>2026-05-01T06:39:17.936Z</time></trkpt><trkpt lat="43.0467854" lon="12.3035514"><ele>263.0</ele><time>2026-05-01T06:39:19.999Z</time></trkpt><trkpt lat="43.0467699" lon="12.303454"><ele>263.1428571428571</ele><time>2026-05-01T06:39:21.878Z</time></trkpt><trkpt lat="43.0467626" lon="12.3033581"><ele>263.2857142857143</ele><time>2026-05-01T06:39:23.962Z</time></trkpt><trkpt lat="43.0467644" lon="12.3032609"><ele>263.42857142857144</ele><time>2026-05-01T06:39:25.961Z</time></trkpt><trkpt lat="43.0467744" lon="12.303165"><ele>263.57142857142856</ele><time>2026-05-01T06:39:27.968Z</time></trkpt><trkpt lat="43.0467849" lon="12.303075"><ele>263.7142857142857</ele><time>2026-05-01T06:39:29.96Z</time></trkpt><trkpt lat="43.0467901" lon="12.3029866"><ele>263.85714285714283</ele><time>2026-05-01T06:39:31.897Z</time></trkpt><trkpt lat="43.0467438" lon="12.3028804"><ele>264.0</ele><time>2026-05-01T06:39:34.972Z</time></trkpt><trkpt lat="43.0467024" lon="12.3027804"><ele>264.1666666666667</ele><time>2026-05-01T06:39:37.956Z</time></trkpt><trkpt lat="43.0466517" lon="12.3026735"><ele>264.3333333333333</ele><time>2026-05-01T06:39:40.969Z</time></trkpt><trkpt lat="43.0466147" lon="12.3025941"><ele>264.5</ele><time>2026-05-01T06:39:42.956Z</time></trkpt><trkpt lat="43.0465721" lon="12.3025043"><ele>264.66666666666663</ele><time>2026-05-01T06:39:44.998Z</time></trkpt><trkpt lat="43.0465239" lon="12.3024142"><ele>264.8333333333333</ele><time>2026-05-01T06:39:46.955Z</time></trkpt><trkpt lat="43.0464695" lon="12.3023267"><ele>265.0</ele><time>2026-05-01T06:39:48.963Z</time></trkpt><trkpt lat="43.0464288" lon="12.3022391"><ele>265.1428571428571</ele><time>2026-05-01T06:39:50.98Z</time></trkpt><trkpt lat="43.0463942" lon="12.3021539"><ele>265.2857142857143</ele><time>2026-05-01T06:39:52.973Z</time></trkpt><trkpt lat="43.0463599" lon="12.3020695"><ele>265.42857142857144</ele><time>2026-05-01T06:39:54.983Z</time></trkpt><trkpt lat="43.0463246" lon="12.3019858"><ele>265.57142857142856</ele><time>2026-05-01T06:39:56.97Z</time></trkpt><trkpt lat="43.0462833" lon="12.3018974"><ele>265.7142857142857</ele><time>2026-05-01T06:39:58.952Z</time></trkpt><trkpt lat="43.0462365" lon="12.3018049"><ele>265.85714285714283</ele><time>2026-05-01T06:40:00.964Z</time></trkpt><trkpt lat="43.046192" lon="12.3017216"><ele>266.0</ele><time>2026-05-01T06:40:02.873Z</time></trkpt><trkpt lat="43.0461406" lon="12.3016348"><ele>266.0</ele><time>2026-05-01T06:40:04.956Z</time></trkpt><trkpt lat="43.0460861" lon="12.3015488"><ele>266.0</ele><time>2026-05-01T06:40:06.948Z</time></trkpt><trkpt lat="43.0460352" lon="12.301467"><ele>266.0</ele><time>2026-05-01T06:40:08.872Z</time></trkpt><trkpt lat="43.0459941" lon="12.3013834"><ele>266.0</ele><time>2026-05-01T06:40:10.95Z</time></trkpt><trkpt lat="43.0459556" lon="12.3012895"><ele>266.0</ele><time>2026-05-01T06:40:12.95Z</time></trkpt><trkpt lat="43.0459113" lon="12.3011998"><ele>266.0</ele><time>2026-05-01T06:40:14.949Z</time></trkpt><trkpt lat="43.0458658" lon="12.3010813"><ele>266.0</ele><time>2026-05-01T06:40:17.471Z</time></trkpt><trkpt lat="43.04581" lon="12.3009646"><ele>266.0</ele><time>2026-05-01T06:40:19.948Z</time></trkpt><trkpt lat="43.0457625" lon="12.3008613"><ele>266.0</ele><time>2026-05-01T06:40:21.956Z</time></trkpt><trkpt lat="43.0457152" lon="12.3007554"><ele>266.0</ele><time>2026-05-01T06:40:23.955Z</time></trkpt><trkpt lat="43.0456625" lon="12.3006538"><ele>266.0</ele><time>2026-05-01T06:40:25.955Z</time></trkpt><trkpt lat="43.0456203" lon="12.30057"><ele>266.0</ele><time>2026-05-01T06:40:27.949Z</time></trkpt><trkpt lat="43.0455829" lon="12.3004898"><ele>265.83333333333337</ele><time>2026-05-01T06:40:29.959Z</time></trkpt><trkpt lat="43.0455449" lon="12.300409"><ele>265.6666666666667</ele><time>2026-05-01T06:40:31.979Z</time></trkpt><trkpt lat="43.0455024" lon="12.3003345"><ele>265.5</ele><time>2026-05-01T06:40:33.997Z</time></trkpt><trkpt lat="43.0454619" lon="12.3002468"><ele>265.3333333333333</ele><time>2026-05-01T06:40:35.974Z</time></trkpt><trkpt lat="43.0454026" lon="12.3001561"><ele>265.16666666666663</ele><time>2026-05-01T06:40:37.971Z</time></trkpt><trkpt lat="43.0453346" lon="12.3000817"><ele>265.0</ele><time>2026-05-01T06:40:40.97Z</time></trkpt><trkpt lat="43.0452841" lon="12.2999714"><ele>265.0</ele><time>2026-05-01T06:40:42.966Z</time></trkpt><trkpt lat="43.0452426" lon="12.2998665"><ele>265.0</ele><time>2026-05-01T06:40:44.969Z</time></trkpt><trkpt lat="43.0452048" lon="12.2997657"><ele>265.0</ele><time>2026-05-01T06:40:46.966Z</time></trkpt><trkpt lat="43.0451593" lon="12.2996646"><ele>265.0</ele><time>2026-05-01T06:40:48.954Z</time></trkpt><trkpt lat="43.0451198" lon="12.2995702"><ele>265.0</ele><time>2026-05-01T06:40:50.996Z</time></trkpt><trkpt lat="43.0450792" lon="12.2994855"><ele>265.0</ele><time>2026-05-01T06:40:52.703Z</time></trkpt><trkpt lat="43.0449947" lon="12.2994347"><ele>264.8333333333333</ele><time>2026-05-01T06:40:54.97Z</time></trkpt><trkpt lat="43.0449133" lon="12.2994578"><ele>264.66666666666663</ele><time>2026-05-01T06:40:56.969Z</time></trkpt><trkpt lat="43.0448341" lon="12.299501"><ele>264.5</ele><time>2026-05-01T06:40:58.967Z</time></trkpt><trkpt lat="43.0447572" lon="12.2995401"><ele>264.3333333333333</ele><time>2026-05-01T06:41:00.969Z</time></trkpt><trkpt lat="43.0446829" lon="12.2995792"><ele>264.1666666666667</ele><time>2026-05-01T06:41:03.007Z</time></trkpt><trkpt lat="43.0446155" lon="12.2996296"><ele>264.0</ele><time>2026-05-01T06:41:04.82Z</time></trkpt><trkpt lat="43.0445323" lon="12.2996857"><ele>264.0</ele><time>2026-05-01T06:41:06.988Z</time></trkpt><trkpt lat="43.0444565" lon="12.2997342"><ele>264.0</ele><time>2026-05-01T06:41:08.92Z</time></trkpt><trkpt lat="43.0443733" lon="12.299793"><ele>264.0</ele><time>2026-05-01T06:41:10.973Z</time></trkpt><trkpt lat="43.0442923" lon="12.2998529"><ele>264.0</ele><time>2026-05-01T06:41:12.961Z</time></trkpt><trkpt lat="43.044212" lon="12.2999141"><ele>264.0</ele><time>2026-05-01T06:41:14.961Z</time></trkpt><trkpt lat="43.0441264" lon="12.2999809"><ele>263.8333333333333</ele><time>2026-05-01T06:41:16.969Z</time></trkpt><trkpt lat="43.0440449" lon="12.300047"><ele>263.6666666666667</ele><time>2026-05-01T06:41:18.967Z</time></trkpt><trkpt lat="43.0439652" lon="12.3001099"><ele>263.5</ele><time>2026-05-01T06:41:21.024Z</time></trkpt><trkpt lat="43.0438947" lon="12.3001555"><ele>263.33333333333337</ele><time>2026-05-01T06:41:22.982Z</time></trkpt><trkpt lat="43.0438219" lon="12.3001966"><ele>263.1666666666667</ele><time>2026-05-01T06:41:24.97Z</time></trkpt><trkpt lat="43.0437437" lon="12.3002275"><ele>263.0</ele><time>2026-05-01T06:41:26.967Z</time></trkpt><trkpt lat="43.0436665" lon="12.3002451"><ele>263.0</ele><time>2026-05-01T06:41:28.917Z</time></trkpt><trkpt lat="43.0435715" lon="12.3002559"><ele>263.0</ele><time>2026-05-01T06:41:30.96Z</time></trkpt><trkpt lat="43.0434712" lon="12.3002421"><ele>263.0</ele><time>2026-05-01T06:41:32.961Z</time></trkpt><trkpt lat="43.0433781" lon="12.3002165"><ele>263.0</ele><time>2026-05-01T06:41:34.968Z</time></trkpt><trkpt lat="43.0432911" lon="12.3001943"><ele>263.0</ele><time>2026-05-01T06:41:36.965Z</time></trkpt><trkpt lat="43.0432007" lon="12.3002148"><ele>262.6</ele><time>2026-05-01T06:41:39.95Z</time></trkpt><trkpt lat="43.0431078" lon="12.3001858"><ele>262.20000000000005</ele><time>2026-05-01T06:41:41.954Z</time></trkpt><trkpt lat="43.0430099" lon="12.3001634"><ele>261.8</ele><time>2026-05-01T06:41:43.949Z</time></trkpt><trkpt lat="43.0429211" lon="12.3001507"><ele>261.40000000000003</ele><time>2026-05-01T06:41:45.949Z</time></trkpt><trkpt lat="43.0428396" lon="12.3001296"><ele>261.0</ele><time>2026-05-01T06:41:47.959Z</time></trkpt><trkpt lat="43.0427096" lon="12.3001378"><ele>261.0</ele><time>2026-05-01T06:41:49.951Z</time></trkpt><trkpt lat="43.0426461" lon="12.3001618"><ele>261.0</ele><time>2026-05-01T06:41:50.953Z</time></trkpt><trkpt lat="43.0425622" lon="12.3002521"><ele>261.0</ele><time>2026-05-01T06:41:52.951Z</time></trkpt><trkpt lat="43.0425114" lon="12.3003469"><ele>261.0</ele><time>2026-05-01T06:41:54.954Z</time></trkpt><trkpt lat="43.042473" lon="12.3004416"><ele>261.0</ele><time>2026-05-01T06:41:56.952Z</time></trkpt><trkpt lat="43.0424172" lon="12.3005188"><ele>261.0</ele><time>2026-05-01T06:41:59.861Z</time></trkpt><trkpt lat="43.0423515" lon="12.3006299"><ele>260.8333333333333</ele><time>2026-05-01T06:42:01.953Z</time></trkpt><trkpt lat="43.0423047" lon="12.3007175"><ele>260.6666666666667</ele><time>2026-05-01T06:42:03.951Z</time></trkpt><trkpt lat="43.042265" lon="12.3008145"><ele>260.5</ele><time>2026-05-01T06:42:05.953Z</time></trkpt><trkpt lat="43.04223" lon="12.300908"><ele>260.33333333333337</ele><time>2026-05-01T06:42:07.956Z</time></trkpt><trkpt lat="43.0422004" lon="12.3010012"><ele>260.1666666666667</ele><time>2026-05-01T06:42:09.954Z</time></trkpt><trkpt lat="43.0421586" lon="12.301083"><ele>260.0</ele><time>2026-05-01T06:42:11.947Z</time></trkpt><trkpt lat="43.0421059" lon="12.3011522"><ele>260.0</ele><time>2026-05-01T06:42:13.952Z</time></trkpt><trkpt lat="43.0420484" lon="12.3012217"><ele>260.0</ele><time>2026-05-01T06:42:15.954Z</time></trkpt><trkpt lat="43.0419893" lon="12.3012919"><ele>260.0</ele><time>2026-05-01T06:42:17.961Z</time></trkpt><trkpt lat="43.0419354" lon="12.3013592"><ele>260.0</ele><time>2026-05-01T06:42:19.933Z</time></trkpt><trkpt lat="43.0418763" lon="12.3014283"><ele>260.0</ele><time>2026-05-01T06:42:21.961Z</time></trkpt><trkpt lat="43.0418125" lon="12.3014955"><ele>260.0</ele><time>2026-05-01T06:42:23.957Z</time></trkpt><trkpt lat="43.0417524" lon="12.3015592"><ele>260.1666666666667</ele><time>2026-05-01T06:42:25.938Z</time></trkpt><trkpt lat="43.0416904" lon="12.3016276"><ele>260.33333333333337</ele><time>2026-05-01T06:42:27.967Z</time></trkpt><trkpt lat="43.0416318" lon="12.301696"><ele>260.5</ele><time>2026-05-01T06:42:29.999Z</time></trkpt><trkpt lat="43.0415679" lon="12.3017722"><ele>260.6666666666667</ele><time>2026-05-01T06:42:31.959Z</time></trkpt><trkpt lat="43.0415039" lon="12.3018398"><ele>260.8333333333333</ele><time>2026-05-01T06:42:33.94Z</time></trkpt><trkpt lat="43.0414431" lon="12.3019027"><ele>261.0</ele><time>2026-05-01T06:42:35.857Z</time></trkpt><trkpt lat="43.0413782" lon="12.301972"><ele>261.0</ele><time>2026-05-01T06:42:37.978Z</time></trkpt><trkpt lat="43.0413076" lon="12.3020421"><ele>261.0</ele><time>2026-05-01T06:42:39.966Z</time></trkpt><trkpt lat="43.0412038" lon="12.3021057"><ele>261.0</ele><time>2026-05-01T06:42:41.969Z</time></trkpt><trkpt lat="43.0411395" lon="12.3021633"><ele>261.0</ele><time>2026-05-01T06:42:43.941Z</time></trkpt><trkpt lat="43.0410384" lon="12.3022451"><ele>261.0</ele><time>2026-05-01T06:42:45.969Z</time></trkpt><trkpt lat="43.0409408" lon="12.3023428"><ele>260.6666666666667</ele><time>2026-05-01T06:42:47.975Z</time></trkpt><trkpt lat="43.0408552" lon="12.302387"><ele>260.3333333333333</ele><time>2026-05-01T06:42:49.969Z</time></trkpt><trkpt lat="43.0407723" lon="12.3024104"><ele>260.0</ele><time>2026-05-01T06:42:51.975Z</time></trkpt><trkpt lat="43.0406663" lon="12.3024187"><ele>259.66666666666663</ele><time>2026-05-01T06:42:53.96Z</time></trkpt><trkpt lat="43.0405975" lon="12.302446"><ele>259.3333333333333</ele><time>2026-05-01T06:42:54.99Z</time></trkpt><trkpt lat="43.0405373" lon="12.3024832"><ele>259.0</ele><time>2026-05-01T06:42:55.969Z</time></trkpt><trkpt lat="43.0404709" lon="12.3025141"><ele>258.0</ele><time>2026-05-01T06:42:56.95Z</time></trkpt><trkpt lat="43.0403909" lon="12.3025495"><ele>257.0</ele><time>2026-05-01T06:42:57.972Z</time></trkpt><trkpt lat="43.0403221" lon="12.302576"><ele>256.0</ele><time>2026-05-01T06:42:58.971Z</time></trkpt><trkpt lat="43.0402639" lon="12.302609"><ele>255.0</ele><time>2026-05-01T06:42:59.971Z</time></trkpt><trkpt lat="43.0401934" lon="12.3026438"><ele>253.99999999999997</ele><time>2026-05-01T06:43:00.977Z</time></trkpt><trkpt lat="43.0401103" lon="12.3026751"><ele>253.0</ele><time>2026-05-01T06:43:01.959Z</time></trkpt><trkpt lat="43.0400324" lon="12.3027069"><ele>251.28571428571433</ele><time>2026-05-01T06:43:02.968Z</time></trkpt><trkpt lat="43.0399588" lon="12.3027421"><ele>249.57142857142858</ele><time>2026-05-01T06:43:03.968Z</time></trkpt><trkpt lat="43.0398947" lon="12.3027631"><ele>247.8571428571429</ele><time>2026-05-01T06:43:04.972Z</time></trkpt><trkpt lat="43.0398288" lon="12.3027863"><ele>246.14285714285717</ele><time>2026-05-01T06:43:05.969Z</time></trkpt><trkpt lat="43.0397421" lon="12.3028161"><ele>244.42857142857144</ele><time>2026-05-01T06:43:06.972Z</time></trkpt><trkpt lat="43.0396736" lon="12.3028461"><ele>242.71428571428572</ele><time>2026-05-01T06:43:07.971Z</time></trkpt><trkpt lat="43.0396055" lon="12.3028806"><ele>241.0</ele><time>2026-05-01T06:43:08.969Z</time></trkpt><trkpt lat="43.0395278" lon="12.3029072"><ele>240.99999999999997</ele><time>2026-05-01T06:43:09.965Z</time></trkpt><trkpt lat="43.0394424" lon="12.302946"><ele>241.0</ele><time>2026-05-01T06:43:10.971Z</time></trkpt><trkpt lat="43.0393635" lon="12.3029894"><ele>241.0</ele><time>2026-05-01T06:43:11.969Z</time></trkpt><trkpt lat="43.0392912" lon="12.3030346"><ele>241.0</ele><time>2026-05-01T06:43:12.969Z</time></trkpt><trkpt lat="43.0392259" lon="12.3030691"><ele>240.99999999999997</ele><time>2026-05-01T06:43:13.965Z</time></trkpt><trkpt lat="43.0391634" lon="12.3031024"><ele>241.0</ele><time>2026-05-01T06:43:14.971Z</time></trkpt><trkpt lat="43.0390898" lon="12.3031243"><ele>240.16666666666666</ele><time>2026-05-01T06:43:15.965Z</time></trkpt><trkpt lat="43.0390268" lon="12.3031651"><ele>239.33333333333331</ele><time>2026-05-01T06:43:16.97Z</time></trkpt><trkpt lat="43.0389686" lon="12.3032027"><ele>238.5</ele><time>2026-05-01T06:43:18Z</time></trkpt><trkpt lat="43.0388825" lon="12.3032814"><ele>237.66666666666669</ele><time>2026-05-01T06:43:19.971Z</time></trkpt><trkpt lat="43.0388206" lon="12.3033415"><ele>236.83333333333334</ele><time>2026-05-01T06:43:21.97Z</time></trkpt><trkpt lat="43.0387155" lon="12.3034163"><ele>236.0</ele><time>2026-05-01T06:44:21.968Z</time></trkpt><trkpt lat="43.0386507" lon="12.303481"><ele>236.0</ele><time>2026-05-01T06:44:35.97Z</time></trkpt><trkpt lat="43.0385894" lon="12.3035216"><ele>236.0</ele><time>2026-05-01T06:44:37.969Z</time></trkpt><trkpt lat="43.0385291" lon="12.3035488"><ele>236.0</ele><time>2026-05-01T06:44:39.953Z</time></trkpt><trkpt lat="43.0384476" lon="12.303565"><ele>236.0</ele><time>2026-05-01T06:44:42.969Z</time></trkpt><trkpt lat="43.0383807" lon="12.3035767"><ele>236.0</ele><time>2026-05-01T06:44:44.969Z</time></trkpt><trkpt lat="43.038296" lon="12.3035704"><ele>236.0</ele><time>2026-05-01T06:44:48Z</time></trkpt><trkpt lat="43.0382261" lon="12.3035685"><ele>236.0</ele><time>2026-05-01T06:44:49.967Z</time></trkpt><trkpt lat="43.0381549" lon="12.303568"><ele>236.33333333333334</ele><time>2026-05-01T06:44:51.967Z</time></trkpt><trkpt lat="43.0380666" lon="12.3035867"><ele>236.66666666666669</ele><time>2026-05-01T06:44:53.965Z</time></trkpt><trkpt lat="43.0379839" lon="12.3036006"><ele>237.0</ele><time>2026-05-01T06:44:55.974Z</time></trkpt><trkpt lat="43.0379083" lon="12.3036099"><ele>237.33333333333331</ele><time>2026-05-01T06:44:57.96Z</time></trkpt><trkpt lat="43.0378296" lon="12.3036143"><ele>237.66666666666666</ele><time>2026-05-01T06:44:59.969Z</time></trkpt><trkpt lat="43.0377616" lon="12.3036226"><ele>238.0</ele><time>2026-05-01T06:45:01.969Z</time></trkpt><trkpt lat="43.0376769" lon="12.3036281"><ele>237.99999999999997</ele><time>2026-05-01T06:45:04.951Z</time></trkpt><trkpt lat="43.037606" lon="12.3036263"><ele>238.0</ele><time>2026-05-01T06:45:06.958Z</time></trkpt><trkpt lat="43.0375339" lon="12.3036401"><ele>238.0</ele><time>2026-05-01T06:45:08.97Z</time></trkpt><trkpt lat="43.0374549" lon="12.3036606"><ele>238.0</ele><time>2026-05-01T06:45:11.967Z</time></trkpt><trkpt lat="43.0373679" lon="12.3036724"><ele>237.99999999999997</ele><time>2026-05-01T06:45:14.972Z</time></trkpt><trkpt lat="43.0372782" lon="12.3036868"><ele>238.0</ele><time>2026-05-01T06:45:17.969Z</time></trkpt><trkpt lat="43.0372133" lon="12.3036971"><ele>239.0</ele><time>2026-05-01T06:45:19.969Z</time></trkpt><trkpt lat="43.0371472" lon="12.3037102"><ele>240.0</ele><time>2026-05-01T06:45:22Z</time></trkpt><trkpt lat="43.0370739" lon="12.3037137"><ele>241.0</ele><time>2026-05-01T06:45:23.952Z</time></trkpt><trkpt lat="43.0370091" lon="12.3037186"><ele>242.0</ele><time>2026-05-01T06:45:25.951Z</time></trkpt><trkpt lat="43.0369255" lon="12.3037031"><ele>243.0</ele><time>2026-05-01T06:45:28.969Z</time></trkpt><trkpt lat="43.0368614" lon="12.3037001"><ele>244.0</ele><time>2026-05-01T06:45:30.962Z</time></trkpt><trkpt lat="43.0367769" lon="12.3037108"><ele>245.0</ele><time>2026-05-01T06:45:33.951Z</time></trkpt><trkpt lat="43.0367055" lon="12.3037507"><ele>245.00000000000003</ele><time>2026-05-01T06:45:36.958Z</time></trkpt><trkpt lat="43.0366441" lon="12.3037804"><ele>245.0</ele><time>2026-05-01T06:45:38.952Z</time></trkpt><trkpt lat="43.0365787" lon="12.3038296"><ele>245.0</ele><time>2026-05-01T06:45:40.963Z</time></trkpt><trkpt lat="43.0364986" lon="12.3038831"><ele>245.0</ele><time>2026-05-01T06:45:43.957Z</time></trkpt><trkpt lat="43.0364406" lon="12.3039249"><ele>245.00000000000003</ele><time>2026-05-01T06:45:45.951Z</time></trkpt><trkpt lat="43.0363726" lon="12.3039718"><ele>245.0</ele><time>2026-05-01T06:45:48.965Z</time></trkpt><trkpt lat="43.0362945" lon="12.3040079"><ele>246.66666666666669</ele><time>2026-05-01T06:45:52.955Z</time></trkpt><trkpt lat="43.0362361" lon="12.3040508"><ele>248.33333333333334</ele><time>2026-05-01T06:45:54.954Z</time></trkpt><trkpt lat="43.0361588" lon="12.3041224"><ele>250.0</ele><time>2026-05-01T06:45:57.957Z</time></trkpt><trkpt lat="43.0360838" lon="12.3041935"><ele>251.66666666666669</ele><time>2026-05-01T06:46:00.95Z</time></trkpt><trkpt lat="43.0360225" lon="12.3042411"><ele>253.33333333333334</ele><time>2026-05-01T06:46:02.953Z</time></trkpt><trkpt lat="43.0359653" lon="12.30429"><ele>255.0</ele><time>2026-05-01T06:46:04.952Z</time></trkpt><trkpt lat="43.0359109" lon="12.3043409"><ele>255.0</ele><time>2026-05-01T06:46:06.949Z</time></trkpt><trkpt lat="43.0358436" lon="12.3044098"><ele>255.00000000000003</ele><time>2026-05-01T06:46:09.962Z</time></trkpt><trkpt lat="43.0357893" lon="12.3044555"><ele>255.0</ele><time>2026-05-01T06:46:11.951Z</time></trkpt><trkpt lat="43.0357134" lon="12.304501"><ele>255.0</ele><time>2026-05-01T06:46:14.956Z</time></trkpt><trkpt lat="43.0356512" lon="12.3045406"><ele>255.00000000000003</ele><time>2026-05-01T06:46:17.957Z</time></trkpt><trkpt lat="43.0355936" lon="12.3044771"><ele>255.0</ele><time>2026-05-01T06:46:20.958Z</time></trkpt><trkpt lat="43.0355482" lon="12.3044106"><ele>255.0</ele><time>2026-05-01T06:46:22.973Z</time></trkpt><trkpt lat="43.0354917" lon="12.3043134"><ele>255.0</ele><time>2026-05-01T06:46:25.975Z</time></trkpt><trkpt lat="43.0354334" lon="12.3042113"><ele>255.0</ele><time>2026-05-01T06:46:28.978Z</time></trkpt><trkpt lat="43.0353819" lon="12.3041215"><ele>255.0</ele><time>2026-05-01T06:46:31.968Z</time></trkpt><trkpt lat="43.0353431" lon="12.3040457"><ele>255.0</ele><time>2026-05-01T06:46:34.975Z</time></trkpt><trkpt lat="43.0352891" lon="12.3039338"><ele>255.0</ele><time>2026-05-01T06:46:37.957Z</time></trkpt><trkpt lat="43.0352532" lon="12.3038369"><ele>255.0</ele><time>2026-05-01T06:46:39.941Z</time></trkpt><trkpt lat="43.0352043" lon="12.3037329"><ele>255.0</ele><time>2026-05-01T06:46:42.986Z</time></trkpt><trkpt lat="43.0351332" lon="12.3036466"><ele>255.0</ele><time>2026-05-01T06:46:45.952Z</time></trkpt><trkpt lat="43.0350866" lon="12.3035687"><ele>255.0</ele><time>2026-05-01T06:46:47.949Z</time></trkpt><trkpt lat="43.0350405" lon="12.3034773"><ele>255.0</ele><time>2026-05-01T06:46:50.951Z</time></trkpt><trkpt lat="43.0349914" lon="12.3033864"><ele>255.0</ele><time>2026-05-01T06:46:53.969Z</time></trkpt><trkpt lat="43.0349728" lon="12.303296"><ele>255.0</ele><time>2026-05-01T06:47:00Z</time></trkpt><trkpt lat="43.0349145" lon="12.3032425"><ele>255.0</ele><time>2026-05-01T06:47:04.949Z</time></trkpt><trkpt lat="43.0348855" lon="12.3031552"><ele>255.00000000000003</ele><time>2026-05-01T06:47:08.951Z</time></trkpt><trkpt lat="43.0348568" lon="12.3030776"><ele>255.0</ele><time>2026-05-01T06:47:10.946Z</time></trkpt><trkpt lat="43.0348225" lon="12.3030016"><ele>255.0</ele><time>2026-05-01T06:47:12.948Z</time></trkpt><trkpt lat="43.034778" lon="12.302903"><ele>255.00000000000003</ele><time>2026-05-01T06:47:15.954Z</time></trkpt><trkpt lat="43.0347458" lon="12.3028229"><ele>255.0</ele><time>2026-05-01T06:47:17.958Z</time></trkpt><trkpt lat="43.0347363" lon="12.302737"><ele>255.0</ele><time>2026-05-01T06:47:20.953Z</time></trkpt><trkpt lat="43.0347473" lon="12.3026444"><ele>254.16666666666666</ele><time>2026-05-01T06:47:22.949Z</time></trkpt><trkpt lat="43.0347047" lon="12.3025409"><ele>253.33333333333331</ele><time>2026-05-01T06:47:24.948Z</time></trkpt><trkpt lat="43.0346408" lon="12.3024412"><ele>252.5</ele><time>2026-05-01T06:47:26.959Z</time></trkpt><trkpt lat="43.034585" lon="12.3023468"><ele>251.66666666666666</ele><time>2026-05-01T06:47:28.955Z</time></trkpt><trkpt lat="43.0345305" lon="12.3022683"><ele>250.83333333333331</ele><time>2026-05-01T06:47:30.953Z</time></trkpt><trkpt lat="43.0344762" lon="12.3021797"><ele>250.0</ele><time>2026-05-01T06:47:32.969Z</time></trkpt><trkpt lat="43.0344193" lon="12.3020867"><ele>249.33333333333331</ele><time>2026-05-01T06:47:34.966Z</time></trkpt><trkpt lat="43.0343501" lon="12.3019881"><ele>248.66666666666666</ele><time>2026-05-01T06:47:36.947Z</time></trkpt><trkpt lat="43.0342896" lon="12.3018964"><ele>248.0</ele><time>2026-05-01T06:47:39Z</time></trkpt><trkpt lat="43.0342478" lon="12.3018003"><ele>247.33333333333331</ele><time>2026-05-01T06:47:40.964Z</time></trkpt><trkpt lat="43.0341979" lon="12.3017097"><ele>246.66666666666666</ele><time>2026-05-01T06:47:42.949Z</time></trkpt><trkpt lat="43.0341477" lon="12.3016161"><ele>246.0</ele><time>2026-05-01T06:47:44.972Z</time></trkpt><trkpt lat="43.0340885" lon="12.3015265"><ele>246.0</ele><time>2026-05-01T06:47:46.98Z</time></trkpt><trkpt lat="43.0340338" lon="12.301431"><ele>246.0</ele><time>2026-05-01T06:47:48.959Z</time></trkpt><trkpt lat="43.0339938" lon="12.3013262"><ele>246.0</ele><time>2026-05-01T06:47:50.953Z</time></trkpt><trkpt lat="43.0339545" lon="12.3012258"><ele>246.0</ele><time>2026-05-01T06:47:52.973Z</time></trkpt><trkpt lat="43.033915" lon="12.3011196"><ele>246.0</ele><time>2026-05-01T06:47:54.953Z</time></trkpt><trkpt lat="43.0338716" lon="12.301004"><ele>246.0</ele><time>2026-05-01T06:47:56.977Z</time></trkpt><trkpt lat="43.0338356" lon="12.3008778"><ele>246.0</ele><time>2026-05-01T06:47:58.969Z</time></trkpt><trkpt lat="43.0337964" lon="12.3007609"><ele>246.00000000000003</ele><time>2026-05-01T06:48:00.97Z</time></trkpt><trkpt lat="43.0337582" lon="12.30064"><ele>246.00000000000003</ele><time>2026-05-01T06:48:02.97Z</time></trkpt><trkpt lat="43.0337101" lon="12.3005178"><ele>246.0</ele><time>2026-05-01T06:48:04.969Z</time></trkpt><trkpt lat="43.0336743" lon="12.3003868"><ele>246.0</ele><time>2026-05-01T06:48:06.966Z</time></trkpt><trkpt lat="43.0336359" lon="12.3002504"><ele>245.66666666666666</ele><time>2026-05-01T06:48:08.967Z</time></trkpt><trkpt lat="43.0336062" lon="12.3001283"><ele>245.33333333333331</ele><time>2026-05-01T06:48:10.971Z</time></trkpt><trkpt lat="43.0335666" lon="12.3000246"><ele>245.0</ele><time>2026-05-01T06:48:12.974Z</time></trkpt><trkpt lat="43.0335055" lon="12.2999806"><ele>244.66666666666666</ele><time>2026-05-01T06:48:15.964Z</time></trkpt><trkpt lat="43.0334464" lon="12.2999486"><ele>244.33333333333331</ele><time>2026-05-01T06:48:19.975Z</time></trkpt><trkpt lat="43.0334075" lon="12.299846"><ele>244.0</ele><time>2026-05-01T06:48:22.951Z</time></trkpt><trkpt lat="43.0333677" lon="12.299732"><ele>244.39999999999998</ele><time>2026-05-01T06:48:24.957Z</time></trkpt><trkpt lat="43.0333348" lon="12.2996106"><ele>244.79999999999998</ele><time>2026-05-01T06:48:26.969Z</time></trkpt><trkpt lat="43.0333158" lon="12.2995053"><ele>245.20000000000002</ele><time>2026-05-01T06:48:28.973Z</time></trkpt><trkpt lat="43.0332804" lon="12.2993834"><ele>245.60000000000002</ele><time>2026-05-01T06:48:30.955Z</time></trkpt><trkpt lat="43.0332408" lon="12.2992639"><ele>246.0</ele><time>2026-05-01T06:48:32.971Z</time></trkpt><trkpt lat="43.0332083" lon="12.2991323"><ele>246.0</ele><time>2026-05-01T06:48:34.97Z</time></trkpt><trkpt lat="43.0331634" lon="12.2990106"><ele>246.00000000000003</ele><time>2026-05-01T06:48:36.952Z</time></trkpt><trkpt lat="43.0331187" lon="12.2988842"><ele>246.00000000000003</ele><time>2026-05-01T06:48:38.969Z</time></trkpt><trkpt lat="43.03306" lon="12.2987708"><ele>246.0</ele><time>2026-05-01T06:48:40.954Z</time></trkpt><trkpt lat="43.0330101" lon="12.2986781"><ele>246.0</ele><time>2026-05-01T06:48:42.954Z</time></trkpt><trkpt lat="43.0329619" lon="12.2985792"><ele>246.16666666666666</ele><time>2026-05-01T06:48:44.97Z</time></trkpt><trkpt lat="43.0329158" lon="12.2984803"><ele>246.33333333333331</ele><time>2026-05-01T06:48:46.969Z</time></trkpt><trkpt lat="43.0328711" lon="12.2983916"><ele>246.5</ele><time>2026-05-01T06:48:48.953Z</time></trkpt><trkpt lat="43.032817" lon="12.298314"><ele>246.66666666666666</ele><time>2026-05-01T06:48:50.974Z</time></trkpt><trkpt lat="43.0327663" lon="12.2982327"><ele>246.83333333333331</ele><time>2026-05-01T06:48:53Z</time></trkpt><trkpt lat="43.0327296" lon="12.2981519"><ele>247.0</ele><time>2026-05-01T06:48:54.97Z</time></trkpt><trkpt lat="43.032686" lon="12.2980741"><ele>246.99999999999997</ele><time>2026-05-01T06:48:56.957Z</time></trkpt><trkpt lat="43.0326395" lon="12.2979984"><ele>247.0</ele><time>2026-05-01T06:48:59Z</time></trkpt><trkpt lat="43.0325976" lon="12.2979215"><ele>247.0</ele><time>2026-05-01T06:49:00.973Z</time></trkpt><trkpt lat="43.0325545" lon="12.297844"><ele>247.0</ele><time>2026-05-01T06:49:02.965Z</time></trkpt><trkpt lat="43.0325024" lon="12.2977517"><ele>246.99999999999997</ele><time>2026-05-01T06:49:05.971Z</time></trkpt><trkpt lat="43.0324553" lon="12.2976565"><ele>247.0</ele><time>2026-05-01T06:49:08.962Z</time></trkpt><trkpt lat="43.0323987" lon="12.2975927"><ele>247.57142857142858</ele><time>2026-05-01T06:49:10.958Z</time></trkpt><trkpt lat="43.0323461" lon="12.297523"><ele>248.1428571428571</ele><time>2026-05-01T06:49:12.969Z</time></trkpt><trkpt lat="43.0322948" lon="12.2974591"><ele>248.7142857142857</ele><time>2026-05-01T06:49:14.951Z</time></trkpt><trkpt lat="43.0322389" lon="12.2973874"><ele>249.28571428571428</ele><time>2026-05-01T06:49:16.954Z</time></trkpt><trkpt lat="43.0321745" lon="12.297315"><ele>249.85714285714283</ele><time>2026-05-01T06:49:18.953Z</time></trkpt><trkpt lat="43.0321135" lon="12.2972506"><ele>250.4285714285714</ele><time>2026-05-01T06:49:20.954Z</time></trkpt><trkpt lat="43.0320646" lon="12.2971824"><ele>250.99999999999997</ele><time>2026-05-01T06:49:22.951Z</time></trkpt><trkpt lat="43.0319994" lon="12.2971092"><ele>251.00000000000003</ele><time>2026-05-01T06:49:24.95Z</time></trkpt><trkpt lat="43.0319311" lon="12.2970168"><ele>251.0</ele><time>2026-05-01T06:49:27.951Z</time></trkpt><trkpt lat="43.0319012" lon="12.2969291"><ele>251.0</ele><time>2026-05-01T06:49:30.953Z</time></trkpt><trkpt lat="43.0318483" lon="12.2968567"><ele>251.0</ele><time>2026-05-01T06:49:32.95Z</time></trkpt><trkpt lat="43.0317948" lon="12.2967907"><ele>251.00000000000003</ele><time>2026-05-01T06:49:35Z</time></trkpt><trkpt lat="43.0317426" lon="12.2967282"><ele>251.0</ele><time>2026-05-01T06:49:36.95Z</time></trkpt><trkpt lat="43.0316746" lon="12.2966684"><ele>250.99999999999997</ele><time>2026-05-01T06:49:38.955Z</time></trkpt><trkpt lat="43.0316192" lon="12.2966123"><ele>251.0</ele><time>2026-05-01T06:49:40.948Z</time></trkpt><trkpt lat="43.0315702" lon="12.2965509"><ele>250.99999999999997</ele><time>2026-05-01T06:49:42.95Z</time></trkpt><trkpt lat="43.0315225" lon="12.2964914"><ele>250.99999999999997</ele><time>2026-05-01T06:49:44.955Z</time></trkpt><trkpt lat="43.0314765" lon="12.2964287"><ele>251.0</ele><time>2026-05-01T06:49:46.951Z</time></trkpt><trkpt lat="43.0314316" lon="12.2963623"><ele>250.99999999999997</ele><time>2026-05-01T06:49:48.953Z</time></trkpt><trkpt lat="43.0313694" lon="12.2962669"><ele>250.99999999999997</ele><time>2026-05-01T06:49:52Z</time></trkpt><trkpt lat="43.0313212" lon="12.2962017"><ele>251.28571428571425</ele><time>2026-05-01T06:49:53.956Z</time></trkpt><trkpt lat="43.0312705" lon="12.2961362"><ele>251.57142857142856</ele><time>2026-05-01T06:49:55.955Z</time></trkpt><trkpt lat="43.0312239" lon="12.2960731"><ele>251.85714285714286</ele><time>2026-05-01T06:49:57.95Z</time></trkpt><trkpt lat="43.031179" lon="12.2960072"><ele>252.14285714285714</ele><time>2026-05-01T06:49:59.956Z</time></trkpt><trkpt lat="43.0311294" lon="12.2959199"><ele>252.42857142857144</ele><time>2026-05-01T06:50:01.951Z</time></trkpt><trkpt lat="43.031092" lon="12.2958349"><ele>252.71428571428575</ele><time>2026-05-01T06:50:03.959Z</time></trkpt><trkpt lat="43.031055" lon="12.2957627"><ele>253.00000000000003</ele><time>2026-05-01T06:50:05.964Z</time></trkpt><trkpt lat="43.0309972" lon="12.2956591"><ele>252.8571428571429</ele><time>2026-05-01T06:50:08.958Z</time></trkpt><trkpt lat="43.0309606" lon="12.2955819"><ele>252.71428571428572</ele><time>2026-05-01T06:50:10.951Z</time></trkpt><trkpt lat="43.0309324" lon="12.2954981"><ele>252.57142857142858</ele><time>2026-05-01T06:50:12.95Z</time></trkpt><trkpt lat="43.0309266" lon="12.2954"><ele>252.42857142857144</ele><time>2026-05-01T06:50:15.952Z</time></trkpt><trkpt lat="43.0308826" lon="12.2953101"><ele>252.28571428571428</ele><time>2026-05-01T06:50:17.963Z</time></trkpt><trkpt lat="43.0308588" lon="12.2952227"><ele>252.14285714285714</ele><time>2026-05-01T06:50:19.959Z</time></trkpt><trkpt lat="43.030825" lon="12.2951088"><ele>252.0</ele><time>2026-05-01T06:50:22.962Z</time></trkpt><trkpt lat="43.0307924" lon="12.2950261"><ele>252.0</ele><time>2026-05-01T06:50:24.957Z</time></trkpt><trkpt lat="43.0307667" lon="12.2948993"><ele>252.0</ele><time>2026-05-01T06:50:27.969Z</time></trkpt><trkpt lat="43.0307276" lon="12.294819"><ele>252.0</ele><time>2026-05-01T06:50:29.974Z</time></trkpt><trkpt lat="43.0306916" lon="12.2947362"><ele>252.0</ele><time>2026-05-01T06:50:31.965Z</time></trkpt><trkpt lat="43.0306584" lon="12.2946473"><ele>252.0</ele><time>2026-05-01T06:50:33.97Z</time></trkpt><trkpt lat="43.0306313" lon="12.2945621"><ele>252.0</ele><time>2026-05-01T06:50:35.968Z</time></trkpt><trkpt lat="43.0306181" lon="12.2944733"><ele>252.0</ele><time>2026-05-01T06:50:37.973Z</time></trkpt><trkpt lat="43.0306136" lon="12.294363"><ele>252.14285714285714</ele><time>2026-05-01T06:50:40.979Z</time></trkpt><trkpt lat="43.0306067" lon="12.2942765"><ele>252.28571428571428</ele><time>2026-05-01T06:50:42.969Z</time></trkpt><trkpt lat="43.0305888" lon="12.294179"><ele>252.42857142857144</ele><time>2026-05-01T06:50:44.969Z</time></trkpt><trkpt lat="43.0305609" lon="12.2940773"><ele>252.57142857142858</ele><time>2026-05-01T06:50:46.972Z</time></trkpt><trkpt lat="43.0305313" lon="12.2939873"><ele>252.71428571428572</ele><time>2026-05-01T06:50:48.952Z</time></trkpt><trkpt lat="43.0305039" lon="12.2938921"><ele>252.8571428571429</ele><time>2026-05-01T06:50:50.97Z</time></trkpt><trkpt lat="43.030481" lon="12.293786"><ele>253.00000000000003</ele><time>2026-05-01T06:50:52.955Z</time></trkpt><trkpt lat="43.0304571" lon="12.2936858"><ele>253.16666666666666</ele><time>2026-05-01T06:50:54.951Z</time></trkpt><trkpt lat="43.0304334" lon="12.2935934"><ele>253.33333333333331</ele><time>2026-05-01T06:50:57Z</time></trkpt><trkpt lat="43.0304089" lon="12.2934913"><ele>253.5</ele><time>2026-05-01T06:50:58.951Z</time></trkpt><trkpt lat="43.030384" lon="12.2933883"><ele>253.66666666666669</ele><time>2026-05-01T06:51:00.949Z</time></trkpt><trkpt lat="43.0303653" lon="12.2932914"><ele>253.83333333333334</ele><time>2026-05-01T06:51:02.957Z</time></trkpt><trkpt lat="43.0303521" lon="12.2931834"><ele>254.0</ele><time>2026-05-01T06:51:04.954Z</time></trkpt><trkpt lat="43.0303403" lon="12.2930796"><ele>254.50000000000003</ele><time>2026-05-01T06:51:06.952Z</time></trkpt><trkpt lat="43.0303129" lon="12.2929741"><ele>255.0</ele><time>2026-05-01T06:51:08.953Z</time></trkpt><trkpt lat="43.0302865" lon="12.2928816"><ele>255.5</ele><time>2026-05-01T06:51:10.953Z</time></trkpt><trkpt lat="43.030272" lon="12.292785"><ele>256.0</ele><time>2026-05-01T06:51:12.948Z</time></trkpt><trkpt lat="43.030251" lon="12.2926869"><ele>256.5</ele><time>2026-05-01T06:51:15Z</time></trkpt><trkpt lat="43.0302198" lon="12.2925831"><ele>257.0</ele><time>2026-05-01T06:51:16.95Z</time></trkpt><trkpt lat="43.0302013" lon="12.2924894"><ele>257.0</ele><time>2026-05-01T06:51:18.959Z</time></trkpt><trkpt lat="43.0301774" lon="12.2923925"><ele>257.0</ele><time>2026-05-01T06:51:21Z</time></trkpt><trkpt lat="43.0301448" lon="12.2922925"><ele>257.0</ele><time>2026-05-01T06:51:22.955Z</time></trkpt><trkpt lat="43.030115" lon="12.2922137"><ele>257.0</ele><time>2026-05-01T06:51:24.952Z</time></trkpt><trkpt lat="43.0300599" lon="12.2921454"><ele>257.0</ele><time>2026-05-01T06:51:26.999Z</time></trkpt><trkpt lat="43.0300029" lon="12.2920718"><ele>257.0</ele><time>2026-05-01T06:51:28.949Z</time></trkpt><trkpt lat="43.0299586" lon="12.2919997"><ele>257.0</ele><time>2026-05-01T06:51:30.971Z</time></trkpt><trkpt lat="43.0299047" lon="12.2919224"><ele>257.5</ele><time>2026-05-01T06:51:33Z</time></trkpt><trkpt lat="43.0298592" lon="12.2918527"><ele>258.0</ele><time>2026-05-01T06:51:34.964Z</time></trkpt><trkpt lat="43.0298135" lon="12.2917689"><ele>258.5</ele><time>2026-05-01T06:51:36.966Z</time></trkpt><trkpt lat="43.0297554" lon="12.2917011"><ele>259.0</ele><time>2026-05-01T06:51:38.943Z</time></trkpt><trkpt lat="43.0297129" lon="12.2915923"><ele>259.5</ele><time>2026-05-01T06:51:41.956Z</time></trkpt><trkpt lat="43.0296677" lon="12.2915202"><ele>260.0</ele><time>2026-05-01T06:51:43.965Z</time></trkpt><trkpt lat="43.0296073" lon="12.291434"><ele>260.1666666666667</ele><time>2026-05-01T06:51:45.965Z</time></trkpt><trkpt lat="43.0295404" lon="12.2913286"><ele>260.33333333333337</ele><time>2026-05-01T06:51:47.965Z</time></trkpt><trkpt lat="43.0294898" lon="12.2912678"><ele>260.5</ele><time>2026-05-01T06:51:48.975Z</time></trkpt><trkpt lat="43.0294391" lon="12.2911746"><ele>260.6666666666667</ele><time>2026-05-01T06:51:51Z</time></trkpt><trkpt lat="43.0293796" lon="12.2910988"><ele>260.8333333333333</ele><time>2026-05-01T06:51:52.968Z</time></trkpt><trkpt lat="43.0293309" lon="12.2910096"><ele>261.0</ele><time>2026-05-01T06:51:54.952Z</time></trkpt><trkpt lat="43.0292772" lon="12.29092"><ele>261.0</ele><time>2026-05-01T06:51:56.962Z</time></trkpt><trkpt lat="43.0292273" lon="12.2908279"><ele>261.0</ele><time>2026-05-01T06:51:58.969Z</time></trkpt><trkpt lat="43.0291733" lon="12.2907309"><ele>261.0</ele><time>2026-05-01T06:52:00.958Z</time></trkpt><trkpt lat="43.0291161" lon="12.2906394"><ele>261.0</ele><time>2026-05-01T06:52:02.97Z</time></trkpt><trkpt lat="43.029059" lon="12.2905552"><ele>261.0</ele><time>2026-05-01T06:52:04.955Z</time></trkpt><trkpt lat="43.0290047" lon="12.2904603"><ele>261.0</ele><time>2026-05-01T06:52:06.952Z</time></trkpt><trkpt lat="43.0289454" lon="12.2903748"><ele>260.8333333333333</ele><time>2026-05-01T06:52:08.969Z</time></trkpt><trkpt lat="43.028875" lon="12.2902964"><ele>260.6666666666667</ele><time>2026-05-01T06:52:10.972Z</time></trkpt><trkpt lat="43.0288247" lon="12.290219"><ele>260.5</ele><time>2026-05-01T06:52:12.973Z</time></trkpt><trkpt lat="43.028771" lon="12.2901553"><ele>260.33333333333337</ele><time>2026-05-01T06:52:14.947Z</time></trkpt><trkpt lat="43.02873" lon="12.2900895"><ele>260.1666666666667</ele><time>2026-05-01T06:52:16.977Z</time></trkpt><trkpt lat="43.0286809" lon="12.2900284"><ele>260.0</ele><time>2026-05-01T06:52:18.974Z</time></trkpt><trkpt lat="43.0286093" lon="12.2899406"><ele>260.0</ele><time>2026-05-01T06:52:21.976Z</time></trkpt><trkpt lat="43.0285715" lon="12.2898437"><ele>260.0</ele><time>2026-05-01T06:53:13.957Z</time></trkpt><trkpt lat="43.0285287" lon="12.2897594"><ele>260.0</ele><time>2026-05-01T06:53:16.967Z</time></trkpt><trkpt lat="43.028477" lon="12.2896778"><ele>260.0</ele><time>2026-05-01T06:53:19.969Z</time></trkpt><trkpt lat="43.0284053" lon="12.2896267"><ele>260.0</ele><time>2026-05-01T06:53:23.969Z</time></trkpt><trkpt lat="43.0283307" lon="12.2895843"><ele>260.0</ele><time>2026-05-01T06:53:26.971Z</time></trkpt><trkpt lat="43.0282516" lon="12.2895539"><ele>259.83333333333337</ele><time>2026-05-01T06:53:29.971Z</time></trkpt><trkpt lat="43.0281729" lon="12.2895206"><ele>259.6666666666667</ele><time>2026-05-01T06:53:32.97Z</time></trkpt><trkpt lat="43.0280853" lon="12.2894777"><ele>259.5</ele><time>2026-05-01T06:53:35.972Z</time></trkpt><trkpt lat="43.0279943" lon="12.2894554"><ele>259.3333333333333</ele><time>2026-05-01T06:53:38.975Z</time></trkpt><trkpt lat="43.0279285" lon="12.2894164"><ele>259.16666666666663</ele><time>2026-05-01T06:53:40.967Z</time></trkpt><trkpt lat="43.0278623" lon="12.2893826"><ele>259.0</ele><time>2026-05-01T06:53:42.971Z</time></trkpt><trkpt lat="43.0277927" lon="12.2893567"><ele>259.0</ele><time>2026-05-01T06:53:44.97Z</time></trkpt><trkpt lat="43.0277251" lon="12.2893308"><ele>259.0</ele><time>2026-05-01T06:53:46.973Z</time></trkpt><trkpt lat="43.0276584" lon="12.2893088"><ele>259.0</ele><time>2026-05-01T06:53:48.966Z</time></trkpt><trkpt lat="43.0275943" lon="12.2892798"><ele>259.0</ele><time>2026-05-01T06:53:50.972Z</time></trkpt><trkpt lat="43.02753" lon="12.2892519"><ele>259.0</ele><time>2026-05-01T06:53:52.981Z</time></trkpt><trkpt lat="43.0274522" lon="12.2892236"><ele>259.0</ele><time>2026-05-01T06:53:54.959Z</time></trkpt><trkpt lat="43.0273865" lon="12.2892138"><ele>259.0</ele><time>2026-05-01T06:53:56.954Z</time></trkpt><trkpt lat="43.0273127" lon="12.2891985"><ele>258.5</ele><time>2026-05-01T06:53:58.975Z</time></trkpt><trkpt lat="43.0272137" lon="12.2891702"><ele>258.0</ele><time>2026-05-01T06:54:01.969Z</time></trkpt><trkpt lat="43.0271321" lon="12.2891555"><ele>257.5</ele><time>2026-05-01T06:54:03.962Z</time></trkpt><trkpt lat="43.027052" lon="12.2891352"><ele>257.0</ele><time>2026-05-01T06:54:05.978Z</time></trkpt><trkpt lat="43.026975" lon="12.2891124"><ele>256.5</ele><time>2026-05-01T06:54:07.969Z</time></trkpt><trkpt lat="43.0268946" lon="12.2891031"><ele>256.0</ele><time>2026-05-01T06:54:09.965Z</time></trkpt><trkpt lat="43.0268092" lon="12.2890809"><ele>255.99999999999997</ele><time>2026-05-01T06:54:11.966Z</time></trkpt><trkpt lat="43.0267226" lon="12.2890494"><ele>256.0</ele><time>2026-05-01T06:54:13.973Z</time></trkpt><trkpt lat="43.0266325" lon="12.2890362"><ele>256.0</ele><time>2026-05-01T06:54:15.967Z</time></trkpt><trkpt lat="43.0265571" lon="12.2890196"><ele>256.0</ele><time>2026-05-01T06:54:17.978Z</time></trkpt><trkpt lat="43.0264765" lon="12.2889979"><ele>255.99999999999997</ele><time>2026-05-01T06:54:19.956Z</time></trkpt><trkpt lat="43.0263956" lon="12.2889902"><ele>256.0</ele><time>2026-05-01T06:54:21.972Z</time></trkpt><trkpt lat="43.0263094" lon="12.2889802"><ele>256.0</ele><time>2026-05-01T06:54:23.966Z</time></trkpt><trkpt lat="43.0262353" lon="12.2889791"><ele>255.99999999999997</ele><time>2026-05-01T06:54:25.97Z</time></trkpt><trkpt lat="43.026171" lon="12.288955"><ele>256.0</ele><time>2026-05-01T06:54:27.947Z</time></trkpt><trkpt lat="43.0261304" lon="12.288888"><ele>256.0</ele><time>2026-05-01T06:54:29.939Z</time></trkpt><trkpt lat="43.0261508" lon="12.288783"><ele>255.99999999999997</ele><time>2026-05-01T06:54:31.947Z</time></trkpt><trkpt lat="43.026174" lon="12.2886833"><ele>256.0</ele><time>2026-05-01T06:54:33.962Z</time></trkpt><trkpt lat="43.0261896" lon="12.2885775"><ele>256.0</ele><time>2026-05-01T06:54:35.951Z</time></trkpt><trkpt lat="43.0261947" lon="12.2884735"><ele>255.99999999999997</ele><time>2026-05-01T06:54:37.948Z</time></trkpt><trkpt lat="43.0262047" lon="12.2883756"><ele>256.0</ele><time>2026-05-01T06:54:39.953Z</time></trkpt><trkpt lat="43.0262263" lon="12.2882763"><ele>256.0</ele><time>2026-05-01T06:54:41.955Z</time></trkpt><trkpt lat="43.026255" lon="12.2881692"><ele>256.0</ele><time>2026-05-01T06:54:44Z</time></trkpt><trkpt lat="43.0262785" lon="12.2880551"><ele>255.99999999999997</ele><time>2026-05-01T06:54:45.958Z</time></trkpt><trkpt lat="43.0263005" lon="12.2879333"><ele>256.0</ele><time>2026-05-01T06:54:47.971Z</time></trkpt><trkpt lat="43.0263122" lon="12.2878155"><ele>256.2</ele><time>2026-05-01T06:54:49.966Z</time></trkpt><trkpt lat="43.0263355" lon="12.287701"><ele>256.40000000000003</ele><time>2026-05-01T06:54:51.955Z</time></trkpt><trkpt lat="43.026352" lon="12.2875907"><ele>256.6</ele><time>2026-05-01T06:54:53.968Z</time></trkpt><trkpt lat="43.0263724" lon="12.2874764"><ele>256.8</ele><time>2026-05-01T06:54:55.972Z</time></trkpt><trkpt lat="43.0263858" lon="12.2873406"><ele>257.0</ele><time>2026-05-01T06:54:57.963Z</time></trkpt><trkpt lat="43.0264186" lon="12.2871984"><ele>256.33333333333337</ele><time>2026-05-01T06:54:59.972Z</time></trkpt><trkpt lat="43.0264277" lon="12.2871085"><ele>255.66666666666669</ele><time>2026-05-01T06:55:00.951Z</time></trkpt><trkpt lat="43.0264382" lon="12.2870219"><ele>255.0</ele><time>2026-05-01T06:55:01.953Z</time></trkpt><trkpt lat="43.0264367" lon="12.2869251"><ele>254.33333333333331</ele><time>2026-05-01T06:55:02.974Z</time></trkpt><trkpt lat="43.0264539" lon="12.2867622"><ele>253.66666666666666</ele><time>2026-05-01T06:55:04.973Z</time></trkpt><trkpt lat="43.0264593" lon="12.2866761"><ele>253.0</ele><time>2026-05-01T06:55:05.968Z</time></trkpt><trkpt lat="43.026491" lon="12.2865911"><ele>252.99999999999997</ele><time>2026-05-01T06:55:06.999Z</time></trkpt><trkpt lat="43.0265112" lon="12.2864996"><ele>253.0</ele><time>2026-05-01T06:55:07.973Z</time></trkpt><trkpt lat="43.0265326" lon="12.286405"><ele>253.0</ele><time>2026-05-01T06:55:08.966Z</time></trkpt><trkpt lat="43.0265699" lon="12.2862334"><ele>253.0</ele><time>2026-05-01T06:55:10.949Z</time></trkpt><trkpt lat="43.0265882" lon="12.2861385"><ele>252.99999999999997</ele><time>2026-05-01T06:55:11.946Z</time></trkpt><trkpt lat="43.0266108" lon="12.2860391"><ele>253.0</ele><time>2026-05-01T06:55:12.963Z</time></trkpt><trkpt lat="43.0266246" lon="12.2859334"><ele>252.14285714285717</ele><time>2026-05-01T06:55:13.969Z</time></trkpt><trkpt lat="43.0266394" lon="12.2858406"><ele>251.28571428571428</ele><time>2026-05-01T06:55:14.951Z</time></trkpt><trkpt lat="43.0266543" lon="12.2857441"><ele>250.42857142857144</ele><time>2026-05-01T06:55:15.953Z</time></trkpt><trkpt lat="43.0266755" lon="12.2856584"><ele>249.57142857142858</ele><time>2026-05-01T06:55:16.951Z</time></trkpt><trkpt lat="43.026697" lon="12.2855618"><ele>248.71428571428572</ele><time>2026-05-01T06:55:17.971Z</time></trkpt><trkpt lat="43.0267193" lon="12.285466"><ele>247.85714285714286</ele><time>2026-05-01T06:55:18.968Z</time></trkpt><trkpt lat="43.0267357" lon="12.2853739"><ele>247.0</ele><time>2026-05-01T06:55:19.975Z</time></trkpt><trkpt lat="43.0267973" lon="12.2852159"><ele>246.0</ele><time>2026-05-01T06:55:21.96Z</time></trkpt><trkpt lat="43.0268509" lon="12.2851363"><ele>245.0</ele><time>2026-05-01T06:55:22.975Z</time></trkpt><trkpt lat="43.0268914" lon="12.2850592"><ele>244.0</ele><time>2026-05-01T06:55:23.947Z</time></trkpt><trkpt lat="43.0269737" lon="12.2849006"><ele>243.0</ele><time>2026-05-01T06:55:25.965Z</time></trkpt><trkpt lat="43.0270216" lon="12.2847413"><ele>242.0</ele><time>2026-05-01T06:55:27.969Z</time></trkpt><trkpt lat="43.0270494" lon="12.2846397"><ele>241.2</ele><time>2026-05-01T06:55:28.971Z</time></trkpt><trkpt lat="43.0270661" lon="12.2845516"><ele>240.39999999999998</ele><time>2026-05-01T06:55:29.977Z</time></trkpt><trkpt lat="43.0270726" lon="12.2844605"><ele>239.60000000000002</ele><time>2026-05-01T06:55:30.966Z</time></trkpt><trkpt lat="43.0270729" lon="12.2842887"><ele>238.8</ele><time>2026-05-01T06:55:32.961Z</time></trkpt><trkpt lat="43.0270764" lon="12.284112"><ele>238.0</ele><time>2026-05-01T06:55:34.975Z</time></trkpt><trkpt lat="43.0270809" lon="12.2839437"><ele>237.60000000000002</ele><time>2026-05-01T06:55:36.961Z</time></trkpt><trkpt lat="43.027087" lon="12.2838563"><ele>237.20000000000002</ele><time>2026-05-01T06:55:37.965Z</time></trkpt><trkpt lat="43.0271079" lon="12.2836921"><ele>236.8</ele><time>2026-05-01T06:55:39.969Z</time></trkpt><trkpt lat="43.0271463" lon="12.2835461"><ele>236.4</ele><time>2026-05-01T06:55:41.949Z</time></trkpt><trkpt lat="43.0271737" lon="12.2834109"><ele>236.0</ele><time>2026-05-01T06:55:43.967Z</time></trkpt><trkpt lat="43.027209" lon="12.2832746"><ele>236.0</ele><time>2026-05-01T06:55:45.971Z</time></trkpt><trkpt lat="43.0272485" lon="12.2831336"><ele>236.00000000000003</ele><time>2026-05-01T06:55:47.974Z</time></trkpt><trkpt lat="43.02728" lon="12.282987"><ele>236.00000000000003</ele><time>2026-05-01T06:55:49.951Z</time></trkpt><trkpt lat="43.0273083" lon="12.2828423"><ele>236.0</ele><time>2026-05-01T06:55:51.97Z</time></trkpt><trkpt lat="43.027329" lon="12.2827011"><ele>236.0</ele><time>2026-05-01T06:55:53.969Z</time></trkpt><trkpt lat="43.0273592" lon="12.2825575"><ele>235.25</ele><time>2026-05-01T06:55:55.969Z</time></trkpt><trkpt lat="43.0273718" lon="12.2823995"><ele>234.5</ele><time>2026-05-01T06:55:57.957Z</time></trkpt><trkpt lat="43.0273907" lon="12.282235"><ele>233.75</ele><time>2026-05-01T06:55:59.971Z</time></trkpt><trkpt lat="43.0274135" lon="12.2820783"><ele>233.0</ele><time>2026-05-01T06:56:01.957Z</time></trkpt><trkpt lat="43.027432" lon="12.2819335"><ele>233.4</ele><time>2026-05-01T06:56:03.965Z</time></trkpt><trkpt lat="43.0274361" lon="12.2817868"><ele>233.8</ele><time>2026-05-01T06:56:05.953Z</time></trkpt><trkpt lat="43.0274491" lon="12.2816442"><ele>234.2</ele><time>2026-05-01T06:56:07.954Z</time></trkpt><trkpt lat="43.0274732" lon="12.2815111"><ele>234.6</ele><time>2026-05-01T06:56:09.962Z</time></trkpt><trkpt lat="43.0274867" lon="12.2813731"><ele>235.0</ele><time>2026-05-01T06:56:11.973Z</time></trkpt><trkpt lat="43.0275153" lon="12.281241"><ele>235.0</ele><time>2026-05-01T06:56:13.948Z</time></trkpt><trkpt lat="43.0275253" lon="12.2811067"><ele>235.0</ele><time>2026-05-01T06:56:15.948Z</time></trkpt><trkpt lat="43.0275073" lon="12.2809679"><ele>235.0</ele><time>2026-05-01T06:56:17.969Z</time></trkpt><trkpt lat="43.0275109" lon="12.2808258"><ele>235.0</ele><time>2026-05-01T06:56:19.952Z</time></trkpt><trkpt lat="43.0275084" lon="12.2806775"><ele>235.0</ele><time>2026-05-01T06:56:22Z</time></trkpt><trkpt lat="43.0275083" lon="12.2805433"><ele>234.8</ele><time>2026-05-01T06:56:23.953Z</time></trkpt><trkpt lat="43.0275221" lon="12.280386"><ele>234.6</ele><time>2026-05-01T06:56:25.951Z</time></trkpt><trkpt lat="43.0275334" lon="12.280258"><ele>234.39999999999998</ele><time>2026-05-01T06:56:27.947Z</time></trkpt><trkpt lat="43.027541" lon="12.2801348"><ele>234.2</ele><time>2026-05-01T06:56:29.946Z</time></trkpt><trkpt lat="43.0275449" lon="12.280025"><ele>234.0</ele><time>2026-05-01T06:56:31.953Z</time></trkpt><trkpt lat="43.0275437" lon="12.2799233"><ele>234.0</ele><time>2026-05-01T06:56:33.948Z</time></trkpt><trkpt lat="43.0275493" lon="12.2798074"><ele>233.99999999999997</ele><time>2026-05-01T06:56:35.963Z</time></trkpt><trkpt lat="43.0275596" lon="12.2796582"><ele>233.99999999999997</ele><time>2026-05-01T06:56:37.951Z</time></trkpt><trkpt lat="43.0275497" lon="12.2794898"><ele>234.0</ele><time>2026-05-01T06:56:39.951Z</time></trkpt><trkpt lat="43.0275432" lon="12.2794021"><ele>234.0</ele><time>2026-05-01T06:56:40.954Z</time></trkpt><trkpt lat="43.0275115" lon="12.2793016"><ele>232.66666666666666</ele><time>2026-05-01T06:56:41.957Z</time></trkpt><trkpt lat="43.0274723" lon="12.2792063"><ele>231.33333333333331</ele><time>2026-05-01T06:56:42.955Z</time></trkpt><trkpt lat="43.0274369" lon="12.2791143"><ele>230.0</ele><time>2026-05-01T06:56:43.952Z</time></trkpt><trkpt lat="43.0274097" lon="12.2790192"><ele>228.66666666666666</ele><time>2026-05-01T06:56:44.952Z</time></trkpt><trkpt lat="43.0273825" lon="12.2789215"><ele>227.33333333333331</ele><time>2026-05-01T06:56:46Z</time></trkpt><trkpt lat="43.0273517" lon="12.2788189"><ele>226.0</ele><time>2026-05-01T06:56:46.955Z</time></trkpt><trkpt lat="43.0273249" lon="12.2787194"><ele>225.16666666666666</ele><time>2026-05-01T06:56:47.957Z</time></trkpt><trkpt lat="43.0273018" lon="12.278612"><ele>224.33333333333331</ele><time>2026-05-01T06:56:48.95Z</time></trkpt><trkpt lat="43.0272719" lon="12.2785229"><ele>223.5</ele><time>2026-05-01T06:56:49.973Z</time></trkpt><trkpt lat="43.0272472" lon="12.2784313"><ele>222.66666666666669</ele><time>2026-05-01T06:56:50.961Z</time></trkpt><trkpt lat="43.0272195" lon="12.2783356"><ele>221.83333333333334</ele><time>2026-05-01T06:56:52Z</time></trkpt><trkpt lat="43.0271934" lon="12.278233"><ele>221.0</ele><time>2026-05-01T06:56:52.957Z</time></trkpt><trkpt lat="43.0271691" lon="12.278112"><ele>219.60000000000002</ele><time>2026-05-01T06:56:53.977Z</time></trkpt><trkpt lat="43.0271396" lon="12.2779938"><ele>218.20000000000002</ele><time>2026-05-01T06:56:54.971Z</time></trkpt><trkpt lat="43.0271009" lon="12.2778728"><ele>216.79999999999998</ele><time>2026-05-01T06:56:55.966Z</time></trkpt><trkpt lat="43.0270593" lon="12.2777486"><ele>215.39999999999998</ele><time>2026-05-01T06:56:56.968Z</time></trkpt><trkpt lat="43.0270208" lon="12.2776267"><ele>214.0</ele><time>2026-05-01T06:56:57.976Z</time></trkpt><trkpt lat="43.0269834" lon="12.2775006"><ele>213.99999999999997</ele><time>2026-05-01T06:56:58.955Z</time></trkpt><trkpt lat="43.0269474" lon="12.2773833"><ele>214.0</ele><time>2026-05-01T06:56:59.977Z</time></trkpt><trkpt lat="43.026923" lon="12.2772567"><ele>214.0</ele><time>2026-05-01T06:57:00.958Z</time></trkpt><trkpt lat="43.0268986" lon="12.2771481"><ele>214.0</ele><time>2026-05-01T06:57:01.965Z</time></trkpt><trkpt lat="43.0268759" lon="12.2770414"><ele>213.99999999999997</ele><time>2026-05-01T06:57:02.967Z</time></trkpt><trkpt lat="43.0268681" lon="12.2769454"><ele>214.0</ele><time>2026-05-01T06:57:03.967Z</time></trkpt><trkpt lat="43.0268733" lon="12.2768565"><ele>213.71428571428572</ele><time>2026-05-01T06:57:04.962Z</time></trkpt><trkpt lat="43.026893" lon="12.276772"><ele>213.42857142857144</ele><time>2026-05-01T06:57:05.98Z</time></trkpt><trkpt lat="43.0269229" lon="12.27669"><ele>213.14285714285717</ele><time>2026-05-01T06:57:06.966Z</time></trkpt><trkpt lat="43.0269678" lon="12.2766228"><ele>212.85714285714286</ele><time>2026-05-01T06:57:07.98Z</time></trkpt><trkpt lat="43.0270248" lon="12.2765705"><ele>212.57142857142856</ele><time>2026-05-01T06:57:08.972Z</time></trkpt><trkpt lat="43.0270814" lon="12.2765148"><ele>212.2857142857143</ele><time>2026-05-01T06:57:09.949Z</time></trkpt><trkpt lat="43.0271335" lon="12.2764545"><ele>212.0</ele><time>2026-05-01T06:57:10.968Z</time></trkpt><trkpt lat="43.0271905" lon="12.276388"><ele>211.71428571428572</ele><time>2026-05-01T06:57:11.953Z</time></trkpt><trkpt lat="43.0272466" lon="12.2763269"><ele>211.42857142857142</ele><time>2026-05-01T06:57:12.983Z</time></trkpt><trkpt lat="43.0272932" lon="12.2762578"><ele>211.14285714285714</ele><time>2026-05-01T06:57:13.97Z</time></trkpt><trkpt lat="43.0273483" lon="12.2762025"><ele>210.85714285714286</ele><time>2026-05-01T06:57:14.969Z</time></trkpt><trkpt lat="43.027397" lon="12.2761362"><ele>210.57142857142856</ele><time>2026-05-01T06:57:15.999Z</time></trkpt><trkpt lat="43.0274488" lon="12.2760771"><ele>210.28571428571428</ele><time>2026-05-01T06:57:16.98Z</time></trkpt><trkpt lat="43.0275021" lon="12.2760116"><ele>210.0</ele><time>2026-05-01T06:57:17.975Z</time></trkpt><trkpt lat="43.0275528" lon="12.2759419"><ele>210.0</ele><time>2026-05-01T06:57:18.966Z</time></trkpt><trkpt lat="43.0276031" lon="12.2758841"><ele>210.0</ele><time>2026-05-01T06:57:19.969Z</time></trkpt><trkpt lat="43.0276545" lon="12.2758301"><ele>210.0</ele><time>2026-05-01T06:57:20.968Z</time></trkpt><trkpt lat="43.0277044" lon="12.2757702"><ele>210.0</ele><time>2026-05-01T06:57:21.962Z</time></trkpt><trkpt lat="43.0277897" lon="12.275658"><ele>210.0</ele><time>2026-05-01T06:57:23.975Z</time></trkpt><trkpt lat="43.0278398" lon="12.2755971"><ele>210.0</ele><time>2026-05-01T06:57:24.952Z</time></trkpt><trkpt lat="43.0279019" lon="12.2754748"><ele>209.8</ele><time>2026-05-01T06:57:26.977Z</time></trkpt><trkpt lat="43.0279441" lon="12.2753409"><ele>209.6</ele><time>2026-05-01T06:57:28.971Z</time></trkpt><trkpt lat="43.027979" lon="12.2752044"><ele>209.39999999999998</ele><time>2026-05-01T06:57:30.985Z</time></trkpt><trkpt lat="43.0280258" lon="12.2750858"><ele>209.2</ele><time>2026-05-01T06:57:32.963Z</time></trkpt><trkpt lat="43.0280577" lon="12.274984"><ele>209.0</ele><time>2026-05-01T06:57:34.966Z</time></trkpt><trkpt lat="43.028099" lon="12.2748831"><ele>209.00000000000003</ele><time>2026-05-01T06:57:36.951Z</time></trkpt><trkpt lat="43.0280526" lon="12.2747864"><ele>209.0</ele><time>2026-05-01T06:57:39.954Z</time></trkpt><trkpt lat="43.0279989" lon="12.2747273"><ele>209.0</ele><time>2026-05-01T06:57:41.969Z</time></trkpt><trkpt lat="43.0279402" lon="12.2746414"><ele>209.0</ele><time>2026-05-01T06:57:43.962Z</time></trkpt><trkpt lat="43.0278757" lon="12.2745483"><ele>209.00000000000003</ele><time>2026-05-01T06:57:46Z</time></trkpt><trkpt lat="43.0278212" lon="12.2744533"><ele>209.0</ele><time>2026-05-01T06:57:47.974Z</time></trkpt><trkpt lat="43.0277635" lon="12.2743633"><ele>208.79999999999998</ele><time>2026-05-01T06:57:49.97Z</time></trkpt><trkpt lat="43.0277023" lon="12.2742606"><ele>208.6</ele><time>2026-05-01T06:57:51.964Z</time></trkpt><trkpt lat="43.0276415" lon="12.2741651"><ele>208.4</ele><time>2026-05-01T06:57:53.961Z</time></trkpt><trkpt lat="43.0275867" lon="12.2740697"><ele>208.2</ele><time>2026-05-01T06:57:55.969Z</time></trkpt><trkpt lat="43.0275266" lon="12.2739749"><ele>208.0</ele><time>2026-05-01T06:57:58Z</time></trkpt><trkpt lat="43.0274613" lon="12.273872"><ele>208.0</ele><time>2026-05-01T06:57:59.97Z</time></trkpt><trkpt lat="43.0273927" lon="12.273778"><ele>208.0</ele><time>2026-05-01T06:58:01.972Z</time></trkpt><trkpt lat="43.0273352" lon="12.2736814"><ele>208.0</ele><time>2026-05-01T06:58:03.973Z</time></trkpt><trkpt lat="43.027273" lon="12.2735851"><ele>208.0</ele><time>2026-05-01T06:58:05.965Z</time></trkpt><trkpt lat="43.0272079" lon="12.2734833"><ele>208.0</ele><time>2026-05-01T06:58:07.97Z</time></trkpt><trkpt lat="43.0271406" lon="12.2733771"><ele>208.0</ele><time>2026-05-01T06:58:09.964Z</time></trkpt><trkpt lat="43.0270719" lon="12.2732671"><ele>208.0</ele><time>2026-05-01T06:58:11.967Z</time></trkpt><trkpt lat="43.0270073" lon="12.2731706"><ele>208.0</ele><time>2026-05-01T06:58:14Z</time></trkpt><trkpt lat="43.0269462" lon="12.2730722"><ele>208.0</ele><time>2026-05-01T06:58:15.966Z</time></trkpt><trkpt lat="43.0268822" lon="12.2729642"><ele>208.0</ele><time>2026-05-01T06:58:17.971Z</time></trkpt><trkpt lat="43.0268194" lon="12.2728713"><ele>208.0</ele><time>2026-05-01T06:58:19.966Z</time></trkpt><trkpt lat="43.0267593" lon="12.2727666"><ele>208.0</ele><time>2026-05-01T06:58:21.97Z</time></trkpt><trkpt lat="43.0267" lon="12.2726585"><ele>208.0</ele><time>2026-05-01T06:58:23.95Z</time></trkpt><trkpt lat="43.0266272" lon="12.272562"><ele>208.0</ele><time>2026-05-01T06:58:25.971Z</time></trkpt><trkpt lat="43.0265657" lon="12.2724493"><ele>208.0</ele><time>2026-05-01T06:58:27.964Z</time></trkpt><trkpt lat="43.0265086" lon="12.2723397"><ele>207.8</ele><time>2026-05-01T06:58:29.962Z</time></trkpt><trkpt lat="43.0264417" lon="12.2722438"><ele>207.60000000000002</ele><time>2026-05-01T06:58:31.971Z</time></trkpt><trkpt lat="43.026386" lon="12.2721446"><ele>207.39999999999998</ele><time>2026-05-01T06:58:33.97Z</time></trkpt><trkpt lat="43.0263297" lon="12.2720445"><ele>207.2</ele><time>2026-05-01T06:58:35.953Z</time></trkpt><trkpt lat="43.0262697" lon="12.2719444"><ele>207.0</ele><time>2026-05-01T06:58:37.971Z</time></trkpt><trkpt lat="43.0262019" lon="12.2718463"><ele>207.0</ele><time>2026-05-01T06:58:39.969Z</time></trkpt><trkpt lat="43.0261415" lon="12.2717465"><ele>207.0</ele><time>2026-05-01T06:58:41.966Z</time></trkpt><trkpt lat="43.0260806" lon="12.2716432"><ele>207.0</ele><time>2026-05-01T06:58:43.963Z</time></trkpt><trkpt lat="43.0260118" lon="12.2715455"><ele>207.0</ele><time>2026-05-01T06:58:45.976Z</time></trkpt><trkpt lat="43.0259565" lon="12.2714382"><ele>207.0</ele><time>2026-05-01T06:58:47.97Z</time></trkpt><trkpt lat="43.0258933" lon="12.271343"><ele>207.0</ele><time>2026-05-01T06:58:49.969Z</time></trkpt><trkpt lat="43.0258381" lon="12.2712476"><ele>207.0</ele><time>2026-05-01T06:58:51.97Z</time></trkpt><trkpt lat="43.0257854" lon="12.2711297"><ele>207.0</ele><time>2026-05-01T06:58:53.968Z</time></trkpt><trkpt lat="43.0257207" lon="12.2710281"><ele>207.0</ele><time>2026-05-01T06:58:55.961Z</time></trkpt><trkpt lat="43.0256568" lon="12.270929"><ele>207.0</ele><time>2026-05-01T06:58:57.968Z</time></trkpt><trkpt lat="43.0255919" lon="12.2708305"><ele>207.2</ele><time>2026-05-01T06:58:59.969Z</time></trkpt><trkpt lat="43.0255305" lon="12.2707292"><ele>207.39999999999998</ele><time>2026-05-01T06:59:01.968Z</time></trkpt><trkpt lat="43.0254695" lon="12.2706327"><ele>207.60000000000002</ele><time>2026-05-01T06:59:03.96Z</time></trkpt><trkpt lat="43.0254156" lon="12.2705265"><ele>207.8</ele><time>2026-05-01T06:59:05.968Z</time></trkpt><trkpt lat="43.0253488" lon="12.2704295"><ele>208.0</ele><time>2026-05-01T06:59:07.969Z</time></trkpt><trkpt lat="43.025291" lon="12.2703423"><ele>208.0</ele><time>2026-05-01T06:59:09.963Z</time></trkpt><trkpt lat="43.0252292" lon="12.270239"><ele>208.0</ele><time>2026-05-01T06:59:12Z</time></trkpt><trkpt lat="43.0251676" lon="12.2701375"><ele>208.0</ele><time>2026-05-01T06:59:13.95Z</time></trkpt><trkpt lat="43.0251007" lon="12.2700425"><ele>208.0</ele><time>2026-05-01T06:59:15.965Z</time></trkpt><trkpt lat="43.0250443" lon="12.2699429"><ele>208.0</ele><time>2026-05-01T06:59:17.95Z</time></trkpt><trkpt lat="43.0249814" lon="12.2698461"><ele>207.99999999999997</ele><time>2026-05-01T06:59:19.969Z</time></trkpt><trkpt lat="43.0249349" lon="12.2697474"><ele>208.0</ele><time>2026-05-01T06:59:21.968Z</time></trkpt><trkpt lat="43.0249313" lon="12.2696206"><ele>208.0</ele><time>2026-05-01T06:59:24.96Z</time></trkpt><trkpt lat="43.0249706" lon="12.2695386"><ele>208.0</ele><time>2026-05-01T06:59:26.965Z</time></trkpt><trkpt lat="43.025021" lon="12.2694626"><ele>207.99999999999997</ele><time>2026-05-01T06:59:28.957Z</time></trkpt><trkpt lat="43.0250634" lon="12.2693695"><ele>208.0</ele><time>2026-05-01T06:59:30.955Z</time></trkpt><trkpt lat="43.0251086" lon="12.2692734"><ele>207.83333333333331</ele><time>2026-05-01T06:59:32.972Z</time></trkpt><trkpt lat="43.0251552" lon="12.2691666"><ele>207.66666666666666</ele><time>2026-05-01T06:59:34.96Z</time></trkpt><trkpt lat="43.0252061" lon="12.269065"><ele>207.5</ele><time>2026-05-01T06:59:36.973Z</time></trkpt><trkpt lat="43.0252471" lon="12.2689647"><ele>207.33333333333331</ele><time>2026-05-01T06:59:38.963Z</time></trkpt><trkpt lat="43.0252777" lon="12.268846"><ele>207.16666666666666</ele><time>2026-05-01T06:59:40.971Z</time></trkpt><trkpt lat="43.0253064" lon="12.2687394"><ele>207.0</ele><time>2026-05-01T06:59:42.974Z</time></trkpt><trkpt lat="43.0253374" lon="12.268642"><ele>207.0</ele><time>2026-05-01T06:59:44.971Z</time></trkpt><trkpt lat="43.0253786" lon="12.2685408"><ele>207.0</ele><time>2026-05-01T06:59:46.962Z</time></trkpt><trkpt lat="43.025412" lon="12.2684372"><ele>207.0</ele><time>2026-05-01T06:59:48.972Z</time></trkpt><trkpt lat="43.0254501" lon="12.2683345"><ele>207.0</ele><time>2026-05-01T06:59:50.964Z</time></trkpt><trkpt lat="43.0254862" lon="12.268227"><ele>207.0</ele><time>2026-05-01T06:59:52.95Z</time></trkpt><trkpt lat="43.0255204" lon="12.2681253"><ele>207.0</ele><time>2026-05-01T06:59:54.947Z</time></trkpt><trkpt lat="43.0255475" lon="12.2680376"><ele>206.83333333333334</ele><time>2026-05-01T06:59:56.977Z</time></trkpt><trkpt lat="43.0255529" lon="12.2679339"><ele>206.66666666666669</ele><time>2026-05-01T06:59:59.97Z</time></trkpt><trkpt lat="43.0254617" lon="12.2678778"><ele>206.5</ele><time>2026-05-01T07:00:02.962Z</time></trkpt><trkpt lat="43.0253809" lon="12.2678435"><ele>206.33333333333334</ele><time>2026-05-01T07:00:05Z</time></trkpt><trkpt lat="43.0252995" lon="12.267812"><ele>206.16666666666669</ele><time>2026-05-01T07:00:06.975Z</time></trkpt><trkpt lat="43.025217" lon="12.2677723"><ele>206.0</ele><time>2026-05-01T07:00:08.972Z</time></trkpt><trkpt lat="43.0251397" lon="12.2677277"><ele>206.00000000000003</ele><time>2026-05-01T07:00:10.963Z</time></trkpt><trkpt lat="43.0250519" lon="12.2676884"><ele>206.0</ele><time>2026-05-01T07:00:12.961Z</time></trkpt><trkpt lat="43.0249711" lon="12.2676421"><ele>206.0</ele><time>2026-05-01T07:00:14.97Z</time></trkpt><trkpt lat="43.0248882" lon="12.2676037"><ele>206.0</ele><time>2026-05-01T07:00:16.969Z</time></trkpt><trkpt lat="43.0248066" lon="12.2675658"><ele>206.00000000000003</ele><time>2026-05-01T07:00:18.965Z</time></trkpt><trkpt lat="43.0247243" lon="12.2675291"><ele>206.0</ele><time>2026-05-01T07:00:20.972Z</time></trkpt><trkpt lat="43.0246426" lon="12.2674934"><ele>206.16666666666669</ele><time>2026-05-01T07:00:22.962Z</time></trkpt><trkpt lat="43.0245624" lon="12.2674559"><ele>206.33333333333334</ele><time>2026-05-01T07:00:24.954Z</time></trkpt><trkpt lat="43.0244809" lon="12.2674231"><ele>206.5</ele><time>2026-05-01T07:00:26.969Z</time></trkpt><trkpt lat="43.0244059" lon="12.2673861"><ele>206.66666666666669</ele><time>2026-05-01T07:00:28.961Z</time></trkpt><trkpt lat="43.0243286" lon="12.2673421"><ele>206.83333333333334</ele><time>2026-05-01T07:00:30.976Z</time></trkpt><trkpt lat="43.0242454" lon="12.2672956"><ele>207.0</ele><time>2026-05-01T07:00:32.97Z</time></trkpt><trkpt lat="43.0241691" lon="12.2672583"><ele>206.83333333333334</ele><time>2026-05-01T07:00:34.969Z</time></trkpt><trkpt lat="43.0241011" lon="12.2672117"><ele>206.66666666666669</ele><time>2026-05-01T07:00:36.949Z</time></trkpt><trkpt lat="43.024026" lon="12.2671669"><ele>206.5</ele><time>2026-05-01T07:00:38.966Z</time></trkpt><trkpt lat="43.0239484" lon="12.267125"><ele>206.33333333333334</ele><time>2026-05-01T07:00:40.952Z</time></trkpt><trkpt lat="43.0238682" lon="12.2670852"><ele>206.16666666666669</ele><time>2026-05-01T07:00:42.967Z</time></trkpt><trkpt lat="43.0237899" lon="12.2670469"><ele>206.0</ele><time>2026-05-01T07:00:44.968Z</time></trkpt><trkpt lat="43.0237075" lon="12.2670068"><ele>206.00000000000003</ele><time>2026-05-01T07:00:46.951Z</time></trkpt><trkpt lat="43.0236227" lon="12.2669617"><ele>206.0</ele><time>2026-05-01T07:00:48.969Z</time></trkpt><trkpt lat="43.0235489" lon="12.2669235"><ele>206.0</ele><time>2026-05-01T07:00:50.951Z</time></trkpt><trkpt lat="43.0234669" lon="12.2668816"><ele>206.0</ele><time>2026-05-01T07:00:52.956Z</time></trkpt><trkpt lat="43.0233852" lon="12.2668429"><ele>206.00000000000003</ele><time>2026-05-01T07:00:54.95Z</time></trkpt><trkpt lat="43.0233041" lon="12.266804"><ele>206.0</ele><time>2026-05-01T07:00:56.95Z</time></trkpt><trkpt lat="43.0232232" lon="12.2667601"><ele>206.42857142857142</ele><time>2026-05-01T07:00:58.951Z</time></trkpt><trkpt lat="43.0231422" lon="12.2667143"><ele>206.85714285714286</ele><time>2026-05-01T07:01:00.945Z</time></trkpt><trkpt lat="43.0230745" lon="12.2666799"><ele>207.28571428571428</ele><time>2026-05-01T07:01:02.947Z</time></trkpt><trkpt lat="43.0230134" lon="12.266648"><ele>207.71428571428572</ele><time>2026-05-01T07:01:04.945Z</time></trkpt><trkpt lat="43.0229559" lon="12.2666056"><ele>208.14285714285714</ele><time>2026-05-01T07:01:06.944Z</time></trkpt><trkpt lat="43.022899" lon="12.2665546"><ele>208.57142857142856</ele><time>2026-05-01T07:01:08.947Z</time></trkpt><trkpt lat="43.0228437" lon="12.266513"><ele>209.0</ele><time>2026-05-01T07:01:10.954Z</time></trkpt><trkpt lat="43.0227583" lon="12.2664587"><ele>208.85714285714286</ele><time>2026-05-01T07:01:13.958Z</time></trkpt><trkpt lat="43.0226979" lon="12.2664241"><ele>208.71428571428572</ele><time>2026-05-01T07:01:15.948Z</time></trkpt><trkpt lat="43.022628" lon="12.2663881"><ele>208.57142857142856</ele><time>2026-05-01T07:01:17.957Z</time></trkpt><trkpt lat="43.0225571" lon="12.2663517"><ele>208.42857142857144</ele><time>2026-05-01T07:01:19.956Z</time></trkpt><trkpt lat="43.022489" lon="12.2663152"><ele>208.2857142857143</ele><time>2026-05-01T07:01:21.956Z</time></trkpt><trkpt lat="43.0224149" lon="12.2662716"><ele>208.14285714285714</ele><time>2026-05-01T07:01:23.964Z</time></trkpt><trkpt lat="43.022346" lon="12.266222"><ele>208.0</ele><time>2026-05-01T07:01:25.95Z</time></trkpt><trkpt lat="43.0222696" lon="12.2661765"><ele>207.83333333333331</ele><time>2026-05-01T07:01:27.949Z</time></trkpt><trkpt lat="43.0221946" lon="12.2661345"><ele>207.66666666666666</ele><time>2026-05-01T07:01:29.964Z</time></trkpt><trkpt lat="43.022123" lon="12.2660946"><ele>207.5</ele><time>2026-05-01T07:01:31.949Z</time></trkpt><trkpt lat="43.0220529" lon="12.2660462"><ele>207.33333333333331</ele><time>2026-05-01T07:01:33.954Z</time></trkpt><trkpt lat="43.0219865" lon="12.2660113"><ele>207.16666666666666</ele><time>2026-05-01T07:01:35.969Z</time></trkpt><trkpt lat="43.0219117" lon="12.2659776"><ele>207.0</ele><time>2026-05-01T07:01:37.946Z</time></trkpt><trkpt lat="43.0218375" lon="12.2659501"><ele>207.0</ele><time>2026-05-01T07:01:39.951Z</time></trkpt><trkpt lat="43.0217633" lon="12.2659128"><ele>207.0</ele><time>2026-05-01T07:01:41.954Z</time></trkpt><trkpt lat="43.0216819" lon="12.2658797"><ele>207.0</ele><time>2026-05-01T07:01:43.949Z</time></trkpt><trkpt lat="43.0215995" lon="12.2658447"><ele>207.0</ele><time>2026-05-01T07:01:45.949Z</time></trkpt><trkpt lat="43.021527" lon="12.2658129"><ele>207.0</ele><time>2026-05-01T07:01:47.949Z</time></trkpt><trkpt lat="43.021452" lon="12.265779"><ele>207.0</ele><time>2026-05-01T07:01:49.955Z</time></trkpt><trkpt lat="43.0213715" lon="12.2657412"><ele>207.16666666666666</ele><time>2026-05-01T07:01:51.952Z</time></trkpt><trkpt lat="43.0212955" lon="12.2657057"><ele>207.33333333333331</ele><time>2026-05-01T07:01:53.95Z</time></trkpt><trkpt lat="43.0212197" lon="12.2656775"><ele>207.5</ele><time>2026-05-01T07:01:55.973Z</time></trkpt><trkpt lat="43.0211505" lon="12.2656562"><ele>207.66666666666666</ele><time>2026-05-01T07:01:57.954Z</time></trkpt><trkpt lat="43.0210799" lon="12.2656293"><ele>207.83333333333331</ele><time>2026-05-01T07:01:59.955Z</time></trkpt><trkpt lat="43.021009" lon="12.2656058"><ele>208.0</ele><time>2026-05-01T07:02:01.975Z</time></trkpt><trkpt lat="43.0209352" lon="12.2655837"><ele>207.99999999999997</ele><time>2026-05-01T07:02:03.951Z</time></trkpt><trkpt lat="43.0208601" lon="12.2655495"><ele>208.0</ele><time>2026-05-01T07:02:05.965Z</time></trkpt><trkpt lat="43.0208018" lon="12.2655121"><ele>208.0</ele><time>2026-05-01T07:02:07.974Z</time></trkpt><trkpt lat="43.0207249" lon="12.265468"><ele>208.0</ele><time>2026-05-01T07:02:10.972Z</time></trkpt><trkpt lat="43.0206647" lon="12.2654292"><ele>207.99999999999997</ele><time>2026-05-01T07:02:12.951Z</time></trkpt><trkpt lat="43.0205851" lon="12.2653905"><ele>208.0</ele><time>2026-05-01T07:02:14.965Z</time></trkpt><trkpt lat="43.0205147" lon="12.2653583"><ele>207.99999999999997</ele><time>2026-05-01T07:02:16.97Z</time></trkpt><trkpt lat="43.0204485" lon="12.2653358"><ele>208.0</ele><time>2026-05-01T07:02:18.955Z</time></trkpt><trkpt lat="43.0203681" lon="12.2652909"><ele>208.0</ele><time>2026-05-01T07:02:22Z</time></trkpt><trkpt lat="43.0203062" lon="12.2652355"><ele>208.0</ele><time>2026-05-01T07:02:23.955Z</time></trkpt><trkpt lat="43.0202472" lon="12.2651746"><ele>207.99999999999997</ele><time>2026-05-01T07:02:25.963Z</time></trkpt><trkpt lat="43.0201773" lon="12.2651166"><ele>208.0</ele><time>2026-05-01T07:02:27.954Z</time></trkpt><trkpt lat="43.0201031" lon="12.265076"><ele>207.99999999999997</ele><time>2026-05-01T07:02:29.948Z</time></trkpt><trkpt lat="43.0200301" lon="12.265031"><ele>208.0</ele><time>2026-05-01T07:02:31.962Z</time></trkpt><trkpt lat="43.0199544" lon="12.2649934"><ele>208.0</ele><time>2026-05-01T07:02:33.972Z</time></trkpt><trkpt lat="43.0198804" lon="12.2649555"><ele>208.0</ele><time>2026-05-01T07:02:35.969Z</time></trkpt><trkpt lat="43.0198116" lon="12.264918"><ele>207.99999999999997</ele><time>2026-05-01T07:02:37.964Z</time></trkpt><trkpt lat="43.0197432" lon="12.2648832"><ele>208.0</ele><time>2026-05-01T07:02:39.955Z</time></trkpt><trkpt lat="43.0196684" lon="12.2648477"><ele>208.0</ele><time>2026-05-01T07:02:41.97Z</time></trkpt><trkpt lat="43.0195926" lon="12.2648085"><ele>208.0</ele><time>2026-05-01T07:02:43.977Z</time></trkpt><trkpt lat="43.0195279" lon="12.2647711"><ele>208.0</ele><time>2026-05-01T07:02:45.972Z</time></trkpt><trkpt lat="43.019466" lon="12.2647396"><ele>208.0</ele><time>2026-05-01T07:02:47.959Z</time></trkpt><trkpt lat="43.0194024" lon="12.2647142"><ele>208.0</ele><time>2026-05-01T07:02:49.956Z</time></trkpt><trkpt lat="43.0193282" lon="12.2646862"><ele>208.0</ele><time>2026-05-01T07:02:51.952Z</time></trkpt><trkpt lat="43.0192545" lon="12.2646456"><ele>208.0</ele><time>2026-05-01T07:02:53.958Z</time></trkpt><trkpt lat="43.0191945" lon="12.2645996"><ele>208.0</ele><time>2026-05-01T07:02:55.956Z</time></trkpt><trkpt lat="43.0191296" lon="12.2645686"><ele>208.0</ele><time>2026-05-01T07:02:57.955Z</time></trkpt><trkpt lat="43.0190594" lon="12.2645286"><ele>208.0</ele><time>2026-05-01T07:02:59.95Z</time></trkpt><trkpt lat="43.0189893" lon="12.2645088"><ele>208.0</ele><time>2026-05-01T07:03:01.957Z</time></trkpt><trkpt lat="43.0189162" lon="12.2644828"><ele>208.0</ele><time>2026-05-01T07:03:03.95Z</time></trkpt><trkpt lat="43.0188465" lon="12.2644522"><ele>208.0</ele><time>2026-05-01T07:03:05.948Z</time></trkpt><trkpt lat="43.0187845" lon="12.2644087"><ele>208.0</ele><time>2026-05-01T07:03:07.953Z</time></trkpt><trkpt lat="43.018697" lon="12.264362"><ele>208.0</ele><time>2026-05-01T07:03:10.954Z</time></trkpt><trkpt lat="43.0186321" lon="12.2643295"><ele>208.0</ele><time>2026-05-01T07:03:12.954Z</time></trkpt><trkpt lat="43.0185581" lon="12.2643019"><ele>208.0</ele><time>2026-05-01T07:03:14.956Z</time></trkpt><trkpt lat="43.018489" lon="12.2642771"><ele>208.0</ele><time>2026-05-01T07:03:16.949Z</time></trkpt><trkpt lat="43.0184326" lon="12.2642384"><ele>208.0</ele><time>2026-05-01T07:03:18.95Z</time></trkpt><trkpt lat="43.0183708" lon="12.2642018"><ele>208.0</ele><time>2026-05-01T07:03:20.95Z</time></trkpt><trkpt lat="43.0183055" lon="12.2641582"><ele>208.0</ele><time>2026-05-01T07:03:22.954Z</time></trkpt><trkpt lat="43.0182351" lon="12.2641211"><ele>207.99999999999997</ele><time>2026-05-01T07:03:24.949Z</time></trkpt><trkpt lat="43.0181641" lon="12.2640876"><ele>208.0</ele><time>2026-05-01T07:03:26.953Z</time></trkpt><trkpt lat="43.0180944" lon="12.2640386"><ele>208.0</ele><time>2026-05-01T07:03:28.946Z</time></trkpt><trkpt lat="43.0180216" lon="12.2639961"><ele>208.0</ele><time>2026-05-01T07:03:30.949Z</time></trkpt><trkpt lat="43.017955" lon="12.2639582"><ele>207.99999999999997</ele><time>2026-05-01T07:03:32.95Z</time></trkpt><trkpt lat="43.0178556" lon="12.2639217"><ele>208.0</ele><time>2026-05-01T07:03:35.953Z</time></trkpt><trkpt lat="43.0177748" lon="12.2638937"><ele>207.99999999999997</ele><time>2026-05-01T07:03:37.948Z</time></trkpt><trkpt lat="43.0177028" lon="12.263862"><ele>208.0</ele><time>2026-05-01T07:03:39.95Z</time></trkpt><trkpt lat="43.0176368" lon="12.2638319"><ele>208.0</ele><time>2026-05-01T07:03:41.948Z</time></trkpt><trkpt lat="43.017561" lon="12.2637944"><ele>208.0</ele><time>2026-05-01T07:03:44Z</time></trkpt><trkpt lat="43.0174858" lon="12.263759"><ele>207.99999999999997</ele><time>2026-05-01T07:03:45.979Z</time></trkpt><trkpt lat="43.0174098" lon="12.2637361"><ele>208.0</ele><time>2026-05-01T07:03:47.963Z</time></trkpt><trkpt lat="43.0173466" lon="12.2637053"><ele>209.99999999999997</ele><time>2026-05-01T07:03:50Z</time></trkpt><trkpt lat="43.0172907" lon="12.2636598"><ele>212.0</ele><time>2026-05-01T07:03:51.96Z</time></trkpt><trkpt lat="43.0172186" lon="12.2636151"><ele>214.0</ele><time>2026-05-01T07:03:54.952Z</time></trkpt><trkpt lat="43.017141" lon="12.2636131"><ele>216.0</ele><time>2026-05-01T07:03:57.963Z</time></trkpt><trkpt lat="43.0170649" lon="12.2635777"><ele>217.99999999999997</ele><time>2026-05-01T07:04:00.973Z</time></trkpt><trkpt lat="43.017036" lon="12.2634954"><ele>220.0</ele><time>2026-05-01T07:04:02.974Z</time></trkpt><trkpt lat="43.0170114" lon="12.263385"><ele>220.0</ele><time>2026-05-01T07:04:04.971Z</time></trkpt><trkpt lat="43.0169775" lon="12.2632619"><ele>220.0</ele><time>2026-05-01T07:04:06.972Z</time></trkpt><trkpt lat="43.0169459" lon="12.2631394"><ele>220.0</ele><time>2026-05-01T07:04:08.97Z</time></trkpt><trkpt lat="43.0169215" lon="12.2630193"><ele>220.0</ele><time>2026-05-01T07:04:10.972Z</time></trkpt><trkpt lat="43.0168978" lon="12.2629077"><ele>220.0</ele><time>2026-05-01T07:04:12.966Z</time></trkpt><trkpt lat="43.0168425" lon="12.2627955"><ele>218.66666666666666</ele><time>2026-05-01T07:04:14.975Z</time></trkpt><trkpt lat="43.016799" lon="12.2627013"><ele>217.33333333333331</ele><time>2026-05-01T07:04:16.95Z</time></trkpt><trkpt lat="43.0167439" lon="12.2625975"><ele>216.0</ele><time>2026-05-01T07:04:18.994Z</time></trkpt><trkpt lat="43.016672" lon="12.2625006"><ele>214.66666666666669</ele><time>2026-05-01T07:04:20.948Z</time></trkpt><trkpt lat="43.0166123" lon="12.2624368"><ele>213.33333333333334</ele><time>2026-05-01T07:04:22.939Z</time></trkpt><trkpt lat="43.0165523" lon="12.2623766"><ele>212.0</ele><time>2026-05-01T07:04:24.947Z</time></trkpt><trkpt lat="43.0164774" lon="12.262346"><ele>211.83333333333334</ele><time>2026-05-01T07:04:26.951Z</time></trkpt><trkpt lat="43.0163933" lon="12.2623537"><ele>211.66666666666669</ele><time>2026-05-01T07:04:28.955Z</time></trkpt><trkpt lat="43.0163072" lon="12.2623937"><ele>211.5</ele><time>2026-05-01T07:04:30.953Z</time></trkpt><trkpt lat="43.01622" lon="12.2624383"><ele>211.33333333333331</ele><time>2026-05-01T07:04:32.966Z</time></trkpt><trkpt lat="43.0161497" lon="12.2624781"><ele>211.16666666666666</ele><time>2026-05-01T07:04:34.969Z</time></trkpt><trkpt lat="43.0160663" lon="12.2625085"><ele>211.0</ele><time>2026-05-01T07:04:37.947Z</time></trkpt><trkpt lat="43.0159741" lon="12.2624848"><ele>210.99999999999997</ele><time>2026-05-01T07:04:40.964Z</time></trkpt><trkpt lat="43.0158912" lon="12.262451"><ele>211.0</ele><time>2026-05-01T07:04:42.952Z</time></trkpt><trkpt lat="43.0158205" lon="12.2624066"><ele>211.0</ele><time>2026-05-01T07:04:44.948Z</time></trkpt><trkpt lat="43.0157557" lon="12.262358"><ele>211.0</ele><time>2026-05-01T07:04:46.947Z</time></trkpt><trkpt lat="43.0157195" lon="12.2622823"><ele>210.99999999999997</ele><time>2026-05-01T07:04:49.967Z</time></trkpt><trkpt lat="43.015753" lon="12.2621754"><ele>211.0</ele><time>2026-05-01T07:04:53.963Z</time></trkpt><trkpt lat="43.0158166" lon="12.2620852"><ele>210.28571428571428</ele><time>2026-05-01T07:04:56.954Z</time></trkpt><trkpt lat="43.0158661" lon="12.2620157"><ele>209.57142857142858</ele><time>2026-05-01T07:04:58.949Z</time></trkpt><trkpt lat="43.015911" lon="12.2619422"><ele>208.85714285714283</ele><time>2026-05-01T07:05:00.945Z</time></trkpt><trkpt lat="43.0159638" lon="12.2618625"><ele>208.14285714285714</ele><time>2026-05-01T07:05:02.939Z</time></trkpt><trkpt lat="43.016016" lon="12.2617912"><ele>207.42857142857142</ele><time>2026-05-01T07:05:04.947Z</time></trkpt><trkpt lat="43.0160602" lon="12.2617138"><ele>206.7142857142857</ele><time>2026-05-01T07:05:06.955Z</time></trkpt><trkpt lat="43.0161144" lon="12.2616384"><ele>206.0</ele><time>2026-05-01T07:05:08.968Z</time></trkpt><trkpt lat="43.0161663" lon="12.2615565"><ele>206.00000000000003</ele><time>2026-05-01T07:05:11Z</time></trkpt><trkpt lat="43.0162122" lon="12.261474"><ele>206.0</ele><time>2026-05-01T07:05:12.948Z</time></trkpt><trkpt lat="43.0162479" lon="12.2613961"><ele>206.0</ele><time>2026-05-01T07:05:14.966Z</time></trkpt><trkpt lat="43.0162985" lon="12.2612773"><ele>206.0</ele><time>2026-05-01T07:05:16.949Z</time></trkpt><trkpt lat="43.0163455" lon="12.2612125"><ele>206.00000000000003</ele><time>2026-05-01T07:05:17.974Z</time></trkpt><trkpt lat="43.0164" lon="12.2611186"><ele>206.0</ele><time>2026-05-01T07:05:19.97Z</time></trkpt><trkpt lat="43.0164651" lon="12.2610154"><ele>206.20000000000002</ele><time>2026-05-01T07:05:21.95Z</time></trkpt><trkpt lat="43.0165029" lon="12.2609169"><ele>206.4</ele><time>2026-05-01T07:05:23.969Z</time></trkpt><trkpt lat="43.0165648" lon="12.2607954"><ele>206.6</ele><time>2026-05-01T07:05:25.955Z</time></trkpt><trkpt lat="43.0165772" lon="12.2606823"><ele>206.8</ele><time>2026-05-01T07:05:27.947Z</time></trkpt><trkpt lat="43.0166122" lon="12.2605546"><ele>207.0</ele><time>2026-05-01T07:05:29.972Z</time></trkpt><trkpt lat="43.0166327" lon="12.2604357"><ele>207.39999999999998</ele><time>2026-05-01T07:05:31.966Z</time></trkpt><trkpt lat="43.0166673" lon="12.2603317"><ele>207.79999999999998</ele><time>2026-05-01T07:05:33.959Z</time></trkpt><trkpt lat="43.0166915" lon="12.2602151"><ele>208.2</ele><time>2026-05-01T07:05:35.972Z</time></trkpt><trkpt lat="43.0167069" lon="12.2600919"><ele>208.6</ele><time>2026-05-01T07:05:37.948Z</time></trkpt><trkpt lat="43.0167434" lon="12.2599784"><ele>209.0</ele><time>2026-05-01T07:05:39.964Z</time></trkpt><trkpt lat="43.0167596" lon="12.2598424"><ele>208.6</ele><time>2026-05-01T07:05:41.949Z</time></trkpt><trkpt lat="43.0167927" lon="12.2597362"><ele>208.2</ele><time>2026-05-01T07:05:43.951Z</time></trkpt><trkpt lat="43.0168188" lon="12.2596093"><ele>207.79999999999998</ele><time>2026-05-01T07:05:45.951Z</time></trkpt><trkpt lat="43.0168426" lon="12.2594941"><ele>207.39999999999998</ele><time>2026-05-01T07:05:47.973Z</time></trkpt><trkpt lat="43.0168707" lon="12.2593662"><ele>207.0</ele><time>2026-05-01T07:05:49.949Z</time></trkpt><trkpt lat="43.016905" lon="12.2592434"><ele>207.0</ele><time>2026-05-01T07:05:51.967Z</time></trkpt><trkpt lat="43.0169376" lon="12.2591259"><ele>207.0</ele><time>2026-05-01T07:05:53.95Z</time></trkpt><trkpt lat="43.0169599" lon="12.2589967"><ele>207.0</ele><time>2026-05-01T07:05:55.97Z</time></trkpt><trkpt lat="43.0169766" lon="12.2588738"><ele>207.0</ele><time>2026-05-01T07:05:57.951Z</time></trkpt><trkpt lat="43.0170227" lon="12.2587569"><ele>207.0</ele><time>2026-05-01T07:05:59.964Z</time></trkpt><trkpt lat="43.0170505" lon="12.2586374"><ele>207.2</ele><time>2026-05-01T07:06:01.97Z</time></trkpt><trkpt lat="43.0170687" lon="12.2585295"><ele>207.39999999999998</ele><time>2026-05-01T07:06:03.951Z</time></trkpt><trkpt lat="43.0170991" lon="12.2584102"><ele>207.60000000000002</ele><time>2026-05-01T07:06:05.969Z</time></trkpt><trkpt lat="43.0171275" lon="12.2582885"><ele>207.8</ele><time>2026-05-01T07:06:07.973Z</time></trkpt><trkpt lat="43.0171493" lon="12.258171"><ele>208.0</ele><time>2026-05-01T07:06:09.951Z</time></trkpt><trkpt lat="43.017176" lon="12.2580454"><ele>208.0</ele><time>2026-05-01T07:06:11.958Z</time></trkpt><trkpt lat="43.017196" lon="12.2579313"><ele>208.0</ele><time>2026-05-01T07:06:13.971Z</time></trkpt><trkpt lat="43.0172201" lon="12.2578082"><ele>208.0</ele><time>2026-05-01T07:06:15.954Z</time></trkpt><trkpt lat="43.0172408" lon="12.2576815"><ele>208.0</ele><time>2026-05-01T07:06:17.975Z</time></trkpt><trkpt lat="43.0172574" lon="12.2575579"><ele>208.0</ele><time>2026-05-01T07:06:19.955Z</time></trkpt><trkpt lat="43.0172741" lon="12.2574305"><ele>208.0</ele><time>2026-05-01T07:06:21.964Z</time></trkpt><trkpt lat="43.0172878" lon="12.2572976"><ele>208.0</ele><time>2026-05-01T07:06:23.968Z</time></trkpt><trkpt lat="43.0172968" lon="12.2571694"><ele>208.0</ele><time>2026-05-01T07:06:25.955Z</time></trkpt><trkpt lat="43.0172988" lon="12.2570397"><ele>208.0</ele><time>2026-05-01T07:06:27.971Z</time></trkpt><trkpt lat="43.0173005" lon="12.2569225"><ele>208.0</ele><time>2026-05-01T07:06:29.971Z</time></trkpt><trkpt lat="43.017299" lon="12.2568019"><ele>208.0</ele><time>2026-05-01T07:06:31.969Z</time></trkpt><trkpt lat="43.0172939" lon="12.2566792"><ele>208.0</ele><time>2026-05-01T07:06:33.971Z</time></trkpt><trkpt lat="43.0172875" lon="12.2565551"><ele>208.0</ele><time>2026-05-01T07:06:35.976Z</time></trkpt><trkpt lat="43.0172792" lon="12.2564221"><ele>208.0</ele><time>2026-05-01T07:06:37.947Z</time></trkpt><trkpt lat="43.0172671" lon="12.2562892"><ele>208.0</ele><time>2026-05-01T07:06:39.958Z</time></trkpt><trkpt lat="43.0172656" lon="12.2561568"><ele>208.0</ele><time>2026-05-01T07:06:41.969Z</time></trkpt><trkpt lat="43.0172574" lon="12.2560324"><ele>208.0</ele><time>2026-05-01T07:06:43.949Z</time></trkpt><trkpt lat="43.0172434" lon="12.2558975"><ele>208.0</ele><time>2026-05-01T07:06:45.947Z</time></trkpt><trkpt lat="43.0172295" lon="12.2557654"><ele>208.0</ele><time>2026-05-01T07:06:47.964Z</time></trkpt><trkpt lat="43.0172159" lon="12.2556257"><ele>208.0</ele><time>2026-05-01T07:06:49.966Z</time></trkpt><trkpt lat="43.0172053" lon="12.2554875"><ele>208.0</ele><time>2026-05-01T07:06:51.964Z</time></trkpt><trkpt lat="43.0171866" lon="12.2553537"><ele>208.0</ele><time>2026-05-01T07:06:53.965Z</time></trkpt><trkpt lat="43.0171699" lon="12.2552269"><ele>208.0</ele><time>2026-05-01T07:06:55.961Z</time></trkpt><trkpt lat="43.0171648" lon="12.2550923"><ele>208.0</ele><time>2026-05-01T07:06:57.964Z</time></trkpt><trkpt lat="43.0171803" lon="12.2549823"><ele>208.0</ele><time>2026-05-01T07:06:59.969Z</time></trkpt><trkpt lat="43.0171819" lon="12.2548425"><ele>208.0</ele><time>2026-05-01T07:07:01.97Z</time></trkpt><trkpt lat="43.0171758" lon="12.2547085"><ele>208.0</ele><time>2026-05-01T07:07:03.963Z</time></trkpt><trkpt lat="43.0171675" lon="12.254574"><ele>208.0</ele><time>2026-05-01T07:07:05.954Z</time></trkpt><trkpt lat="43.017158" lon="12.2544417"><ele>208.0</ele><time>2026-05-01T07:07:07.958Z</time></trkpt><trkpt lat="43.0171511" lon="12.2543118"><ele>208.0</ele><time>2026-05-01T07:07:09.972Z</time></trkpt><trkpt lat="43.017151" lon="12.2541753"><ele>208.0</ele><time>2026-05-01T07:07:11.96Z</time></trkpt><trkpt lat="43.0171533" lon="12.2540312"><ele>208.0</ele><time>2026-05-01T07:07:13.968Z</time></trkpt><trkpt lat="43.0171511" lon="12.2538816"><ele>208.0</ele><time>2026-05-01T07:07:15.965Z</time></trkpt><trkpt lat="43.0171593" lon="12.2537566"><ele>208.0</ele><time>2026-05-01T07:07:17.975Z</time></trkpt><trkpt lat="43.0171593" lon="12.2536288"><ele>208.0</ele><time>2026-05-01T07:07:19.965Z</time></trkpt><trkpt lat="43.0171603" lon="12.2534959"><ele>208.2</ele><time>2026-05-01T07:07:21.959Z</time></trkpt><trkpt lat="43.0171714" lon="12.2533538"><ele>208.4</ele><time>2026-05-01T07:07:23.95Z</time></trkpt><trkpt lat="43.017181" lon="12.2532135"><ele>208.6</ele><time>2026-05-01T07:07:25.947Z</time></trkpt><trkpt lat="43.0171884" lon="12.2530731"><ele>208.79999999999998</ele><time>2026-05-01T07:07:27.953Z</time></trkpt><trkpt lat="43.0171972" lon="12.2529394"><ele>209.0</ele><time>2026-05-01T07:07:29.947Z</time></trkpt><trkpt lat="43.0171911" lon="12.2528204"><ele>209.0</ele><time>2026-05-01T07:07:31.954Z</time></trkpt><trkpt lat="43.0171988" lon="12.2526848"><ele>209.0</ele><time>2026-05-01T07:07:33.949Z</time></trkpt><trkpt lat="43.017207" lon="12.25255"><ele>209.0</ele><time>2026-05-01T07:07:35.949Z</time></trkpt><trkpt lat="43.017211" lon="12.2524155"><ele>209.0</ele><time>2026-05-01T07:07:37.956Z</time></trkpt><trkpt lat="43.0172147" lon="12.2522786"><ele>209.0</ele><time>2026-05-01T07:07:39.957Z</time></trkpt><trkpt lat="43.0172221" lon="12.2521487"><ele>209.0</ele><time>2026-05-01T07:07:41.946Z</time></trkpt><trkpt lat="43.0172301" lon="12.2520149"><ele>209.0</ele><time>2026-05-01T07:07:43.957Z</time></trkpt><trkpt lat="43.0172389" lon="12.2518652"><ele>209.0</ele><time>2026-05-01T07:07:45.947Z</time></trkpt><trkpt lat="43.0172442" lon="12.2517369"><ele>209.0</ele><time>2026-05-01T07:07:47.958Z</time></trkpt><trkpt lat="43.0172472" lon="12.2515997"><ele>209.0</ele><time>2026-05-01T07:07:50Z</time></trkpt><trkpt lat="43.0172411" lon="12.2514666"><ele>209.0</ele><time>2026-05-01T07:07:51.967Z</time></trkpt><trkpt lat="43.0172357" lon="12.2513288"><ele>209.0</ele><time>2026-05-01T07:07:53.971Z</time></trkpt><trkpt lat="43.0172417" lon="12.2511846"><ele>209.0</ele><time>2026-05-01T07:07:55.96Z</time></trkpt><trkpt lat="43.017247" lon="12.2510544"><ele>209.0</ele><time>2026-05-01T07:07:57.971Z</time></trkpt><trkpt lat="43.0172546" lon="12.2509144"><ele>209.0</ele><time>2026-05-01T07:07:59.975Z</time></trkpt><trkpt lat="43.0172561" lon="12.2507798"><ele>209.0</ele><time>2026-05-01T07:08:01.97Z</time></trkpt><trkpt lat="43.0172573" lon="12.2506414"><ele>209.0</ele><time>2026-05-01T07:08:03.969Z</time></trkpt><trkpt lat="43.0172662" lon="12.25051"><ele>209.0</ele><time>2026-05-01T07:08:05.967Z</time></trkpt><trkpt lat="43.0172843" lon="12.2503862"><ele>209.0</ele><time>2026-05-01T07:08:07.971Z</time></trkpt><trkpt lat="43.0172961" lon="12.2502415"><ele>209.0</ele><time>2026-05-01T07:08:09.961Z</time></trkpt><trkpt lat="43.0173002" lon="12.250116"><ele>209.0</ele><time>2026-05-01T07:08:11.952Z</time></trkpt><trkpt lat="43.0173128" lon="12.2499843"><ele>209.0</ele><time>2026-05-01T07:08:13.97Z</time></trkpt><trkpt lat="43.0173266" lon="12.2498521"><ele>209.0</ele><time>2026-05-01T07:08:15.972Z</time></trkpt><trkpt lat="43.0173335" lon="12.2497196"><ele>209.0</ele><time>2026-05-01T07:08:17.968Z</time></trkpt><trkpt lat="43.0173484" lon="12.2495801"><ele>209.0</ele><time>2026-05-01T07:08:19.97Z</time></trkpt><trkpt lat="43.0173591" lon="12.249438"><ele>209.0</ele><time>2026-05-01T07:08:21.964Z</time></trkpt><trkpt lat="43.0173722" lon="12.2492938"><ele>209.0</ele><time>2026-05-01T07:08:23.968Z</time></trkpt><trkpt lat="43.017382" lon="12.2491679"><ele>209.0</ele><time>2026-05-01T07:08:25.946Z</time></trkpt><trkpt lat="43.0174003" lon="12.2490344"><ele>209.0</ele><time>2026-05-01T07:08:27.964Z</time></trkpt><trkpt lat="43.0174196" lon="12.2489033"><ele>209.0</ele><time>2026-05-01T07:08:29.969Z</time></trkpt><trkpt lat="43.0174301" lon="12.2487643"><ele>209.0</ele><time>2026-05-01T07:08:31.974Z</time></trkpt><trkpt lat="43.0174484" lon="12.2486319"><ele>209.0</ele><time>2026-05-01T07:08:33.97Z</time></trkpt><trkpt lat="43.0174531" lon="12.2484862"><ele>209.0</ele><time>2026-05-01T07:08:35.949Z</time></trkpt><trkpt lat="43.0174518" lon="12.2483456"><ele>209.0</ele><time>2026-05-01T07:08:37.95Z</time></trkpt><trkpt lat="43.0174437" lon="12.2482077"><ele>209.0</ele><time>2026-05-01T07:08:39.97Z</time></trkpt><trkpt lat="43.017434" lon="12.248075"><ele>209.2</ele><time>2026-05-01T07:08:41.959Z</time></trkpt><trkpt lat="43.0174223" lon="12.2479332"><ele>209.39999999999998</ele><time>2026-05-01T07:08:43.957Z</time></trkpt><trkpt lat="43.0174138" lon="12.247804"><ele>209.6</ele><time>2026-05-01T07:08:45.966Z</time></trkpt><trkpt lat="43.0173927" lon="12.2476818"><ele>209.8</ele><time>2026-05-01T07:08:47.957Z</time></trkpt><trkpt lat="43.0173714" lon="12.2475499"><ele>210.0</ele><time>2026-05-01T07:08:49.954Z</time></trkpt><trkpt lat="43.0173516" lon="12.2474199"><ele>210.4</ele><time>2026-05-01T07:08:51.95Z</time></trkpt><trkpt lat="43.0173233" lon="12.2472828"><ele>210.8</ele><time>2026-05-01T07:08:53.945Z</time></trkpt><trkpt lat="43.0172903" lon="12.247141"><ele>211.2</ele><time>2026-05-01T07:08:55.953Z</time></trkpt><trkpt lat="43.0172563" lon="12.2470062"><ele>211.6</ele><time>2026-05-01T07:08:57.951Z</time></trkpt><trkpt lat="43.0172331" lon="12.2468772"><ele>212.0</ele><time>2026-05-01T07:08:59.947Z</time></trkpt><trkpt lat="43.017212" lon="12.2467557"><ele>212.0</ele><time>2026-05-01T07:09:01.952Z</time></trkpt><trkpt lat="43.0171817" lon="12.2466308"><ele>212.0</ele><time>2026-05-01T07:09:03.948Z</time></trkpt><trkpt lat="43.017147" lon="12.2464962"><ele>212.0</ele><time>2026-05-01T07:09:06Z</time></trkpt><trkpt lat="43.0171047" lon="12.2463649"><ele>212.0</ele><time>2026-05-01T07:09:07.957Z</time></trkpt><trkpt lat="43.0170473" lon="12.2462499"><ele>212.0</ele><time>2026-05-01T07:09:09.947Z</time></trkpt><trkpt lat="43.0169883" lon="12.2461422"><ele>212.39999999999998</ele><time>2026-05-01T07:09:11.953Z</time></trkpt><trkpt lat="43.0169327" lon="12.2460189"><ele>212.79999999999998</ele><time>2026-05-01T07:09:13.95Z</time></trkpt><trkpt lat="43.0168731" lon="12.2459134"><ele>213.2</ele><time>2026-05-01T07:09:15.956Z</time></trkpt><trkpt lat="43.0167934" lon="12.2458075"><ele>213.6</ele><time>2026-05-01T07:09:17.951Z</time></trkpt><trkpt lat="43.0167292" lon="12.2457013"><ele>214.0</ele><time>2026-05-01T07:09:19.959Z</time></trkpt><trkpt lat="43.0166608" lon="12.2455993"><ele>213.79999999999998</ele><time>2026-05-01T07:09:21.957Z</time></trkpt><trkpt lat="43.0165895" lon="12.2454926"><ele>213.59999999999997</ele><time>2026-05-01T07:09:23.949Z</time></trkpt><trkpt lat="43.0165078" lon="12.2453955"><ele>213.4</ele><time>2026-05-01T07:09:25.952Z</time></trkpt><trkpt lat="43.0164419" lon="12.2452816"><ele>213.2</ele><time>2026-05-01T07:09:27.958Z</time></trkpt><trkpt lat="43.0163804" lon="12.2451793"><ele>213.0</ele><time>2026-05-01T07:09:29.964Z</time></trkpt><trkpt lat="43.0163126" lon="12.2450717"><ele>213.0</ele><time>2026-05-01T07:09:31.962Z</time></trkpt><trkpt lat="43.0162391" lon="12.2449736"><ele>213.0</ele><time>2026-05-01T07:09:34Z</time></trkpt><trkpt lat="43.0161719" lon="12.2448667"><ele>213.0</ele><time>2026-05-01T07:09:35.943Z</time></trkpt><trkpt lat="43.0160912" lon="12.2447773"><ele>213.0</ele><time>2026-05-01T07:09:37.948Z</time></trkpt><trkpt lat="43.016024" lon="12.2446867"><ele>213.0</ele><time>2026-05-01T07:09:39.95Z</time></trkpt><trkpt lat="43.0159688" lon="12.2445915"><ele>213.0</ele><time>2026-05-01T07:09:41.968Z</time></trkpt><trkpt lat="43.015907" lon="12.2445216"><ele>213.0</ele><time>2026-05-01T07:09:43.947Z</time></trkpt><trkpt lat="43.0158328" lon="12.2444736"><ele>213.0</ele><time>2026-05-01T07:09:45.953Z</time></trkpt><trkpt lat="43.0157493" lon="12.2444261"><ele>213.0</ele><time>2026-05-01T07:09:48.949Z</time></trkpt><trkpt lat="43.0156942" lon="12.2443663"><ele>213.0</ele><time>2026-05-01T07:09:50.956Z</time></trkpt><trkpt lat="43.015643" lon="12.2442812"><ele>213.0</ele><time>2026-05-01T07:09:52.978Z</time></trkpt><trkpt lat="43.0155979" lon="12.2441931"><ele>213.0</ele><time>2026-05-01T07:09:54.962Z</time></trkpt><trkpt lat="43.0155447" lon="12.2441118"><ele>213.0</ele><time>2026-05-01T07:09:56.949Z</time></trkpt><trkpt lat="43.0154947" lon="12.2440207"><ele>213.0</ele><time>2026-05-01T07:09:58.955Z</time></trkpt><trkpt lat="43.0154373" lon="12.24394"><ele>213.0</ele><time>2026-05-01T07:10:00.993Z</time></trkpt><trkpt lat="43.0153706" lon="12.2438701"><ele>213.0</ele><time>2026-05-01T07:10:02.977Z</time></trkpt><trkpt lat="43.0153075" lon="12.2437919"><ele>213.0</ele><time>2026-05-01T07:10:04.969Z</time></trkpt><trkpt lat="43.0152521" lon="12.2436994"><ele>212.83333333333334</ele><time>2026-05-01T07:10:06.963Z</time></trkpt><trkpt lat="43.0151833" lon="12.2436122"><ele>212.66666666666669</ele><time>2026-05-01T07:10:08.973Z</time></trkpt><trkpt lat="43.0151199" lon="12.2435396"><ele>212.5</ele><time>2026-05-01T07:10:10.948Z</time></trkpt><trkpt lat="43.0150517" lon="12.2434713"><ele>212.33333333333334</ele><time>2026-05-01T07:10:12.987Z</time></trkpt><trkpt lat="43.01498" lon="12.2434332"><ele>212.16666666666669</ele><time>2026-05-01T07:10:14.941Z</time></trkpt><trkpt lat="43.0148841" lon="12.2433796"><ele>212.0</ele><time>2026-05-01T07:10:16.97Z</time></trkpt><trkpt lat="43.0147977" lon="12.2433001"><ele>212.0</ele><time>2026-05-01T07:10:18.974Z</time></trkpt><trkpt lat="43.0147057" lon="12.2432101"><ele>212.0</ele><time>2026-05-01T07:10:20.977Z</time></trkpt><trkpt lat="43.0146356" lon="12.2431317"><ele>212.0</ele><time>2026-05-01T07:10:22.963Z</time></trkpt><trkpt lat="43.0145722" lon="12.2430369"><ele>212.0</ele><time>2026-05-01T07:10:24.97Z</time></trkpt><trkpt lat="43.014508" lon="12.2429494"><ele>212.0</ele><time>2026-05-01T07:10:26.972Z</time></trkpt><trkpt lat="43.0144374" lon="12.2428593"><ele>212.0</ele><time>2026-05-01T07:10:28.943Z</time></trkpt><trkpt lat="43.014382" lon="12.2427748"><ele>212.0</ele><time>2026-05-01T07:10:30.946Z</time></trkpt><trkpt lat="43.0143114" lon="12.2426696"><ele>212.0</ele><time>2026-05-01T07:10:32.947Z</time></trkpt><trkpt lat="43.0142476" lon="12.2425827"><ele>212.0</ele><time>2026-05-01T07:10:34.949Z</time></trkpt><trkpt lat="43.0141876" lon="12.2424904"><ele>212.0</ele><time>2026-05-01T07:10:36.968Z</time></trkpt><trkpt lat="43.0141333" lon="12.2423943"><ele>212.00000000000003</ele><time>2026-05-01T07:10:38.971Z</time></trkpt><trkpt lat="43.0140944" lon="12.2422862"><ele>212.0</ele><time>2026-05-01T07:10:40.951Z</time></trkpt><trkpt lat="43.0140338" lon="12.2421887"><ele>212.0</ele><time>2026-05-01T07:10:42.953Z</time></trkpt><trkpt lat="43.0139832" lon="12.2421013"><ele>212.0</ele><time>2026-05-01T07:10:44.948Z</time></trkpt><trkpt lat="43.0139463" lon="12.2419958"><ele>212.00000000000003</ele><time>2026-05-01T07:10:46.954Z</time></trkpt><trkpt lat="43.0138966" lon="12.2419035"><ele>212.0</ele><time>2026-05-01T07:10:48.95Z</time></trkpt><trkpt lat="43.0138533" lon="12.2418033"><ele>212.0</ele><time>2026-05-01T07:10:50.957Z</time></trkpt><trkpt lat="43.0138117" lon="12.241685"><ele>212.0</ele><time>2026-05-01T07:10:52.975Z</time></trkpt><trkpt lat="43.0137636" lon="12.2415594"><ele>212.0</ele><time>2026-05-01T07:10:54.956Z</time></trkpt><trkpt lat="43.0137246" lon="12.2414259"><ele>212.0</ele><time>2026-05-01T07:10:56.971Z</time></trkpt><trkpt lat="43.0136975" lon="12.2412957"><ele>212.0</ele><time>2026-05-01T07:10:58.965Z</time></trkpt><trkpt lat="43.0136621" lon="12.2411677"><ele>211.8</ele><time>2026-05-01T07:11:00.964Z</time></trkpt><trkpt lat="43.013638" lon="12.2410531"><ele>211.6</ele><time>2026-05-01T07:11:02.963Z</time></trkpt><trkpt lat="43.0136246" lon="12.2409282"><ele>211.4</ele><time>2026-05-01T07:11:04.952Z</time></trkpt><trkpt lat="43.0136027" lon="12.2408082"><ele>211.20000000000002</ele><time>2026-05-01T07:11:06.971Z</time></trkpt><trkpt lat="43.0135812" lon="12.2406866"><ele>211.0</ele><time>2026-05-01T07:11:09Z</time></trkpt><trkpt lat="43.0135577" lon="12.2405682"><ele>210.99999999999997</ele><time>2026-05-01T07:11:10.967Z</time></trkpt><trkpt lat="43.0135256" lon="12.2404512"><ele>211.0</ele><time>2026-05-01T07:11:12.951Z</time></trkpt><trkpt lat="43.0134965" lon="12.2403412"><ele>211.0</ele><time>2026-05-01T07:11:14.966Z</time></trkpt><trkpt lat="43.0134631" lon="12.2402284"><ele>211.0</ele><time>2026-05-01T07:11:16.964Z</time></trkpt><trkpt lat="43.0134422" lon="12.240119"><ele>210.99999999999997</ele><time>2026-05-01T07:11:18.95Z</time></trkpt><trkpt lat="43.0134135" lon="12.2399873"><ele>211.0</ele><time>2026-05-01T07:11:20.969Z</time></trkpt><trkpt lat="43.0133629" lon="12.2398924"><ele>210.83333333333331</ele><time>2026-05-01T07:11:22.963Z</time></trkpt><trkpt lat="43.0133368" lon="12.2397894"><ele>210.66666666666666</ele><time>2026-05-01T07:11:24.969Z</time></trkpt><trkpt lat="43.0133214" lon="12.2396942"><ele>210.5</ele><time>2026-05-01T07:11:26.972Z</time></trkpt><trkpt lat="43.0133009" lon="12.2395598"><ele>210.33333333333331</ele><time>2026-05-01T07:11:29.965Z</time></trkpt><trkpt lat="43.0132776" lon="12.2394613"><ele>210.16666666666666</ele><time>2026-05-01T07:11:31.959Z</time></trkpt><trkpt lat="43.0132582" lon="12.2393591"><ele>210.0</ele><time>2026-05-01T07:11:33.97Z</time></trkpt><trkpt lat="43.0132344" lon="12.2392448"><ele>210.0</ele><time>2026-05-01T07:11:35.938Z</time></trkpt><trkpt lat="43.0132051" lon="12.2391281"><ele>210.0</ele><time>2026-05-01T07:11:37.949Z</time></trkpt><trkpt lat="43.0131795" lon="12.2390189"><ele>210.0</ele><time>2026-05-01T07:11:39.937Z</time></trkpt><trkpt lat="43.0131605" lon="12.2389102"><ele>210.0</ele><time>2026-05-01T07:11:41.949Z</time></trkpt><trkpt lat="43.0131374" lon="12.2387912"><ele>210.0</ele><time>2026-05-01T07:11:43.96Z</time></trkpt><trkpt lat="43.0131162" lon="12.2386927"><ele>210.0</ele><time>2026-05-01T07:11:45.949Z</time></trkpt><trkpt lat="43.0130972" lon="12.2385625"><ele>210.16666666666666</ele><time>2026-05-01T07:11:48.947Z</time></trkpt><trkpt lat="43.0130707" lon="12.2384367"><ele>210.33333333333331</ele><time>2026-05-01T07:11:51.952Z</time></trkpt><trkpt lat="43.0130541" lon="12.2383365"><ele>210.5</ele><time>2026-05-01T07:11:53.951Z</time></trkpt><trkpt lat="43.0130417" lon="12.2382326"><ele>210.66666666666666</ele><time>2026-05-01T07:11:55.947Z</time></trkpt><trkpt lat="43.0130307" lon="12.2381327"><ele>210.83333333333331</ele><time>2026-05-01T07:11:57.948Z</time></trkpt><trkpt lat="43.0130018" lon="12.2380354"><ele>211.0</ele><time>2026-05-01T07:11:59.947Z</time></trkpt><trkpt lat="43.0129797" lon="12.2379289"><ele>210.99999999999997</ele><time>2026-05-01T07:12:01.957Z</time></trkpt><trkpt lat="43.0129619" lon="12.2378281"><ele>211.0</ele><time>2026-05-01T07:12:03.956Z</time></trkpt><trkpt lat="43.012938" lon="12.2377219"><ele>211.0</ele><time>2026-05-01T07:12:05.949Z</time></trkpt><trkpt lat="43.0129008" lon="12.2376141"><ele>211.0</ele><time>2026-05-01T07:12:07.947Z</time></trkpt><trkpt lat="43.0128602" lon="12.2375146"><ele>210.99999999999997</ele><time>2026-05-01T07:12:09.951Z</time></trkpt><trkpt lat="43.0128406" lon="12.2374119"><ele>211.0</ele><time>2026-05-01T07:12:11.948Z</time></trkpt><trkpt lat="43.0128135" lon="12.2373142"><ele>211.14285714285714</ele><time>2026-05-01T07:12:13.969Z</time></trkpt><trkpt lat="43.0127982" lon="12.2372192"><ele>211.28571428571428</ele><time>2026-05-01T07:12:15.949Z</time></trkpt><trkpt lat="43.0127591" lon="12.237133"><ele>211.42857142857144</ele><time>2026-05-01T07:12:17.951Z</time></trkpt><trkpt lat="43.012716" lon="12.2370487"><ele>211.57142857142856</ele><time>2026-05-01T07:12:19.959Z</time></trkpt><trkpt lat="43.0126673" lon="12.2369689"><ele>211.7142857142857</ele><time>2026-05-01T07:12:21.946Z</time></trkpt><trkpt lat="43.0126297" lon="12.2368842"><ele>211.85714285714286</ele><time>2026-05-01T07:12:23.949Z</time></trkpt><trkpt lat="43.0125854" lon="12.2367947"><ele>212.0</ele><time>2026-05-01T07:12:25.95Z</time></trkpt><trkpt lat="43.0125407" lon="12.236704"><ele>212.00000000000003</ele><time>2026-05-01T07:12:27.942Z</time></trkpt><trkpt lat="43.0124958" lon="12.2366081"><ele>212.0</ele><time>2026-05-01T07:12:29.947Z</time></trkpt><trkpt lat="43.0124381" lon="12.2365055"><ele>212.0</ele><time>2026-05-01T07:12:31.951Z</time></trkpt><trkpt lat="43.0123821" lon="12.2364053"><ele>212.0</ele><time>2026-05-01T07:12:33.946Z</time></trkpt><trkpt lat="43.0123333" lon="12.2363158"><ele>212.00000000000003</ele><time>2026-05-01T07:12:35.952Z</time></trkpt><trkpt lat="43.0122952" lon="12.2362369"><ele>212.0</ele><time>2026-05-01T07:12:37.949Z</time></trkpt><trkpt lat="43.0122499" lon="12.2361687"><ele>212.33333333333334</ele><time>2026-05-01T07:12:39.948Z</time></trkpt><trkpt lat="43.0121915" lon="12.236092"><ele>212.66666666666669</ele><time>2026-05-01T07:12:41.943Z</time></trkpt><trkpt lat="43.0121364" lon="12.2360003"><ele>213.0</ele><time>2026-05-01T07:12:44.954Z</time></trkpt><trkpt lat="43.012083" lon="12.2359282"><ele>213.33333333333331</ele><time>2026-05-01T07:12:46.945Z</time></trkpt><trkpt lat="43.0120347" lon="12.2358618"><ele>213.66666666666666</ele><time>2026-05-01T07:12:48.947Z</time></trkpt><trkpt lat="43.0119737" lon="12.2357679"><ele>214.0</ele><time>2026-05-01T07:12:51.945Z</time></trkpt><trkpt lat="43.0119184" lon="12.2356831"><ele>213.99999999999997</ele><time>2026-05-01T07:12:54Z</time></trkpt><trkpt lat="43.0118613" lon="12.2356045"><ele>214.0</ele><time>2026-05-01T07:12:55.944Z</time></trkpt><trkpt lat="43.0118142" lon="12.2355453"><ele>214.0</ele><time>2026-05-01T07:12:57.948Z</time></trkpt><trkpt lat="43.0117324" lon="12.2354727"><ele>214.0</ele><time>2026-05-01T07:13:00Z</time></trkpt><trkpt lat="43.0116656" lon="12.2353969"><ele>213.99999999999997</ele><time>2026-05-01T07:13:01.953Z</time></trkpt><trkpt lat="43.0115935" lon="12.2353308"><ele>214.0</ele><time>2026-05-01T07:13:03.945Z</time></trkpt><trkpt lat="43.0115279" lon="12.2352626"><ele>213.99999999999997</ele><time>2026-05-01T07:13:06Z</time></trkpt><trkpt lat="43.0114628" lon="12.2352111"><ele>214.0</ele><time>2026-05-01T07:13:07.948Z</time></trkpt><trkpt lat="43.0114117" lon="12.2351347"><ele>214.0</ele><time>2026-05-01T07:13:09.944Z</time></trkpt><trkpt lat="43.0113561" lon="12.2350691"><ele>214.0</ele><time>2026-05-01T07:13:12Z</time></trkpt><trkpt lat="43.0112909" lon="12.2350032"><ele>213.99999999999997</ele><time>2026-05-01T07:13:13.953Z</time></trkpt><trkpt lat="43.01123" lon="12.2349374"><ele>214.0</ele><time>2026-05-01T07:13:15.947Z</time></trkpt><trkpt lat="43.011173" lon="12.2348668"><ele>214.00000000000003</ele><time>2026-05-01T07:13:17.949Z</time></trkpt><trkpt lat="43.0111217" lon="12.234806"><ele>214.0</ele><time>2026-05-01T07:13:19.957Z</time></trkpt><trkpt lat="43.0110542" lon="12.2347525"><ele>214.0</ele><time>2026-05-01T07:13:21.949Z</time></trkpt><trkpt lat="43.0109893" lon="12.2347089"><ele>214.0</ele><time>2026-05-01T07:13:24Z</time></trkpt><trkpt lat="43.0109353" lon="12.2346375"><ele>214.0</ele><time>2026-05-01T07:13:26.968Z</time></trkpt><trkpt lat="43.0109395" lon="12.2345284"><ele>214.00000000000003</ele><time>2026-05-01T07:13:29.97Z</time></trkpt><trkpt lat="43.0109783" lon="12.2344435"><ele>214.0</ele><time>2026-05-01T07:13:31.946Z</time></trkpt><trkpt lat="43.0110073" lon="12.2343487"><ele>214.83333333333331</ele><time>2026-05-01T07:13:33.96Z</time></trkpt><trkpt lat="43.01103" lon="12.2342536"><ele>215.66666666666666</ele><time>2026-05-01T07:13:35.963Z</time></trkpt><trkpt lat="43.0110541" lon="12.2341618"><ele>216.5</ele><time>2026-05-01T07:13:37.954Z</time></trkpt><trkpt lat="43.0110743" lon="12.2340459"><ele>217.33333333333331</ele><time>2026-05-01T07:13:40.967Z</time></trkpt><trkpt lat="43.011069" lon="12.2339567"><ele>218.16666666666666</ele><time>2026-05-01T07:13:43.97Z</time></trkpt><trkpt lat="43.0110344" lon="12.2338664"><ele>219.0</ele><time>2026-05-01T07:13:46.969Z</time></trkpt><trkpt lat="43.0109588" lon="12.2337757"><ele>219.0</ele><time>2026-05-01T07:13:49.973Z</time></trkpt><trkpt lat="43.0108851" lon="12.2337016"><ele>219.0</ele><time>2026-05-01T07:13:51.971Z</time></trkpt><trkpt lat="43.0107952" lon="12.2336285"><ele>219.0</ele><time>2026-05-01T07:13:54Z</time></trkpt><trkpt lat="43.0107215" lon="12.2335851"><ele>219.0</ele><time>2026-05-01T07:13:55.963Z</time></trkpt><trkpt lat="43.0106405" lon="12.2335398"><ele>219.0</ele><time>2026-05-01T07:13:57.951Z</time></trkpt><trkpt lat="43.010567" lon="12.233496"><ele>219.0</ele><time>2026-05-01T07:14:00Z</time></trkpt><trkpt lat="43.0104933" lon="12.23346"><ele>219.0</ele><time>2026-05-01T07:14:01.963Z</time></trkpt><trkpt lat="43.0104191" lon="12.2334312"><ele>219.0</ele><time>2026-05-01T07:14:03.949Z</time></trkpt><trkpt lat="43.0103419" lon="12.2333968"><ele>219.0</ele><time>2026-05-01T07:14:06Z</time></trkpt><trkpt lat="43.0102647" lon="12.2333514"><ele>219.0</ele><time>2026-05-01T07:14:07.972Z</time></trkpt><trkpt lat="43.0101802" lon="12.2333096"><ele>219.0</ele><time>2026-05-01T07:14:09.971Z</time></trkpt><trkpt lat="43.0100844" lon="12.2332571"><ele>219.0</ele><time>2026-05-01T07:14:11.966Z</time></trkpt><trkpt lat="43.0100149" lon="12.2332019"><ele>219.0</ele><time>2026-05-01T07:14:13.952Z</time></trkpt><trkpt lat="43.009935" lon="12.2331366"><ele>218.99999999999997</ele><time>2026-05-01T07:14:15.951Z</time></trkpt><trkpt lat="43.0098551" lon="12.2330601"><ele>218.99999999999997</ele><time>2026-05-01T07:14:17.967Z</time></trkpt><trkpt lat="43.009769" lon="12.2329785"><ele>219.0</ele><time>2026-05-01T07:14:19.969Z</time></trkpt><trkpt lat="43.0097037" lon="12.2328986"><ele>219.0</ele><time>2026-05-01T07:14:21.949Z</time></trkpt><trkpt lat="43.00962" lon="12.2328163"><ele>219.0</ele><time>2026-05-01T07:14:23.947Z</time></trkpt><trkpt lat="43.0095524" lon="12.2327412"><ele>218.99999999999997</ele><time>2026-05-01T07:14:25.949Z</time></trkpt><trkpt lat="43.0094854" lon="12.2326689"><ele>218.99999999999997</ele><time>2026-05-01T07:14:27.962Z</time></trkpt><trkpt lat="43.0094066" lon="12.2325753"><ele>219.0</ele><time>2026-05-01T07:14:29.963Z</time></trkpt><trkpt lat="43.0093367" lon="12.2324905"><ele>219.0</ele><time>2026-05-01T07:14:31.962Z</time></trkpt><trkpt lat="43.0092683" lon="12.2324043"><ele>219.0</ele><time>2026-05-01T07:14:33.942Z</time></trkpt><trkpt lat="43.0091952" lon="12.2323096"><ele>218.99999999999997</ele><time>2026-05-01T07:14:35.956Z</time></trkpt><trkpt lat="43.0091178" lon="12.2322309"><ele>218.99999999999997</ele><time>2026-05-01T07:14:37.952Z</time></trkpt><trkpt lat="43.0090498" lon="12.2321504"><ele>219.0</ele><time>2026-05-01T07:14:39.969Z</time></trkpt><trkpt lat="43.0089774" lon="12.2320642"><ele>219.0</ele><time>2026-05-01T07:14:41.942Z</time></trkpt><trkpt lat="43.0089166" lon="12.2319892"><ele>219.33333333333334</ele><time>2026-05-01T07:14:43.942Z</time></trkpt><trkpt lat="43.0088512" lon="12.2319198"><ele>219.66666666666669</ele><time>2026-05-01T07:14:45.948Z</time></trkpt><trkpt lat="43.0087818" lon="12.2318488"><ele>220.0</ele><time>2026-05-01T07:14:47.946Z</time></trkpt><trkpt lat="43.0087222" lon="12.231762"><ele>220.33333333333334</ele><time>2026-05-01T07:14:49.943Z</time></trkpt><trkpt lat="43.0086475" lon="12.2316865"><ele>220.66666666666669</ele><time>2026-05-01T07:14:51.97Z</time></trkpt><trkpt lat="43.0085945" lon="12.2316169"><ele>221.0</ele><time>2026-05-01T07:14:53.969Z</time></trkpt><trkpt lat="43.0085338" lon="12.2315453"><ele>221.00000000000003</ele><time>2026-05-01T07:14:55.97Z</time></trkpt><trkpt lat="43.0084686" lon="12.2314803"><ele>221.0</ele><time>2026-05-01T07:14:57.947Z</time></trkpt><trkpt lat="43.0084156" lon="12.2314056"><ele>221.0</ele><time>2026-05-01T07:14:59.979Z</time></trkpt><trkpt lat="43.0083571" lon="12.2313309"><ele>221.0</ele><time>2026-05-01T07:15:02Z</time></trkpt><trkpt lat="43.0082941" lon="12.2312498"><ele>221.00000000000003</ele><time>2026-05-01T07:15:03.941Z</time></trkpt><trkpt lat="43.0082425" lon="12.2311826"><ele>221.0</ele><time>2026-05-01T07:15:05.945Z</time></trkpt><trkpt lat="43.0081802" lon="12.2311142"><ele>221.83333333333334</ele><time>2026-05-01T07:15:07.953Z</time></trkpt><trkpt lat="43.008115" lon="12.2310463"><ele>222.66666666666669</ele><time>2026-05-01T07:15:09.944Z</time></trkpt><trkpt lat="43.008065" lon="12.2309888"><ele>223.5</ele><time>2026-05-01T07:15:11.952Z</time></trkpt><trkpt lat="43.0080033" lon="12.2309155"><ele>224.33333333333331</ele><time>2026-05-01T07:15:13.97Z</time></trkpt><trkpt lat="43.0079411" lon="12.2308379"><ele>225.16666666666666</ele><time>2026-05-01T07:15:15.954Z</time></trkpt><trkpt lat="43.0078727" lon="12.2307471"><ele>226.0</ele><time>2026-05-01T07:15:18Z</time></trkpt><trkpt lat="43.0078113" lon="12.2306679"><ele>226.16666666666666</ele><time>2026-05-01T07:15:19.96Z</time></trkpt><trkpt lat="43.0077561" lon="12.2305826"><ele>226.33333333333331</ele><time>2026-05-01T07:15:21.949Z</time></trkpt><trkpt lat="43.007702" lon="12.2304928"><ele>226.5</ele><time>2026-05-01T07:15:23.955Z</time></trkpt><trkpt lat="43.0076336" lon="12.2303998"><ele>226.66666666666669</ele><time>2026-05-01T07:15:25.969Z</time></trkpt><trkpt lat="43.00758" lon="12.2303076"><ele>226.83333333333334</ele><time>2026-05-01T07:15:27.961Z</time></trkpt><trkpt lat="43.0075301" lon="12.2302157"><ele>227.0</ele><time>2026-05-01T07:15:29.969Z</time></trkpt><trkpt lat="43.0074799" lon="12.2301223"><ele>227.00000000000003</ele><time>2026-05-01T07:15:31.975Z</time></trkpt><trkpt lat="43.0074312" lon="12.2300343"><ele>227.0</ele><time>2026-05-01T07:15:33.946Z</time></trkpt><trkpt lat="43.0073764" lon="12.2299481"><ele>227.0</ele><time>2026-05-01T07:15:35.967Z</time></trkpt><trkpt lat="43.0073256" lon="12.2298564"><ele>227.0</ele><time>2026-05-01T07:15:37.968Z</time></trkpt><trkpt lat="43.0072813" lon="12.2297736"><ele>227.00000000000003</ele><time>2026-05-01T07:15:39.944Z</time></trkpt><trkpt lat="43.0072345" lon="12.2296874"><ele>227.0</ele><time>2026-05-01T07:15:41.967Z</time></trkpt><trkpt lat="43.0071881" lon="12.2296006"><ele>227.83333333333334</ele><time>2026-05-01T07:15:43.967Z</time></trkpt><trkpt lat="43.0071354" lon="12.2295015"><ele>228.66666666666669</ele><time>2026-05-01T07:15:45.954Z</time></trkpt><trkpt lat="43.0070857" lon="12.229409"><ele>229.5</ele><time>2026-05-01T07:15:47.967Z</time></trkpt><trkpt lat="43.007037" lon="12.2293193"><ele>230.33333333333331</ele><time>2026-05-01T07:15:49.949Z</time></trkpt><trkpt lat="43.0069849" lon="12.2292299"><ele>231.16666666666666</ele><time>2026-05-01T07:15:51.958Z</time></trkpt><trkpt lat="43.0069428" lon="12.2291365"><ele>232.0</ele><time>2026-05-01T07:15:53.965Z</time></trkpt><trkpt lat="43.0068935" lon="12.2290436"><ele>232.8</ele><time>2026-05-01T07:15:55.968Z</time></trkpt><trkpt lat="43.0068329" lon="12.2289481"><ele>233.6</ele><time>2026-05-01T07:15:57.95Z</time></trkpt><trkpt lat="43.0067958" lon="12.2288472"><ele>234.40000000000003</ele><time>2026-05-01T07:15:59.969Z</time></trkpt><trkpt lat="43.006742" lon="12.2287281"><ele>235.20000000000002</ele><time>2026-05-01T07:16:01.961Z</time></trkpt><trkpt lat="43.0066809" lon="12.2286078"><ele>236.0</ele><time>2026-05-01T07:16:03.964Z</time></trkpt><trkpt lat="43.0066215" lon="12.2284656"><ele>234.20000000000002</ele><time>2026-05-01T07:16:05.974Z</time></trkpt><trkpt lat="43.006578" lon="12.2283425"><ele>232.40000000000003</ele><time>2026-05-01T07:16:07.965Z</time></trkpt><trkpt lat="43.0065042" lon="12.2282021"><ele>230.6</ele><time>2026-05-01T07:16:09.964Z</time></trkpt><trkpt lat="43.0064519" lon="12.2280499"><ele>228.8</ele><time>2026-05-01T07:16:11.958Z</time></trkpt><trkpt lat="43.0064165" lon="12.2279781"><ele>227.0</ele><time>2026-05-01T07:16:12.948Z</time></trkpt><trkpt lat="43.0063803" lon="12.2278992"><ele>227.0</ele><time>2026-05-01T07:16:13.957Z</time></trkpt><trkpt lat="43.0063488" lon="12.227823"><ele>227.00000000000003</ele><time>2026-05-01T07:16:14.961Z</time></trkpt><trkpt lat="43.0063043" lon="12.2277445"><ele>227.0</ele><time>2026-05-01T07:16:15.966Z</time></trkpt><trkpt lat="43.0062748" lon="12.2276652"><ele>227.0</ele><time>2026-05-01T07:16:16.959Z</time></trkpt><trkpt lat="43.0062425" lon="12.2275895"><ele>227.00000000000003</ele><time>2026-05-01T07:16:17.973Z</time></trkpt><trkpt lat="43.0062103" lon="12.2274893"><ele>227.0</ele><time>2026-05-01T07:16:18.97Z</time></trkpt><trkpt lat="43.0061832" lon="12.227406"><ele>227.0</ele><time>2026-05-01T07:16:19.967Z</time></trkpt><trkpt lat="43.0061606" lon="12.2273177"><ele>226.57142857142858</ele><time>2026-05-01T07:16:20.972Z</time></trkpt><trkpt lat="43.0061365" lon="12.2272274"><ele>226.14285714285717</ele><time>2026-05-01T07:16:22Z</time></trkpt><trkpt lat="43.0061263" lon="12.227133"><ele>225.71428571428572</ele><time>2026-05-01T07:16:22.971Z</time></trkpt><trkpt lat="43.0061135" lon="12.2270456"><ele>225.28571428571428</ele><time>2026-05-01T07:16:23.971Z</time></trkpt><trkpt lat="43.0061204" lon="12.2269577"><ele>224.85714285714286</ele><time>2026-05-01T07:16:24.966Z</time></trkpt><trkpt lat="43.0061279" lon="12.2268592"><ele>224.42857142857144</ele><time>2026-05-01T07:16:25.969Z</time></trkpt><trkpt lat="43.0061316" lon="12.2267693"><ele>224.0</ele><time>2026-05-01T07:16:26.945Z</time></trkpt><trkpt lat="43.0061427" lon="12.2266655"><ele>224.0</ele><time>2026-05-01T07:16:27.947Z</time></trkpt><trkpt lat="43.0061565" lon="12.2265709"><ele>224.0</ele><time>2026-05-01T07:16:28.971Z</time></trkpt><trkpt lat="43.0061537" lon="12.226483"><ele>224.0</ele><time>2026-05-01T07:16:29.969Z</time></trkpt><trkpt lat="43.0061492" lon="12.2263891"><ele>224.0</ele><time>2026-05-01T07:16:30.947Z</time></trkpt><trkpt lat="43.0061509" lon="12.2262996"><ele>224.0</ele><time>2026-05-01T07:16:31.95Z</time></trkpt><trkpt lat="43.0061475" lon="12.2262063"><ele>224.0</ele><time>2026-05-01T07:16:32.969Z</time></trkpt><trkpt lat="43.0061452" lon="12.2261083"><ele>224.0</ele><time>2026-05-01T07:16:33.962Z</time></trkpt><trkpt lat="43.0061482" lon="12.2260105"><ele>223.42857142857142</ele><time>2026-05-01T07:16:34.957Z</time></trkpt><trkpt lat="43.0061464" lon="12.2259073"><ele>222.85714285714286</ele><time>2026-05-01T07:16:35.967Z</time></trkpt><trkpt lat="43.0061452" lon="12.2258141"><ele>222.28571428571428</ele><time>2026-05-01T07:16:36.97Z</time></trkpt><trkpt lat="43.0061494" lon="12.2257062"><ele>221.71428571428572</ele><time>2026-05-01T07:16:37.95Z</time></trkpt><trkpt lat="43.0061533" lon="12.2256124"><ele>221.14285714285714</ele><time>2026-05-01T07:16:38.959Z</time></trkpt><trkpt lat="43.0061553" lon="12.2255211"><ele>220.57142857142856</ele><time>2026-05-01T07:16:39.959Z</time></trkpt><trkpt lat="43.0061574" lon="12.2254304"><ele>220.0</ele><time>2026-05-01T07:16:40.97Z</time></trkpt><trkpt lat="43.0061541" lon="12.2253382"><ele>219.83333333333331</ele><time>2026-05-01T07:16:41.951Z</time></trkpt><trkpt lat="43.0061553" lon="12.2252461"><ele>219.66666666666666</ele><time>2026-05-01T07:16:42.953Z</time></trkpt><trkpt lat="43.0061611" lon="12.2251464"><ele>219.5</ele><time>2026-05-01T07:16:43.945Z</time></trkpt><trkpt lat="43.006162" lon="12.2250579"><ele>219.33333333333331</ele><time>2026-05-01T07:16:44.952Z</time></trkpt><trkpt lat="43.0061645" lon="12.2249635"><ele>219.16666666666666</ele><time>2026-05-01T07:16:46Z</time></trkpt><trkpt lat="43.0061784" lon="12.2247957"><ele>219.0</ele><time>2026-05-01T07:16:47.966Z</time></trkpt><trkpt lat="43.006182" lon="12.2247089"><ele>218.79999999999998</ele><time>2026-05-01T07:16:48.969Z</time></trkpt><trkpt lat="43.0061748" lon="12.2246229"><ele>218.59999999999997</ele><time>2026-05-01T07:16:49.968Z</time></trkpt><trkpt lat="43.0061771" lon="12.2244568"><ele>218.4</ele><time>2026-05-01T07:16:51.953Z</time></trkpt><trkpt lat="43.0061838" lon="12.224308"><ele>218.2</ele><time>2026-05-01T07:16:53.954Z</time></trkpt><trkpt lat="43.0061915" lon="12.2242217"><ele>218.0</ele><time>2026-05-01T07:16:54.945Z</time></trkpt><trkpt lat="43.0062015" lon="12.2240751"><ele>218.0</ele><time>2026-05-01T07:16:56.948Z</time></trkpt><trkpt lat="43.0061939" lon="12.2239447"><ele>218.0</ele><time>2026-05-01T07:16:58.958Z</time></trkpt><trkpt lat="43.0061922" lon="12.223796"><ele>218.0</ele><time>2026-05-01T07:17:00.948Z</time></trkpt><trkpt lat="43.0061956" lon="12.2236456"><ele>218.0</ele><time>2026-05-01T07:17:02.946Z</time></trkpt><trkpt lat="43.0061834" lon="12.2234965"><ele>218.0</ele><time>2026-05-01T07:17:04.948Z</time></trkpt><trkpt lat="43.0061831" lon="12.2233466"><ele>218.0</ele><time>2026-05-01T07:17:06.946Z</time></trkpt><trkpt lat="43.0061889" lon="12.2232092"><ele>218.0</ele><time>2026-05-01T07:17:09Z</time></trkpt><trkpt lat="43.0061957" lon="12.2230729"><ele>218.0</ele><time>2026-05-01T07:17:10.951Z</time></trkpt><trkpt lat="43.0062034" lon="12.2229349"><ele>218.0</ele><time>2026-05-01T07:17:12.952Z</time></trkpt><trkpt lat="43.0062223" lon="12.222806"><ele>218.0</ele><time>2026-05-01T07:17:14.954Z</time></trkpt><trkpt lat="43.0062274" lon="12.2226992"><ele>218.0</ele><time>2026-05-01T07:17:16.952Z</time></trkpt><trkpt lat="43.0062" lon="12.2226134"><ele>218.0</ele><time>2026-05-01T07:17:18.95Z</time></trkpt><trkpt lat="43.0061535" lon="12.2225438"><ele>218.0</ele><time>2026-05-01T07:17:20.945Z</time></trkpt><trkpt lat="43.0061439" lon="12.2224533"><ele>218.0</ele><time>2026-05-01T07:17:22.953Z</time></trkpt><trkpt lat="43.00618" lon="12.2223357"><ele>218.0</ele><time>2026-05-01T07:17:25.95Z</time></trkpt><trkpt lat="43.0062308" lon="12.2222777"><ele>218.0</ele><time>2026-05-01T07:17:27.952Z</time></trkpt><trkpt lat="43.0063027" lon="12.2222258"><ele>218.0</ele><time>2026-05-01T07:17:30.955Z</time></trkpt><trkpt lat="43.0063424" lon="12.2221535"><ele>218.2</ele><time>2026-05-01T07:17:36.951Z</time></trkpt><trkpt lat="43.0062731" lon="12.2222452"><ele>218.4</ele><time>2026-05-01T07:17:45.953Z</time></trkpt><trkpt lat="43.0062016" lon="12.2222609"><ele>218.59999999999997</ele><time>2026-05-01T07:17:47.951Z</time></trkpt><trkpt lat="43.0061091" lon="12.2222314"><ele>218.79999999999998</ele><time>2026-05-01T07:17:49.964Z</time></trkpt><trkpt lat="43.0060164" lon="12.2222016"><ele>219.0</ele><time>2026-05-01T07:17:51.952Z</time></trkpt><trkpt lat="43.0059213" lon="12.2221269"><ele>218.39999999999998</ele><time>2026-05-01T07:17:53.969Z</time></trkpt><trkpt lat="43.0058279" lon="12.2220283"><ele>217.79999999999998</ele><time>2026-05-01T07:17:55.952Z</time></trkpt><trkpt lat="43.0057402" lon="12.221921"><ele>217.20000000000002</ele><time>2026-05-01T07:17:57.972Z</time></trkpt><trkpt lat="43.0056547" lon="12.2218265"><ele>216.60000000000002</ele><time>2026-05-01T07:17:59.966Z</time></trkpt><trkpt lat="43.0055982" lon="12.2217534"><ele>216.0</ele><time>2026-05-01T07:18:01.961Z</time></trkpt><trkpt lat="43.0055438" lon="12.2216791"><ele>216.0</ele><time>2026-05-01T07:18:03.961Z</time></trkpt><trkpt lat="43.0054738" lon="12.2216187"><ele>216.0</ele><time>2026-05-01T07:18:05.967Z</time></trkpt><trkpt lat="43.0054163" lon="12.2215439"><ele>216.0</ele><time>2026-05-01T07:18:07.973Z</time></trkpt><trkpt lat="43.0053513" lon="12.2214723"><ele>216.0</ele><time>2026-05-01T07:18:09.966Z</time></trkpt><trkpt lat="43.0052932" lon="12.2213922"><ele>216.0</ele><time>2026-05-01T07:18:11.959Z</time></trkpt><trkpt lat="43.0052322" lon="12.2213146"><ele>216.0</ele><time>2026-05-01T07:18:13.96Z</time></trkpt><trkpt lat="43.0051561" lon="12.2212422"><ele>215.8</ele><time>2026-05-01T07:18:15.969Z</time></trkpt><trkpt lat="43.0050917" lon="12.221151"><ele>215.60000000000002</ele><time>2026-05-01T07:18:17.976Z</time></trkpt><trkpt lat="43.0050287" lon="12.2210612"><ele>215.4</ele><time>2026-05-01T07:18:19.949Z</time></trkpt><trkpt lat="43.0049589" lon="12.220974"><ele>215.2</ele><time>2026-05-01T07:18:21.974Z</time></trkpt><trkpt lat="43.00489" lon="12.2208839"><ele>215.0</ele><time>2026-05-01T07:18:23.972Z</time></trkpt><trkpt lat="43.0048279" lon="12.2207961"><ele>215.00000000000003</ele><time>2026-05-01T07:18:25.963Z</time></trkpt><trkpt lat="43.0047581" lon="12.2207133"><ele>215.0</ele><time>2026-05-01T07:18:27.947Z</time></trkpt><trkpt lat="43.0046951" lon="12.2206341"><ele>215.0</ele><time>2026-05-01T07:18:29.947Z</time></trkpt><trkpt lat="43.0046386" lon="12.2205479"><ele>215.0</ele><time>2026-05-01T07:18:31.945Z</time></trkpt><trkpt lat="43.0045705" lon="12.2204657"><ele>215.00000000000003</ele><time>2026-05-01T07:18:33.951Z</time></trkpt><trkpt lat="43.0045049" lon="12.2203817"><ele>215.0</ele><time>2026-05-01T07:18:35.95Z</time></trkpt><trkpt lat="43.0044439" lon="12.2203004"><ele>215.00000000000003</ele><time>2026-05-01T07:18:37.948Z</time></trkpt><trkpt lat="43.0043854" lon="12.2202176"><ele>215.0</ele><time>2026-05-01T07:18:39.943Z</time></trkpt><trkpt lat="43.0043185" lon="12.2201345"><ele>215.0</ele><time>2026-05-01T07:18:41.942Z</time></trkpt><trkpt lat="43.0042523" lon="12.2200445"><ele>215.0</ele><time>2026-05-01T07:18:43.944Z</time></trkpt><trkpt lat="43.0041872" lon="12.2199509"><ele>215.00000000000003</ele><time>2026-05-01T07:18:45.945Z</time></trkpt><trkpt lat="43.0041221" lon="12.2198764"><ele>215.0</ele><time>2026-05-01T07:18:47.943Z</time></trkpt><trkpt lat="43.0040434" lon="12.2198125"><ele>215.00000000000003</ele><time>2026-05-01T07:18:49.936Z</time></trkpt><trkpt lat="43.0039714" lon="12.2198"><ele>215.0</ele><time>2026-05-01T07:18:51.943Z</time></trkpt><trkpt lat="43.0039005" lon="12.2198475"><ele>215.0</ele><time>2026-05-01T07:18:53.944Z</time></trkpt><trkpt lat="43.0038269" lon="12.2199138"><ele>215.0</ele><time>2026-05-01T07:18:55.943Z</time></trkpt><trkpt lat="43.0037271" lon="12.219932"><ele>215.00000000000003</ele><time>2026-05-01T07:18:57.951Z</time></trkpt><trkpt lat="43.0036592" lon="12.219921"><ele>215.0</ele><time>2026-05-01T07:18:59.966Z</time></trkpt><trkpt lat="43.0035803" lon="12.2199271"><ele>215.0</ele><time>2026-05-01T07:19:01.947Z</time></trkpt><trkpt lat="43.0034913" lon="12.2199298"><ele>215.0</ele><time>2026-05-01T07:19:03.942Z</time></trkpt><trkpt lat="43.0033967" lon="12.2199527"><ele>215.0</ele><time>2026-05-01T07:19:05.958Z</time></trkpt><trkpt lat="43.0033103" lon="12.2199514"><ele>215.0</ele><time>2026-05-01T07:19:07.974Z</time></trkpt><trkpt lat="43.0032182" lon="12.2199723"><ele>215.0</ele><time>2026-05-01T07:19:09.949Z</time></trkpt><trkpt lat="43.0031176" lon="12.2200011"><ele>215.2</ele><time>2026-05-01T07:19:11.951Z</time></trkpt><trkpt lat="43.0030312" lon="12.2200326"><ele>215.4</ele><time>2026-05-01T07:19:13.951Z</time></trkpt><trkpt lat="43.0029209" lon="12.2200526"><ele>215.60000000000002</ele><time>2026-05-01T07:19:15.949Z</time></trkpt><trkpt lat="43.0028306" lon="12.2200966"><ele>215.8</ele><time>2026-05-01T07:19:17.958Z</time></trkpt><trkpt lat="43.0027395" lon="12.220165"><ele>216.0</ele><time>2026-05-01T07:19:19.97Z</time></trkpt><trkpt lat="43.0026719" lon="12.2202461"><ele>216.0</ele><time>2026-05-01T07:19:21.971Z</time></trkpt><trkpt lat="43.0026151" lon="12.2203615"><ele>216.00000000000003</ele><time>2026-05-01T07:19:24Z</time></trkpt><trkpt lat="43.0025565" lon="12.2204739"><ele>216.00000000000003</ele><time>2026-05-01T07:19:25.969Z</time></trkpt><trkpt lat="43.0025112" lon="12.2205811"><ele>216.0</ele><time>2026-05-01T07:19:27.968Z</time></trkpt><trkpt lat="43.0024579" lon="12.2206979"><ele>216.0</ele><time>2026-05-01T07:19:29.944Z</time></trkpt><trkpt lat="43.0024043" lon="12.2208051"><ele>216.0</ele><time>2026-05-01T07:19:31.943Z</time></trkpt><trkpt lat="43.0023607" lon="12.2209118"><ele>216.00000000000003</ele><time>2026-05-01T07:19:33.943Z</time></trkpt><trkpt lat="43.0023247" lon="12.2210341"><ele>216.00000000000003</ele><time>2026-05-01T07:19:35.944Z</time></trkpt><trkpt lat="43.0022566" lon="12.2211218"><ele>216.0</ele><time>2026-05-01T07:19:37.963Z</time></trkpt><trkpt lat="43.0021779" lon="12.2211992"><ele>216.0</ele><time>2026-05-01T07:19:39.962Z</time></trkpt><trkpt lat="43.0020911" lon="12.2212298"><ele>216.0</ele><time>2026-05-01T07:19:41.97Z</time></trkpt><trkpt lat="43.0019971" lon="12.2212364"><ele>216.00000000000003</ele><time>2026-05-01T07:19:43.963Z</time></trkpt><trkpt lat="43.0019053" lon="12.2212083"><ele>216.00000000000003</ele><time>2026-05-01T07:19:45.968Z</time></trkpt><trkpt lat="43.0018126" lon="12.2211651"><ele>216.0</ele><time>2026-05-01T07:19:47.956Z</time></trkpt><trkpt lat="43.001716" lon="12.2211206"><ele>216.0</ele><time>2026-05-01T07:19:49.974Z</time></trkpt><trkpt lat="43.0016233" lon="12.2210658"><ele>215.8</ele><time>2026-05-01T07:19:51.943Z</time></trkpt><trkpt lat="43.0015287" lon="12.2210163"><ele>215.60000000000002</ele><time>2026-05-01T07:19:53.949Z</time></trkpt><trkpt lat="43.0014353" lon="12.2209905"><ele>215.4</ele><time>2026-05-01T07:19:55.946Z</time></trkpt><trkpt lat="43.0013419" lon="12.2209379"><ele>215.2</ele><time>2026-05-01T07:19:57.948Z</time></trkpt><trkpt lat="43.0012539" lon="12.220894"><ele>215.0</ele><time>2026-05-01T07:19:59.948Z</time></trkpt><trkpt lat="43.0011591" lon="12.2208499"><ele>215.0</ele><time>2026-05-01T07:20:01.966Z</time></trkpt><trkpt lat="43.0010712" lon="12.2208058"><ele>215.0</ele><time>2026-05-01T07:20:03.95Z</time></trkpt><trkpt lat="43.0009801" lon="12.2207595"><ele>215.0</ele><time>2026-05-01T07:20:05.972Z</time></trkpt><trkpt lat="43.0008931" lon="12.2207188"><ele>215.0</ele><time>2026-05-01T07:20:07.968Z</time></trkpt><trkpt lat="43.0008028" lon="12.2206652"><ele>215.0</ele><time>2026-05-01T07:20:09.95Z</time></trkpt><trkpt lat="43.0007238" lon="12.2206269"><ele>215.2</ele><time>2026-05-01T07:20:11.955Z</time></trkpt><trkpt lat="43.0006368" lon="12.220591"><ele>215.4</ele><time>2026-05-01T07:20:13.969Z</time></trkpt><trkpt lat="43.0005498" lon="12.2205509"><ele>215.60000000000002</ele><time>2026-05-01T07:20:15.958Z</time></trkpt><trkpt lat="43.0004715" lon="12.2205122"><ele>215.8</ele><time>2026-05-01T07:20:17.942Z</time></trkpt><trkpt lat="43.0003859" lon="12.220474"><ele>216.0</ele><time>2026-05-01T07:20:19.96Z</time></trkpt><trkpt lat="43.0002955" lon="12.220422"><ele>216.0</ele><time>2026-05-01T07:20:21.952Z</time></trkpt><trkpt lat="43.0002082" lon="12.2203698"><ele>216.00000000000003</ele><time>2026-05-01T07:20:23.968Z</time></trkpt><trkpt lat="43.0001114" lon="12.22032"><ele>216.00000000000003</ele><time>2026-05-01T07:20:25.969Z</time></trkpt><trkpt lat="43.000021" lon="12.2202733"><ele>216.0</ele><time>2026-05-01T07:20:27.96Z</time></trkpt><trkpt lat="42.9999312" lon="12.2202301"><ele>216.0</ele><time>2026-05-01T07:20:29.946Z</time></trkpt><trkpt lat="42.9998508" lon="12.2201848"><ele>216.0</ele><time>2026-05-01T07:20:31.976Z</time></trkpt><trkpt lat="42.9997635" lon="12.2201513"><ele>216.0</ele><time>2026-05-01T07:20:33.969Z</time></trkpt><trkpt lat="42.9996757" lon="12.2201126"><ele>216.0</ele><time>2026-05-01T07:20:35.971Z</time></trkpt><trkpt lat="42.9995999" lon="12.2200652"><ele>216.0</ele><time>2026-05-01T07:20:37.951Z</time></trkpt><trkpt lat="42.9995113" lon="12.2200286"><ele>216.0</ele><time>2026-05-01T07:20:39.947Z</time></trkpt><trkpt lat="42.9994294" lon="12.2199927"><ele>216.0</ele><time>2026-05-01T07:20:41.962Z</time></trkpt><trkpt lat="42.9993494" lon="12.2199386"><ele>216.0</ele><time>2026-05-01T07:20:43.969Z</time></trkpt><trkpt lat="42.9992686" lon="12.219894"><ele>216.0</ele><time>2026-05-01T07:20:45.967Z</time></trkpt><trkpt lat="42.9991886" lon="12.2198518"><ele>216.0</ele><time>2026-05-01T07:20:47.97Z</time></trkpt><trkpt lat="42.9990989" lon="12.2198057"><ele>216.0</ele><time>2026-05-01T07:20:49.948Z</time></trkpt><trkpt lat="42.9990161" lon="12.2197661"><ele>216.0</ele><time>2026-05-01T07:20:51.965Z</time></trkpt><trkpt lat="42.9989379" lon="12.2197235"><ele>216.0</ele><time>2026-05-01T07:20:53.969Z</time></trkpt><trkpt lat="42.9988636" lon="12.2196817"><ele>216.16666666666666</ele><time>2026-05-01T07:20:55.972Z</time></trkpt><trkpt lat="42.998789" lon="12.2196418"><ele>216.33333333333331</ele><time>2026-05-01T07:20:57.961Z</time></trkpt><trkpt lat="42.998711" lon="12.2195994"><ele>216.5</ele><time>2026-05-01T07:20:59.964Z</time></trkpt><trkpt lat="42.9986314" lon="12.2195597"><ele>216.66666666666666</ele><time>2026-05-01T07:21:01.946Z</time></trkpt><trkpt lat="42.9985512" lon="12.2195318"><ele>216.83333333333331</ele><time>2026-05-01T07:21:03.954Z</time></trkpt><trkpt lat="42.9984666" lon="12.2194948"><ele>217.0</ele><time>2026-05-01T07:21:05.957Z</time></trkpt><trkpt lat="42.9983964" lon="12.219461"><ele>217.33333333333331</ele><time>2026-05-01T07:21:07.968Z</time></trkpt><trkpt lat="42.9983247" lon="12.2194235"><ele>217.66666666666666</ele><time>2026-05-01T07:21:09.949Z</time></trkpt><trkpt lat="42.9982452" lon="12.2193772"><ele>218.0</ele><time>2026-05-01T07:21:11.973Z</time></trkpt><trkpt lat="42.998168" lon="12.2193362"><ele>218.33333333333331</ele><time>2026-05-01T07:21:13.971Z</time></trkpt><trkpt lat="42.9980947" lon="12.2192985"><ele>218.66666666666666</ele><time>2026-05-01T07:21:15.953Z</time></trkpt><trkpt lat="42.9980138" lon="12.2192657"><ele>219.0</ele><time>2026-05-01T07:21:17.964Z</time></trkpt><trkpt lat="42.9979329" lon="12.2192289"><ele>219.0</ele><time>2026-05-01T07:21:20Z</time></trkpt><trkpt lat="42.9978565" lon="12.219191"><ele>219.0</ele><time>2026-05-01T07:21:21.968Z</time></trkpt><trkpt lat="42.9977869" lon="12.2191571"><ele>219.0</ele><time>2026-05-01T07:21:23.961Z</time></trkpt><trkpt lat="42.997716" lon="12.2191217"><ele>219.0</ele><time>2026-05-01T07:21:26Z</time></trkpt><trkpt lat="42.9976376" lon="12.2190799"><ele>219.0</ele><time>2026-05-01T07:21:27.953Z</time></trkpt><trkpt lat="42.9975624" lon="12.2190373"><ele>219.0</ele><time>2026-05-01T07:21:29.962Z</time></trkpt><trkpt lat="42.9974896" lon="12.2189954"><ele>219.66666666666666</ele><time>2026-05-01T07:21:32Z</time></trkpt><trkpt lat="42.9974185" lon="12.2189663"><ele>220.33333333333331</ele><time>2026-05-01T07:21:33.965Z</time></trkpt><trkpt lat="42.9973439" lon="12.2189384"><ele>221.0</ele><time>2026-05-01T07:21:35.95Z</time></trkpt><trkpt lat="42.9972765" lon="12.2189005"><ele>221.66666666666666</ele><time>2026-05-01T07:21:37.95Z</time></trkpt><trkpt lat="42.9971988" lon="12.218857"><ele>222.33333333333331</ele><time>2026-05-01T07:21:39.946Z</time></trkpt><trkpt lat="42.997115" lon="12.2188137"><ele>223.0</ele><time>2026-05-01T07:21:41.951Z</time></trkpt><trkpt lat="42.9970447" lon="12.218771"><ele>223.0</ele><time>2026-05-01T07:21:43.95Z</time></trkpt><trkpt lat="42.9969932" lon="12.2186898"><ele>223.0</ele><time>2026-05-01T07:21:45.948Z</time></trkpt><trkpt lat="42.9969658" lon="12.218578"><ele>223.0</ele><time>2026-05-01T07:21:47.953Z</time></trkpt><trkpt lat="42.9969142" lon="12.2184513"><ele>223.0</ele><time>2026-05-01T07:21:49.943Z</time></trkpt><trkpt lat="42.9968857" lon="12.2183203"><ele>223.0</ele><time>2026-05-01T07:21:51.952Z</time></trkpt><trkpt lat="42.9968569" lon="12.2181847"><ele>223.2</ele><time>2026-05-01T07:21:54Z</time></trkpt><trkpt lat="42.9968267" lon="12.2180582"><ele>223.4</ele><time>2026-05-01T07:21:55.972Z</time></trkpt><trkpt lat="42.9968206" lon="12.2179366"><ele>223.59999999999997</ele><time>2026-05-01T07:21:57.949Z</time></trkpt><trkpt lat="42.9968025" lon="12.217823"><ele>223.79999999999998</ele><time>2026-05-01T07:21:59.955Z</time></trkpt><trkpt lat="42.9967848" lon="12.2176977"><ele>224.0</ele><time>2026-05-01T07:22:01.949Z</time></trkpt><trkpt lat="42.996772" lon="12.2175696"><ele>224.00000000000003</ele><time>2026-05-01T07:22:03.956Z</time></trkpt><trkpt lat="42.9967552" lon="12.2174492"><ele>224.0</ele><time>2026-05-01T07:22:05.999Z</time></trkpt><trkpt lat="42.9967345" lon="12.2173359"><ele>224.0</ele><time>2026-05-01T07:22:07.971Z</time></trkpt><trkpt lat="42.9967117" lon="12.2172202"><ele>224.0</ele><time>2026-05-01T07:22:09.955Z</time></trkpt><trkpt lat="42.9966904" lon="12.2171114"><ele>224.00000000000003</ele><time>2026-05-01T07:22:12Z</time></trkpt><trkpt lat="42.9966847" lon="12.2170091"><ele>224.0</ele><time>2026-05-01T07:22:13.973Z</time></trkpt><trkpt lat="42.9966766" lon="12.2168968"><ele>224.66666666666669</ele><time>2026-05-01T07:22:15.956Z</time></trkpt><trkpt lat="42.9966635" lon="12.2167865"><ele>225.33333333333334</ele><time>2026-05-01T07:22:17.95Z</time></trkpt><trkpt lat="42.9966518" lon="12.2166749"><ele>226.0</ele><time>2026-05-01T07:22:19.967Z</time></trkpt><trkpt lat="42.9966408" lon="12.2165624"><ele>226.66666666666669</ele><time>2026-05-01T07:22:21.975Z</time></trkpt><trkpt lat="42.9966342" lon="12.2164525"><ele>227.33333333333334</ele><time>2026-05-01T07:22:23.961Z</time></trkpt><trkpt lat="42.9966203" lon="12.2163417"><ele>228.0</ele><time>2026-05-01T07:22:25.953Z</time></trkpt><trkpt lat="42.9966056" lon="12.2162336"><ele>228.83333333333334</ele><time>2026-05-01T07:22:27.956Z</time></trkpt><trkpt lat="42.9965982" lon="12.2161271"><ele>229.66666666666669</ele><time>2026-05-01T07:22:29.951Z</time></trkpt><trkpt lat="42.9965907" lon="12.2160218"><ele>230.5</ele><time>2026-05-01T07:22:31.953Z</time></trkpt><trkpt lat="42.9965784" lon="12.2159175"><ele>231.33333333333334</ele><time>2026-05-01T07:22:33.947Z</time></trkpt><trkpt lat="42.9965627" lon="12.215818"><ele>232.16666666666669</ele><time>2026-05-01T07:22:35.952Z</time></trkpt><trkpt lat="42.9965462" lon="12.2157125"><ele>233.0</ele><time>2026-05-01T07:22:37.947Z</time></trkpt><trkpt lat="42.9965294" lon="12.2156137"><ele>233.42857142857144</ele><time>2026-05-01T07:22:40Z</time></trkpt><trkpt lat="42.9965138" lon="12.2155159"><ele>233.85714285714283</ele><time>2026-05-01T07:22:41.95Z</time></trkpt><trkpt lat="42.9965008" lon="12.2154193"><ele>234.28571428571428</ele><time>2026-05-01T07:22:43.946Z</time></trkpt><trkpt lat="42.9964923" lon="12.2153249"><ele>234.71428571428572</ele><time>2026-05-01T07:22:46Z</time></trkpt><trkpt lat="42.9964784" lon="12.2152288"><ele>235.14285714285717</ele><time>2026-05-01T07:22:47.955Z</time></trkpt><trkpt lat="42.9964634" lon="12.2151371"><ele>235.57142857142856</ele><time>2026-05-01T07:22:49.946Z</time></trkpt><trkpt lat="42.9964466" lon="12.2150413"><ele>236.0</ele><time>2026-05-01T07:22:51.949Z</time></trkpt><trkpt lat="42.9964286" lon="12.214945"><ele>236.0</ele><time>2026-05-01T07:22:53.943Z</time></trkpt><trkpt lat="42.9964134" lon="12.214849"><ele>236.0</ele><time>2026-05-01T07:22:55.945Z</time></trkpt><trkpt lat="42.9963976" lon="12.2147604"><ele>236.0</ele><time>2026-05-01T07:22:57.945Z</time></trkpt><trkpt lat="42.9963813" lon="12.2146634"><ele>236.0</ele><time>2026-05-01T07:22:59.946Z</time></trkpt><trkpt lat="42.9963599" lon="12.2145665"><ele>236.0</ele><time>2026-05-01T07:23:01.955Z</time></trkpt><trkpt lat="42.9963354" lon="12.2144796"><ele>236.0</ele><time>2026-05-01T07:23:04Z</time></trkpt><trkpt lat="42.9963097" lon="12.2143568"><ele>236.0</ele><time>2026-05-01T07:23:06.953Z</time></trkpt><trkpt lat="42.9962923" lon="12.2142683"><ele>236.28571428571428</ele><time>2026-05-01T07:23:08.96Z</time></trkpt><trkpt lat="42.9962706" lon="12.2141792"><ele>236.57142857142858</ele><time>2026-05-01T07:23:10.947Z</time></trkpt><trkpt lat="42.9962551" lon="12.2140833"><ele>236.85714285714286</ele><time>2026-05-01T07:23:12.95Z</time></trkpt><trkpt lat="42.9962402" lon="12.2139846"><ele>237.14285714285714</ele><time>2026-05-01T07:23:14.945Z</time></trkpt><trkpt lat="42.9962245" lon="12.2138901"><ele>237.42857142857144</ele><time>2026-05-01T07:23:16.956Z</time></trkpt><trkpt lat="42.9962116" lon="12.2137912"><ele>237.71428571428572</ele><time>2026-05-01T07:23:18.946Z</time></trkpt><trkpt lat="42.9962" lon="12.2136875"><ele>238.0</ele><time>2026-05-01T07:23:20.947Z</time></trkpt><trkpt lat="42.9961842" lon="12.2135819"><ele>237.99999999999997</ele><time>2026-05-01T07:23:22.947Z</time></trkpt><trkpt lat="42.9961601" lon="12.2134788"><ele>238.0</ele><time>2026-05-01T07:23:24.953Z</time></trkpt><trkpt lat="42.9961417" lon="12.2133726"><ele>238.0</ele><time>2026-05-01T07:23:26.945Z</time></trkpt><trkpt lat="42.9961297" lon="12.2132669"><ele>238.0</ele><time>2026-05-01T07:23:28.948Z</time></trkpt><trkpt lat="42.9961163" lon="12.2131599"><ele>237.99999999999997</ele><time>2026-05-01T07:23:30.946Z</time></trkpt><trkpt lat="42.996094" lon="12.2130557"><ele>238.0</ele><time>2026-05-01T07:23:32.95Z</time></trkpt><trkpt lat="42.9960751" lon="12.2129389"><ele>237.66666666666666</ele><time>2026-05-01T07:23:34.949Z</time></trkpt><trkpt lat="42.9960545" lon="12.212809"><ele>237.33333333333331</ele><time>2026-05-01T07:23:36.947Z</time></trkpt><trkpt lat="42.9960332" lon="12.2126905"><ele>237.0</ele><time>2026-05-01T07:23:38.95Z</time></trkpt><trkpt lat="42.9960158" lon="12.2125765"><ele>236.66666666666669</ele><time>2026-05-01T07:23:40.951Z</time></trkpt><trkpt lat="42.9959864" lon="12.212468"><ele>236.33333333333334</ele><time>2026-05-01T07:23:42.943Z</time></trkpt><trkpt lat="42.9959571" lon="12.2123514"><ele>236.0</ele><time>2026-05-01T07:23:44.953Z</time></trkpt><trkpt lat="42.9959304" lon="12.2122047"><ele>236.0</ele><time>2026-05-01T07:23:46.95Z</time></trkpt><trkpt lat="42.9959119" lon="12.2120641"><ele>236.00000000000003</ele><time>2026-05-01T07:23:48.951Z</time></trkpt><trkpt lat="42.9958826" lon="12.2119244"><ele>236.00000000000003</ele><time>2026-05-01T07:23:50.945Z</time></trkpt><trkpt lat="42.9958615" lon="12.2117881"><ele>236.0</ele><time>2026-05-01T07:23:52.974Z</time></trkpt><trkpt lat="42.9958306" lon="12.2116348"><ele>236.0</ele><time>2026-05-01T07:23:54.951Z</time></trkpt><trkpt lat="42.9958095" lon="12.2114829"><ele>236.00000000000003</ele><time>2026-05-01T07:23:56.959Z</time></trkpt><trkpt lat="42.9957817" lon="12.2113142"><ele>236.0</ele><time>2026-05-01T07:23:58.948Z</time></trkpt><trkpt lat="42.9957646" lon="12.2112206"><ele>236.0</ele><time>2026-05-01T07:23:59.947Z</time></trkpt><trkpt lat="42.9957455" lon="12.2111307"><ele>236.0</ele><time>2026-05-01T07:24:00.97Z</time></trkpt><trkpt lat="42.9957288" lon="12.2110317"><ele>236.00000000000003</ele><time>2026-05-01T07:24:01.954Z</time></trkpt><trkpt lat="42.9957159" lon="12.2109373"><ele>236.0</ele><time>2026-05-01T07:24:02.959Z</time></trkpt><trkpt lat="42.9956983" lon="12.2108427"><ele>236.0</ele><time>2026-05-01T07:24:04Z</time></trkpt><trkpt lat="42.9956828" lon="12.2107486"><ele>236.0</ele><time>2026-05-01T07:24:04.969Z</time></trkpt><trkpt lat="42.9956737" lon="12.2106478"><ele>236.0</ele><time>2026-05-01T07:24:05.985Z</time></trkpt><trkpt lat="42.9956596" lon="12.2105556"><ele>236.0</ele><time>2026-05-01T07:24:06.947Z</time></trkpt><trkpt lat="42.9956438" lon="12.2104614"><ele>236.0</ele><time>2026-05-01T07:24:07.968Z</time></trkpt><trkpt lat="42.9956312" lon="12.2103682"><ele>236.0</ele><time>2026-05-01T07:24:08.975Z</time></trkpt><trkpt lat="42.995611" lon="12.2102672"><ele>236.0</ele><time>2026-05-01T07:24:09.961Z</time></trkpt><trkpt lat="42.9956024" lon="12.2101709"><ele>235.42857142857142</ele><time>2026-05-01T07:24:10.955Z</time></trkpt><trkpt lat="42.9955818" lon="12.2100801"><ele>234.8571428571429</ele><time>2026-05-01T07:24:11.958Z</time></trkpt><trkpt lat="42.9955673" lon="12.2099895"><ele>234.2857142857143</ele><time>2026-05-01T07:24:12.966Z</time></trkpt><trkpt lat="42.9955528" lon="12.2098994"><ele>233.71428571428572</ele><time>2026-05-01T07:24:13.962Z</time></trkpt><trkpt lat="42.9955318" lon="12.2098114"><ele>233.14285714285717</ele><time>2026-05-01T07:24:14.963Z</time></trkpt><trkpt lat="42.9955175" lon="12.2097239"><ele>232.5714285714286</ele><time>2026-05-01T07:24:15.962Z</time></trkpt><trkpt lat="42.9954988" lon="12.2096388"><ele>232.00000000000003</ele><time>2026-05-01T07:24:16.974Z</time></trkpt><trkpt lat="42.9954721" lon="12.209475"><ele>231.39999999999998</ele><time>2026-05-01T07:24:18.97Z</time></trkpt><trkpt lat="42.9954457" lon="12.2093954"><ele>230.79999999999998</ele><time>2026-05-01T07:24:19.965Z</time></trkpt><trkpt lat="42.995402" lon="12.2093272"><ele>230.2</ele><time>2026-05-01T07:24:20.971Z</time></trkpt><trkpt lat="42.9953039" lon="12.2092701"><ele>229.6</ele><time>2026-05-01T07:24:22.957Z</time></trkpt><trkpt lat="42.9951945" lon="12.2092439"><ele>229.0</ele><time>2026-05-01T07:24:24.977Z</time></trkpt><trkpt lat="42.9950923" lon="12.2091919"><ele>229.0</ele><time>2026-05-01T07:24:26.966Z</time></trkpt><trkpt lat="42.9949958" lon="12.2091151"><ele>228.99999999999997</ele><time>2026-05-01T07:24:28.955Z</time></trkpt><trkpt lat="42.9949111" lon="12.2090284"><ele>228.99999999999997</ele><time>2026-05-01T07:24:30.961Z</time></trkpt><trkpt lat="42.9948368" lon="12.2089576"><ele>229.0</ele><time>2026-05-01T07:24:32.948Z</time></trkpt><trkpt lat="42.9947664" lon="12.2088976"><ele>229.0</ele><time>2026-05-01T07:24:34.944Z</time></trkpt><trkpt lat="42.9947028" lon="12.208848"><ele>228.99999999999997</ele><time>2026-05-01T07:24:36.984Z</time></trkpt><trkpt lat="42.994647" lon="12.208794"><ele>229.0</ele><time>2026-05-01T07:24:38.969Z</time></trkpt><trkpt lat="42.9945727" lon="12.2087146"><ele>229.0</ele><time>2026-05-01T07:24:41.971Z</time></trkpt><trkpt lat="42.9945206" lon="12.2086546"><ele>229.0</ele><time>2026-05-01T07:24:43.957Z</time></trkpt><trkpt lat="42.9944616" lon="12.2086064"><ele>228.99999999999997</ele><time>2026-05-01T07:24:45.962Z</time></trkpt><trkpt lat="42.9943884" lon="12.2085751"><ele>229.0</ele><time>2026-05-01T07:24:47.969Z</time></trkpt><trkpt lat="42.9943032" lon="12.2085795"><ele>229.0</ele><time>2026-05-01T07:24:49.948Z</time></trkpt><trkpt lat="42.994216" lon="12.2086135"><ele>228.99999999999997</ele><time>2026-05-01T07:24:51.959Z</time></trkpt><trkpt lat="42.994129" lon="12.2086375"><ele>228.99999999999997</ele><time>2026-05-01T07:24:53.952Z</time></trkpt><trkpt lat="42.9940178" lon="12.2086163"><ele>229.0</ele><time>2026-05-01T07:24:55.966Z</time></trkpt><trkpt lat="42.9939481" lon="12.2085299"><ele>229.0</ele><time>2026-05-01T07:24:57.972Z</time></trkpt><trkpt lat="42.9938951" lon="12.208404"><ele>228.79999999999998</ele><time>2026-05-01T07:24:59.963Z</time></trkpt><trkpt lat="42.9938348" lon="12.2082947"><ele>228.59999999999997</ele><time>2026-05-01T07:25:01.969Z</time></trkpt><trkpt lat="42.9937674" lon="12.2081799"><ele>228.4</ele><time>2026-05-01T07:25:03.972Z</time></trkpt><trkpt lat="42.9937013" lon="12.2080633"><ele>228.2</ele><time>2026-05-01T07:25:05.961Z</time></trkpt><trkpt lat="42.9936294" lon="12.20795"><ele>228.0</ele><time>2026-05-01T07:25:07.965Z</time></trkpt><trkpt lat="42.9935518" lon="12.2078405"><ele>228.0</ele><time>2026-05-01T07:25:09.957Z</time></trkpt><trkpt lat="42.9934682" lon="12.2077402"><ele>228.0</ele><time>2026-05-01T07:25:11.962Z</time></trkpt><trkpt lat="42.9934078" lon="12.2076879"><ele>228.0</ele><time>2026-05-01T07:25:12.973Z</time></trkpt><trkpt lat="42.9933367" lon="12.2075962"><ele>228.0</ele><time>2026-05-01T07:25:14.965Z</time></trkpt><trkpt lat="42.9932603" lon="12.2075007"><ele>228.0</ele><time>2026-05-01T07:25:16.962Z</time></trkpt><trkpt lat="42.993182" lon="12.2073994"><ele>227.85714285714283</ele><time>2026-05-01T07:25:18.962Z</time></trkpt><trkpt lat="42.9931229" lon="12.2073363"><ele>227.7142857142857</ele><time>2026-05-01T07:25:19.969Z</time></trkpt><trkpt lat="42.9930707" lon="12.2072782"><ele>227.57142857142856</ele><time>2026-05-01T07:25:20.971Z</time></trkpt><trkpt lat="42.9930233" lon="12.2072128"><ele>227.42857142857144</ele><time>2026-05-01T07:25:21.955Z</time></trkpt><trkpt lat="42.992976" lon="12.2071399"><ele>227.2857142857143</ele><time>2026-05-01T07:25:22.963Z</time></trkpt><trkpt lat="42.9929321" lon="12.20706"><ele>227.14285714285717</ele><time>2026-05-01T07:25:23.97Z</time></trkpt><trkpt lat="42.9928834" lon="12.2069908"><ele>227.0</ele><time>2026-05-01T07:25:24.961Z</time></trkpt><trkpt lat="42.9928343" lon="12.2069222"><ele>227.0</ele><time>2026-05-01T07:25:25.972Z</time></trkpt><trkpt lat="42.9927917" lon="12.2068478"><ele>227.00000000000003</ele><time>2026-05-01T07:25:26.97Z</time></trkpt><trkpt lat="42.9927523" lon="12.2067725"><ele>227.0</ele><time>2026-05-01T07:25:27.969Z</time></trkpt><trkpt lat="42.992711" lon="12.2066927"><ele>227.0</ele><time>2026-05-01T07:25:28.97Z</time></trkpt><trkpt lat="42.9926548" lon="12.2066197"><ele>227.00000000000003</ele><time>2026-05-01T07:25:29.954Z</time></trkpt><trkpt lat="42.9926069" lon="12.2065431"><ele>227.0</ele><time>2026-05-01T07:25:30.963Z</time></trkpt><trkpt lat="42.9925634" lon="12.2064789"><ele>227.0</ele><time>2026-05-01T07:25:31.97Z</time></trkpt><trkpt lat="42.9925134" lon="12.206412"><ele>227.2</ele><time>2026-05-01T07:25:32.969Z</time></trkpt><trkpt lat="42.992458" lon="12.2063547"><ele>227.39999999999998</ele><time>2026-05-01T07:25:33.958Z</time></trkpt><trkpt lat="42.9924006" lon="12.2063128"><ele>227.60000000000002</ele><time>2026-05-01T07:25:34.958Z</time></trkpt><trkpt lat="42.9923027" lon="12.2062464"><ele>227.8</ele><time>2026-05-01T07:25:36.948Z</time></trkpt><trkpt lat="42.9921933" lon="12.2061911"><ele>228.0</ele><time>2026-05-01T07:25:38.974Z</time></trkpt><trkpt lat="42.992094" lon="12.2061167"><ele>228.0</ele><time>2026-05-01T07:25:40.965Z</time></trkpt><trkpt lat="42.9919957" lon="12.2060592"><ele>228.0</ele><time>2026-05-01T07:25:42.957Z</time></trkpt><trkpt lat="42.99189" lon="12.2059991"><ele>228.0</ele><time>2026-05-01T07:25:44.965Z</time></trkpt><trkpt lat="42.9917809" lon="12.2059395"><ele>228.0</ele><time>2026-05-01T07:25:46.967Z</time></trkpt><trkpt lat="42.9916827" lon="12.2058892"><ele>228.0</ele><time>2026-05-01T07:25:48.953Z</time></trkpt><trkpt lat="42.9915934" lon="12.2058324"><ele>228.5</ele><time>2026-05-01T07:25:50.966Z</time></trkpt><trkpt lat="42.991524" lon="12.2058045"><ele>229.0</ele><time>2026-05-01T07:25:52.968Z</time></trkpt><trkpt lat="42.9914998" lon="12.2056974"><ele>229.5</ele><time>2026-05-01T07:25:58.956Z</time></trkpt><trkpt lat="42.9914266" lon="12.2056958"><ele>230.0</ele><time>2026-05-01T07:26:01.968Z</time></trkpt><trkpt lat="42.9913361" lon="12.2057207"><ele>230.5</ele><time>2026-05-01T07:26:04.969Z</time></trkpt><trkpt lat="42.991267" lon="12.2057054"><ele>231.0</ele><time>2026-05-01T07:26:06.949Z</time></trkpt><trkpt lat="42.9911888" lon="12.2056883"><ele>231.0</ele><time>2026-05-01T07:26:08.967Z</time></trkpt><trkpt lat="42.9910995" lon="12.2056548"><ele>231.00000000000003</ele><time>2026-05-01T07:26:10.963Z</time></trkpt><trkpt lat="42.9910154" lon="12.2055974"><ele>231.00000000000003</ele><time>2026-05-01T07:26:13Z</time></trkpt><trkpt lat="42.9909288" lon="12.2055347"><ele>231.0</ele><time>2026-05-01T07:26:14.963Z</time></trkpt><trkpt lat="42.990844" lon="12.2054728"><ele>231.0</ele><time>2026-05-01T07:26:16.947Z</time></trkpt><trkpt lat="42.9907661" lon="12.2054092"><ele>231.20000000000002</ele><time>2026-05-01T07:26:18.949Z</time></trkpt><trkpt lat="42.9906834" lon="12.2053532"><ele>231.40000000000003</ele><time>2026-05-01T07:26:20.971Z</time></trkpt><trkpt lat="42.9905919" lon="12.2052819"><ele>231.6</ele><time>2026-05-01T07:26:22.97Z</time></trkpt><trkpt lat="42.9904909" lon="12.2052068"><ele>231.8</ele><time>2026-05-01T07:26:24.95Z</time></trkpt><trkpt lat="42.990394" lon="12.2051404"><ele>232.0</ele><time>2026-05-01T07:26:26.947Z</time></trkpt><trkpt lat="42.990297" lon="12.2050815"><ele>232.0</ele><time>2026-05-01T07:26:28.946Z</time></trkpt><trkpt lat="42.9902161" lon="12.2050281"><ele>232.0</ele><time>2026-05-01T07:26:30.958Z</time></trkpt><trkpt lat="42.9901063" lon="12.2049657"><ele>232.0</ele><time>2026-05-01T07:26:32.976Z</time></trkpt><trkpt lat="42.9900196" lon="12.2048826"><ele>232.0</ele><time>2026-05-01T07:26:34.956Z</time></trkpt><trkpt lat="42.9899353" lon="12.2047802"><ele>232.0</ele><time>2026-05-01T07:26:36.959Z</time></trkpt><trkpt lat="42.9898431" lon="12.2046735"><ele>231.8</ele><time>2026-05-01T07:26:38.949Z</time></trkpt><trkpt lat="42.9897946" lon="12.2046118"><ele>231.6</ele><time>2026-05-01T07:26:39.946Z</time></trkpt><trkpt lat="42.9897138" lon="12.2044878"><ele>231.40000000000003</ele><time>2026-05-01T07:26:41.959Z</time></trkpt><trkpt lat="42.9896556" lon="12.2044273"><ele>231.20000000000002</ele><time>2026-05-01T07:26:42.969Z</time></trkpt><trkpt lat="42.9895473" lon="12.2043502"><ele>231.0</ele><time>2026-05-01T07:26:44.946Z</time></trkpt><trkpt lat="42.9894501" lon="12.2042753"><ele>231.0</ele><time>2026-05-01T07:26:46.938Z</time></trkpt><trkpt lat="42.9893796" lon="12.2042638"><ele>231.0</ele><time>2026-05-01T07:26:47.95Z</time></trkpt><trkpt lat="42.9892902" lon="12.2042249"><ele>231.0</ele><time>2026-05-01T07:26:49.945Z</time></trkpt><trkpt lat="42.9892281" lon="12.2042076"><ele>231.0</ele><time>2026-05-01T07:26:50.942Z</time></trkpt><trkpt lat="42.9891238" lon="12.2041432"><ele>231.0</ele><time>2026-05-01T07:26:52.948Z</time></trkpt><trkpt lat="42.9890374" lon="12.2040881"><ele>231.0</ele><time>2026-05-01T07:26:54.953Z</time></trkpt><trkpt lat="42.9889373" lon="12.2040261"><ele>230.60000000000002</ele><time>2026-05-01T07:26:56.949Z</time></trkpt><trkpt lat="42.988838" lon="12.2039736"><ele>230.20000000000002</ele><time>2026-05-01T07:26:58.968Z</time></trkpt><trkpt lat="42.9887385" lon="12.2039159"><ele>229.79999999999998</ele><time>2026-05-01T07:27:00.965Z</time></trkpt><trkpt lat="42.9886315" lon="12.2038647"><ele>229.39999999999998</ele><time>2026-05-01T07:27:02.963Z</time></trkpt><trkpt lat="42.9885174" lon="12.2038104"><ele>229.0</ele><time>2026-05-01T07:27:04.971Z</time></trkpt><trkpt lat="42.9884191" lon="12.2037466"><ele>229.6</ele><time>2026-05-01T07:27:06.971Z</time></trkpt><trkpt lat="42.9883174" lon="12.203682"><ele>230.2</ele><time>2026-05-01T07:27:08.964Z</time></trkpt><trkpt lat="42.9882185" lon="12.2036313"><ele>230.79999999999998</ele><time>2026-05-01T07:27:10.96Z</time></trkpt><trkpt lat="42.9881246" lon="12.2035799"><ele>231.39999999999998</ele><time>2026-05-01T07:27:12.969Z</time></trkpt><trkpt lat="42.9880324" lon="12.2035138"><ele>232.0</ele><time>2026-05-01T07:27:14.973Z</time></trkpt><trkpt lat="42.9879406" lon="12.2034507"><ele>232.0</ele><time>2026-05-01T07:27:16.969Z</time></trkpt><trkpt lat="42.987846" lon="12.2034046"><ele>232.0</ele><time>2026-05-01T07:27:18.952Z</time></trkpt><trkpt lat="42.9877542" lon="12.2033537"><ele>232.0</ele><time>2026-05-01T07:27:20.963Z</time></trkpt><trkpt lat="42.9876627" lon="12.2033033"><ele>232.0</ele><time>2026-05-01T07:27:23Z</time></trkpt><trkpt lat="42.9875675" lon="12.203248"><ele>232.0</ele><time>2026-05-01T07:27:24.969Z</time></trkpt><trkpt lat="42.9874803" lon="12.2031903"><ele>232.0</ele><time>2026-05-01T07:27:26.968Z</time></trkpt><trkpt lat="42.9873885" lon="12.2031312"><ele>232.0</ele><time>2026-05-01T07:27:28.957Z</time></trkpt><trkpt lat="42.9872979" lon="12.2030699"><ele>232.0</ele><time>2026-05-01T07:27:30.959Z</time></trkpt><trkpt lat="42.9871969" lon="12.2030053"><ele>232.0</ele><time>2026-05-01T07:27:32.946Z</time></trkpt><trkpt lat="42.9871025" lon="12.2029479"><ele>232.0</ele><time>2026-05-01T07:27:34.956Z</time></trkpt><trkpt lat="42.9869997" lon="12.2028912"><ele>232.0</ele><time>2026-05-01T07:27:36.96Z</time></trkpt><trkpt lat="42.9868923" lon="12.2028303"><ele>232.0</ele><time>2026-05-01T07:27:38.98Z</time></trkpt><trkpt lat="42.9867789" lon="12.2027721"><ele>232.0</ele><time>2026-05-01T07:27:40.97Z</time></trkpt><trkpt lat="42.9866709" lon="12.2027122"><ele>232.0</ele><time>2026-05-01T07:27:42.943Z</time></trkpt><trkpt lat="42.9866111" lon="12.2026808"><ele>232.0</ele><time>2026-05-01T07:27:43.95Z</time></trkpt><trkpt lat="42.9865083" lon="12.2026114"><ele>232.25</ele><time>2026-05-01T07:27:45.958Z</time></trkpt><trkpt lat="42.9864039" lon="12.2025462"><ele>232.5</ele><time>2026-05-01T07:27:47.945Z</time></trkpt><trkpt lat="42.9862956" lon="12.2024846"><ele>232.75</ele><time>2026-05-01T07:27:49.943Z</time></trkpt><trkpt lat="42.9861954" lon="12.2024081"><ele>233.0</ele><time>2026-05-01T07:27:51.946Z</time></trkpt><trkpt lat="42.9861164" lon="12.2023107"><ele>233.0</ele><time>2026-05-01T07:27:53.951Z</time></trkpt><trkpt lat="42.9860331" lon="12.2022018"><ele>233.0</ele><time>2026-05-01T07:27:55.947Z</time></trkpt><trkpt lat="42.9859621" lon="12.20209"><ele>233.0</ele><time>2026-05-01T07:27:57.945Z</time></trkpt><trkpt lat="42.985896" lon="12.2019813"><ele>233.0</ele><time>2026-05-01T07:27:59.952Z</time></trkpt><trkpt lat="42.9858239" lon="12.2018618"><ele>233.0</ele><time>2026-05-01T07:28:01.948Z</time></trkpt><trkpt lat="42.9857531" lon="12.2017511"><ele>233.25</ele><time>2026-05-01T07:28:03.944Z</time></trkpt><trkpt lat="42.9856739" lon="12.201641"><ele>233.5</ele><time>2026-05-01T07:28:05.945Z</time></trkpt><trkpt lat="42.985594" lon="12.2015225"><ele>233.75</ele><time>2026-05-01T07:28:07.955Z</time></trkpt><trkpt lat="42.9855157" lon="12.2014064"><ele>234.0</ele><time>2026-05-01T07:28:09.968Z</time></trkpt><trkpt lat="42.9854406" lon="12.2012958"><ele>234.0</ele><time>2026-05-01T07:28:11.97Z</time></trkpt><trkpt lat="42.9853686" lon="12.2011754"><ele>234.0</ele><time>2026-05-01T07:28:13.964Z</time></trkpt><trkpt lat="42.9852838" lon="12.2010647"><ele>234.0</ele><time>2026-05-01T07:28:15.977Z</time></trkpt><trkpt lat="42.9852165" lon="12.2009398"><ele>234.0</ele><time>2026-05-01T07:28:17.966Z</time></trkpt><trkpt lat="42.9851407" lon="12.2008212"><ele>234.0</ele><time>2026-05-01T07:28:19.965Z</time></trkpt><trkpt lat="42.985069" lon="12.2006997"><ele>234.0</ele><time>2026-05-01T07:28:21.97Z</time></trkpt><trkpt lat="42.9849973" lon="12.2005642"><ele>234.0</ele><time>2026-05-01T07:28:23.96Z</time></trkpt><trkpt lat="42.9849359" lon="12.2004349"><ele>234.0</ele><time>2026-05-01T07:28:25.976Z</time></trkpt><trkpt lat="42.9848864" lon="12.2002948"><ele>234.0</ele><time>2026-05-01T07:28:27.951Z</time></trkpt><trkpt lat="42.9848217" lon="12.2001546"><ele>234.0</ele><time>2026-05-01T07:28:29.969Z</time></trkpt><trkpt lat="42.9847637" lon="12.2000233"><ele>234.0</ele><time>2026-05-01T07:28:31.959Z</time></trkpt><trkpt lat="42.9847272" lon="12.199873"><ele>234.0</ele><time>2026-05-01T07:28:33.966Z</time></trkpt><trkpt lat="42.9846808" lon="12.1997432"><ele>234.0</ele><time>2026-05-01T07:28:35.95Z</time></trkpt><trkpt lat="42.9846403" lon="12.1996087"><ele>234.0</ele><time>2026-05-01T07:28:37.96Z</time></trkpt><trkpt lat="42.9845889" lon="12.1994671"><ele>234.0</ele><time>2026-05-01T07:28:39.963Z</time></trkpt><trkpt lat="42.9845283" lon="12.1993202"><ele>234.0</ele><time>2026-05-01T07:28:41.962Z</time></trkpt><trkpt lat="42.9844664" lon="12.1991853"><ele>234.0</ele><time>2026-05-01T07:28:43.971Z</time></trkpt><trkpt lat="42.9844425" lon="12.1991037"><ele>233.99999999999997</ele><time>2026-05-01T07:28:44.964Z</time></trkpt><trkpt lat="42.9844051" lon="12.1989574"><ele>233.99999999999997</ele><time>2026-05-01T07:28:46.963Z</time></trkpt><trkpt lat="42.9843647" lon="12.1988162"><ele>234.0</ele><time>2026-05-01T07:28:48.944Z</time></trkpt><trkpt lat="42.984315" lon="12.1986783"><ele>234.0</ele><time>2026-05-01T07:28:50.972Z</time></trkpt><trkpt lat="42.9842697" lon="12.1985362"><ele>234.0</ele><time>2026-05-01T07:28:52.968Z</time></trkpt><trkpt lat="42.9842284" lon="12.1983868"><ele>234.0</ele><time>2026-05-01T07:28:54.959Z</time></trkpt><trkpt lat="42.9841807" lon="12.1982488"><ele>234.0</ele><time>2026-05-01T07:28:56.963Z</time></trkpt><trkpt lat="42.9841148" lon="12.1981314"><ele>234.0</ele><time>2026-05-01T07:28:58.953Z</time></trkpt><trkpt lat="42.9840381" lon="12.1980081"><ele>234.79999999999998</ele><time>2026-05-01T07:29:01Z</time></trkpt><trkpt lat="42.9839603" lon="12.1978933"><ele>235.59999999999997</ele><time>2026-05-01T07:29:02.954Z</time></trkpt><trkpt lat="42.9838812" lon="12.1977886"><ele>236.4</ele><time>2026-05-01T07:29:04.963Z</time></trkpt><trkpt lat="42.9838027" lon="12.1976772"><ele>237.2</ele><time>2026-05-01T07:29:06.96Z</time></trkpt><trkpt lat="42.9837221" lon="12.1975716"><ele>238.0</ele><time>2026-05-01T07:29:08.957Z</time></trkpt><trkpt lat="42.9836494" lon="12.1974762"><ele>238.0</ele><time>2026-05-01T07:29:10.957Z</time></trkpt><trkpt lat="42.9835779" lon="12.1973825"><ele>238.0</ele><time>2026-05-01T07:29:12.961Z</time></trkpt><trkpt lat="42.9835041" lon="12.1972755"><ele>238.0</ele><time>2026-05-01T07:29:14.978Z</time></trkpt><trkpt lat="42.9834225" lon="12.1971719"><ele>238.0</ele><time>2026-05-01T07:29:16.962Z</time></trkpt><trkpt lat="42.9833516" lon="12.1970678"><ele>238.0</ele><time>2026-05-01T07:29:18.959Z</time></trkpt><trkpt lat="42.9832692" lon="12.19697"><ele>239.4</ele><time>2026-05-01T07:29:20.973Z</time></trkpt><trkpt lat="42.9831604" lon="12.1968743"><ele>240.8</ele><time>2026-05-01T07:29:22.962Z</time></trkpt><trkpt lat="42.9831047" lon="12.1968224"><ele>242.2</ele><time>2026-05-01T07:29:23.969Z</time></trkpt><trkpt lat="42.9830108" lon="12.1967399"><ele>243.6</ele><time>2026-05-01T07:29:25.944Z</time></trkpt><trkpt lat="42.982919" lon="12.1966524"><ele>245.0</ele><time>2026-05-01T07:29:27.95Z</time></trkpt><trkpt lat="42.9828205" lon="12.1965728"><ele>245.0</ele><time>2026-05-01T07:29:29.945Z</time></trkpt><trkpt lat="42.9827297" lon="12.1965106"><ele>245.0</ele><time>2026-05-01T07:29:31.95Z</time></trkpt><trkpt lat="42.9826396" lon="12.1964546"><ele>245.0</ele><time>2026-05-01T07:29:33.943Z</time></trkpt><trkpt lat="42.9825467" lon="12.1963998"><ele>245.0</ele><time>2026-05-01T07:29:35.944Z</time></trkpt><trkpt lat="42.9824413" lon="12.1963466"><ele>245.0</ele><time>2026-05-01T07:29:37.943Z</time></trkpt><trkpt lat="42.982332" lon="12.1962945"><ele>245.6</ele><time>2026-05-01T07:29:39.942Z</time></trkpt><trkpt lat="42.9822253" lon="12.1962506"><ele>246.2</ele><time>2026-05-01T07:29:41.944Z</time></trkpt><trkpt lat="42.9821329" lon="12.196208"><ele>246.8</ele><time>2026-05-01T07:29:43.952Z</time></trkpt><trkpt lat="42.9820401" lon="12.1961725"><ele>247.4</ele><time>2026-05-01T07:29:45.945Z</time></trkpt><trkpt lat="42.9819478" lon="12.1961148"><ele>248.0</ele><time>2026-05-01T07:29:47.951Z</time></trkpt><trkpt lat="42.9818537" lon="12.1960474"><ele>248.0</ele><time>2026-05-01T07:29:49.948Z</time></trkpt><trkpt lat="42.981781" lon="12.1959507"><ele>248.0</ele><time>2026-05-01T07:29:51.95Z</time></trkpt><trkpt lat="42.9817027" lon="12.1958469"><ele>248.0</ele><time>2026-05-01T07:29:53.942Z</time></trkpt><trkpt lat="42.981631" lon="12.1957442"><ele>248.0</ele><time>2026-05-01T07:29:55.945Z</time></trkpt><trkpt lat="42.9815634" lon="12.1956358"><ele>248.0</ele><time>2026-05-01T07:29:57.965Z</time></trkpt><trkpt lat="42.9814902" lon="12.1955299"><ele>248.2</ele><time>2026-05-01T07:29:59.97Z</time></trkpt><trkpt lat="42.9814297" lon="12.1954293"><ele>248.4</ele><time>2026-05-01T07:30:01.953Z</time></trkpt><trkpt lat="42.9813676" lon="12.195318"><ele>248.59999999999997</ele><time>2026-05-01T07:30:03.949Z</time></trkpt><trkpt lat="42.9813074" lon="12.195221"><ele>248.79999999999998</ele><time>2026-05-01T07:30:05.967Z</time></trkpt><trkpt lat="42.9812781" lon="12.195099"><ele>249.0</ele><time>2026-05-01T07:30:07.948Z</time></trkpt><trkpt lat="42.9812514" lon="12.1949652"><ele>248.79999999999998</ele><time>2026-05-01T07:30:09.958Z</time></trkpt><trkpt lat="42.9812248" lon="12.1948169"><ele>248.59999999999997</ele><time>2026-05-01T07:30:11.972Z</time></trkpt><trkpt lat="42.9811962" lon="12.1946762"><ele>248.4</ele><time>2026-05-01T07:30:13.95Z</time></trkpt><trkpt lat="42.9811701" lon="12.1945335"><ele>248.2</ele><time>2026-05-01T07:30:15.964Z</time></trkpt><trkpt lat="42.9811307" lon="12.1943991"><ele>248.0</ele><time>2026-05-01T07:30:17.96Z</time></trkpt><trkpt lat="42.9811011" lon="12.1942779"><ele>248.00000000000003</ele><time>2026-05-01T07:30:19.97Z</time></trkpt><trkpt lat="42.9810639" lon="12.1942067"><ele>248.0</ele><time>2026-05-01T07:30:20.965Z</time></trkpt><trkpt lat="42.9810241" lon="12.1940765"><ele>248.0</ele><time>2026-05-01T07:30:22.963Z</time></trkpt><trkpt lat="42.9809768" lon="12.1939309"><ele>248.0</ele><time>2026-05-01T07:30:24.97Z</time></trkpt><trkpt lat="42.9809512" lon="12.1938506"><ele>248.00000000000003</ele><time>2026-05-01T07:30:25.966Z</time></trkpt><trkpt lat="42.9809316" lon="12.1937677"><ele>248.0</ele><time>2026-05-01T07:30:26.974Z</time></trkpt><trkpt lat="42.9809067" lon="12.1936831"><ele>248.00000000000003</ele><time>2026-05-01T07:30:27.965Z</time></trkpt><trkpt lat="42.9808825" lon="12.1935897"><ele>248.0</ele><time>2026-05-01T07:30:28.972Z</time></trkpt><trkpt lat="42.9808715" lon="12.1934971"><ele>248.0</ele><time>2026-05-01T07:30:29.971Z</time></trkpt><trkpt lat="42.9808611" lon="12.1934095"><ele>248.0</ele><time>2026-05-01T07:30:30.974Z</time></trkpt><trkpt lat="42.9808484" lon="12.1933194"><ele>248.00000000000003</ele><time>2026-05-01T07:30:31.958Z</time></trkpt><trkpt lat="42.9808247" lon="12.1931449"><ele>248.0</ele><time>2026-05-01T07:30:33.953Z</time></trkpt><trkpt lat="42.980796" lon="12.1929879"><ele>247.75</ele><time>2026-05-01T07:30:35.951Z</time></trkpt><trkpt lat="42.9807655" lon="12.192831"><ele>247.5</ele><time>2026-05-01T07:30:37.959Z</time></trkpt><trkpt lat="42.980721" lon="12.1926863"><ele>247.25</ele><time>2026-05-01T07:30:39.965Z</time></trkpt><trkpt lat="42.9806761" lon="12.192539"><ele>247.0</ele><time>2026-05-01T07:30:41.963Z</time></trkpt><trkpt lat="42.980642" lon="12.1923877"><ele>247.25</ele><time>2026-05-01T07:30:43.966Z</time></trkpt><trkpt lat="42.9805951" lon="12.1922372"><ele>247.5</ele><time>2026-05-01T07:30:45.964Z</time></trkpt><trkpt lat="42.9805502" lon="12.1920924"><ele>247.75</ele><time>2026-05-01T07:30:47.972Z</time></trkpt><trkpt lat="42.980509" lon="12.1919406"><ele>248.0</ele><time>2026-05-01T07:30:49.979Z</time></trkpt><trkpt lat="42.9804743" lon="12.1917873"><ele>248.0</ele><time>2026-05-01T07:30:51.97Z</time></trkpt><trkpt lat="42.9804471" lon="12.191642"><ele>248.0</ele><time>2026-05-01T07:30:53.961Z</time></trkpt><trkpt lat="42.9804144" lon="12.1914925"><ele>248.0</ele><time>2026-05-01T07:30:55.968Z</time></trkpt><trkpt lat="42.980366" lon="12.1913567"><ele>248.0</ele><time>2026-05-01T07:30:57.959Z</time></trkpt><trkpt lat="42.9802964" lon="12.1912318"><ele>248.0</ele><time>2026-05-01T07:30:59.983Z</time></trkpt><trkpt lat="42.9802099" lon="12.1911319"><ele>248.25</ele><time>2026-05-01T07:31:01.963Z</time></trkpt><trkpt lat="42.9801302" lon="12.1910431"><ele>248.5</ele><time>2026-05-01T07:31:03.947Z</time></trkpt><trkpt lat="42.9800357" lon="12.1909424"><ele>248.75</ele><time>2026-05-01T07:31:05.965Z</time></trkpt><trkpt lat="42.9799494" lon="12.190841"><ele>249.0</ele><time>2026-05-01T07:31:07.964Z</time></trkpt><trkpt lat="42.9798649" lon="12.1907351"><ele>249.2</ele><time>2026-05-01T07:31:09.97Z</time></trkpt><trkpt lat="42.9798021" lon="12.1906288"><ele>249.39999999999998</ele><time>2026-05-01T07:31:11.978Z</time></trkpt><trkpt lat="42.9797489" lon="12.1905144"><ele>249.6</ele><time>2026-05-01T07:31:13.96Z</time></trkpt><trkpt lat="42.9796814" lon="12.1903664"><ele>249.8</ele><time>2026-05-01T07:31:15.97Z</time></trkpt><trkpt lat="42.9796351" lon="12.1902995"><ele>250.0</ele><time>2026-05-01T07:31:16.969Z</time></trkpt><trkpt lat="42.9795988" lon="12.1902141"><ele>250.0</ele><time>2026-05-01T07:31:17.951Z</time></trkpt><trkpt lat="42.9795547" lon="12.1900839"><ele>250.0</ele><time>2026-05-01T07:31:19.969Z</time></trkpt><trkpt lat="42.979505" lon="12.1899521"><ele>250.0</ele><time>2026-05-01T07:31:21.963Z</time></trkpt><trkpt lat="42.9794889" lon="12.1898611"><ele>250.0</ele><time>2026-05-01T07:31:22.969Z</time></trkpt><trkpt lat="42.9794515" lon="12.1897578"><ele>250.0</ele><time>2026-05-01T07:31:24.967Z</time></trkpt><trkpt lat="42.9793988" lon="12.1896296"><ele>250.2</ele><time>2026-05-01T07:31:26.963Z</time></trkpt><trkpt lat="42.9793706" lon="12.1894933"><ele>250.4</ele><time>2026-05-01T07:31:28.97Z</time></trkpt><trkpt lat="42.9793169" lon="12.1893675"><ele>250.60000000000002</ele><time>2026-05-01T07:31:30.969Z</time></trkpt><trkpt lat="42.9792591" lon="12.1892299"><ele>250.8</ele><time>2026-05-01T07:31:32.955Z</time></trkpt><trkpt lat="42.9792204" lon="12.1891554"><ele>251.0</ele><time>2026-05-01T07:31:33.966Z</time></trkpt><trkpt lat="42.9791889" lon="12.1890205"><ele>252.0</ele><time>2026-05-01T07:31:35.964Z</time></trkpt><trkpt lat="42.9791493" lon="12.1889062"><ele>253.00000000000003</ele><time>2026-05-01T07:31:37.95Z</time></trkpt><trkpt lat="42.9791042" lon="12.1887654"><ele>254.00000000000003</ele><time>2026-05-01T07:31:39.942Z</time></trkpt><trkpt lat="42.9790783" lon="12.1886869"><ele>255.0</ele><time>2026-05-01T07:31:40.971Z</time></trkpt><trkpt lat="42.9790441" lon="12.1885633"><ele>256.0</ele><time>2026-05-01T07:31:43Z</time></trkpt><trkpt lat="42.9789911" lon="12.1884252"><ele>256.0</ele><time>2026-05-01T07:31:44.953Z</time></trkpt><trkpt lat="42.9789674" lon="12.1882702"><ele>256.0</ele><time>2026-05-01T07:31:46.944Z</time></trkpt><trkpt lat="42.9789516" lon="12.1881161"><ele>256.0</ele><time>2026-05-01T07:31:48.943Z</time></trkpt><trkpt lat="42.9789176" lon="12.187978"><ele>256.0</ele><time>2026-05-01T07:31:50.974Z</time></trkpt><trkpt lat="42.9788664" lon="12.1878478"><ele>256.0</ele><time>2026-05-01T07:31:52.965Z</time></trkpt><trkpt lat="42.9788071" lon="12.1877374"><ele>255.8</ele><time>2026-05-01T07:31:55Z</time></trkpt><trkpt lat="42.9787295" lon="12.1876163"><ele>255.60000000000002</ele><time>2026-05-01T07:31:56.964Z</time></trkpt><trkpt lat="42.9786685" lon="12.1875063"><ele>255.4</ele><time>2026-05-01T07:31:58.965Z</time></trkpt><trkpt lat="42.9786039" lon="12.1874037"><ele>255.2</ele><time>2026-05-01T07:32:00.948Z</time></trkpt><trkpt lat="42.9785263" lon="12.1873018"><ele>255.0</ele><time>2026-05-01T07:32:02.962Z</time></trkpt><trkpt lat="42.9784474" lon="12.1872086"><ele>255.6</ele><time>2026-05-01T07:32:04.947Z</time></trkpt><trkpt lat="42.9783658" lon="12.1871085"><ele>256.2</ele><time>2026-05-01T07:32:06.951Z</time></trkpt><trkpt lat="42.9782901" lon="12.1870163"><ele>256.8</ele><time>2026-05-01T07:32:08.97Z</time></trkpt><trkpt lat="42.9782224" lon="12.1869116"><ele>257.4</ele><time>2026-05-01T07:32:10.949Z</time></trkpt><trkpt lat="42.9781486" lon="12.1868089"><ele>258.0</ele><time>2026-05-01T07:32:12.949Z</time></trkpt><trkpt lat="42.978072" lon="12.1867187"><ele>258.0</ele><time>2026-05-01T07:32:14.966Z</time></trkpt><trkpt lat="42.977995" lon="12.1866182"><ele>258.0</ele><time>2026-05-01T07:32:16.947Z</time></trkpt><trkpt lat="42.9779218" lon="12.1865"><ele>258.0</ele><time>2026-05-01T07:32:18.946Z</time></trkpt><trkpt lat="42.9778696" lon="12.1863751"><ele>258.0</ele><time>2026-05-01T07:32:20.958Z</time></trkpt><trkpt lat="42.9778015" lon="12.1862709"><ele>258.0</ele><time>2026-05-01T07:32:22.959Z</time></trkpt><trkpt lat="42.9777446" lon="12.186169"><ele>258.6</ele><time>2026-05-01T07:32:24.945Z</time></trkpt><trkpt lat="42.9776748" lon="12.1860554"><ele>259.20000000000005</ele><time>2026-05-01T07:32:26.971Z</time></trkpt><trkpt lat="42.977618" lon="12.1859484"><ele>259.8</ele><time>2026-05-01T07:32:28.962Z</time></trkpt><trkpt lat="42.9775666" lon="12.1858384"><ele>260.40000000000003</ele><time>2026-05-01T07:32:30.947Z</time></trkpt><trkpt lat="42.9775339" lon="12.1857187"><ele>261.0</ele><time>2026-05-01T07:32:32.953Z</time></trkpt><trkpt lat="42.9774945" lon="12.1856116"><ele>261.0</ele><time>2026-05-01T07:32:34.958Z</time></trkpt><trkpt lat="42.9774589" lon="12.1855111"><ele>261.0</ele><time>2026-05-01T07:32:36.948Z</time></trkpt><trkpt lat="42.9774354" lon="12.1853993"><ele>261.0</ele><time>2026-05-01T07:32:38.945Z</time></trkpt><trkpt lat="42.9774139" lon="12.1853034"><ele>261.0</ele><time>2026-05-01T07:32:40.95Z</time></trkpt><trkpt lat="42.9774018" lon="12.1852099"><ele>261.0</ele><time>2026-05-01T07:32:42.941Z</time></trkpt><trkpt lat="42.977405" lon="12.1850997"><ele>261.0</ele><time>2026-05-01T07:32:45.947Z</time></trkpt><trkpt lat="42.9773472" lon="12.1850578"><ele>261.0</ele><time>2026-05-01T07:32:51.954Z</time></trkpt><trkpt lat="42.9774102" lon="12.1850121"><ele>261.0</ele><time>2026-05-01T07:36:23.963Z</time></trkpt><trkpt lat="42.9774206" lon="12.1849185"><ele>261.0</ele><time>2026-05-01T07:36:28.965Z</time></trkpt><trkpt lat="42.9774341" lon="12.1848274"><ele>261.0</ele><time>2026-05-01T07:36:32.965Z</time></trkpt><trkpt lat="42.9774429" lon="12.1847289"><ele>261.0</ele><time>2026-05-01T07:36:36.946Z</time></trkpt><trkpt lat="42.9774582" lon="12.1846239"><ele>261.0</ele><time>2026-05-01T07:36:40.969Z</time></trkpt><trkpt lat="42.9774714" lon="12.1845349"><ele>261.0</ele><time>2026-05-01T07:36:43.979Z</time></trkpt><trkpt lat="42.9774849" lon="12.1844356"><ele>261.3333333333333</ele><time>2026-05-01T07:36:46.963Z</time></trkpt><trkpt lat="42.9774993" lon="12.1843279"><ele>261.6666666666667</ele><time>2026-05-01T07:36:49.968Z</time></trkpt><trkpt lat="42.9775125" lon="12.184206"><ele>262.0</ele><time>2026-05-01T07:36:52.969Z</time></trkpt><trkpt lat="42.9775167" lon="12.1841136"><ele>262.33333333333337</ele><time>2026-05-01T07:36:54.971Z</time></trkpt><trkpt lat="42.9775204" lon="12.1840091"><ele>262.6666666666667</ele><time>2026-05-01T07:36:56.957Z</time></trkpt><trkpt lat="42.9775307" lon="12.1839035"><ele>263.0</ele><time>2026-05-01T07:36:58.961Z</time></trkpt><trkpt lat="42.9775413" lon="12.183792"><ele>266.6666666666667</ele><time>2026-05-01T07:37:00.946Z</time></trkpt><trkpt lat="42.9775396" lon="12.1836807"><ele>270.33333333333337</ele><time>2026-05-01T07:37:02.962Z</time></trkpt><trkpt lat="42.9775447" lon="12.1835702"><ele>274.0</ele><time>2026-05-01T07:37:04.969Z</time></trkpt><trkpt lat="42.9775454" lon="12.1834551"><ele>277.6666666666667</ele><time>2026-05-01T07:37:06.962Z</time></trkpt><trkpt lat="42.9775461" lon="12.1833466"><ele>281.3333333333333</ele><time>2026-05-01T07:37:08.968Z</time></trkpt><trkpt lat="42.9775442" lon="12.1832371"><ele>285.0</ele><time>2026-05-01T07:37:10.954Z</time></trkpt><trkpt lat="42.9775408" lon="12.183126"><ele>285.3333333333333</ele><time>2026-05-01T07:37:12.958Z</time></trkpt><trkpt lat="42.977541" lon="12.1830194"><ele>285.6666666666667</ele><time>2026-05-01T07:37:14.959Z</time></trkpt><trkpt lat="42.9775436" lon="12.1829096"><ele>286.0</ele><time>2026-05-01T07:37:16.958Z</time></trkpt><trkpt lat="42.9775469" lon="12.1827938"><ele>286.33333333333337</ele><time>2026-05-01T07:37:18.963Z</time></trkpt><trkpt lat="42.9775445" lon="12.1826773"><ele>286.6666666666667</ele><time>2026-05-01T07:37:20.94Z</time></trkpt><trkpt lat="42.977542" lon="12.182557"><ele>287.0</ele><time>2026-05-01T07:37:22.953Z</time></trkpt><trkpt lat="42.9775373" lon="12.1824431"><ele>287.6666666666667</ele><time>2026-05-01T07:37:24.963Z</time></trkpt><trkpt lat="42.9775323" lon="12.1823308"><ele>288.33333333333337</ele><time>2026-05-01T07:37:26.952Z</time></trkpt><trkpt lat="42.9775332" lon="12.1822231"><ele>289.0</ele><time>2026-05-01T07:37:28.964Z</time></trkpt><trkpt lat="42.9775382" lon="12.1821247"><ele>289.6666666666667</ele><time>2026-05-01T07:37:30.964Z</time></trkpt><trkpt lat="42.9775347" lon="12.1820338"><ele>290.3333333333333</ele><time>2026-05-01T07:37:32.956Z</time></trkpt><trkpt lat="42.9775383" lon="12.1819478"><ele>291.0</ele><time>2026-05-01T07:37:34.955Z</time></trkpt><trkpt lat="42.9775487" lon="12.1818248"><ele>291.0</ele><time>2026-05-01T07:37:37.965Z</time></trkpt><trkpt lat="42.9775553" lon="12.181739"><ele>291.0</ele><time>2026-05-01T07:37:39.969Z</time></trkpt><trkpt lat="42.977571" lon="12.1816556"><ele>291.0</ele><time>2026-05-01T07:37:41.949Z</time></trkpt><trkpt lat="42.9775902" lon="12.18154"><ele>291.0</ele><time>2026-05-01T07:37:44.957Z</time></trkpt><trkpt lat="42.9776095" lon="12.18142"><ele>291.0</ele><time>2026-05-01T07:37:47.96Z</time></trkpt><trkpt lat="42.9776312" lon="12.1813334"><ele>291.0</ele><time>2026-05-01T07:37:49.974Z</time></trkpt><trkpt lat="42.9776721" lon="12.1812166"><ele>290.57142857142856</ele><time>2026-05-01T07:37:52.951Z</time></trkpt><trkpt lat="42.9777004" lon="12.1811337"><ele>290.1428571428571</ele><time>2026-05-01T07:37:54.947Z</time></trkpt><trkpt lat="42.9777538" lon="12.1810327"><ele>289.7142857142857</ele><time>2026-05-01T07:37:57.941Z</time></trkpt><trkpt lat="42.9777924" lon="12.1809644"><ele>289.2857142857143</ele><time>2026-05-01T07:37:59.947Z</time></trkpt><trkpt lat="42.977834" lon="12.1808972"><ele>288.8571428571429</ele><time>2026-05-01T07:38:01.944Z</time></trkpt><trkpt lat="42.9778871" lon="12.1808024"><ele>288.42857142857144</ele><time>2026-05-01T07:38:04.942Z</time></trkpt><trkpt lat="42.97793" lon="12.180736"><ele>288.0</ele><time>2026-05-01T07:38:06.944Z</time></trkpt><trkpt lat="42.9779933" lon="12.1806354"><ele>287.8571428571429</ele><time>2026-05-01T07:38:10.944Z</time></trkpt><trkpt lat="42.9780451" lon="12.1805572"><ele>287.7142857142857</ele><time>2026-05-01T07:38:12.955Z</time></trkpt><trkpt lat="42.9780931" lon="12.180494"><ele>287.57142857142856</ele><time>2026-05-01T07:38:14.963Z</time></trkpt><trkpt lat="42.9781308" lon="12.1804171"><ele>287.42857142857144</ele><time>2026-05-01T07:38:16.96Z</time></trkpt><trkpt lat="42.9781665" lon="12.1803319"><ele>287.2857142857143</ele><time>2026-05-01T07:38:18.943Z</time></trkpt><trkpt lat="42.978193" lon="12.1802536"><ele>287.14285714285717</ele><time>2026-05-01T07:38:20.942Z</time></trkpt><trkpt lat="42.9782076" lon="12.1801686"><ele>287.0</ele><time>2026-05-01T07:38:22.946Z</time></trkpt><trkpt lat="42.9782058" lon="12.1800753"><ele>287.0</ele><time>2026-05-01T07:38:24.943Z</time></trkpt><trkpt lat="42.9781921" lon="12.1799859"><ele>287.0</ele><time>2026-05-01T07:38:26.961Z</time></trkpt><trkpt lat="42.9781684" lon="12.1798995"><ele>287.0</ele><time>2026-05-01T07:38:28.971Z</time></trkpt><trkpt lat="42.9781206" lon="12.1797998"><ele>287.0</ele><time>2026-05-01T07:38:31.964Z</time></trkpt><trkpt lat="42.9780763" lon="12.1796913"><ele>287.0</ele><time>2026-05-01T07:38:34.95Z</time></trkpt><trkpt lat="42.9780345" lon="12.1795775"><ele>287.0</ele><time>2026-05-01T07:38:37.943Z</time></trkpt><trkpt lat="42.9779914" lon="12.1794627"><ele>288.4</ele><time>2026-05-01T07:38:40.943Z</time></trkpt><trkpt lat="42.9779575" lon="12.1793451"><ele>289.79999999999995</ele><time>2026-05-01T07:38:43.944Z</time></trkpt><trkpt lat="42.9779301" lon="12.1792267"><ele>291.2</ele><time>2026-05-01T07:38:46.943Z</time></trkpt><trkpt lat="42.9779153" lon="12.1791055"><ele>292.59999999999997</ele><time>2026-05-01T07:38:49.942Z</time></trkpt><trkpt lat="42.9779035" lon="12.1789894"><ele>294.0</ele><time>2026-05-01T07:38:52.941Z</time></trkpt><trkpt lat="42.9778964" lon="12.1788642"><ele>296.6666666666667</ele><time>2026-05-01T07:38:55.949Z</time></trkpt><trkpt lat="42.977891" lon="12.1787447"><ele>299.3333333333333</ele><time>2026-05-01T07:38:58.941Z</time></trkpt><trkpt lat="42.9778883" lon="12.1786202"><ele>302.0</ele><time>2026-05-01T07:39:01.969Z</time></trkpt><trkpt lat="42.9778872" lon="12.178533"><ele>304.66666666666663</ele><time>2026-05-01T07:39:03.963Z</time></trkpt><trkpt lat="42.9778916" lon="12.1784066"><ele>307.3333333333333</ele><time>2026-05-01T07:39:06.969Z</time></trkpt><trkpt lat="42.9778981" lon="12.1783192"><ele>310.0</ele><time>2026-05-01T07:39:08.971Z</time></trkpt><trkpt lat="42.9779027" lon="12.1782331"><ele>312.0</ele><time>2026-05-01T07:39:10.966Z</time></trkpt><trkpt lat="42.9779113" lon="12.1781124"><ele>314.0</ele><time>2026-05-01T07:39:13.958Z</time></trkpt><trkpt lat="42.9779304" lon="12.1779869"><ele>316.0</ele><time>2026-05-01T07:39:17Z</time></trkpt><trkpt lat="42.9779459" lon="12.1778625"><ele>318.0</ele><time>2026-05-01T07:39:19.946Z</time></trkpt><trkpt lat="42.977957" lon="12.177744"><ele>320.0</ele><time>2026-05-01T07:39:22.969Z</time></trkpt><trkpt lat="42.9779664" lon="12.1776387"><ele>322.0</ele><time>2026-05-01T07:39:25.966Z</time></trkpt><trkpt lat="42.977983" lon="12.1775264"><ele>322.0</ele><time>2026-05-01T07:39:28.941Z</time></trkpt><trkpt lat="42.9780002" lon="12.1774144"><ele>322.0</ele><time>2026-05-01T07:39:31.96Z</time></trkpt><trkpt lat="42.9780296" lon="12.1772988"><ele>322.0</ele><time>2026-05-01T07:39:34.958Z</time></trkpt><trkpt lat="42.9780737" lon="12.1771899"><ele>322.0</ele><time>2026-05-01T07:39:37.969Z</time></trkpt><trkpt lat="42.9781252" lon="12.1770989"><ele>322.0</ele><time>2026-05-01T07:39:40.953Z</time></trkpt><trkpt lat="42.9781901" lon="12.1770164"><ele>322.0</ele><time>2026-05-01T07:39:43.965Z</time></trkpt><trkpt lat="42.9782514" lon="12.176956"><ele>321.16666666666663</ele><time>2026-05-01T07:39:46.957Z</time></trkpt><trkpt lat="42.9783114" lon="12.1768959"><ele>320.3333333333333</ele><time>2026-05-01T07:39:49.943Z</time></trkpt><trkpt lat="42.9783687" lon="12.1768217"><ele>319.5</ele><time>2026-05-01T07:39:52.947Z</time></trkpt><trkpt lat="42.9784237" lon="12.1767343"><ele>318.6666666666667</ele><time>2026-05-01T07:39:55.946Z</time></trkpt><trkpt lat="42.9784869" lon="12.1766347"><ele>317.83333333333337</ele><time>2026-05-01T07:39:58.947Z</time></trkpt><trkpt lat="42.9785296" lon="12.176554"><ele>317.0</ele><time>2026-05-01T07:40:00.942Z</time></trkpt><trkpt lat="42.9785745" lon="12.1764635"><ele>320.0</ele><time>2026-05-01T07:40:02.946Z</time></trkpt><trkpt lat="42.9786216" lon="12.1763742"><ele>323.0</ele><time>2026-05-01T07:40:04.947Z</time></trkpt><trkpt lat="42.9786705" lon="12.1762917"><ele>326.0</ele><time>2026-05-01T07:40:06.959Z</time></trkpt><trkpt lat="42.9787208" lon="12.1762174"><ele>329.0</ele><time>2026-05-01T07:40:08.959Z</time></trkpt><trkpt lat="42.9787699" lon="12.1761436"><ele>332.0</ele><time>2026-05-01T07:40:10.97Z</time></trkpt><trkpt lat="42.9788156" lon="12.1760736"><ele>335.0</ele><time>2026-05-01T07:40:12.957Z</time></trkpt><trkpt lat="42.9788629" lon="12.1759672"><ele>335.0</ele><time>2026-05-01T07:40:15.935Z</time></trkpt><trkpt lat="42.9789033" lon="12.1758567"><ele>335.0</ele><time>2026-05-01T07:40:18.96Z</time></trkpt><trkpt lat="42.9789398" lon="12.1757485"><ele>335.0</ele><time>2026-05-01T07:40:21.962Z</time></trkpt><trkpt lat="42.9789701" lon="12.1756524"><ele>335.0</ele><time>2026-05-01T07:40:24.953Z</time></trkpt><trkpt lat="42.9790137" lon="12.175562"><ele>335.0</ele><time>2026-05-01T07:40:27.946Z</time></trkpt><trkpt lat="42.9790579" lon="12.1754923"><ele>335.0</ele><time>2026-05-01T07:40:30.943Z</time></trkpt><trkpt lat="42.979071" lon="12.1753858"><ele>334.6666666666667</ele><time>2026-05-01T07:40:33.945Z</time></trkpt><trkpt lat="42.9790328" lon="12.1752789"><ele>334.33333333333337</ele><time>2026-05-01T07:40:35.952Z</time></trkpt><trkpt lat="42.9789693" lon="12.1751315"><ele>334.0</ele><time>2026-05-01T07:40:37.956Z</time></trkpt><trkpt lat="42.9789344" lon="12.1750468"><ele>333.6666666666667</ele><time>2026-05-01T07:40:38.956Z</time></trkpt><trkpt lat="42.9789054" lon="12.1749629"><ele>333.3333333333333</ele><time>2026-05-01T07:40:39.945Z</time></trkpt><trkpt lat="42.9788715" lon="12.1748737"><ele>333.0</ele><time>2026-05-01T07:40:40.97Z</time></trkpt><trkpt lat="42.9788415" lon="12.1747965"><ele>332.3333333333333</ele><time>2026-05-01T07:40:41.969Z</time></trkpt><trkpt lat="42.978817" lon="12.1746446"><ele>331.6666666666667</ele><time>2026-05-01T07:40:43.968Z</time></trkpt><trkpt lat="42.9787954" lon="12.1745216"><ele>331.0</ele><time>2026-05-01T07:40:45.959Z</time></trkpt><trkpt lat="42.9787731" lon="12.1744195"><ele>330.33333333333337</ele><time>2026-05-01T07:40:47.952Z</time></trkpt><trkpt lat="42.978768" lon="12.1743183"><ele>329.6666666666667</ele><time>2026-05-01T07:40:49.949Z</time></trkpt><trkpt lat="42.9787656" lon="12.174222"><ele>329.0</ele><time>2026-05-01T07:40:51.971Z</time></trkpt><trkpt lat="42.9787611" lon="12.1741334"><ele>329.0</ele><time>2026-05-01T07:40:53.949Z</time></trkpt><trkpt lat="42.9787583" lon="12.1740426"><ele>329.0</ele><time>2026-05-01T07:40:55.96Z</time></trkpt><trkpt lat="42.9787496" lon="12.1739408"><ele>329.0</ele><time>2026-05-01T07:40:57.946Z</time></trkpt><trkpt lat="42.978735" lon="12.1738456"><ele>329.0</ele><time>2026-05-01T07:40:59.966Z</time></trkpt><trkpt lat="42.9787039" lon="12.1737542"><ele>329.0</ele><time>2026-05-01T07:41:01.934Z</time></trkpt><trkpt lat="42.9786638" lon="12.1736658"><ele>329.0</ele><time>2026-05-01T07:41:03.948Z</time></trkpt><trkpt lat="42.9786033" lon="12.1735944"><ele>329.0</ele><time>2026-05-01T07:41:05.964Z</time></trkpt><trkpt lat="42.9785379" lon="12.1735285"><ele>328.33333333333337</ele><time>2026-05-01T07:41:07.958Z</time></trkpt><trkpt lat="42.978474" lon="12.1734638"><ele>327.6666666666667</ele><time>2026-05-01T07:41:09.971Z</time></trkpt><trkpt lat="42.9784026" lon="12.173396"><ele>327.0</ele><time>2026-05-01T07:41:11.969Z</time></trkpt><trkpt lat="42.978324" lon="12.1733324"><ele>326.3333333333333</ele><time>2026-05-01T07:41:13.961Z</time></trkpt><trkpt lat="42.9782409" lon="12.1732768"><ele>325.66666666666663</ele><time>2026-05-01T07:41:15.955Z</time></trkpt><trkpt lat="42.9781531" lon="12.173223"><ele>325.0</ele><time>2026-05-01T07:41:17.958Z</time></trkpt><trkpt lat="42.9780482" lon="12.1731769"><ele>325.0</ele><time>2026-05-01T07:41:19.97Z</time></trkpt><trkpt lat="42.9779399" lon="12.1731404"><ele>325.0</ele><time>2026-05-01T07:41:21.948Z</time></trkpt><trkpt lat="42.9778405" lon="12.1730984"><ele>325.0</ele><time>2026-05-01T07:41:23.962Z</time></trkpt><trkpt lat="42.9777441" lon="12.1730592"><ele>325.0</ele><time>2026-05-01T07:41:25.957Z</time></trkpt><trkpt lat="42.9776605" lon="12.1730278"><ele>325.0</ele><time>2026-05-01T07:41:27.951Z</time></trkpt><trkpt lat="42.9775761" lon="12.1730018"><ele>326.57142857142856</ele><time>2026-05-01T07:41:29.959Z</time></trkpt><trkpt lat="42.9774952" lon="12.1729726"><ele>328.14285714285717</ele><time>2026-05-01T07:41:31.972Z</time></trkpt><trkpt lat="42.9774202" lon="12.1729555"><ele>329.7142857142857</ele><time>2026-05-01T07:41:33.96Z</time></trkpt><trkpt lat="42.9773513" lon="12.1729406"><ele>331.2857142857143</ele><time>2026-05-01T07:41:35.954Z</time></trkpt><trkpt lat="42.9772821" lon="12.1729279"><ele>332.8571428571429</ele><time>2026-05-01T07:41:37.944Z</time></trkpt><trkpt lat="42.9772181" lon="12.1729281"><ele>334.42857142857144</ele><time>2026-05-01T07:41:39.961Z</time></trkpt><trkpt lat="42.9771461" lon="12.1729099"><ele>336.0</ele><time>2026-05-01T07:41:42.969Z</time></trkpt><trkpt lat="42.9770775" lon="12.1729114"><ele>336.0</ele><time>2026-05-01T07:41:48Z</time></trkpt><trkpt lat="42.9770155" lon="12.1729365"><ele>336.0</ele><time>2026-05-01T07:41:50.953Z</time></trkpt><trkpt lat="42.9769481" lon="12.1729207"><ele>336.0</ele><time>2026-05-01T07:41:53.961Z</time></trkpt><trkpt lat="42.976885" lon="12.1728929"><ele>336.0</ele><time>2026-05-01T07:41:56.963Z</time></trkpt><trkpt lat="42.9768264" lon="12.172849"><ele>336.0</ele><time>2026-05-01T07:42:00Z</time></trkpt><trkpt lat="42.976759" lon="12.1728076"><ele>336.0</ele><time>2026-05-01T07:42:02.963Z</time></trkpt><trkpt lat="42.9766981" lon="12.172778"><ele>336.0</ele><time>2026-05-01T07:42:05.953Z</time></trkpt><trkpt lat="42.9766173" lon="12.1727418"><ele>337.8333333333333</ele><time>2026-05-01T07:42:08.962Z</time></trkpt><trkpt lat="42.9765468" lon="12.1727076"><ele>339.6666666666667</ele><time>2026-05-01T07:42:11.963Z</time></trkpt><trkpt lat="42.97649" lon="12.1726551"><ele>341.5</ele><time>2026-05-01T07:42:14.955Z</time></trkpt><trkpt lat="42.9764196" lon="12.1725985"><ele>343.33333333333337</ele><time>2026-05-01T07:42:17.966Z</time></trkpt><trkpt lat="42.97635" lon="12.1725572"><ele>345.1666666666667</ele><time>2026-05-01T07:42:20.958Z</time></trkpt><trkpt lat="42.9762759" lon="12.1725301"><ele>347.0</ele><time>2026-05-01T07:42:23.956Z</time></trkpt><trkpt lat="42.9761884" lon="12.1725056"><ele>347.0</ele><time>2026-05-01T07:42:26.961Z</time></trkpt><trkpt lat="42.976116" lon="12.1724728"><ele>347.0</ele><time>2026-05-01T07:42:29.961Z</time></trkpt><trkpt lat="42.976061" lon="12.1724217"><ele>347.0</ele><time>2026-05-01T07:42:32.959Z</time></trkpt><trkpt lat="42.9760094" lon="12.1723585"><ele>347.0</ele><time>2026-05-01T07:42:35.964Z</time></trkpt><trkpt lat="42.975974" lon="12.1722732"><ele>347.0</ele><time>2026-05-01T07:42:38.96Z</time></trkpt><trkpt lat="42.9759487" lon="12.1721647"><ele>347.0</ele><time>2026-05-01T07:42:41.954Z</time></trkpt><trkpt lat="42.9759563" lon="12.1720577"><ele>347.0</ele><time>2026-05-01T07:42:44.959Z</time></trkpt><trkpt lat="42.9759608" lon="12.1719595"><ele>349.6666666666667</ele><time>2026-05-01T07:42:47.962Z</time></trkpt><trkpt lat="42.9759538" lon="12.1718649"><ele>352.33333333333337</ele><time>2026-05-01T07:42:50.966Z</time></trkpt><trkpt lat="42.9759257" lon="12.1717628"><ele>355.0</ele><time>2026-05-01T07:42:54.942Z</time></trkpt><trkpt lat="42.9758439" lon="12.1717426"><ele>357.6666666666667</ele><time>2026-05-01T07:42:59.969Z</time></trkpt><trkpt lat="42.9757586" lon="12.1717487"><ele>360.3333333333333</ele><time>2026-05-01T07:43:03.946Z</time></trkpt><trkpt lat="42.9756904" lon="12.1717381"><ele>363.0</ele><time>2026-05-01T07:43:06.96Z</time></trkpt><trkpt lat="42.9756313" lon="12.171694"><ele>363.4285714285714</ele><time>2026-05-01T07:43:09.968Z</time></trkpt><trkpt lat="42.9755957" lon="12.1716123"><ele>363.85714285714283</ele><time>2026-05-01T07:43:12.976Z</time></trkpt><trkpt lat="42.9756004" lon="12.1715246"><ele>364.2857142857143</ele><time>2026-05-01T07:43:15.956Z</time></trkpt><trkpt lat="42.9756467" lon="12.1714658"><ele>364.71428571428567</ele><time>2026-05-01T07:43:18.962Z</time></trkpt><trkpt lat="42.9756808" lon="12.1713829"><ele>365.14285714285717</ele><time>2026-05-01T07:43:22.974Z</time></trkpt><trkpt lat="42.9756665" lon="12.1712939"><ele>365.57142857142856</ele><time>2026-05-01T07:43:25.958Z</time></trkpt><trkpt lat="42.9756023" lon="12.1712195"><ele>366.0</ele><time>2026-05-01T07:43:29.958Z</time></trkpt><trkpt lat="42.9755641" lon="12.1711277"><ele>368.5</ele><time>2026-05-01T07:43:33.965Z</time></trkpt><trkpt lat="42.9755214" lon="12.1710324"><ele>371.0</ele><time>2026-05-01T07:43:37.958Z</time></trkpt><trkpt lat="42.9754875" lon="12.1709302"><ele>373.5</ele><time>2026-05-01T07:43:41.962Z</time></trkpt><trkpt lat="42.9754707" lon="12.1708347"><ele>376.0</ele><time>2026-05-01T07:43:44.951Z</time></trkpt><trkpt lat="42.9754568" lon="12.1707307"><ele>378.5</ele><time>2026-05-01T07:43:47.963Z</time></trkpt><trkpt lat="42.9754326" lon="12.170624"><ele>381.0</ele><time>2026-05-01T07:43:50.963Z</time></trkpt><trkpt lat="42.9754168" lon="12.1705138"><ele>383.0</ele><time>2026-05-01T07:43:53.966Z</time></trkpt><trkpt lat="42.9754059" lon="12.1704018"><ele>385.0</ele><time>2026-05-01T07:43:56.949Z</time></trkpt><trkpt lat="42.9753991" lon="12.1702939"><ele>387.0</ele><time>2026-05-01T07:43:59.958Z</time></trkpt><trkpt lat="42.9754013" lon="12.1701897"><ele>389.0</ele><time>2026-05-01T07:44:02.966Z</time></trkpt><trkpt lat="42.9754285" lon="12.1700792"><ele>391.0</ele><time>2026-05-01T07:44:06.969Z</time></trkpt><trkpt lat="42.9754624" lon="12.1700005"><ele>393.0</ele><time>2026-05-01T07:44:09.963Z</time></trkpt><trkpt lat="42.9754625" lon="12.1699095"><ele>395.28571428571433</ele><time>2026-05-01T07:44:12.963Z</time></trkpt><trkpt lat="42.9754675" lon="12.1698141"><ele>397.57142857142856</ele><time>2026-05-01T07:44:15.963Z</time></trkpt><trkpt lat="42.975463" lon="12.1697267"><ele>399.8571428571429</ele><time>2026-05-01T07:44:18.947Z</time></trkpt><trkpt lat="42.975456" lon="12.1696372"><ele>402.14285714285717</ele><time>2026-05-01T07:44:21.95Z</time></trkpt><trkpt lat="42.9754542" lon="12.1695406"><ele>404.42857142857144</ele><time>2026-05-01T07:44:24.948Z</time></trkpt><trkpt lat="42.9754464" lon="12.1694514"><ele>406.7142857142857</ele><time>2026-05-01T07:44:27.942Z</time></trkpt><trkpt lat="42.9754265" lon="12.169359"><ele>409.0</ele><time>2026-05-01T07:44:32.942Z</time></trkpt><trkpt lat="42.9754282" lon="12.1692635"><ele>409.0</ele><time>2026-05-01T07:44:37.938Z</time></trkpt><trkpt lat="42.9754928" lon="12.1692782"><ele>409.0</ele><time>2026-05-01T07:44:40.939Z</time></trkpt><trkpt lat="42.9755682" lon="12.1692745"><ele>409.0</ele><time>2026-05-01T07:44:44.943Z</time></trkpt><trkpt lat="42.9756248" lon="12.1692225"><ele>409.0</ele><time>2026-05-01T07:44:47.962Z</time></trkpt><trkpt lat="42.9756471" lon="12.1691079"><ele>409.0</ele><time>2026-05-01T07:44:51.951Z</time></trkpt><trkpt lat="42.975627" lon="12.1690179"><ele>409.0</ele><time>2026-05-01T07:44:55.964Z</time></trkpt><trkpt lat="42.9756478" lon="12.1689339"><ele>409.0</ele><time>2026-05-01T07:44:59.954Z</time></trkpt><trkpt lat="42.975675" lon="12.1688446"><ele>411.0</ele><time>2026-05-01T07:45:03.956Z</time></trkpt><trkpt lat="42.9756963" lon="12.1687447"><ele>413.0</ele><time>2026-05-01T07:45:07.945Z</time></trkpt><trkpt lat="42.9757242" lon="12.1686479"><ele>415.0</ele><time>2026-05-01T07:45:12.941Z</time></trkpt><trkpt lat="42.9757461" lon="12.1685565"><ele>417.0</ele><time>2026-05-01T07:45:16.945Z</time></trkpt><trkpt lat="42.9757691" lon="12.1684692"><ele>419.0</ele><time>2026-05-01T07:45:20.942Z</time></trkpt><trkpt lat="42.975795" lon="12.1683823"><ele>421.0</ele><time>2026-05-01T07:45:24.943Z</time></trkpt><trkpt lat="42.9758292" lon="12.1682929"><ele>423.0</ele><time>2026-05-01T07:45:28.956Z</time></trkpt><trkpt lat="42.9758651" lon="12.1681992"><ele>426.71428571428567</ele><time>2026-05-01T07:45:32.954Z</time></trkpt><trkpt lat="42.9758994" lon="12.1681159"><ele>430.42857142857144</ele><time>2026-05-01T07:45:36.971Z</time></trkpt><trkpt lat="42.9759348" lon="12.1680315"><ele>434.1428571428571</ele><time>2026-05-01T07:45:40.945Z</time></trkpt><trkpt lat="42.9759654" lon="12.1679531"><ele>437.85714285714283</ele><time>2026-05-01T07:45:44.954Z</time></trkpt><trkpt lat="42.9760056" lon="12.1678676"><ele>441.57142857142856</ele><time>2026-05-01T07:45:48.954Z</time></trkpt><trkpt lat="42.9760552" lon="12.1677927"><ele>445.2857142857143</ele><time>2026-05-01T07:45:52.945Z</time></trkpt><trkpt lat="42.9761007" lon="12.1677048"><ele>449.0</ele><time>2026-05-01T07:45:56.958Z</time></trkpt><trkpt lat="42.976157" lon="12.1676588"><ele>448.99999999999994</ele><time>2026-05-01T07:46:00.966Z</time></trkpt><trkpt lat="42.9762147" lon="12.1675898"><ele>449.0</ele><time>2026-05-01T07:46:05.952Z</time></trkpt><trkpt lat="42.9762513" lon="12.1675113"><ele>449.0</ele><time>2026-05-01T07:46:09.94Z</time></trkpt><trkpt lat="42.9762586" lon="12.1674079"><ele>449.0</ele><time>2026-05-01T07:46:13.957Z</time></trkpt><trkpt lat="42.9762623" lon="12.1672992"><ele>448.99999999999994</ele><time>2026-05-01T07:46:17.999Z</time></trkpt><trkpt lat="42.9762677" lon="12.1672011"><ele>449.0</ele><time>2026-05-01T07:46:21.953Z</time></trkpt><trkpt lat="42.9762791" lon="12.1670967"><ele>450.71428571428567</ele><time>2026-05-01T07:46:25.967Z</time></trkpt><trkpt lat="42.9762986" lon="12.1669927"><ele>452.4285714285714</ele><time>2026-05-01T07:46:29.953Z</time></trkpt><trkpt lat="42.9763136" lon="12.166895"><ele>454.1428571428571</ele><time>2026-05-01T07:46:33.948Z</time></trkpt><trkpt lat="42.9763402" lon="12.1668041"><ele>455.8571428571429</ele><time>2026-05-01T07:46:37.948Z</time></trkpt><trkpt lat="42.9764024" lon="12.1667865"><ele>457.5714285714286</ele><time>2026-05-01T07:46:41.941Z</time></trkpt><trkpt lat="42.976449" lon="12.1668569"><ele>459.28571428571433</ele><time>2026-05-01T07:46:45.956Z</time></trkpt><trkpt lat="42.9765149" lon="12.1668998"><ele>461.0</ele><time>2026-05-01T07:46:49.965Z</time></trkpt><trkpt lat="42.9765863" lon="12.1668951"><ele>460.99999999999994</ele><time>2026-05-01T07:46:53.965Z</time></trkpt><trkpt lat="42.9766579" lon="12.166874"><ele>461.0</ele><time>2026-05-01T07:46:58.949Z</time></trkpt><trkpt lat="42.976737" lon="12.1668659"><ele>461.0</ele><time>2026-05-01T07:47:02.938Z</time></trkpt><trkpt lat="42.9768133" lon="12.1668212"><ele>461.0</ele><time>2026-05-01T07:47:06.945Z</time></trkpt><trkpt lat="42.9768853" lon="12.1667864"><ele>460.99999999999994</ele><time>2026-05-01T07:47:11Z</time></trkpt><trkpt lat="42.9769528" lon="12.1667521"><ele>461.0</ele><time>2026-05-01T07:47:14.961Z</time></trkpt><trkpt lat="42.9770219" lon="12.1667239"><ele>461.5714285714286</ele><time>2026-05-01T07:47:18.954Z</time></trkpt><trkpt lat="42.9771011" lon="12.166722"><ele>462.1428571428572</ele><time>2026-05-01T07:47:22.955Z</time></trkpt><trkpt lat="42.9771806" lon="12.1667249"><ele>462.7142857142857</ele><time>2026-05-01T07:47:26.955Z</time></trkpt><trkpt lat="42.9772458" lon="12.1667102"><ele>463.28571428571433</ele><time>2026-05-01T07:47:29.96Z</time></trkpt><trkpt lat="42.9772953" lon="12.1666536"><ele>463.8571428571429</ele><time>2026-05-01T07:47:32.955Z</time></trkpt><trkpt lat="42.9773122" lon="12.1665572"><ele>464.42857142857144</ele><time>2026-05-01T07:47:35.959Z</time></trkpt><trkpt lat="42.9772924" lon="12.1664563"><ele>465.0</ele><time>2026-05-01T07:47:39.955Z</time></trkpt><trkpt lat="42.9772541" lon="12.1663593"><ele>465.42857142857144</ele><time>2026-05-01T07:47:43.975Z</time></trkpt><trkpt lat="42.977238" lon="12.1662715"><ele>465.8571428571429</ele><time>2026-05-01T07:47:46.952Z</time></trkpt><trkpt lat="42.9772182" lon="12.166175"><ele>466.28571428571433</ele><time>2026-05-01T07:47:49.958Z</time></trkpt><trkpt lat="42.9771922" lon="12.1660782"><ele>466.7142857142857</ele><time>2026-05-01T07:47:52.963Z</time></trkpt><trkpt lat="42.9771664" lon="12.1659941"><ele>467.1428571428572</ele><time>2026-05-01T07:47:55.952Z</time></trkpt><trkpt lat="42.9771491" lon="12.165903"><ele>467.5714285714286</ele><time>2026-05-01T07:47:58.96Z</time></trkpt><trkpt lat="42.9771285" lon="12.1658105"><ele>468.0</ele><time>2026-05-01T07:48:01.963Z</time></trkpt><trkpt lat="42.9770997" lon="12.1657225"><ele>467.8571428571429</ele><time>2026-05-01T07:48:04.954Z</time></trkpt><trkpt lat="42.9770689" lon="12.1656389"><ele>467.7142857142858</ele><time>2026-05-01T07:48:07.952Z</time></trkpt><trkpt lat="42.9770255" lon="12.1655629"><ele>467.57142857142856</ele><time>2026-05-01T07:48:10.963Z</time></trkpt><trkpt lat="42.9769767" lon="12.1654945"><ele>467.42857142857144</ele><time>2026-05-01T07:48:13.951Z</time></trkpt><trkpt lat="42.9769247" lon="12.1654332"><ele>467.2857142857143</ele><time>2026-05-01T07:48:16.959Z</time></trkpt><trkpt lat="42.9768677" lon="12.1653835"><ele>467.1428571428571</ele><time>2026-05-01T07:48:19.961Z</time></trkpt><trkpt lat="42.9768027" lon="12.1653359"><ele>466.99999999999994</ele><time>2026-05-01T07:48:22.969Z</time></trkpt><trkpt lat="42.9767348" lon="12.165285"><ele>469.66666666666663</ele><time>2026-05-01T07:48:25.955Z</time></trkpt><trkpt lat="42.9766722" lon="12.1652254"><ele>472.3333333333333</ele><time>2026-05-01T07:48:28.956Z</time></trkpt><trkpt lat="42.9766075" lon="12.1651727"><ele>475.0</ele><time>2026-05-01T07:48:31.955Z</time></trkpt><trkpt lat="42.9765418" lon="12.1651246"><ele>477.66666666666663</ele><time>2026-05-01T07:48:34.956Z</time></trkpt><trkpt lat="42.9764698" lon="12.1650682"><ele>480.3333333333333</ele><time>2026-05-01T07:48:37.961Z</time></trkpt><trkpt lat="42.9763979" lon="12.1650161"><ele>483.0</ele><time>2026-05-01T07:48:40.953Z</time></trkpt><trkpt lat="42.9763347" lon="12.16496"><ele>483.0</ele><time>2026-05-01T07:48:43.949Z</time></trkpt><trkpt lat="42.9762688" lon="12.1649103"><ele>483.0</ele><time>2026-05-01T07:48:46.956Z</time></trkpt><trkpt lat="42.9761998" lon="12.1648569"><ele>483.0</ele><time>2026-05-01T07:48:49.957Z</time></trkpt><trkpt lat="42.9761307" lon="12.1648023"><ele>483.0</ele><time>2026-05-01T07:48:52.952Z</time></trkpt><trkpt lat="42.97606" lon="12.1647439"><ele>483.0</ele><time>2026-05-01T07:48:55.96Z</time></trkpt><trkpt lat="42.9759884" lon="12.1646846"><ele>483.0</ele><time>2026-05-01T07:48:58.958Z</time></trkpt><trkpt lat="42.9759163" lon="12.1646281"><ele>483.6666666666667</ele><time>2026-05-01T07:49:01.952Z</time></trkpt><trkpt lat="42.9758511" lon="12.1645795"><ele>484.33333333333337</ele><time>2026-05-01T07:49:04.944Z</time></trkpt><trkpt lat="42.9757861" lon="12.1645306"><ele>485.0</ele><time>2026-05-01T07:49:07.954Z</time></trkpt><trkpt lat="42.9757175" lon="12.1644765"><ele>485.6666666666667</ele><time>2026-05-01T07:49:10.956Z</time></trkpt><trkpt lat="42.9756512" lon="12.1644205"><ele>486.33333333333337</ele><time>2026-05-01T07:49:13.954Z</time></trkpt><trkpt lat="42.9755831" lon="12.1643677"><ele>487.0</ele><time>2026-05-01T07:49:16.941Z</time></trkpt><trkpt lat="42.9755148" lon="12.1643154"><ele>487.00000000000006</ele><time>2026-05-01T07:49:19.956Z</time></trkpt><trkpt lat="42.9754482" lon="12.1642664"><ele>487.0</ele><time>2026-05-01T07:49:22.954Z</time></trkpt><trkpt lat="42.9753794" lon="12.1642196"><ele>487.0</ele><time>2026-05-01T07:49:25.942Z</time></trkpt><trkpt lat="42.9753105" lon="12.1641706"><ele>487.0</ele><time>2026-05-01T07:49:28.957Z</time></trkpt><trkpt lat="42.975247" lon="12.1641143"><ele>487.00000000000006</ele><time>2026-05-01T07:49:31.955Z</time></trkpt><trkpt lat="42.9751785" lon="12.1640657"><ele>487.0</ele><time>2026-05-01T07:49:34.951Z</time></trkpt><trkpt lat="42.975111" lon="12.1640137"><ele>488.1666666666667</ele><time>2026-05-01T07:49:37.952Z</time></trkpt><trkpt lat="42.9750437" lon="12.1639631"><ele>489.33333333333337</ele><time>2026-05-01T07:49:40.965Z</time></trkpt><trkpt lat="42.9749763" lon="12.1639174"><ele>490.5</ele><time>2026-05-01T07:49:43.954Z</time></trkpt><trkpt lat="42.9749092" lon="12.163866"><ele>491.66666666666663</ele><time>2026-05-01T07:49:46.954Z</time></trkpt><trkpt lat="42.974846" lon="12.1638047"><ele>492.8333333333333</ele><time>2026-05-01T07:49:49.973Z</time></trkpt><trkpt lat="42.9747832" lon="12.1637392"><ele>494.0</ele><time>2026-05-01T07:49:52.969Z</time></trkpt><trkpt lat="42.9747151" lon="12.1636834"><ele>493.99999999999994</ele><time>2026-05-01T07:49:55.969Z</time></trkpt><trkpt lat="42.9746466" lon="12.1636298"><ele>494.0</ele><time>2026-05-01T07:49:58.955Z</time></trkpt><trkpt lat="42.9745788" lon="12.1635742"><ele>494.0</ele><time>2026-05-01T07:50:01.952Z</time></trkpt><trkpt lat="42.9745164" lon="12.1635093"><ele>494.0</ele><time>2026-05-01T07:50:04.971Z</time></trkpt><trkpt lat="42.9744449" lon="12.163453"><ele>493.99999999999994</ele><time>2026-05-01T07:50:07.958Z</time></trkpt><trkpt lat="42.9743776" lon="12.1633938"><ele>494.0</ele><time>2026-05-01T07:50:10.953Z</time></trkpt><trkpt lat="42.9743119" lon="12.1633306"><ele>493.99999999999994</ele><time>2026-05-01T07:50:14Z</time></trkpt><trkpt lat="42.9742464" lon="12.1632607"><ele>494.0</ele><time>2026-05-01T07:50:16.956Z</time></trkpt><trkpt lat="42.9741922" lon="12.1631761"><ele>494.0</ele><time>2026-05-01T07:50:20Z</time></trkpt><trkpt lat="42.9741473" lon="12.1630798"><ele>494.0</ele><time>2026-05-01T07:50:22.959Z</time></trkpt><trkpt lat="42.9741117" lon="12.1629879"><ele>493.99999999999994</ele><time>2026-05-01T07:50:25.953Z</time></trkpt><trkpt lat="42.9740789" lon="12.1628943"><ele>494.0</ele><time>2026-05-01T07:50:28.955Z</time></trkpt><trkpt lat="42.9740504" lon="12.1628173"><ele>493.28571428571433</ele><time>2026-05-01T07:50:30.94Z</time></trkpt><trkpt lat="42.9740196" lon="12.162732"><ele>492.57142857142856</ele><time>2026-05-01T07:50:32.959Z</time></trkpt><trkpt lat="42.9739712" lon="12.1626279"><ele>491.8571428571429</ele><time>2026-05-01T07:50:35.943Z</time></trkpt><trkpt lat="42.9739125" lon="12.1625347"><ele>491.14285714285717</ele><time>2026-05-01T07:50:38.954Z</time></trkpt><trkpt lat="42.9738571" lon="12.1624873"><ele>490.42857142857144</ele><time>2026-05-01T07:50:40.966Z</time></trkpt><trkpt lat="42.9737978" lon="12.162447"><ele>489.7142857142857</ele><time>2026-05-01T07:50:42.959Z</time></trkpt><trkpt lat="42.9737382" lon="12.1624047"><ele>489.0</ele><time>2026-05-01T07:50:44.973Z</time></trkpt><trkpt lat="42.9736802" lon="12.16235"><ele>489.0</ele><time>2026-05-01T07:50:46.954Z</time></trkpt><trkpt lat="42.9736251" lon="12.1622862"><ele>489.0</ele><time>2026-05-01T07:50:48.952Z</time></trkpt><trkpt lat="42.9735742" lon="12.1622222"><ele>489.0</ele><time>2026-05-01T07:50:50.962Z</time></trkpt><trkpt lat="42.9735345" lon="12.1621475"><ele>489.0</ele><time>2026-05-01T07:50:52.945Z</time></trkpt><trkpt lat="42.9734796" lon="12.162048"><ele>489.0</ele><time>2026-05-01T07:50:55.946Z</time></trkpt><trkpt lat="42.9734236" lon="12.1619438"><ele>489.0</ele><time>2026-05-01T07:50:58.939Z</time></trkpt><trkpt lat="42.9733895" lon="12.1618701"><ele>493.1666666666667</ele><time>2026-05-01T07:51:00.941Z</time></trkpt><trkpt lat="42.9733458" lon="12.1617574"><ele>497.33333333333337</ele><time>2026-05-01T07:51:03.943Z</time></trkpt><trkpt lat="42.9733235" lon="12.1616746"><ele>501.5</ele><time>2026-05-01T07:51:05.945Z</time></trkpt><trkpt lat="42.9733005" lon="12.1615912"><ele>505.6666666666667</ele><time>2026-05-01T07:51:07.945Z</time></trkpt><trkpt lat="42.9732871" lon="12.1614703"><ele>509.83333333333337</ele><time>2026-05-01T07:51:10.951Z</time></trkpt><trkpt lat="42.9732901" lon="12.1613512"><ele>514.0</ele><time>2026-05-01T07:51:13.959Z</time></trkpt><trkpt lat="42.9733098" lon="12.161232"><ele>515.3333333333334</ele><time>2026-05-01T07:51:16.953Z</time></trkpt><trkpt lat="42.9733307" lon="12.1611145"><ele>516.6666666666667</ele><time>2026-05-01T07:51:19.959Z</time></trkpt><trkpt lat="42.9733307" lon="12.1609898"><ele>518.0</ele><time>2026-05-01T07:51:22.97Z</time></trkpt><trkpt lat="42.9733276" lon="12.1608775"><ele>519.3333333333334</ele><time>2026-05-01T07:51:25.957Z</time></trkpt><trkpt lat="42.9733009" lon="12.1607579"><ele>520.6666666666666</ele><time>2026-05-01T07:51:28.952Z</time></trkpt><trkpt lat="42.9732685" lon="12.160655"><ele>522.0</ele><time>2026-05-01T07:51:31.957Z</time></trkpt><trkpt lat="42.9732323" lon="12.1605524"><ele>522.3333333333334</ele><time>2026-05-01T07:51:34.955Z</time></trkpt><trkpt lat="42.973212" lon="12.160449"><ele>522.6666666666666</ele><time>2026-05-01T07:51:37.942Z</time></trkpt><trkpt lat="42.9731935" lon="12.1603295"><ele>523.0</ele><time>2026-05-01T07:51:40.943Z</time></trkpt><trkpt lat="42.9731769" lon="12.1602191"><ele>523.3333333333333</ele><time>2026-05-01T07:51:43.957Z</time></trkpt><trkpt lat="42.9731509" lon="12.1601077"><ele>523.6666666666666</ele><time>2026-05-01T07:51:46.959Z</time></trkpt><trkpt lat="42.9731161" lon="12.1600104"><ele>524.0</ele><time>2026-05-01T07:51:49.973Z</time></trkpt><trkpt lat="42.9730725" lon="12.1599175"><ele>524.0</ele><time>2026-05-01T07:51:52.959Z</time></trkpt><trkpt lat="42.9730145" lon="12.1598248"><ele>524.0</ele><time>2026-05-01T07:51:55.974Z</time></trkpt><trkpt lat="42.9729664" lon="12.1597221"><ele>524.0</ele><time>2026-05-01T07:51:58.954Z</time></trkpt><trkpt lat="42.9729093" lon="12.1596249"><ele>524.0</ele><time>2026-05-01T07:52:01.962Z</time></trkpt><trkpt lat="42.9728718" lon="12.1595503"><ele>524.0</ele><time>2026-05-01T07:52:03.957Z</time></trkpt><trkpt lat="42.9728392" lon="12.1594754"><ele>524.0</ele><time>2026-05-01T07:52:05.942Z</time></trkpt><trkpt lat="42.972797" lon="12.1594079"><ele>524.0</ele><time>2026-05-01T07:52:07.941Z</time></trkpt><trkpt lat="42.9727501" lon="12.1593411"><ele>524.0</ele><time>2026-05-01T07:52:09.937Z</time></trkpt><trkpt lat="42.972685" lon="12.1592508"><ele>524.0</ele><time>2026-05-01T07:52:12.946Z</time></trkpt><trkpt lat="42.9726343" lon="12.159143"><ele>524.0</ele><time>2026-05-01T07:52:15.972Z</time></trkpt><trkpt lat="42.9725944" lon="12.1590686"><ele>524.0</ele><time>2026-05-01T07:52:17.958Z</time></trkpt><trkpt lat="42.9725535" lon="12.1590006"><ele>524.0</ele><time>2026-05-01T07:52:19.946Z</time></trkpt><trkpt lat="42.9724977" lon="12.1589156"><ele>528.3333333333333</ele><time>2026-05-01T07:52:22.936Z</time></trkpt><trkpt lat="42.9724453" lon="12.1588021"><ele>532.6666666666666</ele><time>2026-05-01T07:52:25.939Z</time></trkpt><trkpt lat="42.9723877" lon="12.1586997"><ele>537.0</ele><time>2026-05-01T07:52:28.939Z</time></trkpt><trkpt lat="42.9723383" lon="12.1586364"><ele>541.3333333333334</ele><time>2026-05-01T07:52:30.941Z</time></trkpt><trkpt lat="42.9722677" lon="12.1585567"><ele>545.6666666666667</ele><time>2026-05-01T07:52:33.969Z</time></trkpt><trkpt lat="42.9721949" lon="12.1584815"><ele>550.0</ele><time>2026-05-01T07:52:36.942Z</time></trkpt><trkpt lat="42.9721446" lon="12.1584287"><ele>550.0</ele><time>2026-05-01T07:52:38.945Z</time></trkpt><trkpt lat="42.9720705" lon="12.1583657"><ele>550.0</ele><time>2026-05-01T07:52:41.935Z</time></trkpt><trkpt lat="42.9719993" lon="12.1583061"><ele>550.0</ele><time>2026-05-01T07:52:44.941Z</time></trkpt><trkpt lat="42.9719239" lon="12.1582677"><ele>550.0</ele><time>2026-05-01T07:52:47.93Z</time></trkpt><trkpt lat="42.9718404" lon="12.1582287"><ele>550.0</ele><time>2026-05-01T07:52:50.939Z</time></trkpt><trkpt lat="42.9717653" lon="12.1582066"><ele>550.0</ele><time>2026-05-01T07:52:53.937Z</time></trkpt><trkpt lat="42.9716948" lon="12.1582032"><ele>551.0</ele><time>2026-05-01T07:52:56.954Z</time></trkpt><trkpt lat="42.9716298" lon="12.1582095"><ele>552.0</ele><time>2026-05-01T07:52:59.944Z</time></trkpt><trkpt lat="42.9715576" lon="12.1582198"><ele>553.0</ele><time>2026-05-01T07:53:02.968Z</time></trkpt><trkpt lat="42.9714721" lon="12.158217"><ele>554.0</ele><time>2026-05-01T07:53:05.942Z</time></trkpt><trkpt lat="42.9714034" lon="12.1582119"><ele>555.0</ele><time>2026-05-01T07:53:08.957Z</time></trkpt><trkpt lat="42.9713196" lon="12.1582104"><ele>556.0</ele><time>2026-05-01T07:53:12.947Z</time></trkpt><trkpt lat="42.9712335" lon="12.1582076"><ele>556.0</ele><time>2026-05-01T07:53:15.945Z</time></trkpt><trkpt lat="42.9711564" lon="12.1582023"><ele>556.0</ele><time>2026-05-01T07:53:18.939Z</time></trkpt><trkpt lat="42.971078" lon="12.1581728"><ele>556.0</ele><time>2026-05-01T07:53:21.944Z</time></trkpt><trkpt lat="42.9710013" lon="12.1581158"><ele>556.0</ele><time>2026-05-01T07:53:24.97Z</time></trkpt><trkpt lat="42.9709459" lon="12.1580447"><ele>556.0</ele><time>2026-05-01T07:53:27.939Z</time></trkpt><trkpt lat="42.970901" lon="12.1579662"><ele>556.0</ele><time>2026-05-01T07:53:30.944Z</time></trkpt><trkpt lat="42.970859" lon="12.1578858"><ele>559.3333333333334</ele><time>2026-05-01T07:53:33.942Z</time></trkpt><trkpt lat="42.9708175" lon="12.1578012"><ele>562.6666666666667</ele><time>2026-05-01T07:53:36.941Z</time></trkpt><trkpt lat="42.9707884" lon="12.1577015"><ele>566.0</ele><time>2026-05-01T07:53:39.948Z</time></trkpt><trkpt lat="42.9707628" lon="12.1575973"><ele>569.3333333333334</ele><time>2026-05-01T07:53:42.953Z</time></trkpt><trkpt lat="42.9707409" lon="12.1575018"><ele>572.6666666666666</ele><time>2026-05-01T07:53:45.962Z</time></trkpt><trkpt lat="42.9707095" lon="12.1573964"><ele>576.0</ele><time>2026-05-01T07:53:48.943Z</time></trkpt><trkpt lat="42.9706923" lon="12.1572867"><ele>578.0000000000001</ele><time>2026-05-01T07:53:51.958Z</time></trkpt><trkpt lat="42.9706699" lon="12.1571881"><ele>580.0</ele><time>2026-05-01T07:53:54.941Z</time></trkpt><trkpt lat="42.9706387" lon="12.1571106"><ele>582.0</ele><time>2026-05-01T07:53:57.945Z</time></trkpt><trkpt lat="42.9705964" lon="12.1570308"><ele>584.0</ele><time>2026-05-01T07:54:00.94Z</time></trkpt><trkpt lat="42.9705379" lon="12.1569551"><ele>586.0</ele><time>2026-05-01T07:54:03.954Z</time></trkpt><trkpt lat="42.9704834" lon="12.1568902"><ele>588.0000000000001</ele><time>2026-05-01T07:54:06.945Z</time></trkpt><trkpt lat="42.9704287" lon="12.156839"><ele>590.0</ele><time>2026-05-01T07:54:09.947Z</time></trkpt><trkpt lat="42.9703565" lon="12.156781"><ele>590.0</ele><time>2026-05-01T07:54:12.956Z</time></trkpt><trkpt lat="42.9702991" lon="12.1567418"><ele>590.0</ele><time>2026-05-01T07:54:14.959Z</time></trkpt><trkpt lat="42.9702201" lon="12.1566846"><ele>590.0</ele><time>2026-05-01T07:54:17.954Z</time></trkpt><trkpt lat="42.9701383" lon="12.156636"><ele>590.0</ele><time>2026-05-01T07:54:20.953Z</time></trkpt><trkpt lat="42.9700562" lon="12.1565834"><ele>590.0</ele><time>2026-05-01T07:54:23.959Z</time></trkpt><trkpt lat="42.9699771" lon="12.1565378"><ele>590.0</ele><time>2026-05-01T07:54:26.97Z</time></trkpt><trkpt lat="42.9698967" lon="12.1565009"><ele>591.1666666666666</ele><time>2026-05-01T07:54:29.968Z</time></trkpt><trkpt lat="42.9698256" lon="12.1564554"><ele>592.3333333333333</ele><time>2026-05-01T07:54:32.953Z</time></trkpt><trkpt lat="42.9697548" lon="12.1564105"><ele>593.5</ele><time>2026-05-01T07:54:35.965Z</time></trkpt><trkpt lat="42.9696787" lon="12.1563747"><ele>594.6666666666666</ele><time>2026-05-01T07:54:38.952Z</time></trkpt><trkpt lat="42.9695965" lon="12.1563487"><ele>595.8333333333334</ele><time>2026-05-01T07:54:41.964Z</time></trkpt><trkpt lat="42.9695141" lon="12.1563273"><ele>597.0</ele><time>2026-05-01T07:54:44.945Z</time></trkpt><trkpt lat="42.9694368" lon="12.1563126"><ele>597.0</ele><time>2026-05-01T07:54:47.957Z</time></trkpt><trkpt lat="42.9693673" lon="12.1563027"><ele>597.0</ele><time>2026-05-01T07:54:50.955Z</time></trkpt><trkpt lat="42.9692938" lon="12.1563093"><ele>597.0</ele><time>2026-05-01T07:54:53.954Z</time></trkpt><trkpt lat="42.9692273" lon="12.1563473"><ele>597.0</ele><time>2026-05-01T07:54:56.961Z</time></trkpt><trkpt lat="42.969154" lon="12.1564235"><ele>597.0</ele><time>2026-05-01T07:54:59.946Z</time></trkpt><trkpt lat="42.9690997" lon="12.1564897"><ele>597.0</ele><time>2026-05-01T07:55:01.953Z</time></trkpt><trkpt lat="42.96905" lon="12.1565747"><ele>596.2857142857143</ele><time>2026-05-01T07:55:03.945Z</time></trkpt><trkpt lat="42.9690003" lon="12.1566553"><ele>595.5714285714286</ele><time>2026-05-01T07:55:05.954Z</time></trkpt><trkpt lat="42.9689639" lon="12.1567329"><ele>594.8571428571429</ele><time>2026-05-01T07:55:07.941Z</time></trkpt><trkpt lat="42.9689263" lon="12.1568178"><ele>594.1428571428571</ele><time>2026-05-01T07:55:09.962Z</time></trkpt><trkpt lat="42.9688891" lon="12.1569048"><ele>593.4285714285714</ele><time>2026-05-01T07:55:11.958Z</time></trkpt><trkpt lat="42.9688573" lon="12.1569827"><ele>592.7142857142858</ele><time>2026-05-01T07:55:13.954Z</time></trkpt><trkpt lat="42.9688317" lon="12.1570639"><ele>592.0</ele><time>2026-05-01T07:55:15.972Z</time></trkpt><trkpt lat="42.968806" lon="12.1571466"><ele>592.0</ele><time>2026-05-01T07:55:17.954Z</time></trkpt><trkpt lat="42.9687676" lon="12.1572538"><ele>592.0</ele><time>2026-05-01T07:55:20.963Z</time></trkpt><trkpt lat="42.9687264" lon="12.1573511"><ele>592.0</ele><time>2026-05-01T07:55:23.962Z</time></trkpt><trkpt lat="42.9686865" lon="12.1574592"><ele>592.0</ele><time>2026-05-01T07:55:26.954Z</time></trkpt><trkpt lat="42.9686404" lon="12.1575626"><ele>592.0</ele><time>2026-05-01T07:55:29.959Z</time></trkpt><trkpt lat="42.9685892" lon="12.1576586"><ele>592.0</ele><time>2026-05-01T07:55:32.954Z</time></trkpt><trkpt lat="42.9685486" lon="12.1577286"><ele>590.6666666666667</ele><time>2026-05-01T07:55:34.955Z</time></trkpt><trkpt lat="42.9684914" lon="12.1578284"><ele>589.3333333333334</ele><time>2026-05-01T07:55:37.953Z</time></trkpt><trkpt lat="42.9684371" lon="12.1579327"><ele>588.0</ele><time>2026-05-01T07:55:40.957Z</time></trkpt><trkpt lat="42.968404" lon="12.1580095"><ele>586.6666666666666</ele><time>2026-05-01T07:55:42.951Z</time></trkpt><trkpt lat="42.968377" lon="12.1580955"><ele>585.3333333333333</ele><time>2026-05-01T07:55:44.96Z</time></trkpt><trkpt lat="42.9683525" lon="12.1581971"><ele>584.0</ele><time>2026-05-01T07:55:47.953Z</time></trkpt><trkpt lat="42.9683149" lon="12.1583043"><ele>586.5714285714286</ele><time>2026-05-01T07:55:50.954Z</time></trkpt><trkpt lat="42.9682874" lon="12.1583867"><ele>589.1428571428571</ele><time>2026-05-01T07:55:52.958Z</time></trkpt><trkpt lat="42.9682503" lon="12.1584564"><ele>591.7142857142858</ele><time>2026-05-01T07:55:54.94Z</time></trkpt><trkpt lat="42.9682005" lon="12.1585391"><ele>594.2857142857142</ele><time>2026-05-01T07:55:57.97Z</time></trkpt><trkpt lat="42.9681463" lon="12.1585982"><ele>596.8571428571429</ele><time>2026-05-01T07:55:59.955Z</time></trkpt><trkpt lat="42.9680868" lon="12.1586566"><ele>599.4285714285714</ele><time>2026-05-01T07:56:01.961Z</time></trkpt><trkpt lat="42.968036" lon="12.1587245"><ele>602.0</ele><time>2026-05-01T07:56:03.943Z</time></trkpt><trkpt lat="42.9679905" lon="12.1587867"><ele>602.0</ele><time>2026-05-01T07:56:05.961Z</time></trkpt><trkpt lat="42.9679412" lon="12.1588448"><ele>602.0</ele><time>2026-05-01T07:56:07.979Z</time></trkpt><trkpt lat="42.9678862" lon="12.1588985"><ele>602.0</ele><time>2026-05-01T07:56:09.952Z</time></trkpt><trkpt lat="42.9678036" lon="12.1589543"><ele>602.0</ele><time>2026-05-01T07:56:11.942Z</time></trkpt><trkpt lat="42.9677043" lon="12.1590266"><ele>602.0</ele><time>2026-05-01T07:56:13.941Z</time></trkpt><trkpt lat="42.967643" lon="12.1590508"><ele>602.0</ele><time>2026-05-01T07:56:14.97Z</time></trkpt><trkpt lat="42.9675458" lon="12.1591062"><ele>602.2</ele><time>2026-05-01T07:56:16.956Z</time></trkpt><trkpt lat="42.9674451" lon="12.1591588"><ele>602.4000000000001</ele><time>2026-05-01T07:56:18.952Z</time></trkpt><trkpt lat="42.967387" lon="12.1592089"><ele>602.5999999999999</ele><time>2026-05-01T07:56:19.949Z</time></trkpt><trkpt lat="42.9672826" lon="12.1592746"><ele>602.8</ele><time>2026-05-01T07:56:21.957Z</time></trkpt><trkpt lat="42.9671992" lon="12.1593346"><ele>603.0</ele><time>2026-05-01T07:56:23.955Z</time></trkpt><trkpt lat="42.9671225" lon="12.1593829"><ele>603.0</ele><time>2026-05-01T07:56:25.943Z</time></trkpt><trkpt lat="42.9670529" lon="12.1594176"><ele>603.0</ele><time>2026-05-01T07:56:26.959Z</time></trkpt><trkpt lat="42.9669782" lon="12.1594667"><ele>603.0</ele><time>2026-05-01T07:56:29.955Z</time></trkpt><trkpt lat="42.9669134" lon="12.1594708"><ele>603.0</ele><time>2026-05-01T07:56:31.958Z</time></trkpt><trkpt lat="42.9668462" lon="12.1594832"><ele>603.0</ele><time>2026-05-01T07:56:33.943Z</time></trkpt><trkpt lat="42.9667686" lon="12.159508"><ele>603.0</ele><time>2026-05-01T07:56:36.945Z</time></trkpt><trkpt lat="42.9666876" lon="12.1595127"><ele>605.1428571428572</ele><time>2026-05-01T07:56:39.939Z</time></trkpt><trkpt lat="42.9666258" lon="12.159531"><ele>607.2857142857142</ele><time>2026-05-01T07:56:41.959Z</time></trkpt><trkpt lat="42.9665648" lon="12.1595539"><ele>609.4285714285714</ele><time>2026-05-01T07:56:43.937Z</time></trkpt><trkpt lat="42.9665111" lon="12.1596006"><ele>611.5714285714287</ele><time>2026-05-01T07:56:45.94Z</time></trkpt><trkpt lat="42.9664504" lon="12.1596409"><ele>613.7142857142858</ele><time>2026-05-01T07:56:47.947Z</time></trkpt><trkpt lat="42.9663854" lon="12.1596937"><ele>615.8571428571429</ele><time>2026-05-01T07:56:49.953Z</time></trkpt><trkpt lat="42.966331" lon="12.1597485"><ele>618.0</ele><time>2026-05-01T07:56:51.955Z</time></trkpt><trkpt lat="42.9662756" lon="12.1598205"><ele>618.0</ele><time>2026-05-01T07:56:53.938Z</time></trkpt><trkpt lat="42.9662262" lon="12.1598921"><ele>618.0</ele><time>2026-05-01T07:56:55.961Z</time></trkpt><trkpt lat="42.9661721" lon="12.1599575"><ele>618.0</ele><time>2026-05-01T07:56:57.956Z</time></trkpt><trkpt lat="42.9660922" lon="12.1600188"><ele>618.0</ele><time>2026-05-01T07:57:00.95Z</time></trkpt><trkpt lat="42.9659985" lon="12.160057"><ele>618.0</ele><time>2026-05-01T07:57:03.957Z</time></trkpt><trkpt lat="42.9658947" lon="12.1600777"><ele>618.0</ele><time>2026-05-01T07:57:05.953Z</time></trkpt><trkpt lat="42.9658129" lon="12.1601221"><ele>618.0</ele><time>2026-05-01T07:57:07.969Z</time></trkpt><trkpt lat="42.9657392" lon="12.1601828"><ele>618.0</ele><time>2026-05-01T07:57:09.96Z</time></trkpt><trkpt lat="42.9656674" lon="12.1602393"><ele>618.0</ele><time>2026-05-01T07:57:11.961Z</time></trkpt><trkpt lat="42.9656011" lon="12.1602913"><ele>618.0</ele><time>2026-05-01T07:57:13.961Z</time></trkpt><trkpt lat="42.9655412" lon="12.1603404"><ele>618.0</ele><time>2026-05-01T07:57:15.947Z</time></trkpt><trkpt lat="42.965493" lon="12.1604009"><ele>618.0</ele><time>2026-05-01T07:57:17.955Z</time></trkpt><trkpt lat="42.9654437" lon="12.1604682"><ele>618.0</ele><time>2026-05-01T07:57:19.967Z</time></trkpt><trkpt lat="42.9653831" lon="12.1605417"><ele>618.0</ele><time>2026-05-01T07:57:21.957Z</time></trkpt><trkpt lat="42.9653335" lon="12.1606161"><ele>618.0</ele><time>2026-05-01T07:57:23.952Z</time></trkpt><trkpt lat="42.9652867" lon="12.160695"><ele>618.0</ele><time>2026-05-01T07:57:25.954Z</time></trkpt><trkpt lat="42.9652368" lon="12.1607775"><ele>618.0</ele><time>2026-05-01T07:57:27.951Z</time></trkpt><trkpt lat="42.9651764" lon="12.1608803"><ele>618.0</ele><time>2026-05-01T07:57:29.955Z</time></trkpt><trkpt lat="42.9651411" lon="12.1609936"><ele>618.4</ele><time>2026-05-01T07:57:31.967Z</time></trkpt><trkpt lat="42.9650842" lon="12.1610973"><ele>618.8</ele><time>2026-05-01T07:57:33.942Z</time></trkpt><trkpt lat="42.9650611" lon="12.1612008"><ele>619.2</ele><time>2026-05-01T07:57:36Z</time></trkpt><trkpt lat="42.9650303" lon="12.1613375"><ele>619.6</ele><time>2026-05-01T07:57:37.971Z</time></trkpt><trkpt lat="42.964989" lon="12.1614509"><ele>620.0</ele><time>2026-05-01T07:57:39.961Z</time></trkpt><trkpt lat="42.9649503" lon="12.1615475"><ele>617.2</ele><time>2026-05-01T07:57:41.956Z</time></trkpt><trkpt lat="42.9649135" lon="12.1616307"><ele>614.4</ele><time>2026-05-01T07:57:43.945Z</time></trkpt><trkpt lat="42.9648656" lon="12.1617438"><ele>611.6</ele><time>2026-05-01T07:57:45.95Z</time></trkpt><trkpt lat="42.9648059" lon="12.1618825"><ele>608.8</ele><time>2026-05-01T07:57:47.97Z</time></trkpt><trkpt lat="42.9647847" lon="12.1620394"><ele>606.0</ele><time>2026-05-01T07:57:49.955Z</time></trkpt><trkpt lat="42.9647831" lon="12.1621289"><ele>606.0</ele><time>2026-05-01T07:57:50.956Z</time></trkpt><trkpt lat="42.9647949" lon="12.162224"><ele>606.0</ele><time>2026-05-01T07:57:51.947Z</time></trkpt><trkpt lat="42.964788" lon="12.1623136"><ele>606.0</ele><time>2026-05-01T07:57:53Z</time></trkpt><trkpt lat="42.9647882" lon="12.1624021"><ele>606.0</ele><time>2026-05-01T07:57:53.959Z</time></trkpt><trkpt lat="42.9647804" lon="12.1625571"><ele>606.0</ele><time>2026-05-01T07:57:55.966Z</time></trkpt><trkpt lat="42.9647632" lon="12.162691"><ele>606.0</ele><time>2026-05-01T07:57:57.939Z</time></trkpt><trkpt lat="42.9647549" lon="12.1628025"><ele>605.0</ele><time>2026-05-01T07:57:59.937Z</time></trkpt><trkpt lat="42.9647414" lon="12.1629004"><ele>604.0</ele><time>2026-05-01T07:58:01.953Z</time></trkpt><trkpt lat="42.9647116" lon="12.1629788"><ele>603.0</ele><time>2026-05-01T07:58:03.952Z</time></trkpt><trkpt lat="42.9646821" lon="12.1630973"><ele>602.0</ele><time>2026-05-01T07:58:06.941Z</time></trkpt><trkpt lat="42.9646599" lon="12.1631806"><ele>601.0</ele><time>2026-05-01T07:58:08.952Z</time></trkpt><trkpt lat="42.9646408" lon="12.1632632"><ele>600.0</ele><time>2026-05-01T07:58:10.942Z</time></trkpt><trkpt lat="42.9646265" lon="12.1633808"><ele>599.0</ele><time>2026-05-01T07:58:13.943Z</time></trkpt><trkpt lat="42.9646159" lon="12.1634749"><ele>599.1666666666666</ele><time>2026-05-01T07:58:16Z</time></trkpt><trkpt lat="42.9646071" lon="12.163585"><ele>599.3333333333333</ele><time>2026-05-01T07:58:17.954Z</time></trkpt><trkpt lat="42.9646031" lon="12.163729"><ele>599.5</ele><time>2026-05-01T07:58:19.949Z</time></trkpt><trkpt lat="42.9646013" lon="12.163826"><ele>599.6666666666666</ele><time>2026-05-01T07:58:21.95Z</time></trkpt><trkpt lat="42.9645868" lon="12.1639278"><ele>599.8333333333334</ele><time>2026-05-01T07:58:25.953Z</time></trkpt><trkpt lat="42.9646573" lon="12.1639809"><ele>600.0</ele><time>2026-05-01T08:03:19.952Z</time></trkpt><trkpt lat="42.9647259" lon="12.1640651"><ele>600.0</ele><time>2026-05-01T08:03:22.962Z</time></trkpt><trkpt lat="42.9647828" lon="12.1641141"><ele>600.0</ele><time>2026-05-01T08:03:24.948Z</time></trkpt><trkpt lat="42.9648554" lon="12.1641922"><ele>600.0</ele><time>2026-05-01T08:03:26.955Z</time></trkpt><trkpt lat="42.964943" lon="12.1642513"><ele>600.0</ele><time>2026-05-01T08:03:28.949Z</time></trkpt><trkpt lat="42.9650196" lon="12.1643027"><ele>600.0</ele><time>2026-05-01T08:03:31Z</time></trkpt><trkpt lat="42.9650917" lon="12.164345"><ele>600.0</ele><time>2026-05-01T08:03:32.938Z</time></trkpt><trkpt lat="42.9651642" lon="12.164393"><ele>598.2857142857142</ele><time>2026-05-01T08:03:34.958Z</time></trkpt><trkpt lat="42.9652358" lon="12.1644239"><ele>596.5714285714286</ele><time>2026-05-01T08:03:36.953Z</time></trkpt><trkpt lat="42.965301" lon="12.1644569"><ele>594.8571428571429</ele><time>2026-05-01T08:03:38.951Z</time></trkpt><trkpt lat="42.9653651" lon="12.1644967"><ele>593.1428571428571</ele><time>2026-05-01T08:03:40.956Z</time></trkpt><trkpt lat="42.965433" lon="12.1645379"><ele>591.4285714285714</ele><time>2026-05-01T08:03:42.953Z</time></trkpt><trkpt lat="42.9655044" lon="12.1645856"><ele>589.7142857142857</ele><time>2026-05-01T08:03:44.952Z</time></trkpt><trkpt lat="42.9655743" lon="12.1646393"><ele>588.0</ele><time>2026-05-01T08:03:46.954Z</time></trkpt><trkpt lat="42.9656377" lon="12.1646948"><ele>588.0</ele><time>2026-05-01T08:03:48.952Z</time></trkpt><trkpt lat="42.9656942" lon="12.1647482"><ele>588.0</ele><time>2026-05-01T08:03:50.958Z</time></trkpt><trkpt lat="42.9657575" lon="12.1648093"><ele>588.0</ele><time>2026-05-01T08:03:52.957Z</time></trkpt><trkpt lat="42.9658467" lon="12.1648676"><ele>588.0</ele><time>2026-05-01T08:03:54.958Z</time></trkpt><trkpt lat="42.965927" lon="12.1649007"><ele>588.0</ele><time>2026-05-01T08:03:56.955Z</time></trkpt><trkpt lat="42.9660197" lon="12.1649507"><ele>588.0</ele><time>2026-05-01T08:03:58.953Z</time></trkpt><trkpt lat="42.9661018" lon="12.1650289"><ele>587.3333333333334</ele><time>2026-05-01T08:04:00.943Z</time></trkpt><trkpt lat="42.9661479" lon="12.1651231"><ele>586.6666666666666</ele><time>2026-05-01T08:04:02.953Z</time></trkpt><trkpt lat="42.9661734" lon="12.1652311"><ele>586.0</ele><time>2026-05-01T08:04:04.949Z</time></trkpt><trkpt lat="42.9662058" lon="12.1653151"><ele>585.3333333333333</ele><time>2026-05-01T08:04:06.956Z</time></trkpt><trkpt lat="42.9662356" lon="12.1654513"><ele>584.6666666666666</ele><time>2026-05-01T08:04:08.955Z</time></trkpt><trkpt lat="42.9662729" lon="12.1655231"><ele>584.0</ele><time>2026-05-01T08:04:09.955Z</time></trkpt><trkpt lat="42.966345" lon="12.1656178"><ele>584.0</ele><time>2026-05-01T08:04:11.953Z</time></trkpt><trkpt lat="42.9664493" lon="12.1656725"><ele>584.0</ele><time>2026-05-01T08:04:13.961Z</time></trkpt><trkpt lat="42.9665589" lon="12.1656774"><ele>584.0</ele><time>2026-05-01T08:04:15.95Z</time></trkpt><trkpt lat="42.9666672" lon="12.1656671"><ele>584.0</ele><time>2026-05-01T08:04:17.954Z</time></trkpt><trkpt lat="42.9667633" lon="12.1656776"><ele>584.0</ele><time>2026-05-01T08:04:19.954Z</time></trkpt><trkpt lat="42.9668598" lon="12.1656991"><ele>583.6</ele><time>2026-05-01T08:04:21.938Z</time></trkpt><trkpt lat="42.9669485" lon="12.1657325"><ele>583.2</ele><time>2026-05-01T08:04:23.953Z</time></trkpt><trkpt lat="42.9670456" lon="12.1658"><ele>582.8000000000001</ele><time>2026-05-01T08:04:25.959Z</time></trkpt><trkpt lat="42.9671543" lon="12.1658984"><ele>582.4</ele><time>2026-05-01T08:04:27.949Z</time></trkpt><trkpt lat="42.9672176" lon="12.1659547"><ele>582.0</ele><time>2026-05-01T08:04:28.969Z</time></trkpt><trkpt lat="42.9672822" lon="12.1659985"><ele>582.0</ele><time>2026-05-01T08:04:29.955Z</time></trkpt><trkpt lat="42.9673892" lon="12.1660906"><ele>582.0</ele><time>2026-05-01T08:04:31.949Z</time></trkpt><trkpt lat="42.967436" lon="12.16615"><ele>582.0</ele><time>2026-05-01T08:04:32.958Z</time></trkpt><trkpt lat="42.9674768" lon="12.1662274"><ele>582.0</ele><time>2026-05-01T08:04:33.951Z</time></trkpt><trkpt lat="42.9675277" lon="12.1663483"><ele>582.0</ele><time>2026-05-01T08:04:35.953Z</time></trkpt><trkpt lat="42.9675216" lon="12.1664555"><ele>582.0</ele><time>2026-05-01T08:04:37.951Z</time></trkpt><trkpt lat="42.9674812" lon="12.1665835"><ele>583.0</ele><time>2026-05-01T08:04:39.938Z</time></trkpt><trkpt lat="42.9674705" lon="12.1666772"><ele>584.0</ele><time>2026-05-01T08:04:40.97Z</time></trkpt><trkpt lat="42.9674858" lon="12.1667908"><ele>585.0</ele><time>2026-05-01T08:04:41.943Z</time></trkpt><trkpt lat="42.9675027" lon="12.1668839"><ele>586.0</ele><time>2026-05-01T08:04:42.957Z</time></trkpt><trkpt lat="42.9675268" lon="12.1670363"><ele>587.0</ele><time>2026-05-01T08:04:44.949Z</time></trkpt><trkpt lat="42.9675343" lon="12.1671257"><ele>588.0</ele><time>2026-05-01T08:04:45.956Z</time></trkpt><trkpt lat="42.9675159" lon="12.1672164"><ele>588.0</ele><time>2026-05-01T08:04:46.951Z</time></trkpt><trkpt lat="42.9674577" lon="12.1673537"><ele>588.0</ele><time>2026-05-01T08:04:48.951Z</time></trkpt><trkpt lat="42.9674571" lon="12.1674623"><ele>588.0</ele><time>2026-05-01T08:04:50Z</time></trkpt><trkpt lat="42.9674619" lon="12.1675575"><ele>588.0</ele><time>2026-05-01T08:04:50.961Z</time></trkpt><trkpt lat="42.9674752" lon="12.1677062"><ele>588.0</ele><time>2026-05-01T08:04:52.949Z</time></trkpt><trkpt lat="42.9674618" lon="12.1678185"><ele>586.5</ele><time>2026-05-01T08:04:53.959Z</time></trkpt><trkpt lat="42.9674485" lon="12.1679179"><ele>585.0</ele><time>2026-05-01T08:04:54.965Z</time></trkpt><trkpt lat="42.9674411" lon="12.1680193"><ele>583.5</ele><time>2026-05-01T08:04:55.962Z</time></trkpt><trkpt lat="42.9674631" lon="12.1681754"><ele>582.0</ele><time>2026-05-01T08:04:56.96Z</time></trkpt><trkpt lat="42.9674659" lon="12.1682918"><ele>580.5</ele><time>2026-05-01T08:04:57.957Z</time></trkpt><trkpt lat="42.9674957" lon="12.1683942"><ele>579.0</ele><time>2026-05-01T08:04:58.964Z</time></trkpt><trkpt lat="42.9675351" lon="12.168507"><ele>575.8333333333334</ele><time>2026-05-01T08:04:59.97Z</time></trkpt><trkpt lat="42.9675655" lon="12.1685891"><ele>572.6666666666666</ele><time>2026-05-01T08:05:00.949Z</time></trkpt><trkpt lat="42.9676081" lon="12.1686805"><ele>569.5</ele><time>2026-05-01T08:05:01.965Z</time></trkpt><trkpt lat="42.9676702" lon="12.1687983"><ele>566.3333333333333</ele><time>2026-05-01T08:05:03.954Z</time></trkpt><trkpt lat="42.9677014" lon="12.168885"><ele>563.1666666666666</ele><time>2026-05-01T08:05:05.965Z</time></trkpt><trkpt lat="42.96773" lon="12.1689713"><ele>560.0</ele><time>2026-05-01T08:05:07.952Z</time></trkpt><trkpt lat="42.9677128" lon="12.1690731"><ele>560.0</ele><time>2026-05-01T08:05:09.949Z</time></trkpt><trkpt lat="42.9676711" lon="12.1691382"><ele>560.0</ele><time>2026-05-01T08:05:11.951Z</time></trkpt><trkpt lat="42.9676101" lon="12.1692281"><ele>560.0</ele><time>2026-05-01T08:05:14.948Z</time></trkpt><trkpt lat="42.9675654" lon="12.1693114"><ele>560.0</ele><time>2026-05-01T08:05:17.951Z</time></trkpt><trkpt lat="42.9675045" lon="12.169369"><ele>560.0</ele><time>2026-05-01T08:05:21.957Z</time></trkpt><trkpt lat="42.9674412" lon="12.1694217"><ele>560.0</ele><time>2026-05-01T08:05:24.951Z</time></trkpt><trkpt lat="42.9673924" lon="12.1694837"><ele>560.0</ele><time>2026-05-01T08:05:28.956Z</time></trkpt><trkpt lat="42.9673548" lon="12.1695639"><ele>561.4285714285714</ele><time>2026-05-01T08:05:31.966Z</time></trkpt><trkpt lat="42.9673009" lon="12.1696506"><ele>562.8571428571429</ele><time>2026-05-01T08:05:35.951Z</time></trkpt><trkpt lat="42.967267" lon="12.1697538"><ele>564.2857142857142</ele><time>2026-05-01T08:05:38.951Z</time></trkpt><trkpt lat="42.9672266" lon="12.1698205"><ele>565.7142857142858</ele><time>2026-05-01T08:05:42.951Z</time></trkpt><trkpt lat="42.967168" lon="12.1698615"><ele>567.1428571428571</ele><time>2026-05-01T08:05:45.953Z</time></trkpt><trkpt lat="42.9671284" lon="12.169951"><ele>568.5714285714286</ele><time>2026-05-01T08:05:48.952Z</time></trkpt><trkpt lat="42.9671006" lon="12.1700456"><ele>570.0</ele><time>2026-05-01T08:05:51.95Z</time></trkpt><trkpt lat="42.9670566" lon="12.1701336"><ele>570.0</ele><time>2026-05-01T08:05:55.953Z</time></trkpt><trkpt lat="42.9670288" lon="12.1702243"><ele>570.0</ele><time>2026-05-01T08:06:00Z</time></trkpt><trkpt lat="42.9670024" lon="12.1703257"><ele>570.0</ele><time>2026-05-01T08:06:03.954Z</time></trkpt><trkpt lat="42.9669611" lon="12.1704034"><ele>570.0</ele><time>2026-05-01T08:06:07.941Z</time></trkpt><trkpt lat="42.9669456" lon="12.1705002"><ele>570.0</ele><time>2026-05-01T08:06:12Z</time></trkpt><trkpt lat="42.9669464" lon="12.1705974"><ele>570.0</ele><time>2026-05-01T08:06:14.941Z</time></trkpt><trkpt lat="42.9669549" lon="12.1707042"><ele>570.0</ele><time>2026-05-01T08:06:17.947Z</time></trkpt><trkpt lat="42.9669949" lon="12.1708166"><ele>571.1428571428571</ele><time>2026-05-01T08:06:20.939Z</time></trkpt><trkpt lat="42.9670136" lon="12.1709228"><ele>572.2857142857143</ele><time>2026-05-01T08:06:23.954Z</time></trkpt><trkpt lat="42.9670183" lon="12.1710132"><ele>573.4285714285714</ele><time>2026-05-01T08:06:26.954Z</time></trkpt><trkpt lat="42.9669998" lon="12.1710968"><ele>574.5714285714286</ele><time>2026-05-01T08:06:29.941Z</time></trkpt><trkpt lat="42.9669692" lon="12.1711761"><ele>575.7142857142857</ele><time>2026-05-01T08:06:33.941Z</time></trkpt><trkpt lat="42.9669399" lon="12.1712532"><ele>576.8571428571429</ele><time>2026-05-01T08:06:37.938Z</time></trkpt><trkpt lat="42.9669005" lon="12.1713418"><ele>578.0</ele><time>2026-05-01T08:06:41.941Z</time></trkpt><trkpt lat="42.9668509" lon="12.1714145"><ele>578.0</ele><time>2026-05-01T08:06:44.937Z</time></trkpt><trkpt lat="42.9668136" lon="12.1714865"><ele>578.0</ele><time>2026-05-01T08:06:46Z</time></trkpt><trkpt lat="42.9667403" lon="12.171517"><ele>578.0</ele><time>2026-05-01T08:06:48.943Z</time></trkpt><trkpt lat="42.9666552" lon="12.1715316"><ele>578.0</ele><time>2026-05-01T08:06:52Z</time></trkpt><trkpt lat="42.9665794" lon="12.1715046"><ele>578.0</ele><time>2026-05-01T08:06:54.953Z</time></trkpt><trkpt lat="42.9665081" lon="12.1714759"><ele>578.0</ele><time>2026-05-01T08:06:57.951Z</time></trkpt><trkpt lat="42.9664445" lon="12.1714346"><ele>581.5</ele><time>2026-05-01T08:07:00.962Z</time></trkpt><trkpt lat="42.9663905" lon="12.1713884"><ele>585.0</ele><time>2026-05-01T08:07:03.943Z</time></trkpt><trkpt lat="42.9663517" lon="12.1713041"><ele>588.5</ele><time>2026-05-01T08:07:06.929Z</time></trkpt><trkpt lat="42.9662978" lon="12.1712306"><ele>592.0</ele><time>2026-05-01T08:07:09.942Z</time></trkpt><trkpt lat="42.9662421" lon="12.1711651"><ele>595.5</ele><time>2026-05-01T08:07:12.937Z</time></trkpt><trkpt lat="42.96617" lon="12.1711022"><ele>599.0</ele><time>2026-05-01T08:07:15.938Z</time></trkpt><trkpt lat="42.9660886" lon="12.1710417"><ele>599.0</ele><time>2026-05-01T08:07:18.949Z</time></trkpt><trkpt lat="42.9660301" lon="12.1710093"><ele>599.0</ele><time>2026-05-01T08:07:20.967Z</time></trkpt><trkpt lat="42.9659596" lon="12.1709943"><ele>599.0</ele><time>2026-05-01T08:07:22.96Z</time></trkpt><trkpt lat="42.9658886" lon="12.1710063"><ele>599.0</ele><time>2026-05-01T08:07:24.953Z</time></trkpt><trkpt lat="42.9658067" lon="12.1710549"><ele>599.0</ele><time>2026-05-01T08:07:27.952Z</time></trkpt><trkpt lat="42.9657208" lon="12.1711042"><ele>599.0</ele><time>2026-05-01T08:07:30.954Z</time></trkpt><trkpt lat="42.9656543" lon="12.1711581"><ele>600.8571428571429</ele><time>2026-05-01T08:07:34.953Z</time></trkpt><trkpt lat="42.9655872" lon="12.1712054"><ele>602.7142857142857</ele><time>2026-05-01T08:07:38.999Z</time></trkpt><trkpt lat="42.9655235" lon="12.1712496"><ele>604.5714285714286</ele><time>2026-05-01T08:07:42.953Z</time></trkpt><trkpt lat="42.9654714" lon="12.1712987"><ele>606.4285714285714</ele><time>2026-05-01T08:07:45.953Z</time></trkpt><trkpt lat="42.9653977" lon="12.1713413"><ele>608.2857142857143</ele><time>2026-05-01T08:07:48.953Z</time></trkpt><trkpt lat="42.9653233" lon="12.1713822"><ele>610.1428571428571</ele><time>2026-05-01T08:07:51.956Z</time></trkpt><trkpt lat="42.9652561" lon="12.1714193"><ele>612.0</ele><time>2026-05-01T08:07:54.95Z</time></trkpt><trkpt lat="42.9651759" lon="12.1714576"><ele>612.0</ele><time>2026-05-01T08:07:57.952Z</time></trkpt><trkpt lat="42.9651062" lon="12.1714715"><ele>612.0</ele><time>2026-05-01T08:07:59.954Z</time></trkpt><trkpt lat="42.9650214" lon="12.1714726"><ele>612.0</ele><time>2026-05-01T08:08:01.952Z</time></trkpt><trkpt lat="42.9649374" lon="12.171462"><ele>612.0</ele><time>2026-05-01T08:08:03.952Z</time></trkpt><trkpt lat="42.9648656" lon="12.1714087"><ele>612.0</ele><time>2026-05-01T08:08:05.951Z</time></trkpt><trkpt lat="42.9648123" lon="12.1713461"><ele>612.0</ele><time>2026-05-01T08:08:07.958Z</time></trkpt><trkpt lat="42.9647693" lon="12.171283"><ele>613.2857142857142</ele><time>2026-05-01T08:08:09.951Z</time></trkpt><trkpt lat="42.9647231" lon="12.1712199"><ele>614.5714285714286</ele><time>2026-05-01T08:08:12.956Z</time></trkpt><trkpt lat="42.9646787" lon="12.171148"><ele>615.8571428571429</ele><time>2026-05-01T08:08:16.937Z</time></trkpt><trkpt lat="42.9646413" lon="12.171076"><ele>617.1428571428571</ele><time>2026-05-01T08:08:21Z</time></trkpt><trkpt lat="42.9645969" lon="12.1709774"><ele>618.4285714285714</ele><time>2026-05-01T08:08:23.951Z</time></trkpt><trkpt lat="42.9645401" lon="12.170896"><ele>619.7142857142857</ele><time>2026-05-01T08:08:26.94Z</time></trkpt><trkpt lat="42.9644784" lon="12.170855"><ele>621.0</ele><time>2026-05-01T08:08:32.949Z</time></trkpt><trkpt lat="42.9644001" lon="12.1708735"><ele>621.0</ele><time>2026-05-01T08:08:35.952Z</time></trkpt><trkpt lat="42.964304" lon="12.1709263"><ele>621.0</ele><time>2026-05-01T08:08:38.95Z</time></trkpt><trkpt lat="42.9642365" lon="12.1709385"><ele>621.0</ele><time>2026-05-01T08:08:40.949Z</time></trkpt><trkpt lat="42.9641607" lon="12.1709568"><ele>621.0</ele><time>2026-05-01T08:08:43.951Z</time></trkpt><trkpt lat="42.9641038" lon="12.1710044"><ele>621.0</ele><time>2026-05-01T08:08:46.949Z</time></trkpt><trkpt lat="42.964054" lon="12.1710693"><ele>621.0</ele><time>2026-05-01T08:08:49.955Z</time></trkpt><trkpt lat="42.9639936" lon="12.1711624"><ele>620.8333333333334</ele><time>2026-05-01T08:08:52.954Z</time></trkpt><trkpt lat="42.9639396" lon="12.1712137"><ele>620.6666666666666</ele><time>2026-05-01T08:08:54.941Z</time></trkpt><trkpt lat="42.9638576" lon="12.171276"><ele>620.5</ele><time>2026-05-01T08:08:58.958Z</time></trkpt><trkpt lat="42.9638036" lon="12.1713204"><ele>620.3333333333333</ele><time>2026-05-01T08:09:00.95Z</time></trkpt><trkpt lat="42.9637319" lon="12.1713874"><ele>620.1666666666666</ele><time>2026-05-01T08:09:03.941Z</time></trkpt><trkpt lat="42.9636853" lon="12.1714658"><ele>620.0</ele><time>2026-05-01T08:09:06.95Z</time></trkpt><trkpt lat="42.9636477" lon="12.1715446"><ele>620.0</ele><time>2026-05-01T08:09:09.952Z</time></trkpt><trkpt lat="42.9635825" lon="12.1716056"><ele>620.0</ele><time>2026-05-01T08:09:12.954Z</time></trkpt><trkpt lat="42.9635142" lon="12.1716193"><ele>620.0</ele><time>2026-05-01T08:09:15.959Z</time></trkpt><trkpt lat="42.9634508" lon="12.1715643"><ele>620.0</ele><time>2026-05-01T08:09:18.951Z</time></trkpt><trkpt lat="42.9633751" lon="12.1715232"><ele>620.0</ele><time>2026-05-01T08:09:21.962Z</time></trkpt><trkpt lat="42.9633161" lon="12.1714786"><ele>620.0</ele><time>2026-05-01T08:09:24.963Z</time></trkpt><trkpt lat="42.9632467" lon="12.1714407"><ele>620.0</ele><time>2026-05-01T08:09:27.939Z</time></trkpt><trkpt lat="42.9631795" lon="12.1714038"><ele>621.1428571428571</ele><time>2026-05-01T08:09:31.953Z</time></trkpt><trkpt lat="42.9631093" lon="12.1713811"><ele>622.2857142857142</ele><time>2026-05-01T08:09:36Z</time></trkpt><trkpt lat="42.9630234" lon="12.1713682"><ele>623.4285714285713</ele><time>2026-05-01T08:09:39.949Z</time></trkpt><trkpt lat="42.9629751" lon="12.1713104"><ele>624.5714285714286</ele><time>2026-05-01T08:09:43.95Z</time></trkpt><trkpt lat="42.9629332" lon="12.171243"><ele>625.7142857142857</ele><time>2026-05-01T08:09:49.952Z</time></trkpt><trkpt lat="42.9628678" lon="12.1712286"><ele>626.8571428571428</ele><time>2026-05-01T08:09:53.95Z</time></trkpt><trkpt lat="42.9627983" lon="12.1712001"><ele>628.0</ele><time>2026-05-01T08:09:57.959Z</time></trkpt><trkpt lat="42.962722" lon="12.1711932"><ele>627.9999999999999</ele><time>2026-05-01T08:10:02.95Z</time></trkpt><trkpt lat="42.9626529" lon="12.171205"><ele>628.0</ele><time>2026-05-01T08:10:06.951Z</time></trkpt><trkpt lat="42.9625701" lon="12.1712385"><ele>628.0</ele><time>2026-05-01T08:10:10.95Z</time></trkpt><trkpt lat="42.9625011" lon="12.1712702"><ele>628.0</ele><time>2026-05-01T08:10:12.942Z</time></trkpt><trkpt lat="42.9624255" lon="12.1712879"><ele>628.0</ele><time>2026-05-01T08:10:15.954Z</time></trkpt><trkpt lat="42.9623685" lon="12.1713365"><ele>627.9999999999999</ele><time>2026-05-01T08:10:18.953Z</time></trkpt><trkpt lat="42.962304" lon="12.1713578"><ele>628.0</ele><time>2026-05-01T08:10:21.952Z</time></trkpt><trkpt lat="42.9622258" lon="12.1713976"><ele>628.2857142857142</ele><time>2026-05-01T08:10:25Z</time></trkpt><trkpt lat="42.9621619" lon="12.1714158"><ele>628.5714285714286</ele><time>2026-05-01T08:10:27.95Z</time></trkpt><trkpt lat="42.9620861" lon="12.1714331"><ele>628.8571428571429</ele><time>2026-05-01T08:10:31.95Z</time></trkpt><trkpt lat="42.9620206" lon="12.1714503"><ele>629.1428571428571</ele><time>2026-05-01T08:10:34.955Z</time></trkpt><trkpt lat="42.9619486" lon="12.171451"><ele>629.4285714285714</ele><time>2026-05-01T08:10:37.95Z</time></trkpt><trkpt lat="42.9618785" lon="12.1714497"><ele>629.7142857142857</ele><time>2026-05-01T08:10:39.949Z</time></trkpt><trkpt lat="42.9617849" lon="12.1714488"><ele>630.0</ele><time>2026-05-01T08:10:41.939Z</time></trkpt><trkpt lat="42.9616851" lon="12.1714337"><ele>630.2</ele><time>2026-05-01T08:10:43.949Z</time></trkpt><trkpt lat="42.9615927" lon="12.1713938"><ele>630.4</ele><time>2026-05-01T08:10:45.943Z</time></trkpt><trkpt lat="42.9615166" lon="12.17138"><ele>630.6</ele><time>2026-05-01T08:10:47.939Z</time></trkpt><trkpt lat="42.9614323" lon="12.1713988"><ele>630.8</ele><time>2026-05-01T08:10:49.973Z</time></trkpt><trkpt lat="42.9613398" lon="12.1714019"><ele>631.0</ele><time>2026-05-01T08:10:51.95Z</time></trkpt><trkpt lat="42.9612391" lon="12.1714126"><ele>631.0</ele><time>2026-05-01T08:10:53.938Z</time></trkpt><trkpt lat="42.9611378" lon="12.1714256"><ele>631.0</ele><time>2026-05-01T08:10:55.96Z</time></trkpt><trkpt lat="42.9610409" lon="12.1714347"><ele>631.0</ele><time>2026-05-01T08:10:57.954Z</time></trkpt><trkpt lat="42.960942" lon="12.1714593"><ele>631.0</ele><time>2026-05-01T08:10:59.944Z</time></trkpt><trkpt lat="42.9608361" lon="12.1714559"><ele>631.0</ele><time>2026-05-01T08:11:01.95Z</time></trkpt><trkpt lat="42.9607472" lon="12.1714271"><ele>628.2</ele><time>2026-05-01T08:11:03.955Z</time></trkpt><trkpt lat="42.96065" lon="12.171402"><ele>625.4000000000001</ele><time>2026-05-01T08:11:05.947Z</time></trkpt><trkpt lat="42.9605483" lon="12.1713801"><ele>622.6</ele><time>2026-05-01T08:11:07.949Z</time></trkpt><trkpt lat="42.9604371" lon="12.1713832"><ele>619.8000000000001</ele><time>2026-05-01T08:11:09.951Z</time></trkpt><trkpt lat="42.9603565" lon="12.1713899"><ele>617.0</ele><time>2026-05-01T08:11:12Z</time></trkpt><trkpt lat="42.9602898" lon="12.1713809"><ele>617.0</ele><time>2026-05-01T08:11:13.951Z</time></trkpt><trkpt lat="42.9601959" lon="12.171376"><ele>617.0</ele><time>2026-05-01T08:11:16.954Z</time></trkpt><trkpt lat="42.9601028" lon="12.1713813"><ele>617.0</ele><time>2026-05-01T08:11:19.952Z</time></trkpt><trkpt lat="42.9600123" lon="12.1713848"><ele>617.0</ele><time>2026-05-01T08:11:22.951Z</time></trkpt><trkpt lat="42.959925" lon="12.1713888"><ele>617.0</ele><time>2026-05-01T08:11:25.949Z</time></trkpt><trkpt lat="42.9598604" lon="12.1713907"><ele>617.0</ele><time>2026-05-01T08:11:27.949Z</time></trkpt><trkpt lat="42.9597948" lon="12.1713854"><ele>616.8333333333333</ele><time>2026-05-01T08:11:29.938Z</time></trkpt><trkpt lat="42.9597016" lon="12.1713626"><ele>616.6666666666666</ele><time>2026-05-01T08:11:32.941Z</time></trkpt><trkpt lat="42.9596182" lon="12.1713545"><ele>616.5</ele><time>2026-05-01T08:11:35.94Z</time></trkpt><trkpt lat="42.9595454" lon="12.1713677"><ele>616.3333333333334</ele><time>2026-05-01T08:11:38.938Z</time></trkpt><trkpt lat="42.9594744" lon="12.1713715"><ele>616.1666666666667</ele><time>2026-05-01T08:11:42.95Z</time></trkpt><trkpt lat="42.9593937" lon="12.1713529"><ele>616.0</ele><time>2026-05-01T08:11:45.952Z</time></trkpt><trkpt lat="42.9593045" lon="12.1713389"><ele>616.0</ele><time>2026-05-01T08:11:48.951Z</time></trkpt><trkpt lat="42.9592117" lon="12.1713432"><ele>616.0</ele><time>2026-05-01T08:11:51.948Z</time></trkpt><trkpt lat="42.9591357" lon="12.1713359"><ele>616.0</ele><time>2026-05-01T08:11:54.94Z</time></trkpt><trkpt lat="42.959048" lon="12.1713116"><ele>616.0</ele><time>2026-05-01T08:11:57.937Z</time></trkpt><trkpt lat="42.9589783" lon="12.171306"><ele>616.0</ele><time>2026-05-01T08:11:59.949Z</time></trkpt><trkpt lat="42.9589011" lon="12.1713155"><ele>616.0</ele><time>2026-05-01T08:12:01.95Z</time></trkpt><trkpt lat="42.9588237" lon="12.1713331"><ele>616.5</ele><time>2026-05-01T08:12:03.999Z</time></trkpt><trkpt lat="42.958739" lon="12.1713591"><ele>617.0</ele><time>2026-05-01T08:12:05.952Z</time></trkpt><trkpt lat="42.9586534" lon="12.1713765"><ele>617.5</ele><time>2026-05-01T08:12:07.947Z</time></trkpt><trkpt lat="42.9585617" lon="12.1714046"><ele>618.0</ele><time>2026-05-01T08:12:09.95Z</time></trkpt><trkpt lat="42.9584755" lon="12.1714245"><ele>618.5</ele><time>2026-05-01T08:12:11.946Z</time></trkpt><trkpt lat="42.9583877" lon="12.1714467"><ele>619.0</ele><time>2026-05-01T08:12:13.95Z</time></trkpt><trkpt lat="42.9583036" lon="12.1714362"><ele>617.8333333333334</ele><time>2026-05-01T08:12:15.949Z</time></trkpt><trkpt lat="42.9582209" lon="12.1714222"><ele>616.6666666666667</ele><time>2026-05-01T08:12:17.945Z</time></trkpt><trkpt lat="42.9581392" lon="12.1714166"><ele>615.5</ele><time>2026-05-01T08:12:19.952Z</time></trkpt><trkpt lat="42.9580547" lon="12.1714057"><ele>614.3333333333334</ele><time>2026-05-01T08:12:21.949Z</time></trkpt><trkpt lat="42.957986" lon="12.1713719"><ele>613.1666666666666</ele><time>2026-05-01T08:12:23.949Z</time></trkpt><trkpt lat="42.9579077" lon="12.1713306"><ele>612.0</ele><time>2026-05-01T08:12:25.95Z</time></trkpt><trkpt lat="42.9578284" lon="12.1712985"><ele>612.0</ele><time>2026-05-01T08:12:27.948Z</time></trkpt><trkpt lat="42.9577411" lon="12.1712729"><ele>612.0</ele><time>2026-05-01T08:12:29.949Z</time></trkpt><trkpt lat="42.9576473" lon="12.171255"><ele>612.0</ele><time>2026-05-01T08:12:31.957Z</time></trkpt><trkpt lat="42.9575546" lon="12.1712563"><ele>612.0</ele><time>2026-05-01T08:12:33.948Z</time></trkpt><trkpt lat="42.9574468" lon="12.1712635"><ele>612.0</ele><time>2026-05-01T08:12:35.957Z</time></trkpt><trkpt lat="42.957338" lon="12.1712645"><ele>610.6</ele><time>2026-05-01T08:12:37.951Z</time></trkpt><trkpt lat="42.957243" lon="12.1712507"><ele>609.2</ele><time>2026-05-01T08:12:39.954Z</time></trkpt><trkpt lat="42.9571457" lon="12.1712341"><ele>607.8</ele><time>2026-05-01T08:12:41.94Z</time></trkpt><trkpt lat="42.9570466" lon="12.1711958"><ele>606.4</ele><time>2026-05-01T08:12:44Z</time></trkpt><trkpt lat="42.9569353" lon="12.1711533"><ele>605.0</ele><time>2026-05-01T08:12:45.948Z</time></trkpt><trkpt lat="42.9568334" lon="12.1710773"><ele>605.0</ele><time>2026-05-01T08:12:47.949Z</time></trkpt><trkpt lat="42.9567243" lon="12.1710114"><ele>605.0</ele><time>2026-05-01T08:12:49.949Z</time></trkpt><trkpt lat="42.9566086" lon="12.170953"><ele>605.0</ele><time>2026-05-01T08:12:51.948Z</time></trkpt><trkpt lat="42.9565038" lon="12.1708985"><ele>605.0</ele><time>2026-05-01T08:12:53.936Z</time></trkpt><trkpt lat="42.9564401" lon="12.1708731"><ele>605.0</ele><time>2026-05-01T08:12:54.945Z</time></trkpt><trkpt lat="42.95638" lon="12.1708386"><ele>604.1666666666666</ele><time>2026-05-01T08:12:55.946Z</time></trkpt><trkpt lat="42.9563201" lon="12.1708032"><ele>603.3333333333333</ele><time>2026-05-01T08:12:56.95Z</time></trkpt><trkpt lat="42.9562571" lon="12.1707638"><ele>602.5</ele><time>2026-05-01T08:12:57.949Z</time></trkpt><trkpt lat="42.9561416" lon="12.170694"><ele>601.6666666666666</ele><time>2026-05-01T08:12:59.954Z</time></trkpt><trkpt lat="42.9560802" lon="12.170667"><ele>600.8333333333334</ele><time>2026-05-01T08:13:00.966Z</time></trkpt><trkpt lat="42.9560203" lon="12.1706372"><ele>600.0</ele><time>2026-05-01T08:13:01.947Z</time></trkpt><trkpt lat="42.9559485" lon="12.1706166"><ele>597.6</ele><time>2026-05-01T08:13:02.949Z</time></trkpt><trkpt lat="42.9558823" lon="12.1705948"><ele>595.2</ele><time>2026-05-01T08:13:03.947Z</time></trkpt><trkpt lat="42.9558216" lon="12.1705688"><ele>592.8</ele><time>2026-05-01T08:13:04.944Z</time></trkpt><trkpt lat="42.9557116" lon="12.1704831"><ele>590.4</ele><time>2026-05-01T08:13:06.95Z</time></trkpt><trkpt lat="42.9555911" lon="12.1704206"><ele>588.0</ele><time>2026-05-01T08:13:08.952Z</time></trkpt><trkpt lat="42.9555241" lon="12.1704059"><ele>588.0</ele><time>2026-05-01T08:13:09.952Z</time></trkpt><trkpt lat="42.9553996" lon="12.1703828"><ele>588.0</ele><time>2026-05-01T08:13:11.947Z</time></trkpt><trkpt lat="42.9552846" lon="12.1703547"><ele>588.0</ele><time>2026-05-01T08:13:13.947Z</time></trkpt><trkpt lat="42.9552104" lon="12.1703307"><ele>588.0</ele><time>2026-05-01T08:13:14.956Z</time></trkpt><trkpt lat="42.9551475" lon="12.1703027"><ele>588.0</ele><time>2026-05-01T08:13:15.94Z</time></trkpt><trkpt lat="42.9550235" lon="12.1702789"><ele>587.3333333333334</ele><time>2026-05-01T08:13:17.954Z</time></trkpt><trkpt lat="42.9549455" lon="12.1702723"><ele>586.6666666666666</ele><time>2026-05-01T08:13:18.959Z</time></trkpt><trkpt lat="42.9548721" lon="12.1702625"><ele>586.0</ele><time>2026-05-01T08:13:20Z</time></trkpt><trkpt lat="42.9548023" lon="12.1702577"><ele>585.3333333333333</ele><time>2026-05-01T08:13:20.962Z</time></trkpt><trkpt lat="42.9546758" lon="12.1702437"><ele>584.6666666666666</ele><time>2026-05-01T08:13:22.951Z</time></trkpt><trkpt lat="42.9546027" lon="12.1702406"><ele>584.0</ele><time>2026-05-01T08:13:23.959Z</time></trkpt><trkpt lat="42.9545345" lon="12.1702288"><ele>584.0</ele><time>2026-05-01T08:13:24.946Z</time></trkpt><trkpt lat="42.9544416" lon="12.1701948"><ele>584.0</ele><time>2026-05-01T08:13:26.953Z</time></trkpt><trkpt lat="42.9543762" lon="12.1702299"><ele>584.0</ele><time>2026-05-01T08:13:29.956Z</time></trkpt><trkpt lat="42.9544241" lon="12.1703155"><ele>584.0</ele><time>2026-05-01T08:16:26.943Z</time></trkpt><trkpt lat="42.9544739" lon="12.1704078"><ele>584.0</ele><time>2026-05-01T08:16:29.999Z</time></trkpt><trkpt lat="42.9545088" lon="12.1705016"><ele>584.0</ele><time>2026-05-01T08:16:31.951Z</time></trkpt><trkpt lat="42.9545535" lon="12.1705764"><ele>584.0</ele><time>2026-05-01T08:16:33.943Z</time></trkpt><trkpt lat="42.9546093" lon="12.1706478"><ele>584.0</ele><time>2026-05-01T08:16:36Z</time></trkpt><trkpt lat="42.9546892" lon="12.1707322"><ele>584.0</ele><time>2026-05-01T08:16:37.933Z</time></trkpt><trkpt lat="42.9547908" lon="12.1707803"><ele>584.0</ele><time>2026-05-01T08:16:39.941Z</time></trkpt><trkpt lat="42.9549034" lon="12.1708231"><ele>584.0</ele><time>2026-05-01T08:16:41.94Z</time></trkpt><trkpt lat="42.9550149" lon="12.1708996"><ele>585.5</ele><time>2026-05-01T08:16:43.938Z</time></trkpt><trkpt lat="42.9551156" lon="12.1710156"><ele>587.0</ele><time>2026-05-01T08:16:45.944Z</time></trkpt><trkpt lat="42.9551872" lon="12.1711331"><ele>588.5</ele><time>2026-05-01T08:16:47.941Z</time></trkpt><trkpt lat="42.9552648" lon="12.1712704"><ele>590.0</ele><time>2026-05-01T08:16:49.94Z</time></trkpt><trkpt lat="42.9553533" lon="12.1713404"><ele>590.0</ele><time>2026-05-01T08:16:51.936Z</time></trkpt><trkpt lat="42.9554492" lon="12.1713446"><ele>590.0</ele><time>2026-05-01T08:16:53.945Z</time></trkpt><trkpt lat="42.9555515" lon="12.1713567"><ele>590.0</ele><time>2026-05-01T08:16:55.939Z</time></trkpt><trkpt lat="42.95562" lon="12.1714512"><ele>590.0</ele><time>2026-05-01T08:16:57.937Z</time></trkpt><trkpt lat="42.9556469" lon="12.1715645"><ele>590.0</ele><time>2026-05-01T08:16:59.946Z</time></trkpt><trkpt lat="42.9556864" lon="12.171674"><ele>586.8333333333333</ele><time>2026-05-01T08:17:01.94Z</time></trkpt><trkpt lat="42.9557537" lon="12.1718013"><ele>583.6666666666666</ele><time>2026-05-01T08:17:03.951Z</time></trkpt><trkpt lat="42.9558121" lon="12.1718837"><ele>580.5</ele><time>2026-05-01T08:17:04.947Z</time></trkpt><trkpt lat="42.955834" lon="12.1719852"><ele>577.3333333333334</ele><time>2026-05-01T08:17:05.95Z</time></trkpt><trkpt lat="42.9558143" lon="12.1720677"><ele>574.1666666666667</ele><time>2026-05-01T08:17:06.95Z</time></trkpt><trkpt lat="42.9558088" lon="12.1722008"><ele>571.0</ele><time>2026-05-01T08:17:08.951Z</time></trkpt><trkpt lat="42.9557697" lon="12.1722702"><ele>571.0</ele><time>2026-05-01T08:17:09.941Z</time></trkpt><trkpt lat="42.955724" lon="12.1723512"><ele>571.0</ele><time>2026-05-01T08:17:11.951Z</time></trkpt><trkpt lat="42.9556853" lon="12.1724363"><ele>571.0</ele><time>2026-05-01T08:17:13.934Z</time></trkpt><trkpt lat="42.9556505" lon="12.1725455"><ele>571.0</ele><time>2026-05-01T08:17:15.953Z</time></trkpt><trkpt lat="42.9556367" lon="12.1726668"><ele>571.0</ele><time>2026-05-01T08:17:17.948Z</time></trkpt><trkpt lat="42.9556568" lon="12.1728234"><ele>571.0</ele><time>2026-05-01T08:17:19.952Z</time></trkpt><trkpt lat="42.955707" lon="12.1729656"><ele>572.0</ele><time>2026-05-01T08:17:21.954Z</time></trkpt><trkpt lat="42.9557884" lon="12.1731017"><ele>573.0</ele><time>2026-05-01T08:17:23.939Z</time></trkpt><trkpt lat="42.95589" lon="12.1731851"><ele>574.0</ele><time>2026-05-01T08:17:25.954Z</time></trkpt><trkpt lat="42.9559608" lon="12.1732196"><ele>575.0</ele><time>2026-05-01T08:17:26.95Z</time></trkpt><trkpt lat="42.9560211" lon="12.1732458"><ele>576.0</ele><time>2026-05-01T08:17:27.958Z</time></trkpt><trkpt lat="42.9561497" lon="12.1732935"><ele>571.8</ele><time>2026-05-01T08:17:29.95Z</time></trkpt><trkpt lat="42.9562528" lon="12.1733275"><ele>567.6</ele><time>2026-05-01T08:17:31.952Z</time></trkpt><trkpt lat="42.9563467" lon="12.1733362"><ele>563.4</ele><time>2026-05-01T08:17:33.954Z</time></trkpt><trkpt lat="42.9564472" lon="12.1733166"><ele>559.2</ele><time>2026-05-01T08:17:35.949Z</time></trkpt><trkpt lat="42.9565614" lon="12.1733137"><ele>555.0</ele><time>2026-05-01T08:17:37.953Z</time></trkpt><trkpt lat="42.9566666" lon="12.1733763"><ele>557.2</ele><time>2026-05-01T08:17:39.949Z</time></trkpt><trkpt lat="42.9567401" lon="12.173486"><ele>559.4</ele><time>2026-05-01T08:17:41.955Z</time></trkpt><trkpt lat="42.9567592" lon="12.1736092"><ele>561.6</ele><time>2026-05-01T08:17:43.955Z</time></trkpt><trkpt lat="42.9567555" lon="12.1737349"><ele>563.8</ele><time>2026-05-01T08:17:45.949Z</time></trkpt><trkpt lat="42.9567953" lon="12.1738463"><ele>566.0</ele><time>2026-05-01T08:17:47.961Z</time></trkpt><trkpt lat="42.9568746" lon="12.1738939"><ele>566.0</ele><time>2026-05-01T08:17:49.937Z</time></trkpt><trkpt lat="42.9569398" lon="12.1739197"><ele>566.0</ele><time>2026-05-01T08:17:51.949Z</time></trkpt><trkpt lat="42.9570098" lon="12.1739932"><ele>566.0</ele><time>2026-05-01T08:17:54.938Z</time></trkpt><trkpt lat="42.9571038" lon="12.1740185"><ele>566.0</ele><time>2026-05-01T08:17:57.949Z</time></trkpt><trkpt lat="42.9571783" lon="12.1740094"><ele>566.0</ele><time>2026-05-01T08:17:59.949Z</time></trkpt><trkpt lat="42.9572466" lon="12.1738936"><ele>566.0</ele><time>2026-05-01T08:18:01.941Z</time></trkpt><trkpt lat="42.9573473" lon="12.1737913"><ele>566.0</ele><time>2026-05-01T08:18:03.999Z</time></trkpt><trkpt lat="42.9574476" lon="12.1737217"><ele>566.0</ele><time>2026-05-01T08:18:05.955Z</time></trkpt><trkpt lat="42.9575574" lon="12.1737527"><ele>566.0</ele><time>2026-05-01T08:18:07.97Z</time></trkpt><trkpt lat="42.9576418" lon="12.1738416"><ele>566.0</ele><time>2026-05-01T08:18:09.948Z</time></trkpt><trkpt lat="42.9577149" lon="12.1739093"><ele>566.0</ele><time>2026-05-01T08:18:11.937Z</time></trkpt><trkpt lat="42.9577917" lon="12.1739683"><ele>566.6666666666666</ele><time>2026-05-01T08:18:13.95Z</time></trkpt><trkpt lat="42.9578724" lon="12.1739798"><ele>567.3333333333333</ele><time>2026-05-01T08:18:15.954Z</time></trkpt><trkpt lat="42.957946" lon="12.1739571"><ele>568.0</ele><time>2026-05-01T08:18:17.953Z</time></trkpt><trkpt lat="42.9580486" lon="12.1739488"><ele>568.6666666666666</ele><time>2026-05-01T08:18:19.953Z</time></trkpt><trkpt lat="42.9581374" lon="12.173999"><ele>569.3333333333334</ele><time>2026-05-01T08:18:21.95Z</time></trkpt><trkpt lat="42.9581639" lon="12.1740814"><ele>570.0</ele><time>2026-05-01T08:18:23.95Z</time></trkpt><trkpt lat="42.9581926" lon="12.1741886"><ele>566.4</ele><time>2026-05-01T08:18:25.953Z</time></trkpt><trkpt lat="42.9582224" lon="12.1743008"><ele>562.8</ele><time>2026-05-01T08:18:28Z</time></trkpt><trkpt lat="42.9582564" lon="12.1744113"><ele>559.2</ele><time>2026-05-01T08:18:29.95Z</time></trkpt><trkpt lat="42.9582895" lon="12.1745303"><ele>555.6</ele><time>2026-05-01T08:18:31.95Z</time></trkpt><trkpt lat="42.9583252" lon="12.1746629"><ele>552.0</ele><time>2026-05-01T08:18:34.954Z</time></trkpt><trkpt lat="42.9583816" lon="12.1747758"><ele>546.0</ele><time>2026-05-01T08:18:36.954Z</time></trkpt><trkpt lat="42.9584529" lon="12.1749027"><ele>540.0</ele><time>2026-05-01T08:18:38.953Z</time></trkpt><trkpt lat="42.9585416" lon="12.1750247"><ele>534.0</ele><time>2026-05-01T08:18:40.951Z</time></trkpt><trkpt lat="42.9585692" lon="12.1751102"><ele>528.0</ele><time>2026-05-01T08:18:41.952Z</time></trkpt><trkpt lat="42.9586188" lon="12.1752478"><ele>522.0</ele><time>2026-05-01T08:18:43.949Z</time></trkpt><trkpt lat="42.9586747" lon="12.1753605"><ele>522.0</ele><time>2026-05-01T08:18:45.949Z</time></trkpt><trkpt lat="42.9587049" lon="12.1754768"><ele>522.0</ele><time>2026-05-01T08:18:47.953Z</time></trkpt><trkpt lat="42.958701" lon="12.1755903"><ele>522.0</ele><time>2026-05-01T08:18:49.95Z</time></trkpt><trkpt lat="42.9586528" lon="12.1757102"><ele>522.0</ele><time>2026-05-01T08:18:51.95Z</time></trkpt><trkpt lat="42.9585813" lon="12.1757972"><ele>522.0</ele><time>2026-05-01T08:18:53.954Z</time></trkpt><trkpt lat="42.9584881" lon="12.1758367"><ele>521.8333333333334</ele><time>2026-05-01T08:18:55.949Z</time></trkpt><trkpt lat="42.9584074" lon="12.1758505"><ele>521.6666666666666</ele><time>2026-05-01T08:18:57.951Z</time></trkpt><trkpt lat="42.9583275" lon="12.1758825"><ele>521.5</ele><time>2026-05-01T08:18:59.958Z</time></trkpt><trkpt lat="42.9582696" lon="12.1759338"><ele>521.3333333333333</ele><time>2026-05-01T08:19:01.948Z</time></trkpt><trkpt lat="42.9582376" lon="12.1760462"><ele>521.1666666666666</ele><time>2026-05-01T08:20:00.942Z</time></trkpt><trkpt lat="42.9581807" lon="12.1761184"><ele>521.0</ele><time>2026-05-01T08:20:02.953Z</time></trkpt><trkpt lat="42.9581244" lon="12.1761602"><ele>521.0</ele><time>2026-05-01T08:20:04.95Z</time></trkpt><trkpt lat="42.958062" lon="12.1762675"><ele>521.0</ele><time>2026-05-01T08:20:06.947Z</time></trkpt><trkpt lat="42.9579821" lon="12.1763534"><ele>521.0</ele><time>2026-05-01T08:20:08.948Z</time></trkpt><trkpt lat="42.9579119" lon="12.1764431"><ele>521.0</ele><time>2026-05-01T08:20:10.951Z</time></trkpt><trkpt lat="42.9578692" lon="12.1765737"><ele>521.0</ele><time>2026-05-01T08:20:12.935Z</time></trkpt><trkpt lat="42.9578175" lon="12.1767209"><ele>518.0</ele><time>2026-05-01T08:20:14.95Z</time></trkpt><trkpt lat="42.9577697" lon="12.1768192"><ele>515.0</ele><time>2026-05-01T08:20:16.949Z</time></trkpt><trkpt lat="42.9577508" lon="12.1769129"><ele>512.0</ele><time>2026-05-01T08:20:19.951Z</time></trkpt><trkpt lat="42.95773" lon="12.1770563"><ele>509.0</ele><time>2026-05-01T08:20:22.952Z</time></trkpt><trkpt lat="42.9577028" lon="12.1772057"><ele>506.0</ele><time>2026-05-01T08:20:24.959Z</time></trkpt><trkpt lat="42.9576666" lon="12.1773644"><ele>501.99999999999994</ele><time>2026-05-01T08:20:26.938Z</time></trkpt><trkpt lat="42.9576516" lon="12.1774642"><ele>498.0</ele><time>2026-05-01T08:20:27.949Z</time></trkpt><trkpt lat="42.9576328" lon="12.1776261"><ele>494.0</ele><time>2026-05-01T08:20:29.949Z</time></trkpt><trkpt lat="42.95764" lon="12.1777208"><ele>490.0</ele><time>2026-05-01T08:20:30.949Z</time></trkpt><trkpt lat="42.9576285" lon="12.1778139"><ele>485.99999999999994</ele><time>2026-05-01T08:20:31.95Z</time></trkpt><trkpt lat="42.9576138" lon="12.1779"><ele>482.0</ele><time>2026-05-01T08:20:32.95Z</time></trkpt><trkpt lat="42.9576014" lon="12.1779914"><ele>481.99999999999994</ele><time>2026-05-01T08:20:33.946Z</time></trkpt><trkpt lat="42.9575939" lon="12.178098"><ele>482.0</ele><time>2026-05-01T08:20:34.957Z</time></trkpt><trkpt lat="42.9575817" lon="12.1781962"><ele>482.0</ele><time>2026-05-01T08:20:35.945Z</time></trkpt><trkpt lat="42.9575709" lon="12.1782873"><ele>482.0</ele><time>2026-05-01T08:20:36.953Z</time></trkpt><trkpt lat="42.9575506" lon="12.1783748"><ele>481.99999999999994</ele><time>2026-05-01T08:20:37.957Z</time></trkpt><trkpt lat="42.9575362" lon="12.1784718"><ele>482.0</ele><time>2026-05-01T08:20:38.951Z</time></trkpt><trkpt lat="42.9575181" lon="12.1786354"><ele>482.20000000000005</ele><time>2026-05-01T08:20:40.958Z</time></trkpt><trkpt lat="42.9575775" lon="12.1787736"><ele>482.40000000000003</ele><time>2026-05-01T08:20:42.949Z</time></trkpt><trkpt lat="42.9576503" lon="12.1788893"><ele>482.59999999999997</ele><time>2026-05-01T08:20:44.949Z</time></trkpt><trkpt lat="42.9577021" lon="12.1789953"><ele>482.79999999999995</ele><time>2026-05-01T08:20:47Z</time></trkpt><trkpt lat="42.957742" lon="12.1790911"><ele>483.0</ele><time>2026-05-01T08:20:48.942Z</time></trkpt><trkpt lat="42.9577772" lon="12.1791631"><ele>483.0</ele><time>2026-05-01T08:20:50.95Z</time></trkpt><trkpt lat="42.9578183" lon="12.1792596"><ele>483.0</ele><time>2026-05-01T08:20:53.946Z</time></trkpt><trkpt lat="42.9578755" lon="12.1793438"><ele>483.0</ele><time>2026-05-01T08:20:56.936Z</time></trkpt><trkpt lat="42.9579283" lon="12.179428"><ele>483.0</ele><time>2026-05-01T08:20:59.948Z</time></trkpt><trkpt lat="42.95801" lon="12.1794576"><ele>483.0</ele><time>2026-05-01T08:21:02.947Z</time></trkpt><trkpt lat="42.9580879" lon="12.1794822"><ele>483.0</ele><time>2026-05-01T08:21:05.957Z</time></trkpt><trkpt lat="42.958168" lon="12.1795054"><ele>483.0</ele><time>2026-05-01T08:21:09.949Z</time></trkpt><trkpt lat="42.9582481" lon="12.1795304"><ele>483.0</ele><time>2026-05-01T08:21:13.957Z</time></trkpt><trkpt lat="42.9583208" lon="12.1795067"><ele>483.0</ele><time>2026-05-01T08:21:18.94Z</time></trkpt><trkpt lat="42.9584012" lon="12.1795196"><ele>483.0</ele><time>2026-05-01T08:21:22.934Z</time></trkpt><trkpt lat="42.9584706" lon="12.1795363"><ele>483.0</ele><time>2026-05-01T08:21:25.932Z</time></trkpt><trkpt lat="42.958542" lon="12.1795784"><ele>483.0</ele><time>2026-05-01T08:21:28.932Z</time></trkpt><trkpt lat="42.9586179" lon="12.179618"><ele>482.5</ele><time>2026-05-01T08:21:31.935Z</time></trkpt><trkpt lat="42.9586966" lon="12.1796657"><ele>482.0</ele><time>2026-05-01T08:21:34.942Z</time></trkpt><trkpt lat="42.9587735" lon="12.1796936"><ele>481.5</ele><time>2026-05-01T08:21:37.931Z</time></trkpt><trkpt lat="42.958866" lon="12.1797136"><ele>481.0</ele><time>2026-05-01T08:21:40.939Z</time></trkpt><trkpt lat="42.9589544" lon="12.1797147"><ele>480.5</ele><time>2026-05-01T08:21:43.938Z</time></trkpt><trkpt lat="42.9590364" lon="12.1797216"><ele>480.0</ele><time>2026-05-01T08:21:46.936Z</time></trkpt><trkpt lat="42.9591152" lon="12.179758"><ele>478.8333333333333</ele><time>2026-05-01T08:21:49.937Z</time></trkpt><trkpt lat="42.9592034" lon="12.1797992"><ele>477.66666666666663</ele><time>2026-05-01T08:21:52.935Z</time></trkpt><trkpt lat="42.959298" lon="12.1798365"><ele>476.5</ele><time>2026-05-01T08:21:55.935Z</time></trkpt><trkpt lat="42.9593571" lon="12.1798664"><ele>475.3333333333333</ele><time>2026-05-01T08:21:57.937Z</time></trkpt><trkpt lat="42.9594134" lon="12.1799091"><ele>474.16666666666663</ele><time>2026-05-01T08:21:59.94Z</time></trkpt><trkpt lat="42.9594856" lon="12.1799872"><ele>473.0</ele><time>2026-05-01T08:22:02.934Z</time></trkpt><trkpt lat="42.9595605" lon="12.1800581"><ele>476.99999999999994</ele><time>2026-05-01T08:22:05.935Z</time></trkpt><trkpt lat="42.9596311" lon="12.1801264"><ele>481.0</ele><time>2026-05-01T08:22:08.936Z</time></trkpt><trkpt lat="42.9597026" lon="12.1801954"><ele>485.0</ele><time>2026-05-01T08:22:11.941Z</time></trkpt><trkpt lat="42.9597692" lon="12.1802508"><ele>489.0</ele><time>2026-05-01T08:22:14.934Z</time></trkpt><trkpt lat="42.9598523" lon="12.1802725"><ele>492.99999999999994</ele><time>2026-05-01T08:22:18.935Z</time></trkpt><trkpt lat="42.9599348" lon="12.180307"><ele>497.0</ele><time>2026-05-01T08:22:22.93Z</time></trkpt><trkpt lat="42.9599969" lon="12.1803532"><ele>497.0</ele><time>2026-05-01T08:22:25.957Z</time></trkpt><trkpt lat="42.9600671" lon="12.1804097"><ele>497.0</ele><time>2026-05-01T08:22:29.937Z</time></trkpt><trkpt lat="42.9601201" lon="12.1804584"><ele>497.0</ele><time>2026-05-01T08:22:32.937Z</time></trkpt><trkpt lat="42.9601708" lon="12.1805465"><ele>497.0</ele><time>2026-05-01T08:22:36.94Z</time></trkpt><trkpt lat="42.9602036" lon="12.1806302"><ele>497.0</ele><time>2026-05-01T08:22:39.95Z</time></trkpt><trkpt lat="42.9602311" lon="12.1807224"><ele>497.0</ele><time>2026-05-01T08:22:42.941Z</time></trkpt><trkpt lat="42.9602589" lon="12.1808128"><ele>497.0</ele><time>2026-05-01T08:22:45.954Z</time></trkpt><trkpt lat="42.9602969" lon="12.1808928"><ele>497.0</ele><time>2026-05-01T08:22:48.939Z</time></trkpt><trkpt lat="42.9603332" lon="12.1809706"><ele>497.0</ele><time>2026-05-01T08:22:51.934Z</time></trkpt><trkpt lat="42.9603603" lon="12.1810526"><ele>497.0</ele><time>2026-05-01T08:22:54.94Z</time></trkpt><trkpt lat="42.9603906" lon="12.1811431"><ele>497.0</ele><time>2026-05-01T08:22:58.945Z</time></trkpt><trkpt lat="42.9604079" lon="12.1812295"><ele>497.0</ele><time>2026-05-01T08:23:01.951Z</time></trkpt><trkpt lat="42.960432" lon="12.1813142"><ele>497.0</ele><time>2026-05-01T08:23:04.96Z</time></trkpt><trkpt lat="42.9604641" lon="12.1814154"><ele>497.0</ele><time>2026-05-01T08:23:08.949Z</time></trkpt><trkpt lat="42.9604775" lon="12.1815189"><ele>498.66666666666663</ele><time>2026-05-01T08:23:12.938Z</time></trkpt><trkpt lat="42.96048" lon="12.1816181"><ele>500.3333333333333</ele><time>2026-05-01T08:23:16.939Z</time></trkpt><trkpt lat="42.960479" lon="12.1817047"><ele>502.0</ele><time>2026-05-01T08:23:20.95Z</time></trkpt><trkpt lat="42.9604602" lon="12.1817992"><ele>503.66666666666663</ele><time>2026-05-01T08:23:24.939Z</time></trkpt><trkpt lat="42.9604459" lon="12.181906"><ele>505.3333333333333</ele><time>2026-05-01T08:23:27.948Z</time></trkpt><trkpt lat="42.9604854" lon="12.1820254"><ele>507.0</ele><time>2026-05-01T08:23:30.938Z</time></trkpt><trkpt lat="42.9605458" lon="12.182073"><ele>507.0</ele><time>2026-05-01T08:23:31.95Z</time></trkpt><trkpt lat="42.9606315" lon="12.1821796"><ele>507.00000000000006</ele><time>2026-05-01T08:23:33.94Z</time></trkpt><trkpt lat="42.9606409" lon="12.1823115"><ele>507.00000000000006</ele><time>2026-05-01T08:23:35.951Z</time></trkpt><trkpt lat="42.9605959" lon="12.1824448"><ele>507.0</ele><time>2026-05-01T08:23:37.944Z</time></trkpt><trkpt lat="42.9605454" lon="12.1825809"><ele>507.0</ele><time>2026-05-01T08:23:39.951Z</time></trkpt><trkpt lat="42.9604408" lon="12.1826441"><ele>506.8</ele><time>2026-05-01T08:23:41.976Z</time></trkpt><trkpt lat="42.9603457" lon="12.1826915"><ele>506.6</ele><time>2026-05-01T08:23:43.937Z</time></trkpt><trkpt lat="42.960247" lon="12.1827408"><ele>506.40000000000003</ele><time>2026-05-01T08:23:45.95Z</time></trkpt><trkpt lat="42.9601399" lon="12.1828102"><ele>506.20000000000005</ele><time>2026-05-01T08:23:47.952Z</time></trkpt><trkpt lat="42.9600737" lon="12.1828523"><ele>506.0</ele><time>2026-05-01T08:23:48.941Z</time></trkpt><trkpt lat="42.9599956" lon="12.1829139"><ele>506.00000000000006</ele><time>2026-05-01T08:23:49.952Z</time></trkpt><trkpt lat="42.9599359" lon="12.1829598"><ele>506.0</ele><time>2026-05-01T08:23:50.953Z</time></trkpt><trkpt lat="42.9598718" lon="12.1830239"><ele>506.00000000000006</ele><time>2026-05-01T08:23:51.949Z</time></trkpt><trkpt lat="42.9598247" lon="12.1830956"><ele>506.00000000000006</ele><time>2026-05-01T08:23:52.946Z</time></trkpt><trkpt lat="42.9597767" lon="12.1831801"><ele>506.0</ele><time>2026-05-01T08:23:53.952Z</time></trkpt><trkpt lat="42.9597524" lon="12.1832656"><ele>506.00000000000006</ele><time>2026-05-01T08:23:54.941Z</time></trkpt><trkpt lat="42.9597052" lon="12.1833495"><ele>506.00000000000006</ele><time>2026-05-01T08:23:55.955Z</time></trkpt><trkpt lat="42.9596737" lon="12.1834285"><ele>503.6</ele><time>2026-05-01T08:23:56.953Z</time></trkpt><trkpt lat="42.95963" lon="12.1836093"><ele>501.20000000000005</ele><time>2026-05-01T08:23:58.97Z</time></trkpt><trkpt lat="42.9596132" lon="12.1836973"><ele>498.79999999999995</ele><time>2026-05-01T08:23:59.954Z</time></trkpt><trkpt lat="42.95954" lon="12.183839"><ele>496.4</ele><time>2026-05-01T08:24:01.954Z</time></trkpt><trkpt lat="42.9594799" lon="12.1838758"><ele>494.0</ele><time>2026-05-01T08:24:02.951Z</time></trkpt><trkpt lat="42.9593858" lon="12.1838767"><ele>494.0</ele><time>2026-05-01T08:24:04.953Z</time></trkpt><trkpt lat="42.9594218" lon="12.1839953"><ele>494.0</ele><time>2026-05-01T08:24:07.943Z</time></trkpt><trkpt lat="42.9594707" lon="12.1840919"><ele>494.0</ele><time>2026-05-01T08:24:09.949Z</time></trkpt><trkpt lat="42.9595168" lon="12.1842165"><ele>494.0</ele><time>2026-05-01T08:24:11.955Z</time></trkpt><trkpt lat="42.9595686" lon="12.1843147"><ele>494.0</ele><time>2026-05-01T08:24:13.946Z</time></trkpt><trkpt lat="42.959635" lon="12.1843856"><ele>493.66666666666663</ele><time>2026-05-01T08:24:15.94Z</time></trkpt><trkpt lat="42.9597142" lon="12.1844376"><ele>493.3333333333333</ele><time>2026-05-01T08:24:18.938Z</time></trkpt><trkpt lat="42.9597848" lon="12.1844942"><ele>493.0</ele><time>2026-05-01T08:24:21.957Z</time></trkpt><trkpt lat="42.9598507" lon="12.1845692"><ele>492.66666666666663</ele><time>2026-05-01T08:24:24.942Z</time></trkpt><trkpt lat="42.9599149" lon="12.1846303"><ele>492.3333333333333</ele><time>2026-05-01T08:24:27.938Z</time></trkpt><trkpt lat="42.9599739" lon="12.1846873"><ele>492.0</ele><time>2026-05-01T08:24:30.945Z</time></trkpt><trkpt lat="42.9600354" lon="12.1847458"><ele>492.3333333333333</ele><time>2026-05-01T08:24:33.949Z</time></trkpt><trkpt lat="42.9600895" lon="12.1848003"><ele>492.66666666666663</ele><time>2026-05-01T08:24:36.951Z</time></trkpt><trkpt lat="42.960144" lon="12.1848522"><ele>493.0</ele><time>2026-05-01T08:24:39.952Z</time></trkpt><trkpt lat="42.960223" lon="12.1848356"><ele>493.3333333333333</ele><time>2026-05-01T08:24:42.949Z</time></trkpt><trkpt lat="42.9602709" lon="12.1847794"><ele>493.66666666666663</ele><time>2026-05-01T08:24:44.955Z</time></trkpt><trkpt lat="42.9603478" lon="12.1847168"><ele>494.0</ele><time>2026-05-01T08:24:46.953Z</time></trkpt><trkpt lat="42.9604316" lon="12.1846862"><ele>491.16666666666663</ele><time>2026-05-01T08:24:48.953Z</time></trkpt><trkpt lat="42.9605256" lon="12.1846766"><ele>488.3333333333333</ele><time>2026-05-01T08:24:50.947Z</time></trkpt><trkpt lat="42.9606055" lon="12.184662"><ele>485.5</ele><time>2026-05-01T08:24:52.949Z</time></trkpt><trkpt lat="42.9606916" lon="12.1846653"><ele>482.66666666666663</ele><time>2026-05-01T08:24:54.955Z</time></trkpt><trkpt lat="42.9607568" lon="12.1846769"><ele>479.8333333333333</ele><time>2026-05-01T08:24:55.95Z</time></trkpt><trkpt lat="42.9608502" lon="12.1846795"><ele>477.0</ele><time>2026-05-01T08:24:57.956Z</time></trkpt><trkpt lat="42.9609399" lon="12.1847088"><ele>477.5</ele><time>2026-05-01T08:24:59.936Z</time></trkpt><trkpt lat="42.9610116" lon="12.1847449"><ele>478.0</ele><time>2026-05-01T08:25:00.938Z</time></trkpt><trkpt lat="42.9610982" lon="12.1848066"><ele>478.5</ele><time>2026-05-01T08:25:02.947Z</time></trkpt><trkpt lat="42.9611567" lon="12.1848464"><ele>479.0</ele><time>2026-05-01T08:25:03.948Z</time></trkpt><trkpt lat="42.9612196" lon="12.1848986"><ele>479.5</ele><time>2026-05-01T08:25:04.951Z</time></trkpt><trkpt lat="42.9612652" lon="12.1849585"><ele>480.0</ele><time>2026-05-01T08:25:05.97Z</time></trkpt><trkpt lat="42.9613137" lon="12.185093"><ele>480.0</ele><time>2026-05-01T08:25:07.96Z</time></trkpt><trkpt lat="42.9613655" lon="12.1851452"><ele>480.0</ele><time>2026-05-01T08:25:09.957Z</time></trkpt><trkpt lat="42.9614337" lon="12.185124"><ele>480.0</ele><time>2026-05-01T08:25:11.929Z</time></trkpt><trkpt lat="42.9615022" lon="12.1851086"><ele>480.0</ele><time>2026-05-01T08:25:13.949Z</time></trkpt><trkpt lat="42.9616086" lon="12.1851372"><ele>480.0</ele><time>2026-05-01T08:25:15.952Z</time></trkpt><trkpt lat="42.9617274" lon="12.185146"><ele>480.0</ele><time>2026-05-01T08:25:17.95Z</time></trkpt><trkpt lat="42.9618264" lon="12.1851689"><ele>477.0</ele><time>2026-05-01T08:25:19.951Z</time></trkpt><trkpt lat="42.9619382" lon="12.1852383"><ele>474.0</ele><time>2026-05-01T08:25:21.951Z</time></trkpt><trkpt lat="42.962033" lon="12.185299"><ele>471.0</ele><time>2026-05-01T08:25:23.953Z</time></trkpt><trkpt lat="42.9620948" lon="12.1853187"><ele>468.0</ele><time>2026-05-01T08:25:24.962Z</time></trkpt><trkpt lat="42.9621828" lon="12.1853442"><ele>465.0</ele><time>2026-05-01T08:25:26.943Z</time></trkpt><trkpt lat="42.9623058" lon="12.1853771"><ele>465.0</ele><time>2026-05-01T08:25:28.95Z</time></trkpt><trkpt lat="42.9623872" lon="12.1853593"><ele>465.0</ele><time>2026-05-01T08:25:30.951Z</time></trkpt><trkpt lat="42.9624902" lon="12.1853028"><ele>465.0</ele><time>2026-05-01T08:25:32.953Z</time></trkpt><trkpt lat="42.9625739" lon="12.1852684"><ele>465.0</ele><time>2026-05-01T08:25:34.954Z</time></trkpt><trkpt lat="42.9626828" lon="12.1852351"><ele>465.0</ele><time>2026-05-01T08:25:36.948Z</time></trkpt><trkpt lat="42.9628024" lon="12.1852143"><ele>462.8</ele><time>2026-05-01T08:25:38.953Z</time></trkpt><trkpt lat="42.9628745" lon="12.1852"><ele>460.6</ele><time>2026-05-01T08:25:39.935Z</time></trkpt><trkpt lat="42.9629374" lon="12.1851736"><ele>458.4</ele><time>2026-05-01T08:25:40.948Z</time></trkpt><trkpt lat="42.9630451" lon="12.1851341"><ele>456.2</ele><time>2026-05-01T08:25:42.95Z</time></trkpt><trkpt lat="42.9631586" lon="12.1851242"><ele>454.0</ele><time>2026-05-01T08:25:44.957Z</time></trkpt><trkpt lat="42.9632739" lon="12.1851057"><ele>449.0</ele><time>2026-05-01T08:25:46.949Z</time></trkpt><trkpt lat="42.9633818" lon="12.1851387"><ele>444.0</ele><time>2026-05-01T08:25:48.954Z</time></trkpt><trkpt lat="42.9634698" lon="12.1852113"><ele>439.0</ele><time>2026-05-01T08:25:50.947Z</time></trkpt><trkpt lat="42.9635469" lon="12.185335"><ele>434.0</ele><time>2026-05-01T08:25:52.954Z</time></trkpt><trkpt lat="42.9636029" lon="12.1854975"><ele>434.0</ele><time>2026-05-01T08:25:54.954Z</time></trkpt><trkpt lat="42.9636283" lon="12.1855885"><ele>434.0</ele><time>2026-05-01T08:25:55.95Z</time></trkpt><trkpt lat="42.9636537" lon="12.1857457"><ele>434.0</ele><time>2026-05-01T08:25:57.95Z</time></trkpt><trkpt lat="42.9636663" lon="12.1858902"><ele>434.0</ele><time>2026-05-01T08:25:59.959Z</time></trkpt><trkpt lat="42.9636683" lon="12.1860445"><ele>434.0</ele><time>2026-05-01T08:26:01.962Z</time></trkpt><trkpt lat="42.9636634" lon="12.1862051"><ele>433.99999999999994</ele><time>2026-05-01T08:26:03.98Z</time></trkpt><trkpt lat="42.9636778" lon="12.1863063"><ele>434.0</ele><time>2026-05-01T08:26:04.951Z</time></trkpt><trkpt lat="42.9637018" lon="12.1864428"><ele>434.0</ele><time>2026-05-01T08:26:06.946Z</time></trkpt><trkpt lat="42.9637353" lon="12.1865238"><ele>434.0</ele><time>2026-05-01T08:26:07.953Z</time></trkpt><trkpt lat="42.9637664" lon="12.186608"><ele>433.99999999999994</ele><time>2026-05-01T08:26:08.95Z</time></trkpt><trkpt lat="42.9637702" lon="12.186716"><ele>434.0</ele><time>2026-05-01T08:26:09.949Z</time></trkpt><trkpt lat="42.9637825" lon="12.1868123"><ele>433.2</ele><time>2026-05-01T08:26:10.962Z</time></trkpt><trkpt lat="42.9638405" lon="12.1869466"><ele>432.4</ele><time>2026-05-01T08:26:12.95Z</time></trkpt><trkpt lat="42.9639293" lon="12.1869882"><ele>431.6</ele><time>2026-05-01T08:26:14.934Z</time></trkpt><trkpt lat="42.9640066" lon="12.186963"><ele>430.8</ele><time>2026-05-01T08:26:16.941Z</time></trkpt><trkpt lat="42.9641008" lon="12.1869512"><ele>430.0</ele><time>2026-05-01T08:26:19.946Z</time></trkpt><trkpt lat="42.9641651" lon="12.1870478"><ele>426.1666666666667</ele><time>2026-05-01T08:26:21.944Z</time></trkpt><trkpt lat="42.9642265" lon="12.1871195"><ele>422.33333333333337</ele><time>2026-05-01T08:26:23.958Z</time></trkpt><trkpt lat="42.9643006" lon="12.1871068"><ele>418.5</ele><time>2026-05-01T08:26:25.949Z</time></trkpt><trkpt lat="42.9643418" lon="12.1870033"><ele>414.66666666666663</ele><time>2026-05-01T08:26:27.933Z</time></trkpt><trkpt lat="42.9643695" lon="12.1869161"><ele>410.8333333333333</ele><time>2026-05-01T08:26:29.95Z</time></trkpt><trkpt lat="42.9644943" lon="12.186975"><ele>407.0</ele><time>2026-05-01T08:26:34.94Z</time></trkpt><trkpt lat="42.9644869" lon="12.1871278"><ele>407.00000000000006</ele><time>2026-05-01T08:26:36.937Z</time></trkpt><trkpt lat="42.9644644" lon="12.1872173"><ele>407.0</ele><time>2026-05-01T08:26:37.938Z</time></trkpt><trkpt lat="42.9644408" lon="12.1873035"><ele>407.0</ele><time>2026-05-01T08:26:38.949Z</time></trkpt><trkpt lat="42.9643967" lon="12.1873857"><ele>407.0</ele><time>2026-05-01T08:26:39.969Z</time></trkpt><trkpt lat="42.9643392" lon="12.1874661"><ele>407.0</ele><time>2026-05-01T08:26:40.952Z</time></trkpt><trkpt lat="42.9642947" lon="12.1875537"><ele>407.00000000000006</ele><time>2026-05-01T08:26:41.949Z</time></trkpt><trkpt lat="42.9642571" lon="12.1876392"><ele>407.0</ele><time>2026-05-01T08:26:42.953Z</time></trkpt><trkpt lat="42.964221" lon="12.1877368"><ele>408.66666666666663</ele><time>2026-05-01T08:26:43.942Z</time></trkpt><trkpt lat="42.9641805" lon="12.187847"><ele>410.3333333333333</ele><time>2026-05-01T08:26:44.939Z</time></trkpt><trkpt lat="42.964163" lon="12.1879502"><ele>412.0</ele><time>2026-05-01T08:26:45.94Z</time></trkpt><trkpt lat="42.9641499" lon="12.1880539"><ele>413.66666666666663</ele><time>2026-05-01T08:26:46.949Z</time></trkpt><trkpt lat="42.9641231" lon="12.1881462"><ele>415.3333333333333</ele><time>2026-05-01T08:26:47.952Z</time></trkpt><trkpt lat="42.9640967" lon="12.1882437"><ele>417.0</ele><time>2026-05-01T08:26:48.956Z</time></trkpt><trkpt lat="42.9640762" lon="12.1883485"><ele>417.0</ele><time>2026-05-01T08:26:49.949Z</time></trkpt><trkpt lat="42.9640619" lon="12.1884345"><ele>417.0</ele><time>2026-05-01T08:26:50.955Z</time></trkpt><trkpt lat="42.9640158" lon="12.1885942"><ele>417.0</ele><time>2026-05-01T08:26:52.927Z</time></trkpt><trkpt lat="42.9639863" lon="12.1886896"><ele>417.0</ele><time>2026-05-01T08:26:53.951Z</time></trkpt><trkpt lat="42.9639483" lon="12.1887995"><ele>417.0</ele><time>2026-05-01T08:26:54.953Z</time></trkpt><trkpt lat="42.9639296" lon="12.1888837"><ele>417.0</ele><time>2026-05-01T08:26:55.951Z</time></trkpt><trkpt lat="42.9639086" lon="12.1890301"><ele>415.6666666666667</ele><time>2026-05-01T08:26:56.946Z</time></trkpt><trkpt lat="42.9638929" lon="12.1891426"><ele>414.33333333333337</ele><time>2026-05-01T08:26:57.96Z</time></trkpt><trkpt lat="42.9638855" lon="12.1892473"><ele>413.0</ele><time>2026-05-01T08:26:58.956Z</time></trkpt><trkpt lat="42.9639228" lon="12.1893314"><ele>411.6666666666667</ele><time>2026-05-01T08:26:59.95Z</time></trkpt><trkpt lat="42.9639666" lon="12.1894257"><ele>410.33333333333337</ele><time>2026-05-01T08:27:00.934Z</time></trkpt><trkpt lat="42.9640121" lon="12.189527"><ele>409.0</ele><time>2026-05-01T08:27:01.935Z</time></trkpt><trkpt lat="42.9640606" lon="12.1896169"><ele>409.00000000000006</ele><time>2026-05-01T08:27:02.95Z</time></trkpt><trkpt lat="42.9641344" lon="12.1897586"><ele>409.0</ele><time>2026-05-01T08:27:04.937Z</time></trkpt><trkpt lat="42.9641661" lon="12.1898603"><ele>409.0</ele><time>2026-05-01T08:27:05.939Z</time></trkpt><trkpt lat="42.964204" lon="12.1899582"><ele>409.0</ele><time>2026-05-01T08:27:06.934Z</time></trkpt><trkpt lat="42.9642504" lon="12.1900458"><ele>409.00000000000006</ele><time>2026-05-01T08:27:07.938Z</time></trkpt><trkpt lat="42.9642888" lon="12.1901341"><ele>409.0</ele><time>2026-05-01T08:27:08.933Z</time></trkpt><trkpt lat="42.964325" lon="12.1902118"><ele>406.83333333333337</ele><time>2026-05-01T08:27:09.934Z</time></trkpt><trkpt lat="42.9643583" lon="12.1902851"><ele>404.6666666666667</ele><time>2026-05-01T08:27:10.934Z</time></trkpt><trkpt lat="42.9643916" lon="12.1903726"><ele>402.5</ele><time>2026-05-01T08:27:11.937Z</time></trkpt><trkpt lat="42.9644214" lon="12.1904524"><ele>400.33333333333337</ele><time>2026-05-01T08:27:12.939Z</time></trkpt><trkpt lat="42.9644391" lon="12.1906336"><ele>398.1666666666667</ele><time>2026-05-01T08:27:14.943Z</time></trkpt><trkpt lat="42.9644357" lon="12.1907255"><ele>396.0</ele><time>2026-05-01T08:27:15.949Z</time></trkpt><trkpt lat="42.9644278" lon="12.1908366"><ele>396.0</ele><time>2026-05-01T08:27:17Z</time></trkpt><trkpt lat="42.964433" lon="12.1909239"><ele>396.0</ele><time>2026-05-01T08:27:17.953Z</time></trkpt><trkpt lat="42.9644329" lon="12.1910631"><ele>396.0</ele><time>2026-05-01T08:27:19.959Z</time></trkpt><trkpt lat="42.9644349" lon="12.1911857"><ele>396.0</ele><time>2026-05-01T08:28:16.957Z</time></trkpt><trkpt lat="42.9644347" lon="12.1912923"><ele>396.0</ele><time>2026-05-01T08:28:20Z</time></trkpt><trkpt lat="42.9644501" lon="12.1914011"><ele>396.0</ele><time>2026-05-01T08:28:23.951Z</time></trkpt><trkpt lat="42.9644707" lon="12.1914885"><ele>396.1666666666667</ele><time>2026-05-01T08:28:26.959Z</time></trkpt><trkpt lat="42.9645323" lon="12.191589"><ele>396.33333333333337</ele><time>2026-05-01T08:28:29.949Z</time></trkpt><trkpt lat="42.9645537" lon="12.1916784"><ele>396.5</ele><time>2026-05-01T08:28:31.949Z</time></trkpt><trkpt lat="42.9645875" lon="12.1917851"><ele>396.6666666666667</ele><time>2026-05-01T08:28:33.947Z</time></trkpt><trkpt lat="42.9646159" lon="12.1918916"><ele>396.83333333333337</ele><time>2026-05-01T08:28:35.949Z</time></trkpt><trkpt lat="42.9646237" lon="12.1920003"><ele>397.0</ele><time>2026-05-01T08:28:38Z</time></trkpt><trkpt lat="42.9645975" lon="12.1921029"><ele>397.0</ele><time>2026-05-01T08:28:39.941Z</time></trkpt><trkpt lat="42.9645697" lon="12.1921858"><ele>397.0</ele><time>2026-05-01T08:28:41.958Z</time></trkpt><trkpt lat="42.9645403" lon="12.1922994"><ele>397.0</ele><time>2026-05-01T08:28:44.953Z</time></trkpt><trkpt lat="42.9645258" lon="12.1923895"><ele>397.0</ele><time>2026-05-01T08:28:46.949Z</time></trkpt><trkpt lat="42.9644969" lon="12.1924793"><ele>397.0</ele><time>2026-05-01T08:28:48.949Z</time></trkpt><trkpt lat="42.9644693" lon="12.1925698"><ele>397.0</ele><time>2026-05-01T08:28:50.949Z</time></trkpt><trkpt lat="42.9644545" lon="12.1926689"><ele>397.0</ele><time>2026-05-01T08:28:52.951Z</time></trkpt><trkpt lat="42.9644401" lon="12.1927714"><ele>397.6666666666667</ele><time>2026-05-01T08:28:54.948Z</time></trkpt><trkpt lat="42.9644011" lon="12.19286"><ele>398.33333333333337</ele><time>2026-05-01T08:28:56.953Z</time></trkpt><trkpt lat="42.964355" lon="12.1929244"><ele>399.0</ele><time>2026-05-01T08:28:58.952Z</time></trkpt><trkpt lat="42.9643139" lon="12.1930129"><ele>399.66666666666663</ele><time>2026-05-01T08:29:00.952Z</time></trkpt><trkpt lat="42.9642518" lon="12.1931034"><ele>400.3333333333333</ele><time>2026-05-01T08:29:02.945Z</time></trkpt><trkpt lat="42.9641689" lon="12.1931595"><ele>401.0</ele><time>2026-05-01T08:29:04.95Z</time></trkpt><trkpt lat="42.9640867" lon="12.1932043"><ele>400.99999999999994</ele><time>2026-05-01T08:29:06.952Z</time></trkpt><trkpt lat="42.9640098" lon="12.1932206"><ele>401.0</ele><time>2026-05-01T08:29:08.955Z</time></trkpt><trkpt lat="42.9639172" lon="12.1932234"><ele>401.0</ele><time>2026-05-01T08:29:10.951Z</time></trkpt><trkpt lat="42.9638236" lon="12.1932381"><ele>401.0</ele><time>2026-05-01T08:29:13.953Z</time></trkpt><trkpt lat="42.9637559" lon="12.193262"><ele>400.99999999999994</ele><time>2026-05-01T08:29:16Z</time></trkpt><trkpt lat="42.963678" lon="12.1932986"><ele>401.0</ele><time>2026-05-01T08:29:17.95Z</time></trkpt><trkpt lat="42.9635908" lon="12.1933387"><ele>400.99999999999994</ele><time>2026-05-01T08:29:19.95Z</time></trkpt><trkpt lat="42.9634822" lon="12.1933839"><ele>401.0</ele><time>2026-05-01T08:29:21.949Z</time></trkpt><trkpt lat="42.9633578" lon="12.1934268"><ele>401.0</ele><time>2026-05-01T08:29:23.95Z</time></trkpt><trkpt lat="42.9632978" lon="12.1934534"><ele>401.0</ele><time>2026-05-01T08:29:24.946Z</time></trkpt><trkpt lat="42.963239" lon="12.1934883"><ele>400.99999999999994</ele><time>2026-05-01T08:29:25.956Z</time></trkpt><trkpt lat="42.9631802" lon="12.193527"><ele>401.0</ele><time>2026-05-01T08:29:26.948Z</time></trkpt><trkpt lat="42.9630508" lon="12.1935961"><ele>402.3333333333333</ele><time>2026-05-01T08:29:28.949Z</time></trkpt><trkpt lat="42.9629878" lon="12.1936242"><ele>403.66666666666663</ele><time>2026-05-01T08:29:29.959Z</time></trkpt><trkpt lat="42.9629272" lon="12.1936501"><ele>405.0</ele><time>2026-05-01T08:29:30.94Z</time></trkpt><trkpt lat="42.9628225" lon="12.1936912"><ele>406.33333333333337</ele><time>2026-05-01T08:29:33Z</time></trkpt><trkpt lat="42.962753" lon="12.1937611"><ele>407.6666666666667</ele><time>2026-05-01T08:29:34.954Z</time></trkpt><trkpt lat="42.9627742" lon="12.193888"><ele>409.0</ele><time>2026-05-01T08:29:37.949Z</time></trkpt><trkpt lat="42.9627863" lon="12.1939991"><ele>406.50000000000006</ele><time>2026-05-01T08:29:40.953Z</time></trkpt><trkpt lat="42.9627915" lon="12.1941086"><ele>404.0</ele><time>2026-05-01T08:29:43.951Z</time></trkpt><trkpt lat="42.9628016" lon="12.1942227"><ele>401.5</ele><time>2026-05-01T08:29:46.953Z</time></trkpt><trkpt lat="42.9628119" lon="12.1943462"><ele>399.0</ele><time>2026-05-01T08:29:49.953Z</time></trkpt><trkpt lat="42.9628259" lon="12.1944644"><ele>396.50000000000006</ele><time>2026-05-01T08:29:52.951Z</time></trkpt><trkpt lat="42.9627857" lon="12.1945706"><ele>394.0</ele><time>2026-05-01T08:29:55.943Z</time></trkpt><trkpt lat="42.9627321" lon="12.1946689"><ele>394.00000000000006</ele><time>2026-05-01T08:29:58.954Z</time></trkpt><trkpt lat="42.9626853" lon="12.1947365"><ele>394.0</ele><time>2026-05-01T08:30:00.95Z</time></trkpt><trkpt lat="42.9626398" lon="12.1948318"><ele>394.0</ele><time>2026-05-01T08:30:03.953Z</time></trkpt><trkpt lat="42.9626328" lon="12.1949358"><ele>394.0</ele><time>2026-05-01T08:30:06.943Z</time></trkpt><trkpt lat="42.9626223" lon="12.195063"><ele>394.00000000000006</ele><time>2026-05-01T08:30:09.951Z</time></trkpt><trkpt lat="42.9626169" lon="12.1951565"><ele>394.0</ele><time>2026-05-01T08:30:11.949Z</time></trkpt><trkpt lat="42.9626185" lon="12.1952447"><ele>393.57142857142856</ele><time>2026-05-01T08:30:13.96Z</time></trkpt><trkpt lat="42.962627" lon="12.1953653"><ele>393.14285714285717</ele><time>2026-05-01T08:30:16.953Z</time></trkpt><trkpt lat="42.9626448" lon="12.1954557"><ele>392.71428571428567</ele><time>2026-05-01T08:30:19.931Z</time></trkpt><trkpt lat="42.9626164" lon="12.1955429"><ele>392.2857142857143</ele><time>2026-05-01T08:30:23.942Z</time></trkpt><trkpt lat="42.9626228" lon="12.1956415"><ele>391.85714285714283</ele><time>2026-05-01T08:30:26.936Z</time></trkpt><trkpt lat="42.9626197" lon="12.1957379"><ele>391.4285714285714</ele><time>2026-05-01T08:30:28.953Z</time></trkpt><trkpt lat="42.9626107" lon="12.1958239"><ele>391.0</ele><time>2026-05-01T08:30:30.951Z</time></trkpt><trkpt lat="42.9625961" lon="12.1959353"><ele>391.85714285714283</ele><time>2026-05-01T08:30:33.95Z</time></trkpt><trkpt lat="42.9626246" lon="12.1960454"><ele>392.7142857142857</ele><time>2026-05-01T08:30:36.953Z</time></trkpt><trkpt lat="42.9626716" lon="12.1961484"><ele>393.57142857142856</ele><time>2026-05-01T08:30:39.951Z</time></trkpt><trkpt lat="42.9627072" lon="12.1962212"><ele>394.42857142857144</ele><time>2026-05-01T08:30:41.951Z</time></trkpt><trkpt lat="42.9627356" lon="12.1963086"><ele>395.2857142857143</ele><time>2026-05-01T08:30:43.95Z</time></trkpt><trkpt lat="42.9627471" lon="12.1964075"><ele>396.1428571428571</ele><time>2026-05-01T08:30:45.95Z</time></trkpt><trkpt lat="42.9627607" lon="12.1964975"><ele>397.0</ele><time>2026-05-01T08:30:47.951Z</time></trkpt><trkpt lat="42.9627792" lon="12.1965856"><ele>398.1666666666667</ele><time>2026-05-01T08:30:49.952Z</time></trkpt><trkpt lat="42.9627896" lon="12.1967089"><ele>399.33333333333337</ele><time>2026-05-01T08:30:52.951Z</time></trkpt><trkpt lat="42.9627785" lon="12.1968306"><ele>400.5</ele><time>2026-05-01T08:30:55.938Z</time></trkpt><trkpt lat="42.9627493" lon="12.1969193"><ele>401.66666666666663</ele><time>2026-05-01T08:30:58.952Z</time></trkpt><trkpt lat="42.9627004" lon="12.1969937"><ele>402.8333333333333</ele><time>2026-05-01T08:31:01.94Z</time></trkpt><trkpt lat="42.9626147" lon="12.1970134"><ele>404.0</ele><time>2026-05-01T08:31:04.938Z</time></trkpt><trkpt lat="42.9625327" lon="12.1970141"><ele>404.8333333333333</ele><time>2026-05-01T08:31:07.947Z</time></trkpt><trkpt lat="42.9624469" lon="12.1970288"><ele>405.66666666666663</ele><time>2026-05-01T08:31:10.945Z</time></trkpt><trkpt lat="42.9623575" lon="12.197066"><ele>406.5</ele><time>2026-05-01T08:31:13.94Z</time></trkpt><trkpt lat="42.9622866" lon="12.1971396"><ele>407.33333333333337</ele><time>2026-05-01T08:31:16.935Z</time></trkpt><trkpt lat="42.9622179" lon="12.1972034"><ele>408.1666666666667</ele><time>2026-05-01T08:31:19.942Z</time></trkpt><trkpt lat="42.9621685" lon="12.1972902"><ele>409.0</ele><time>2026-05-01T08:31:23.941Z</time></trkpt><trkpt lat="42.9621322" lon="12.1973698"><ele>409.00000000000006</ele><time>2026-05-01T08:31:27.951Z</time></trkpt><trkpt lat="42.9621228" lon="12.1974756"><ele>409.0</ele><time>2026-05-01T08:31:41.95Z</time></trkpt><trkpt lat="42.9620932" lon="12.1975517"><ele>409.0</ele><time>2026-05-01T08:31:43.933Z</time></trkpt><trkpt lat="42.9620605" lon="12.197633"><ele>409.0</ele><time>2026-05-01T08:31:45.944Z</time></trkpt><trkpt lat="42.9620223" lon="12.1977219"><ele>409.00000000000006</ele><time>2026-05-01T08:31:47.953Z</time></trkpt><trkpt lat="42.9619833" lon="12.1978134"><ele>409.0</ele><time>2026-05-01T08:31:49.956Z</time></trkpt><trkpt lat="42.9619504" lon="12.1979325"><ele>409.0</ele><time>2026-05-01T08:31:51.95Z</time></trkpt><trkpt lat="42.9619177" lon="12.1980398"><ele>409.0</ele><time>2026-05-01T08:31:53.944Z</time></trkpt><trkpt lat="42.961893" lon="12.1981288"><ele>409.0</ele><time>2026-05-01T08:31:55.923Z</time></trkpt><trkpt lat="42.9618802" lon="12.1982224"><ele>409.0</ele><time>2026-05-01T08:31:57.934Z</time></trkpt><trkpt lat="42.9618704" lon="12.1983092"><ele>409.0</ele><time>2026-05-01T08:31:59.935Z</time></trkpt><trkpt lat="42.9618322" lon="12.1983857"><ele>409.0</ele><time>2026-05-01T08:32:01.936Z</time></trkpt><trkpt lat="42.9617908" lon="12.1984596"><ele>409.0</ele><time>2026-05-01T08:32:03.941Z</time></trkpt><trkpt lat="42.9617389" lon="12.19856"><ele>410.33333333333337</ele><time>2026-05-01T08:32:06.935Z</time></trkpt><trkpt lat="42.9616898" lon="12.1986685"><ele>411.6666666666667</ele><time>2026-05-01T08:32:09.939Z</time></trkpt><trkpt lat="42.9616624" lon="12.1987478"><ele>413.0</ele><time>2026-05-01T08:32:11.936Z</time></trkpt><trkpt lat="42.9616311" lon="12.1988644"><ele>414.33333333333337</ele><time>2026-05-01T08:32:14.944Z</time></trkpt><trkpt lat="42.9616094" lon="12.1989806"><ele>415.6666666666667</ele><time>2026-05-01T08:32:17.938Z</time></trkpt><trkpt lat="42.9615704" lon="12.199071"><ele>417.0</ele><time>2026-05-01T08:32:20.941Z</time></trkpt><trkpt lat="42.9615341" lon="12.1991655"><ele>417.0</ele><time>2026-05-01T08:32:23.945Z</time></trkpt><trkpt lat="42.9615007" lon="12.1992679"><ele>417.0</ele><time>2026-05-01T08:32:26.954Z</time></trkpt><trkpt lat="42.9614605" lon="12.1993611"><ele>417.0</ele><time>2026-05-01T08:32:29.953Z</time></trkpt><trkpt lat="42.9613985" lon="12.1994239"><ele>417.0</ele><time>2026-05-01T08:32:32.951Z</time></trkpt><trkpt lat="42.9613156" lon="12.1994616"><ele>417.0</ele><time>2026-05-01T08:32:36Z</time></trkpt><trkpt lat="42.9612507" lon="12.1994736"><ele>417.0</ele><time>2026-05-01T08:32:37.942Z</time></trkpt><trkpt lat="42.9611808" lon="12.1994792"><ele>417.0</ele><time>2026-05-01T08:32:39.938Z</time></trkpt><trkpt lat="42.9611009" lon="12.1994758"><ele>417.0</ele><time>2026-05-01T08:32:41.935Z</time></trkpt><trkpt lat="42.9610027" lon="12.1994466"><ele>417.0</ele><time>2026-05-01T08:32:43.955Z</time></trkpt><trkpt lat="42.960879" lon="12.1993784"><ele>417.0</ele><time>2026-05-01T08:32:45.941Z</time></trkpt><trkpt lat="42.9608106" lon="12.1993451"><ele>417.0</ele><time>2026-05-01T08:32:46.952Z</time></trkpt><trkpt lat="42.9607417" lon="12.1993071"><ele>418.3333333333333</ele><time>2026-05-01T08:32:47.948Z</time></trkpt><trkpt lat="42.9606582" lon="12.1992827"><ele>419.66666666666663</ele><time>2026-05-01T08:32:48.945Z</time></trkpt><trkpt lat="42.9605809" lon="12.1992943"><ele>421.0</ele><time>2026-05-01T08:32:49.949Z</time></trkpt><trkpt lat="42.960505" lon="12.1993058"><ele>422.3333333333333</ele><time>2026-05-01T08:32:50.948Z</time></trkpt><trkpt lat="42.9604096" lon="12.199335"><ele>423.66666666666663</ele><time>2026-05-01T08:32:52.954Z</time></trkpt><trkpt lat="42.9603298" lon="12.1993786"><ele>425.0</ele><time>2026-05-01T08:32:54.951Z</time></trkpt><trkpt lat="42.9602662" lon="12.1994162"><ele>424.99999999999994</ele><time>2026-05-01T08:32:56.945Z</time></trkpt><trkpt lat="42.960193" lon="12.1994874"><ele>425.0</ele><time>2026-05-01T08:32:58.97Z</time></trkpt><trkpt lat="42.9601235" lon="12.1995408"><ele>425.0</ele><time>2026-05-01T08:33:00.951Z</time></trkpt><trkpt lat="42.9600415" lon="12.1995867"><ele>425.0</ele><time>2026-05-01T08:33:02.954Z</time></trkpt><trkpt lat="42.9599614" lon="12.1996161"><ele>424.99999999999994</ele><time>2026-05-01T08:33:04.951Z</time></trkpt><trkpt lat="42.9598621" lon="12.1996639"><ele>425.0</ele><time>2026-05-01T08:33:06.951Z</time></trkpt><trkpt lat="42.9597848" lon="12.1997045"><ele>426.16666666666663</ele><time>2026-05-01T08:33:08.95Z</time></trkpt><trkpt lat="42.9597279" lon="12.1997821"><ele>427.3333333333333</ele><time>2026-05-01T08:33:10.948Z</time></trkpt><trkpt lat="42.9596836" lon="12.1998565"><ele>428.5</ele><time>2026-05-01T08:33:12.935Z</time></trkpt><trkpt lat="42.9596463" lon="12.1999388"><ele>429.66666666666663</ele><time>2026-05-01T08:33:14.95Z</time></trkpt><trkpt lat="42.9595951" lon="12.2000163"><ele>430.8333333333333</ele><time>2026-05-01T08:33:16.953Z</time></trkpt><trkpt lat="42.9595385" lon="12.2000809"><ele>432.0</ele><time>2026-05-01T08:33:18.952Z</time></trkpt><trkpt lat="42.9594633" lon="12.2001448"><ele>432.3333333333333</ele><time>2026-05-01T08:33:20.948Z</time></trkpt><trkpt lat="42.9593853" lon="12.2001959"><ele>432.66666666666663</ele><time>2026-05-01T08:33:22.954Z</time></trkpt><trkpt lat="42.9593133" lon="12.200232"><ele>433.0</ele><time>2026-05-01T08:33:24.952Z</time></trkpt><trkpt lat="42.9592471" lon="12.200265"><ele>433.3333333333333</ele><time>2026-05-01T08:33:26.952Z</time></trkpt><trkpt lat="42.9591854" lon="12.200311"><ele>433.66666666666663</ele><time>2026-05-01T08:33:29.95Z</time></trkpt><trkpt lat="42.9591221" lon="12.2003725"><ele>434.0</ele><time>2026-05-01T08:33:32.952Z</time></trkpt><trkpt lat="42.9590624" lon="12.2004475"><ele>433.99999999999994</ele><time>2026-05-01T08:33:35.95Z</time></trkpt><trkpt lat="42.9589935" lon="12.2005074"><ele>434.0</ele><time>2026-05-01T08:33:38.953Z</time></trkpt><trkpt lat="42.9589295" lon="12.2005869"><ele>434.0</ele><time>2026-05-01T08:33:42Z</time></trkpt><trkpt lat="42.958873" lon="12.2006808"><ele>434.0</ele><time>2026-05-01T08:33:44.951Z</time></trkpt><trkpt lat="42.9588184" lon="12.2007761"><ele>433.99999999999994</ele><time>2026-05-01T08:33:47.952Z</time></trkpt><trkpt lat="42.9587668" lon="12.2008706"><ele>434.0</ele><time>2026-05-01T08:33:50.951Z</time></trkpt><trkpt lat="42.9587228" lon="12.2009667"><ele>433.14285714285717</ele><time>2026-05-01T08:33:53.953Z</time></trkpt><trkpt lat="42.9586851" lon="12.2010541"><ele>432.2857142857143</ele><time>2026-05-01T08:33:56.949Z</time></trkpt><trkpt lat="42.9586539" lon="12.2011403"><ele>431.42857142857144</ele><time>2026-05-01T08:33:59.951Z</time></trkpt><trkpt lat="42.9586248" lon="12.2012287"><ele>430.57142857142856</ele><time>2026-05-01T08:34:02.951Z</time></trkpt><trkpt lat="42.9585757" lon="12.2013036"><ele>429.7142857142857</ele><time>2026-05-01T08:34:05.951Z</time></trkpt><trkpt lat="42.9585206" lon="12.2013648"><ele>428.8571428571429</ele><time>2026-05-01T08:34:08.949Z</time></trkpt><trkpt lat="42.9584521" lon="12.2013853"><ele>428.0</ele><time>2026-05-01T08:34:11.952Z</time></trkpt><trkpt lat="42.9583801" lon="12.2014078"><ele>429.8571428571429</ele><time>2026-05-01T08:34:14.95Z</time></trkpt><trkpt lat="42.9583015" lon="12.2014539"><ele>431.7142857142857</ele><time>2026-05-01T08:34:18.954Z</time></trkpt><trkpt lat="42.9582469" lon="12.2015113"><ele>433.57142857142856</ele><time>2026-05-01T08:34:21.939Z</time></trkpt><trkpt lat="42.9581973" lon="12.2015744"><ele>435.42857142857144</ele><time>2026-05-01T08:34:27.935Z</time></trkpt><trkpt lat="42.9581507" lon="12.2016367"><ele>437.2857142857143</ele><time>2026-05-01T08:34:30.952Z</time></trkpt><trkpt lat="42.9580752" lon="12.2016864"><ele>439.14285714285717</ele><time>2026-05-01T08:34:33.953Z</time></trkpt><trkpt lat="42.9580087" lon="12.2017354"><ele>441.0</ele><time>2026-05-01T08:34:36.95Z</time></trkpt><trkpt lat="42.9579369" lon="12.2017823"><ele>441.0</ele><time>2026-05-01T08:34:39.953Z</time></trkpt><trkpt lat="42.9578591" lon="12.201825"><ele>441.0</ele><time>2026-05-01T08:34:42.95Z</time></trkpt><trkpt lat="42.9577865" lon="12.201861"><ele>441.0</ele><time>2026-05-01T08:34:45.953Z</time></trkpt><trkpt lat="42.9577011" lon="12.2018909"><ele>441.0</ele><time>2026-05-01T08:34:48.953Z</time></trkpt><trkpt lat="42.957622" lon="12.2019054"><ele>441.0</ele><time>2026-05-01T08:34:51.951Z</time></trkpt><trkpt lat="42.957542" lon="12.2019201"><ele>441.0</ele><time>2026-05-01T08:34:54.932Z</time></trkpt><trkpt lat="42.9574645" lon="12.2019232"><ele>443.5</ele><time>2026-05-01T08:34:58.955Z</time></trkpt><trkpt lat="42.9573959" lon="12.2019295"><ele>446.0</ele><time>2026-05-01T08:35:01.955Z</time></trkpt><trkpt lat="42.9573239" lon="12.201921"><ele>448.5</ele><time>2026-05-01T08:35:05.95Z</time></trkpt><trkpt lat="42.9572525" lon="12.2019269"><ele>451.0</ele><time>2026-05-01T08:35:08.936Z</time></trkpt><trkpt lat="42.9571651" lon="12.2019211"><ele>453.5</ele><time>2026-05-01T08:35:11.951Z</time></trkpt><trkpt lat="42.95706" lon="12.2019131"><ele>456.0</ele><time>2026-05-01T08:35:13.951Z</time></trkpt><trkpt lat="42.9569388" lon="12.2018864"><ele>456.0</ele><time>2026-05-01T08:35:15.953Z</time></trkpt><trkpt lat="42.9567855" lon="12.2018294"><ele>456.0</ele><time>2026-05-01T08:35:17.94Z</time></trkpt><trkpt lat="42.9567074" lon="12.2018075"><ele>456.0</ele><time>2026-05-01T08:35:18.95Z</time></trkpt><trkpt lat="42.9565905" lon="12.2017709"><ele>456.0</ele><time>2026-05-01T08:35:20.951Z</time></trkpt><trkpt lat="42.9564868" lon="12.201736"><ele>456.8</ele><time>2026-05-01T08:35:22.936Z</time></trkpt><trkpt lat="42.9563938" lon="12.2016882"><ele>457.6</ele><time>2026-05-01T08:35:24.93Z</time></trkpt><trkpt lat="42.9563317" lon="12.2016682"><ele>458.4</ele><time>2026-05-01T08:35:26Z</time></trkpt><trkpt lat="42.9562337" lon="12.2016507"><ele>459.2</ele><time>2026-05-01T08:35:27.951Z</time></trkpt><trkpt lat="42.9561429" lon="12.2016527"><ele>460.0</ele><time>2026-05-01T08:35:29.951Z</time></trkpt><trkpt lat="42.9560462" lon="12.2016797"><ele>460.0</ele><time>2026-05-01T08:35:31.941Z</time></trkpt><trkpt lat="42.9559431" lon="12.2016875"><ele>460.0</ele><time>2026-05-01T08:35:33.951Z</time></trkpt><trkpt lat="42.9558586" lon="12.2017005"><ele>460.0</ele><time>2026-05-01T08:35:35.949Z</time></trkpt><trkpt lat="42.9557674" lon="12.2016888"><ele>460.0</ele><time>2026-05-01T08:35:37.931Z</time></trkpt><trkpt lat="42.9556728" lon="12.2016562"><ele>460.0</ele><time>2026-05-01T08:35:39.936Z</time></trkpt><trkpt lat="42.9555613" lon="12.2016105"><ele>458.50000000000006</ele><time>2026-05-01T08:35:41.935Z</time></trkpt><trkpt lat="42.9554294" lon="12.2015436"><ele>457.0</ele><time>2026-05-01T08:35:43.933Z</time></trkpt><trkpt lat="42.955363" lon="12.2015163"><ele>455.5</ele><time>2026-05-01T08:35:44.95Z</time></trkpt><trkpt lat="42.9552947" lon="12.2014753"><ele>454.0</ele><time>2026-05-01T08:35:45.951Z</time></trkpt><trkpt lat="42.9552435" lon="12.2014187"><ele>452.50000000000006</ele><time>2026-05-01T08:35:46.951Z</time></trkpt><trkpt lat="42.9551935" lon="12.2013541"><ele>451.0</ele><time>2026-05-01T08:35:47.936Z</time></trkpt><trkpt lat="42.9550814" lon="12.2013134"><ele>452.33333333333337</ele><time>2026-05-01T08:35:49.945Z</time></trkpt><trkpt lat="42.9549957" lon="12.2013842"><ele>453.6666666666667</ele><time>2026-05-01T08:35:51.945Z</time></trkpt><trkpt lat="42.9549082" lon="12.201424"><ele>455.0</ele><time>2026-05-01T08:35:53.948Z</time></trkpt><trkpt lat="42.9548232" lon="12.2014072"><ele>456.33333333333337</ele><time>2026-05-01T08:35:55.942Z</time></trkpt><trkpt lat="42.954767" lon="12.2013664"><ele>457.6666666666667</ele><time>2026-05-01T08:35:56.939Z</time></trkpt><trkpt lat="42.9547" lon="12.2012847"><ele>459.0</ele><time>2026-05-01T08:35:58.931Z</time></trkpt><trkpt lat="42.9546697" lon="12.2011505"><ele>459.0</ele><time>2026-05-01T08:36:00.935Z</time></trkpt><trkpt lat="42.9545929" lon="12.2010549"><ele>459.0</ele><time>2026-05-01T08:36:02.938Z</time></trkpt><trkpt lat="42.9545129" lon="12.2010511"><ele>459.0</ele><time>2026-05-01T08:36:04.94Z</time></trkpt><trkpt lat="42.9544432" lon="12.201135"><ele>459.0</ele><time>2026-05-01T08:36:07.952Z</time></trkpt><trkpt lat="42.95444" lon="12.2012592"><ele>459.0</ele><time>2026-05-01T08:36:10.951Z</time></trkpt><trkpt lat="42.9544582" lon="12.2013802"><ele>456.3333333333333</ele><time>2026-05-01T08:36:13.948Z</time></trkpt><trkpt lat="42.9544848" lon="12.2015023"><ele>453.66666666666663</ele><time>2026-05-01T08:36:16.943Z</time></trkpt><trkpt lat="42.9545159" lon="12.2016138"><ele>451.0</ele><time>2026-05-01T08:36:20.936Z</time></trkpt><trkpt lat="42.9545342" lon="12.2016991"><ele>448.3333333333333</ele><time>2026-05-01T08:36:22.938Z</time></trkpt><trkpt lat="42.9545774" lon="12.2017833"><ele>445.66666666666663</ele><time>2026-05-01T08:36:24.943Z</time></trkpt><trkpt lat="42.9546051" lon="12.2018733"><ele>443.0</ele><time>2026-05-01T08:36:26.939Z</time></trkpt><trkpt lat="42.9546333" lon="12.2019574"><ele>442.99999999999994</ele><time>2026-05-01T08:36:28.952Z</time></trkpt><trkpt lat="42.9546674" lon="12.2020733"><ele>443.0</ele><time>2026-05-01T08:36:31.961Z</time></trkpt><trkpt lat="42.9546729" lon="12.202193"><ele>443.0</ele><time>2026-05-01T08:36:34.951Z</time></trkpt><trkpt lat="42.954688" lon="12.2022777"><ele>443.0</ele><time>2026-05-01T08:36:36.95Z</time></trkpt><trkpt lat="42.954699" lon="12.2023921"><ele>442.99999999999994</ele><time>2026-05-01T08:36:39.956Z</time></trkpt><trkpt lat="42.954698" lon="12.2024855"><ele>443.0</ele><time>2026-05-01T08:36:42.952Z</time></trkpt><trkpt lat="42.954693" lon="12.2025926"><ele>442.57142857142856</ele><time>2026-05-01T08:36:46.954Z</time></trkpt><trkpt lat="42.954683" lon="12.2026872"><ele>442.14285714285717</ele><time>2026-05-01T08:36:49.95Z</time></trkpt><trkpt lat="42.9546583" lon="12.2027819"><ele>441.71428571428567</ele><time>2026-05-01T08:36:52.958Z</time></trkpt><trkpt lat="42.9545872" lon="12.2028291"><ele>441.2857142857143</ele><time>2026-05-01T08:36:56.951Z</time></trkpt><trkpt lat="42.9545193" lon="12.2028586"><ele>440.85714285714283</ele><time>2026-05-01T08:36:59.95Z</time></trkpt><trkpt lat="42.9544483" lon="12.202883"><ele>440.4285714285714</ele><time>2026-05-01T08:37:02.958Z</time></trkpt><trkpt lat="42.9543765" lon="12.2028819"><ele>440.0</ele><time>2026-05-01T08:37:06Z</time></trkpt><trkpt lat="42.9543024" lon="12.2028449"><ele>439.99999999999994</ele><time>2026-05-01T08:37:08.951Z</time></trkpt><trkpt lat="42.954254" lon="12.202787"><ele>440.0</ele><time>2026-05-01T08:37:12.957Z</time></trkpt><trkpt lat="42.9542012" lon="12.2027111"><ele>440.0</ele><time>2026-05-01T08:37:15.939Z</time></trkpt><trkpt lat="42.9541313" lon="12.2026259"><ele>440.0</ele><time>2026-05-01T08:37:18.95Z</time></trkpt><trkpt lat="42.9540582" lon="12.2025532"><ele>439.99999999999994</ele><time>2026-05-01T08:37:21.937Z</time></trkpt><trkpt lat="42.9539927" lon="12.2024863"><ele>440.0</ele><time>2026-05-01T08:37:24.951Z</time></trkpt><trkpt lat="42.9539306" lon="12.2024344"><ele>442.1428571428571</ele><time>2026-05-01T08:37:27.942Z</time></trkpt><trkpt lat="42.9539108" lon="12.2023485"><ele>444.2857142857143</ele><time>2026-05-01T08:37:30.952Z</time></trkpt><trkpt lat="42.9538696" lon="12.2022718"><ele>446.42857142857144</ele><time>2026-05-01T08:37:33.934Z</time></trkpt><trkpt lat="42.95382" lon="12.2021974"><ele>448.57142857142856</ele><time>2026-05-01T08:37:36.933Z</time></trkpt><trkpt lat="42.9537533" lon="12.2021498"><ele>450.7142857142857</ele><time>2026-05-01T08:37:39.945Z</time></trkpt><trkpt lat="42.9536888" lon="12.2021907"><ele>452.85714285714283</ele><time>2026-05-01T08:37:42.954Z</time></trkpt><trkpt lat="42.9536701" lon="12.2022852"><ele>455.0</ele><time>2026-05-01T08:37:45.949Z</time></trkpt><trkpt lat="42.95364" lon="12.2023731"><ele>455.42857142857144</ele><time>2026-05-01T08:37:49.932Z</time></trkpt><trkpt lat="42.9536076" lon="12.2024508"><ele>455.8571428571429</ele><time>2026-05-01T08:37:53.937Z</time></trkpt><trkpt lat="42.9535373" lon="12.2024918"><ele>456.2857142857143</ele><time>2026-05-01T08:37:57.931Z</time></trkpt><trkpt lat="42.9534645" lon="12.2025012"><ele>456.7142857142857</ele><time>2026-05-01T08:38:01.938Z</time></trkpt><trkpt lat="42.9533893" lon="12.2024774"><ele>457.14285714285717</ele><time>2026-05-01T08:38:05.936Z</time></trkpt><trkpt lat="42.9533243" lon="12.2024175"><ele>457.57142857142856</ele><time>2026-05-01T08:38:09.941Z</time></trkpt><trkpt lat="42.9532629" lon="12.2023517"><ele>458.0</ele><time>2026-05-01T08:38:13.953Z</time></trkpt><trkpt lat="42.9532087" lon="12.2022825"><ele>460.8333333333333</ele><time>2026-05-01T08:38:17.957Z</time></trkpt><trkpt lat="42.95316" lon="12.2022171"><ele>463.66666666666663</ele><time>2026-05-01T08:38:21.939Z</time></trkpt><trkpt lat="42.9531159" lon="12.2021375"><ele>466.5</ele><time>2026-05-01T08:38:25.942Z</time></trkpt><trkpt lat="42.9530655" lon="12.2020529"><ele>469.33333333333337</ele><time>2026-05-01T08:38:29.938Z</time></trkpt><trkpt lat="42.9530176" lon="12.2019793"><ele>472.1666666666667</ele><time>2026-05-01T08:38:33.941Z</time></trkpt><trkpt lat="42.9529522" lon="12.2019142"><ele>475.0</ele><time>2026-05-01T08:38:37.952Z</time></trkpt><trkpt lat="42.9528786" lon="12.2018814"><ele>475.0</ele><time>2026-05-01T08:38:40.95Z</time></trkpt><trkpt lat="42.9528087" lon="12.2018384"><ele>475.00000000000006</ele><time>2026-05-01T08:38:43.951Z</time></trkpt><trkpt lat="42.9527626" lon="12.2017717"><ele>475.0</ele><time>2026-05-01T08:38:46.95Z</time></trkpt><trkpt lat="42.9527044" lon="12.2017339"><ele>475.0</ele><time>2026-05-01T08:38:49.952Z</time></trkpt><trkpt lat="42.9526345" lon="12.2016913"><ele>475.00000000000006</ele><time>2026-05-01T08:38:53.953Z</time></trkpt><trkpt lat="42.9525636" lon="12.2016654"><ele>475.0</ele><time>2026-05-01T08:38:57.951Z</time></trkpt><trkpt lat="42.9524921" lon="12.2016306"><ele>475.0</ele><time>2026-05-01T08:39:01.942Z</time></trkpt><trkpt lat="42.9524277" lon="12.2016242"><ele>477.28571428571433</ele><time>2026-05-01T08:39:04.95Z</time></trkpt><trkpt lat="42.9523634" lon="12.2016241"><ele>479.5714285714286</ele><time>2026-05-01T08:39:07.953Z</time></trkpt><trkpt lat="42.9522894" lon="12.201647"><ele>481.8571428571429</ele><time>2026-05-01T08:39:11.955Z</time></trkpt><trkpt lat="42.9522357" lon="12.2017051"><ele>484.1428571428571</ele><time>2026-05-01T08:39:17.952Z</time></trkpt><trkpt lat="42.9521685" lon="12.2017272"><ele>486.4285714285714</ele><time>2026-05-01T08:39:22.952Z</time></trkpt><trkpt lat="42.9520829" lon="12.2017375"><ele>488.71428571428567</ele><time>2026-05-01T08:39:25.95Z</time></trkpt><trkpt lat="42.9520007" lon="12.2017624"><ele>491.0</ele><time>2026-05-01T08:39:28.939Z</time></trkpt><trkpt lat="42.9519197" lon="12.2017895"><ele>490.99999999999994</ele><time>2026-05-01T08:39:31.953Z</time></trkpt><trkpt lat="42.9518372" lon="12.2018254"><ele>491.0</ele><time>2026-05-01T08:39:33.934Z</time></trkpt><trkpt lat="42.9517594" lon="12.2018871"><ele>491.0</ele><time>2026-05-01T08:39:55.933Z</time></trkpt><trkpt lat="42.9517159" lon="12.2019829"><ele>491.0</ele><time>2026-05-01T08:39:58.951Z</time></trkpt><trkpt lat="42.9516893" lon="12.2020975"><ele>490.99999999999994</ele><time>2026-05-01T08:40:01.95Z</time></trkpt><trkpt lat="42.9516655" lon="12.2022023"><ele>491.0</ele><time>2026-05-01T08:40:04.941Z</time></trkpt><trkpt lat="42.9516329" lon="12.2023102"><ele>492.16666666666663</ele><time>2026-05-01T08:40:07.953Z</time></trkpt><trkpt lat="42.9516256" lon="12.2024124"><ele>493.3333333333333</ele><time>2026-05-01T08:40:10.943Z</time></trkpt><trkpt lat="42.9516145" lon="12.2025295"><ele>494.5</ele><time>2026-05-01T08:40:13.95Z</time></trkpt><trkpt lat="42.9516097" lon="12.2026362"><ele>495.66666666666663</ele><time>2026-05-01T08:40:16.942Z</time></trkpt><trkpt lat="42.9516133" lon="12.2027423"><ele>496.8333333333333</ele><time>2026-05-01T08:40:19.943Z</time></trkpt><trkpt lat="42.9515953" lon="12.2028423"><ele>498.0</ele><time>2026-05-01T08:40:22.951Z</time></trkpt><trkpt lat="42.9515812" lon="12.2029465"><ele>498.0</ele><time>2026-05-01T08:40:25.949Z</time></trkpt><trkpt lat="42.9515679" lon="12.2030636"><ele>498.0</ele><time>2026-05-01T08:40:28.951Z</time></trkpt><trkpt lat="42.9515677" lon="12.2031842"><ele>498.0</ele><time>2026-05-01T08:40:31.954Z</time></trkpt><trkpt lat="42.9515524" lon="12.203294"><ele>498.0</ele><time>2026-05-01T08:40:34.95Z</time></trkpt><trkpt lat="42.9515205" lon="12.2033921"><ele>498.0</ele><time>2026-05-01T08:40:37.936Z</time></trkpt><trkpt lat="42.9514934" lon="12.2035008"><ele>498.0</ele><time>2026-05-01T08:40:40.951Z</time></trkpt><trkpt lat="42.9514777" lon="12.2036094"><ele>498.6666666666667</ele><time>2026-05-01T08:40:43.955Z</time></trkpt><trkpt lat="42.9514547" lon="12.203712"><ele>499.33333333333337</ele><time>2026-05-01T08:40:46.952Z</time></trkpt><trkpt lat="42.9514123" lon="12.2037989"><ele>500.0</ele><time>2026-05-01T08:40:49.962Z</time></trkpt><trkpt lat="42.9513895" lon="12.2038881"><ele>500.6666666666667</ele><time>2026-05-01T08:40:52.952Z</time></trkpt><trkpt lat="42.9513638" lon="12.2039819"><ele>501.33333333333337</ele><time>2026-05-01T08:40:55.953Z</time></trkpt><trkpt lat="42.9513155" lon="12.2040805"><ele>502.0</ele><time>2026-05-01T08:40:58.943Z</time></trkpt><trkpt lat="42.9512795" lon="12.2041937"><ele>502.71428571428567</ele><time>2026-05-01T08:41:01.953Z</time></trkpt><trkpt lat="42.9512618" lon="12.2042867"><ele>503.42857142857144</ele><time>2026-05-01T08:41:04.949Z</time></trkpt><trkpt lat="42.951244" lon="12.204386"><ele>504.1428571428571</ele><time>2026-05-01T08:41:07.949Z</time></trkpt><trkpt lat="42.9512185" lon="12.2044862"><ele>504.85714285714283</ele><time>2026-05-01T08:41:10.951Z</time></trkpt><trkpt lat="42.9512026" lon="12.2045881"><ele>505.57142857142856</ele><time>2026-05-01T08:41:13.949Z</time></trkpt><trkpt lat="42.9511877" lon="12.2046909"><ele>506.2857142857143</ele><time>2026-05-01T08:41:17.951Z</time></trkpt><trkpt lat="42.9512131" lon="12.2047764"><ele>507.0</ele><time>2026-05-01T08:41:20.937Z</time></trkpt><trkpt lat="42.9512329" lon="12.2048652"><ele>508.8333333333333</ele><time>2026-05-01T08:41:23.951Z</time></trkpt><trkpt lat="42.9512488" lon="12.2049686"><ele>510.66666666666663</ele><time>2026-05-01T08:41:26.949Z</time></trkpt><trkpt lat="42.9512637" lon="12.2050529"><ele>512.5</ele><time>2026-05-01T08:41:29.948Z</time></trkpt><trkpt lat="42.951293" lon="12.2051606"><ele>514.3333333333333</ele><time>2026-05-01T08:41:33.949Z</time></trkpt><trkpt lat="42.9513292" lon="12.2052515"><ele>516.1666666666666</ele><time>2026-05-01T08:41:36.936Z</time></trkpt><trkpt lat="42.9513778" lon="12.2053376"><ele>518.0</ele><time>2026-05-01T08:41:39.954Z</time></trkpt><trkpt lat="42.9514367" lon="12.2054229"><ele>518.0</ele><time>2026-05-01T08:41:42.949Z</time></trkpt><trkpt lat="42.9514706" lon="12.2054978"><ele>518.0</ele><time>2026-05-01T08:41:45.948Z</time></trkpt><trkpt lat="42.9515073" lon="12.2055703"><ele>518.0</ele><time>2026-05-01T08:41:48.954Z</time></trkpt><trkpt lat="42.9515443" lon="12.2056614"><ele>518.0</ele><time>2026-05-01T08:41:52.953Z</time></trkpt><trkpt lat="42.9515847" lon="12.2057534"><ele>518.0</ele><time>2026-05-01T08:41:56.947Z</time></trkpt><trkpt lat="42.95161" lon="12.2058324"><ele>518.0</ele><time>2026-05-01T08:41:59.957Z</time></trkpt><trkpt lat="42.9516279" lon="12.2059178"><ele>518.0</ele><time>2026-05-01T08:42:02.951Z</time></trkpt><trkpt lat="42.9516428" lon="12.2060075"><ele>518.0</ele><time>2026-05-01T08:42:06.954Z</time></trkpt><trkpt lat="42.9516497" lon="12.2060954"><ele>518.0</ele><time>2026-05-01T08:42:09.954Z</time></trkpt><trkpt lat="42.9516535" lon="12.2062097"><ele>518.0</ele><time>2026-05-01T08:42:13.959Z</time></trkpt><trkpt lat="42.9516644" lon="12.2062955"><ele>518.0</ele><time>2026-05-01T08:42:16.956Z</time></trkpt><trkpt lat="42.951715" lon="12.2063883"><ele>518.0</ele><time>2026-05-01T08:42:20.95Z</time></trkpt><trkpt lat="42.9517687" lon="12.206449"><ele>518.0</ele><time>2026-05-01T08:42:23.953Z</time></trkpt><trkpt lat="42.9518296" lon="12.2065296"><ele>520.8333333333333</ele><time>2026-05-01T08:42:26.95Z</time></trkpt><trkpt lat="42.9518956" lon="12.2066166"><ele>523.6666666666666</ele><time>2026-05-01T08:42:29.95Z</time></trkpt><trkpt lat="42.9519646" lon="12.2066797"><ele>526.5</ele><time>2026-05-01T08:42:32.942Z</time></trkpt><trkpt lat="42.9520455" lon="12.2067382"><ele>529.3333333333334</ele><time>2026-05-01T08:42:35.952Z</time></trkpt><trkpt lat="42.9521082" lon="12.2067664"><ele>532.1666666666667</ele><time>2026-05-01T08:42:37.942Z</time></trkpt><trkpt lat="42.9521734" lon="12.2067807"><ele>535.0</ele><time>2026-05-01T08:42:40Z</time></trkpt><trkpt lat="42.9522458" lon="12.206776"><ele>535.0</ele><time>2026-05-01T08:42:41.944Z</time></trkpt><trkpt lat="42.9523179" lon="12.206774"><ele>535.0</ele><time>2026-05-01T08:42:43.961Z</time></trkpt><trkpt lat="42.9524024" lon="12.2067798"><ele>535.0</ele><time>2026-05-01T08:42:45.937Z</time></trkpt><trkpt lat="42.9524737" lon="12.2068076"><ele>535.0</ele><time>2026-05-01T08:42:47.947Z</time></trkpt><trkpt lat="42.9525311" lon="12.2068531"><ele>535.0</ele><time>2026-05-01T08:42:49.96Z</time></trkpt><trkpt lat="42.9525827" lon="12.2069415"><ele>535.0</ele><time>2026-05-01T08:42:52.949Z</time></trkpt><trkpt lat="42.9526223" lon="12.2070369"><ele>532.6666666666667</ele><time>2026-05-01T08:42:55.945Z</time></trkpt><trkpt lat="42.9526477" lon="12.2071346"><ele>530.3333333333334</ele><time>2026-05-01T08:42:58.943Z</time></trkpt><trkpt lat="42.9526567" lon="12.2072526"><ele>528.0</ele><time>2026-05-01T08:43:01.932Z</time></trkpt><trkpt lat="42.9526613" lon="12.2073531"><ele>525.6666666666666</ele><time>2026-05-01T08:43:04.937Z</time></trkpt><trkpt lat="42.9526664" lon="12.207481"><ele>523.3333333333333</ele><time>2026-05-01T08:43:08Z</time></trkpt><trkpt lat="42.9526465" lon="12.2075837"><ele>521.0</ele><time>2026-05-01T08:43:10.934Z</time></trkpt><trkpt lat="42.9526702" lon="12.207702"><ele>521.0</ele><time>2026-05-01T08:43:13.935Z</time></trkpt><trkpt lat="42.9527042" lon="12.2077926"><ele>521.0</ele><time>2026-05-01T08:43:15.952Z</time></trkpt><trkpt lat="42.9527271" lon="12.2078797"><ele>521.0</ele><time>2026-05-01T08:43:17.945Z</time></trkpt><trkpt lat="42.9527336" lon="12.2079771"><ele>521.0</ele><time>2026-05-01T08:43:20.95Z</time></trkpt><trkpt lat="42.9527299" lon="12.2080783"><ele>521.0</ele><time>2026-05-01T08:43:23.951Z</time></trkpt><trkpt lat="42.9526778" lon="12.2081759"><ele>521.0</ele><time>2026-05-01T08:43:26.952Z</time></trkpt><trkpt lat="42.9526557" lon="12.2082946"><ele>522.1666666666666</ele><time>2026-05-01T08:43:29.952Z</time></trkpt><trkpt lat="42.9526543" lon="12.2084042"><ele>523.3333333333333</ele><time>2026-05-01T08:43:32.948Z</time></trkpt><trkpt lat="42.9526435" lon="12.208495"><ele>524.5</ele><time>2026-05-01T08:43:37Z</time></trkpt><trkpt lat="42.9526831" lon="12.208596"><ele>525.6666666666666</ele><time>2026-05-01T08:43:39.944Z</time></trkpt><trkpt lat="42.9526844" lon="12.2087004"><ele>526.8333333333334</ele><time>2026-05-01T08:43:42.948Z</time></trkpt><trkpt lat="42.9526927" lon="12.2088118"><ele>528.0</ele><time>2026-05-01T08:43:45.957Z</time></trkpt><trkpt lat="42.9526913" lon="12.2089218"><ele>529.2857142857142</ele><time>2026-05-01T08:43:48.949Z</time></trkpt><trkpt lat="42.9526806" lon="12.2090161"><ele>530.5714285714286</ele><time>2026-05-01T08:43:51.955Z</time></trkpt><trkpt lat="42.9526475" lon="12.2090982"><ele>531.8571428571429</ele><time>2026-05-01T08:43:54.999Z</time></trkpt><trkpt lat="42.9526229" lon="12.2091984"><ele>533.1428571428571</ele><time>2026-05-01T08:43:57.949Z</time></trkpt><trkpt lat="42.9525945" lon="12.2092837"><ele>534.4285714285714</ele><time>2026-05-01T08:44:03.954Z</time></trkpt><trkpt lat="42.9526122" lon="12.2093796"><ele>535.7142857142857</ele><time>2026-05-01T08:44:07.953Z</time></trkpt><trkpt lat="42.9525738" lon="12.2094878"><ele>537.0</ele><time>2026-05-01T08:44:13Z</time></trkpt><trkpt lat="42.9525559" lon="12.2095783"><ele>540.7142857142857</ele><time>2026-05-01T08:44:15.954Z</time></trkpt><trkpt lat="42.9525367" lon="12.2096616"><ele>544.4285714285714</ele><time>2026-05-01T08:44:18.948Z</time></trkpt><trkpt lat="42.9525147" lon="12.2097593"><ele>548.1428571428571</ele><time>2026-05-01T08:44:21.95Z</time></trkpt><trkpt lat="42.9525039" lon="12.2098442"><ele>551.8571428571429</ele><time>2026-05-01T08:44:23.949Z</time></trkpt><trkpt lat="42.9524819" lon="12.2099582"><ele>555.5714285714286</ele><time>2026-05-01T08:44:26.952Z</time></trkpt><trkpt lat="42.9524582" lon="12.2100554"><ele>559.2857142857142</ele><time>2026-05-01T08:44:29.95Z</time></trkpt><trkpt lat="42.9524152" lon="12.2101548"><ele>563.0</ele><time>2026-05-01T08:44:32.942Z</time></trkpt><trkpt lat="42.952417" lon="12.2102506"><ele>563.8333333333333</ele><time>2026-05-01T08:44:34.951Z</time></trkpt><trkpt lat="42.9524092" lon="12.2103764"><ele>564.6666666666666</ele><time>2026-05-01T08:44:37.951Z</time></trkpt><trkpt lat="42.9524081" lon="12.2104915"><ele>565.5</ele><time>2026-05-01T08:44:40.951Z</time></trkpt><trkpt lat="42.9524227" lon="12.2106216"><ele>566.3333333333334</ele><time>2026-05-01T08:44:43.953Z</time></trkpt><trkpt lat="42.9524355" lon="12.210707"><ele>567.1666666666667</ele><time>2026-05-01T08:44:45.954Z</time></trkpt><trkpt lat="42.9524477" lon="12.2108261"><ele>568.0</ele><time>2026-05-01T08:44:48.951Z</time></trkpt><trkpt lat="42.9524446" lon="12.2109414"><ele>567.3333333333334</ele><time>2026-05-01T08:44:51.954Z</time></trkpt><trkpt lat="42.9524642" lon="12.2110502"><ele>566.6666666666667</ele><time>2026-05-01T08:44:54.951Z</time></trkpt><trkpt lat="42.9524949" lon="12.2111405"><ele>566.0</ele><time>2026-05-01T08:44:56.954Z</time></trkpt><trkpt lat="42.9525531" lon="12.2112782"><ele>565.3333333333334</ele><time>2026-05-01T08:44:58.955Z</time></trkpt><trkpt lat="42.9525862" lon="12.211354"><ele>564.6666666666666</ele><time>2026-05-01T08:44:59.945Z</time></trkpt><trkpt lat="42.9526231" lon="12.2114294"><ele>564.0</ele><time>2026-05-01T08:45:00.95Z</time></trkpt><trkpt lat="42.9526626" lon="12.2114987"><ele>564.0</ele><time>2026-05-01T08:45:01.953Z</time></trkpt><trkpt lat="42.9527079" lon="12.2115624"><ele>564.0</ele><time>2026-05-01T08:45:02.954Z</time></trkpt><trkpt lat="42.9527589" lon="12.2116249"><ele>564.0</ele><time>2026-05-01T08:45:03.951Z</time></trkpt><trkpt lat="42.9528577" lon="12.2116961"><ele>564.0</ele><time>2026-05-01T08:45:04.95Z</time></trkpt><trkpt lat="42.9529254" lon="12.2117543"><ele>564.0</ele><time>2026-05-01T08:45:05.945Z</time></trkpt><trkpt lat="42.9529921" lon="12.2117873"><ele>564.0</ele><time>2026-05-01T08:45:06.952Z</time></trkpt><trkpt lat="42.9530537" lon="12.2118329"><ele>564.0</ele><time>2026-05-01T08:45:07.953Z</time></trkpt><trkpt lat="42.9531592" lon="12.2119004"><ele>564.0</ele><time>2026-05-01T08:45:09.933Z</time></trkpt><trkpt lat="42.9532776" lon="12.2119367"><ele>564.0</ele><time>2026-05-01T08:45:11.954Z</time></trkpt><trkpt lat="42.9533866" lon="12.2119811"><ele>564.0</ele><time>2026-05-01T08:45:13.951Z</time></trkpt><trkpt lat="42.9534868" lon="12.2120251"><ele>564.0</ele><time>2026-05-01T08:45:15.94Z</time></trkpt><trkpt lat="42.95358" lon="12.2120827"><ele>564.0</ele><time>2026-05-01T08:45:17.952Z</time></trkpt><trkpt lat="42.953645" lon="12.2121707"><ele>564.0</ele><time>2026-05-01T08:45:19.947Z</time></trkpt><trkpt lat="42.9537292" lon="12.2122633"><ele>564.0</ele><time>2026-05-01T08:45:21.95Z</time></trkpt><trkpt lat="42.9538166" lon="12.2123812"><ele>564.0</ele><time>2026-05-01T08:45:23.946Z</time></trkpt><trkpt lat="42.9538609" lon="12.2124462"><ele>564.0</ele><time>2026-05-01T08:45:24.949Z</time></trkpt><trkpt lat="42.9539443" lon="12.2125584"><ele>564.0</ele><time>2026-05-01T08:45:26.948Z</time></trkpt><trkpt lat="42.9540199" lon="12.2126467"><ele>564.0</ele><time>2026-05-01T08:45:29Z</time></trkpt><trkpt lat="42.954094" lon="12.2127417"><ele>564.0</ele><time>2026-05-01T08:45:30.934Z</time></trkpt><trkpt lat="42.9541764" lon="12.2128266"><ele>564.0</ele><time>2026-05-01T08:45:32.949Z</time></trkpt><trkpt lat="42.9542677" lon="12.2129071"><ele>560.8333333333334</ele><time>2026-05-01T08:45:34.95Z</time></trkpt><trkpt lat="42.9543352" lon="12.2130258"><ele>557.6666666666666</ele><time>2026-05-01T08:45:36.933Z</time></trkpt><trkpt lat="42.9543877" lon="12.2130856"><ele>554.5</ele><time>2026-05-01T08:45:37.955Z</time></trkpt><trkpt lat="42.9544016" lon="12.2131823"><ele>551.3333333333333</ele><time>2026-05-01T08:45:38.951Z</time></trkpt><trkpt lat="42.9544049" lon="12.2132858"><ele>548.1666666666666</ele><time>2026-05-01T08:45:39.954Z</time></trkpt><trkpt lat="42.9544182" lon="12.2133928"><ele>545.0</ele><time>2026-05-01T08:45:40.959Z</time></trkpt><trkpt lat="42.9544407" lon="12.213489"><ele>545.0</ele><time>2026-05-01T08:45:41.951Z</time></trkpt><trkpt lat="42.9544729" lon="12.2135759"><ele>545.0</ele><time>2026-05-01T08:45:42.95Z</time></trkpt><trkpt lat="42.9545146" lon="12.2136587"><ele>545.0</ele><time>2026-05-01T08:45:43.949Z</time></trkpt><trkpt lat="42.954561" lon="12.2137356"><ele>545.0</ele><time>2026-05-01T08:45:44.956Z</time></trkpt><trkpt lat="42.9546103" lon="12.2138154"><ele>545.0</ele><time>2026-05-01T08:45:45.94Z</time></trkpt><trkpt lat="42.954633" lon="12.2139028"><ele>545.0</ele><time>2026-05-01T08:45:46.963Z</time></trkpt><trkpt lat="42.954653" lon="12.2139845"><ele>545.0</ele><time>2026-05-01T08:45:47.952Z</time></trkpt><trkpt lat="42.954662" lon="12.2140746"><ele>546.8333333333333</ele><time>2026-05-01T08:45:48.948Z</time></trkpt><trkpt lat="42.9546803" lon="12.2142152"><ele>548.6666666666666</ele><time>2026-05-01T08:45:50.95Z</time></trkpt><trkpt lat="42.95472" lon="12.2143223"><ele>550.5</ele><time>2026-05-01T08:45:52.949Z</time></trkpt><trkpt lat="42.9547855" lon="12.2143486"><ele>552.3333333333334</ele><time>2026-05-01T08:45:54.95Z</time></trkpt><trkpt lat="42.9548523" lon="12.2143617"><ele>554.1666666666667</ele><time>2026-05-01T08:45:57Z</time></trkpt><trkpt lat="42.9549357" lon="12.2144039"><ele>556.0</ele><time>2026-05-01T08:45:59.952Z</time></trkpt><trkpt lat="42.9549812" lon="12.2144634"><ele>556.0</ele><time>2026-05-01T08:46:01.949Z</time></trkpt><trkpt lat="42.9550177" lon="12.214541"><ele>556.0</ele><time>2026-05-01T08:46:03.961Z</time></trkpt><trkpt lat="42.9550575" lon="12.2146532"><ele>556.0</ele><time>2026-05-01T08:46:06.951Z</time></trkpt><trkpt lat="42.9550949" lon="12.2147564"><ele>556.0</ele><time>2026-05-01T08:46:09.945Z</time></trkpt><trkpt lat="42.9551385" lon="12.21482"><ele>556.0</ele><time>2026-05-01T08:46:11.95Z</time></trkpt><trkpt lat="42.9551911" lon="12.2148834"><ele>556.0</ele><time>2026-05-01T08:46:13.934Z</time></trkpt><trkpt lat="42.9552458" lon="12.2149431"><ele>556.0</ele><time>2026-05-01T08:46:15.962Z</time></trkpt><trkpt lat="42.9552963" lon="12.2150104"><ele>555.0</ele><time>2026-05-01T08:46:17.947Z</time></trkpt><trkpt lat="42.9553433" lon="12.21509"><ele>554.0</ele><time>2026-05-01T08:46:19.94Z</time></trkpt><trkpt lat="42.9554049" lon="12.21518"><ele>553.0</ele><time>2026-05-01T08:46:21.953Z</time></trkpt><trkpt lat="42.9554672" lon="12.2152933"><ele>552.0</ele><time>2026-05-01T08:46:23.95Z</time></trkpt><trkpt lat="42.9555507" lon="12.2154135"><ele>551.0</ele><time>2026-05-01T08:46:25.951Z</time></trkpt><trkpt lat="42.9556181" lon="12.2154963"><ele>551.0</ele><time>2026-05-01T08:46:27.948Z</time></trkpt><trkpt lat="42.9556816" lon="12.215594"><ele>551.0</ele><time>2026-05-01T08:46:29.952Z</time></trkpt><trkpt lat="42.9557246" lon="12.2156874"><ele>551.0</ele><time>2026-05-01T08:46:31.951Z</time></trkpt><trkpt lat="42.9557677" lon="12.2157688"><ele>551.0</ele><time>2026-05-01T08:46:33.945Z</time></trkpt><trkpt lat="42.9558079" lon="12.2158426"><ele>551.0</ele><time>2026-05-01T08:46:35.948Z</time></trkpt><trkpt lat="42.9558543" lon="12.2159328"><ele>551.0</ele><time>2026-05-01T08:46:37.947Z</time></trkpt><trkpt lat="42.9559038" lon="12.2160238"><ele>551.5</ele><time>2026-05-01T08:46:39.94Z</time></trkpt><trkpt lat="42.9559597" lon="12.2161046"><ele>552.0</ele><time>2026-05-01T08:46:41.94Z</time></trkpt><trkpt lat="42.9560118" lon="12.2161715"><ele>552.5</ele><time>2026-05-01T08:46:43.955Z</time></trkpt><trkpt lat="42.9560681" lon="12.2162241"><ele>553.0</ele><time>2026-05-01T08:46:45.939Z</time></trkpt><trkpt lat="42.9561227" lon="12.2162713"><ele>553.5</ele><time>2026-05-01T08:46:47.935Z</time></trkpt><trkpt lat="42.9561929" lon="12.2163421"><ele>554.0</ele><time>2026-05-01T08:46:50.94Z</time></trkpt><trkpt lat="42.9562708" lon="12.2164043"><ele>556.6</ele><time>2026-05-01T08:46:53.955Z</time></trkpt><trkpt lat="42.9563399" lon="12.2164873"><ele>559.2</ele><time>2026-05-01T08:46:56.952Z</time></trkpt><trkpt lat="42.9564145" lon="12.2165594"><ele>561.8000000000001</ele><time>2026-05-01T08:46:59.952Z</time></trkpt><trkpt lat="42.9564945" lon="12.216612"><ele>564.4</ele><time>2026-05-01T08:47:02.951Z</time></trkpt><trkpt lat="42.956574" lon="12.2166698"><ele>567.0</ele><time>2026-05-01T08:47:05.949Z</time></trkpt><trkpt lat="42.9566358" lon="12.2167581"><ele>567.0</ele><time>2026-05-01T08:47:08.954Z</time></trkpt><trkpt lat="42.9566898" lon="12.2168135"><ele>567.0</ele><time>2026-05-01T08:47:10.954Z</time></trkpt><trkpt lat="42.9567498" lon="12.2168643"><ele>567.0</ele><time>2026-05-01T08:47:12.935Z</time></trkpt><trkpt lat="42.9568066" lon="12.2169223"><ele>567.0</ele><time>2026-05-01T08:47:14.947Z</time></trkpt><trkpt lat="42.9568498" lon="12.2169943"><ele>567.0</ele><time>2026-05-01T08:47:16.949Z</time></trkpt><trkpt lat="42.9568915" lon="12.2170702"><ele>567.0</ele><time>2026-05-01T08:47:18.944Z</time></trkpt><trkpt lat="42.9569276" lon="12.2171482"><ele>567.0</ele><time>2026-05-01T08:47:20.946Z</time></trkpt><trkpt lat="42.9569513" lon="12.2172315"><ele>567.3333333333334</ele><time>2026-05-01T08:47:22.939Z</time></trkpt><trkpt lat="42.9569568" lon="12.2173187"><ele>567.6666666666666</ele><time>2026-05-01T08:47:24.927Z</time></trkpt><trkpt lat="42.9569787" lon="12.2174376"><ele>568.0</ele><time>2026-05-01T08:47:27.951Z</time></trkpt><trkpt lat="42.9570213" lon="12.2175484"><ele>568.3333333333333</ele><time>2026-05-01T08:47:30.936Z</time></trkpt><trkpt lat="42.9570883" lon="12.2176141"><ele>568.6666666666666</ele><time>2026-05-01T08:47:33.954Z</time></trkpt><trkpt lat="42.9571567" lon="12.2176804"><ele>569.0</ele><time>2026-05-01T08:47:36.949Z</time></trkpt><trkpt lat="42.9572086" lon="12.2177299"><ele>569.0</ele><time>2026-05-01T08:47:38.937Z</time></trkpt><trkpt lat="42.9572806" lon="12.2177973"><ele>569.0</ele><time>2026-05-01T08:47:41.947Z</time></trkpt><trkpt lat="42.957338" lon="12.2178814"><ele>569.0</ele><time>2026-05-01T08:47:44.934Z</time></trkpt><trkpt lat="42.9573825" lon="12.2179465"><ele>569.0</ele><time>2026-05-01T08:47:47.936Z</time></trkpt><trkpt lat="42.957437" lon="12.2179981"><ele>569.0</ele><time>2026-05-01T08:47:49.938Z</time></trkpt><trkpt lat="42.9575113" lon="12.2180491"><ele>569.0</ele><time>2026-05-01T08:47:51.931Z</time></trkpt><trkpt lat="42.9576102" lon="12.2181069"><ele>568.3333333333333</ele><time>2026-05-01T08:47:53.934Z</time></trkpt><trkpt lat="42.9577343" lon="12.2181734"><ele>567.6666666666666</ele><time>2026-05-01T08:47:55.932Z</time></trkpt><trkpt lat="42.9577957" lon="12.2182152"><ele>567.0</ele><time>2026-05-01T08:47:56.935Z</time></trkpt><trkpt lat="42.9578545" lon="12.2182631"><ele>566.3333333333334</ele><time>2026-05-01T08:47:57.938Z</time></trkpt><trkpt lat="42.9579124" lon="12.218311"><ele>565.6666666666667</ele><time>2026-05-01T08:47:58.932Z</time></trkpt><trkpt lat="42.9579681" lon="12.2183582"><ele>565.0</ele><time>2026-05-01T08:48:00Z</time></trkpt><trkpt lat="42.958021" lon="12.2184168"><ele>565.0</ele><time>2026-05-01T08:48:00.931Z</time></trkpt><trkpt lat="42.9580856" lon="12.2184768"><ele>565.0</ele><time>2026-05-01T08:48:01.931Z</time></trkpt><trkpt lat="42.9581737" lon="12.2185888"><ele>565.0</ele><time>2026-05-01T08:48:03.942Z</time></trkpt><trkpt lat="42.9582358" lon="12.2186968"><ele>565.0</ele><time>2026-05-01T08:48:06Z</time></trkpt><trkpt lat="42.9583058" lon="12.2187731"><ele>565.0</ele><time>2026-05-01T08:48:07.957Z</time></trkpt><trkpt lat="42.9583719" lon="12.218802"><ele>564.5714285714286</ele><time>2026-05-01T08:48:09.937Z</time></trkpt><trkpt lat="42.9584457" lon="12.218812"><ele>564.1428571428571</ele><time>2026-05-01T08:48:11.954Z</time></trkpt><trkpt lat="42.9585203" lon="12.2188364"><ele>563.7142857142858</ele><time>2026-05-01T08:48:13.959Z</time></trkpt><trkpt lat="42.9585882" lon="12.218877"><ele>563.2857142857142</ele><time>2026-05-01T08:48:15.952Z</time></trkpt><trkpt lat="42.958657" lon="12.21892"><ele>562.8571428571429</ele><time>2026-05-01T08:48:17.943Z</time></trkpt><trkpt lat="42.9587244" lon="12.2189416"><ele>562.4285714285714</ele><time>2026-05-01T08:48:19.951Z</time></trkpt><trkpt lat="42.9587991" lon="12.2189285"><ele>562.0</ele><time>2026-05-01T08:48:21.948Z</time></trkpt><trkpt lat="42.9588795" lon="12.218929"><ele>562.0</ele><time>2026-05-01T08:48:23.956Z</time></trkpt><trkpt lat="42.9589767" lon="12.2189431"><ele>562.0</ele><time>2026-05-01T08:48:25.952Z</time></trkpt><trkpt lat="42.9590719" lon="12.2189413"><ele>562.0</ele><time>2026-05-01T08:48:27.937Z</time></trkpt><trkpt lat="42.9591637" lon="12.2189741"><ele>562.0</ele><time>2026-05-01T08:48:29.95Z</time></trkpt><trkpt lat="42.9592376" lon="12.2190284"><ele>562.0</ele><time>2026-05-01T08:48:31.945Z</time></trkpt><trkpt lat="42.9593101" lon="12.2190826"><ele>563.8333333333334</ele><time>2026-05-01T08:48:33.95Z</time></trkpt><trkpt lat="42.9593779" lon="12.2191293"><ele>565.6666666666667</ele><time>2026-05-01T08:48:35.95Z</time></trkpt><trkpt lat="42.9594418" lon="12.2191677"><ele>567.5</ele><time>2026-05-01T08:48:37.948Z</time></trkpt><trkpt lat="42.9595107" lon="12.2191926"><ele>569.3333333333334</ele><time>2026-05-01T08:48:39.944Z</time></trkpt><trkpt lat="42.9596038" lon="12.2191944"><ele>571.1666666666666</ele><time>2026-05-01T08:48:42.951Z</time></trkpt><trkpt lat="42.9596893" lon="12.2191847"><ele>573.0</ele><time>2026-05-01T08:48:45.942Z</time></trkpt><trkpt lat="42.9597731" lon="12.2191973"><ele>573.0</ele><time>2026-05-01T08:48:48.942Z</time></trkpt><trkpt lat="42.9598316" lon="12.2192301"><ele>573.0</ele><time>2026-05-01T08:48:50.948Z</time></trkpt><trkpt lat="42.9599146" lon="12.2192927"><ele>573.0</ele><time>2026-05-01T08:48:53.951Z</time></trkpt><trkpt lat="42.9599472" lon="12.2193971"><ele>573.0</ele><time>2026-05-01T08:49:17.952Z</time></trkpt><trkpt lat="42.9599882" lon="12.2194684"><ele>573.0</ele><time>2026-05-01T08:49:20.934Z</time></trkpt><trkpt lat="42.9600204" lon="12.2195844"><ele>573.0</ele><time>2026-05-01T08:49:23.95Z</time></trkpt><trkpt lat="42.9600355" lon="12.219688"><ele>572.0</ele><time>2026-05-01T08:49:26Z</time></trkpt><trkpt lat="42.9600648" lon="12.2197903"><ele>571.0</ele><time>2026-05-01T08:49:27.959Z</time></trkpt><trkpt lat="42.9601133" lon="12.2198966"><ele>570.0</ele><time>2026-05-01T08:49:29.949Z</time></trkpt><trkpt lat="42.9601777" lon="12.2199656"><ele>569.0</ele><time>2026-05-01T08:49:31.936Z</time></trkpt><trkpt lat="42.9602671" lon="12.2200296"><ele>568.0</ele><time>2026-05-01T08:49:33.95Z</time></trkpt><trkpt lat="42.9603565" lon="12.2200901"><ele>568.0</ele><time>2026-05-01T08:49:35.951Z</time></trkpt><trkpt lat="42.9604408" lon="12.2201358"><ele>568.0</ele><time>2026-05-01T08:49:37.955Z</time></trkpt><trkpt lat="42.9605291" lon="12.220197"><ele>568.0</ele><time>2026-05-01T08:49:39.953Z</time></trkpt><trkpt lat="42.960624" lon="12.2202433"><ele>568.0</ele><time>2026-05-01T08:49:41.948Z</time></trkpt><trkpt lat="42.9607001" lon="12.2202676"><ele>568.0</ele><time>2026-05-01T08:49:43.952Z</time></trkpt><trkpt lat="42.9607881" lon="12.2202899"><ele>568.0</ele><time>2026-05-01T08:49:45.948Z</time></trkpt><trkpt lat="42.9608604" lon="12.2203096"><ele>568.0</ele><time>2026-05-01T08:49:47.944Z</time></trkpt><trkpt lat="42.9609303" lon="12.2203164"><ele>568.0</ele><time>2026-05-01T08:49:49.95Z</time></trkpt><trkpt lat="42.9610037" lon="12.220318"><ele>568.0</ele><time>2026-05-01T08:49:51.948Z</time></trkpt><trkpt lat="42.961069" lon="12.2203128"><ele>568.0</ele><time>2026-05-01T08:49:54Z</time></trkpt><trkpt lat="42.9611614" lon="12.2202958"><ele>568.0</ele><time>2026-05-01T08:49:56.946Z</time></trkpt><trkpt lat="42.9612359" lon="12.2202848"><ele>569.0</ele><time>2026-05-01T08:49:58.96Z</time></trkpt><trkpt lat="42.961305" lon="12.2202882"><ele>570.0</ele><time>2026-05-01T08:50:00.95Z</time></trkpt><trkpt lat="42.96137" lon="12.2203014"><ele>571.0</ele><time>2026-05-01T08:50:02.936Z</time></trkpt><trkpt lat="42.9614336" lon="12.2203078"><ele>572.0</ele><time>2026-05-01T08:50:04.935Z</time></trkpt><trkpt lat="42.9615197" lon="12.2202824"><ele>573.0</ele><time>2026-05-01T08:50:06.936Z</time></trkpt><trkpt lat="42.9616089" lon="12.2202548"><ele>574.0</ele><time>2026-05-01T08:50:08.932Z</time></trkpt><trkpt lat="42.9616886" lon="12.2202101"><ele>575.6666666666667</ele><time>2026-05-01T08:50:11.947Z</time></trkpt><trkpt lat="42.9617499" lon="12.220178"><ele>577.3333333333334</ele><time>2026-05-01T08:50:14.95Z</time></trkpt><trkpt lat="42.9618275" lon="12.2201647"><ele>579.0</ele><time>2026-05-01T08:50:18.937Z</time></trkpt><trkpt lat="42.9619095" lon="12.2201707"><ele>580.6666666666666</ele><time>2026-05-01T08:50:22.929Z</time></trkpt><trkpt lat="42.9619887" lon="12.2201657"><ele>582.3333333333333</ele><time>2026-05-01T08:50:25.955Z</time></trkpt><trkpt lat="42.9620685" lon="12.2201548"><ele>584.0</ele><time>2026-05-01T08:50:28.93Z</time></trkpt><trkpt lat="42.9621377" lon="12.2201719"><ele>584.0</ele><time>2026-05-01T08:50:31.948Z</time></trkpt><trkpt lat="42.9622113" lon="12.2202007"><ele>584.0</ele><time>2026-05-01T08:50:34.951Z</time></trkpt><trkpt lat="42.962282" lon="12.220229"><ele>584.0</ele><time>2026-05-01T08:50:37.946Z</time></trkpt><trkpt lat="42.9623502" lon="12.2202585"><ele>584.0</ele><time>2026-05-01T08:50:40.949Z</time></trkpt><trkpt lat="42.9624364" lon="12.2202801"><ele>584.0</ele><time>2026-05-01T08:50:43.93Z</time></trkpt><trkpt lat="42.962523" lon="12.2203085"><ele>584.0</ele><time>2026-05-01T08:50:46.952Z</time></trkpt><trkpt lat="42.9625984" lon="12.2203386"><ele>584.8333333333333</ele><time>2026-05-01T08:50:49.95Z</time></trkpt><trkpt lat="42.9626628" lon="12.2203594"><ele>585.6666666666666</ele><time>2026-05-01T08:50:52.924Z</time></trkpt><trkpt lat="42.9627335" lon="12.2203999"><ele>586.5</ele><time>2026-05-01T08:50:56.934Z</time></trkpt><trkpt lat="42.9628081" lon="12.220443"><ele>587.3333333333334</ele><time>2026-05-01T08:50:59.953Z</time></trkpt><trkpt lat="42.9628695" lon="12.220503"><ele>588.1666666666667</ele><time>2026-05-01T08:51:02.948Z</time></trkpt><trkpt lat="42.9629348" lon="12.2205595"><ele>589.0</ele><time>2026-05-01T08:51:05.957Z</time></trkpt><trkpt lat="42.9630076" lon="12.2206138"><ele>590.1666666666667</ele><time>2026-05-01T08:51:08.929Z</time></trkpt><trkpt lat="42.9630697" lon="12.2206684"><ele>591.3333333333334</ele><time>2026-05-01T08:51:11.924Z</time></trkpt><trkpt lat="42.9631402" lon="12.2207222"><ele>592.5</ele><time>2026-05-01T08:51:14.929Z</time></trkpt><trkpt lat="42.9631929" lon="12.2207909"><ele>593.6666666666666</ele><time>2026-05-01T08:51:17.939Z</time></trkpt><trkpt lat="42.9632452" lon="12.2208681"><ele>594.8333333333333</ele><time>2026-05-01T08:51:21Z</time></trkpt><trkpt lat="42.9633037" lon="12.2209334"><ele>596.0</ele><time>2026-05-01T08:51:23.95Z</time></trkpt><trkpt lat="42.9633542" lon="12.221013"><ele>595.3333333333333</ele><time>2026-05-01T08:51:26.931Z</time></trkpt><trkpt lat="42.9633985" lon="12.2211048"><ele>594.6666666666666</ele><time>2026-05-01T08:51:29.939Z</time></trkpt><trkpt lat="42.9634586" lon="12.2211803"><ele>594.0</ele><time>2026-05-01T08:51:32.937Z</time></trkpt><trkpt lat="42.9635261" lon="12.221246"><ele>593.3333333333334</ele><time>2026-05-01T08:51:35.938Z</time></trkpt><trkpt lat="42.9635857" lon="12.2213199"><ele>592.6666666666667</ele><time>2026-05-01T08:51:38.942Z</time></trkpt><trkpt lat="42.963636" lon="12.2214088"><ele>592.0</ele><time>2026-05-01T08:51:41.945Z</time></trkpt><trkpt lat="42.9636645" lon="12.2215082"><ele>593.8333333333334</ele><time>2026-05-01T08:51:44.952Z</time></trkpt><trkpt lat="42.9636762" lon="12.221622"><ele>595.6666666666667</ele><time>2026-05-01T08:51:47.94Z</time></trkpt><trkpt lat="42.9636951" lon="12.221727"><ele>597.5</ele><time>2026-05-01T08:51:50.949Z</time></trkpt><trkpt lat="42.9637352" lon="12.2218234"><ele>599.3333333333334</ele><time>2026-05-01T08:51:53.953Z</time></trkpt><trkpt lat="42.9637681" lon="12.221907"><ele>601.1666666666666</ele><time>2026-05-01T08:51:56.95Z</time></trkpt><trkpt lat="42.9638072" lon="12.2220139"><ele>603.0</ele><time>2026-05-01T08:51:59.952Z</time></trkpt><trkpt lat="42.9638353" lon="12.2220975"><ele>603.0</ele><time>2026-05-01T08:52:01.95Z</time></trkpt><trkpt lat="42.9638677" lon="12.2221723"><ele>603.0</ele><time>2026-05-01T08:52:03.953Z</time></trkpt><trkpt lat="42.9639169" lon="12.2222552"><ele>603.0</ele><time>2026-05-01T08:52:05.953Z</time></trkpt><trkpt lat="42.9639672" lon="12.2223272"><ele>603.0</ele><time>2026-05-01T08:52:07.948Z</time></trkpt><trkpt lat="42.9640188" lon="12.2223773"><ele>603.0</ele><time>2026-05-01T08:52:09.939Z</time></trkpt><trkpt lat="42.9641073" lon="12.2224247"><ele>603.0</ele><time>2026-05-01T08:52:12.952Z</time></trkpt><trkpt lat="42.964199" lon="12.2224579"><ele>604.0</ele><time>2026-05-01T08:52:15.929Z</time></trkpt><trkpt lat="42.9642676" lon="12.2224625"><ele>605.0</ele><time>2026-05-01T08:52:18Z</time></trkpt><trkpt lat="42.9643339" lon="12.2224699"><ele>606.0</ele><time>2026-05-01T08:52:19.949Z</time></trkpt><trkpt lat="42.9643978" lon="12.2224705"><ele>607.0</ele><time>2026-05-01T08:52:21.932Z</time></trkpt><trkpt lat="42.9644901" lon="12.2224764"><ele>608.0</ele><time>2026-05-01T08:52:24.933Z</time></trkpt><trkpt lat="42.9645633" lon="12.2224864"><ele>609.0</ele><time>2026-05-01T08:52:27.938Z</time></trkpt><trkpt lat="42.9646257" lon="12.2225007"><ele>610.0</ele><time>2026-05-01T08:52:30Z</time></trkpt><trkpt lat="42.9646983" lon="12.2224909"><ele>610.0</ele><time>2026-05-01T08:52:31.93Z</time></trkpt><trkpt lat="42.9647708" lon="12.2224771"><ele>610.0</ele><time>2026-05-01T08:52:33.935Z</time></trkpt><trkpt lat="42.9648375" lon="12.2224733"><ele>610.0</ele><time>2026-05-01T08:52:36Z</time></trkpt><trkpt lat="42.9649243" lon="12.2225147"><ele>610.0</ele><time>2026-05-01T08:52:38.952Z</time></trkpt><trkpt lat="42.964983" lon="12.2225663"><ele>610.0</ele><time>2026-05-01T08:52:40.941Z</time></trkpt><trkpt lat="42.9650516" lon="12.2226192"><ele>610.0</ele><time>2026-05-01T08:52:42.94Z</time></trkpt><trkpt lat="42.965118" lon="12.2226693"><ele>608.6666666666667</ele><time>2026-05-01T08:52:44.956Z</time></trkpt><trkpt lat="42.9651845" lon="12.2227198"><ele>607.3333333333334</ele><time>2026-05-01T08:52:46.949Z</time></trkpt><trkpt lat="42.9652496" lon="12.2227792"><ele>606.0</ele><time>2026-05-01T08:52:48.942Z</time></trkpt><trkpt lat="42.9653172" lon="12.2228485"><ele>604.6666666666666</ele><time>2026-05-01T08:52:50.938Z</time></trkpt><trkpt lat="42.9654014" lon="12.2229266"><ele>603.3333333333333</ele><time>2026-05-01T08:52:52.934Z</time></trkpt><trkpt lat="42.9654493" lon="12.2230045"><ele>602.0</ele><time>2026-05-01T08:52:54.95Z</time></trkpt><trkpt lat="42.9654789" lon="12.2231007"><ele>602.8000000000001</ele><time>2026-05-01T08:52:56.953Z</time></trkpt><trkpt lat="42.9655157" lon="12.2231995"><ele>603.6</ele><time>2026-05-01T08:52:58.954Z</time></trkpt><trkpt lat="42.9655613" lon="12.2232929"><ele>604.4000000000001</ele><time>2026-05-01T08:53:00.95Z</time></trkpt><trkpt lat="42.965607" lon="12.2233845"><ele>605.2</ele><time>2026-05-01T08:53:02.95Z</time></trkpt><trkpt lat="42.9656953" lon="12.2234613"><ele>606.0</ele><time>2026-05-01T08:53:04.933Z</time></trkpt><trkpt lat="42.9657891" lon="12.2235252"><ele>604.8</ele><time>2026-05-01T08:53:06.934Z</time></trkpt><trkpt lat="42.9658727" lon="12.2236006"><ele>603.6</ele><time>2026-05-01T08:53:08.945Z</time></trkpt><trkpt lat="42.9659632" lon="12.2236577"><ele>602.4</ele><time>2026-05-01T08:53:10.938Z</time></trkpt><trkpt lat="42.9660511" lon="12.2237295"><ele>601.2</ele><time>2026-05-01T08:53:12.931Z</time></trkpt><trkpt lat="42.9661488" lon="12.2237941"><ele>600.0</ele><time>2026-05-01T08:53:14.932Z</time></trkpt><trkpt lat="42.9662489" lon="12.2238642"><ele>600.0</ele><time>2026-05-01T08:53:16.939Z</time></trkpt><trkpt lat="42.96635" lon="12.2239171"><ele>600.0</ele><time>2026-05-01T08:53:18.927Z</time></trkpt><trkpt lat="42.9664591" lon="12.223984"><ele>600.0</ele><time>2026-05-01T08:53:20.933Z</time></trkpt><trkpt lat="42.9665667" lon="12.2240182"><ele>600.0</ele><time>2026-05-01T08:53:22.934Z</time></trkpt><trkpt lat="42.9666597" lon="12.2240479"><ele>600.0</ele><time>2026-05-01T08:53:24.948Z</time></trkpt><trkpt lat="42.9667424" lon="12.2240506"><ele>600.1666666666666</ele><time>2026-05-01T08:53:26.949Z</time></trkpt><trkpt lat="42.9668297" lon="12.2240489"><ele>600.3333333333334</ele><time>2026-05-01T08:53:28.945Z</time></trkpt><trkpt lat="42.9669011" lon="12.2240263"><ele>600.5</ele><time>2026-05-01T08:53:30.94Z</time></trkpt><trkpt lat="42.966972" lon="12.2240125"><ele>600.6666666666667</ele><time>2026-05-01T08:53:32.954Z</time></trkpt><trkpt lat="42.9670571" lon="12.2239947"><ele>600.8333333333334</ele><time>2026-05-01T08:53:35.952Z</time></trkpt><trkpt lat="42.9671275" lon="12.2239963"><ele>601.0</ele><time>2026-05-01T08:53:38.956Z</time></trkpt><trkpt lat="42.9672049" lon="12.2240078"><ele>601.0</ele><time>2026-05-01T08:53:40.95Z</time></trkpt><trkpt lat="42.9672935" lon="12.2240102"><ele>601.0</ele><time>2026-05-01T08:53:42.943Z</time></trkpt><trkpt lat="42.9673777" lon="12.2240003"><ele>601.0</ele><time>2026-05-01T08:53:44.953Z</time></trkpt><trkpt lat="42.9674508" lon="12.2239951"><ele>601.0</ele><time>2026-05-01T08:53:46.948Z</time></trkpt><trkpt lat="42.9675251" lon="12.22399"><ele>601.0</ele><time>2026-05-01T08:53:48.936Z</time></trkpt><trkpt lat="42.9676096" lon="12.223981"><ele>601.0</ele><time>2026-05-01T08:53:50.948Z</time></trkpt><trkpt lat="42.9676985" lon="12.2239912"><ele>601.1666666666667</ele><time>2026-05-01T08:53:52.949Z</time></trkpt><trkpt lat="42.9677797" lon="12.2240043"><ele>601.3333333333334</ele><time>2026-05-01T08:53:54.948Z</time></trkpt><trkpt lat="42.9678691" lon="12.2240337"><ele>601.5</ele><time>2026-05-01T08:53:56.954Z</time></trkpt><trkpt lat="42.967952" lon="12.2240627"><ele>601.6666666666666</ele><time>2026-05-01T08:53:58.948Z</time></trkpt><trkpt lat="42.968036" lon="12.2241087"><ele>601.8333333333333</ele><time>2026-05-01T08:54:00.937Z</time></trkpt><trkpt lat="42.9681221" lon="12.2241078"><ele>602.0</ele><time>2026-05-01T08:54:02.944Z</time></trkpt><trkpt lat="42.9682019" lon="12.2241008"><ele>602.0</ele><time>2026-05-01T08:54:04.924Z</time></trkpt><trkpt lat="42.9682785" lon="12.2240979"><ele>602.0</ele><time>2026-05-01T08:54:06.939Z</time></trkpt><trkpt lat="42.9683689" lon="12.2240997"><ele>602.0</ele><time>2026-05-01T08:54:08.939Z</time></trkpt><trkpt lat="42.968456" lon="12.224102"><ele>602.0</ele><time>2026-05-01T08:54:10.95Z</time></trkpt><trkpt lat="42.9685367" lon="12.2241128"><ele>602.0</ele><time>2026-05-01T08:54:12.935Z</time></trkpt><trkpt lat="42.9686168" lon="12.2241389"><ele>602.0</ele><time>2026-05-01T08:54:14.955Z</time></trkpt><trkpt lat="42.9686963" lon="12.2241662"><ele>602.1666666666666</ele><time>2026-05-01T08:54:16.951Z</time></trkpt><trkpt lat="42.9687714" lon="12.2242031"><ele>602.3333333333333</ele><time>2026-05-01T08:54:18.944Z</time></trkpt><trkpt lat="42.9688463" lon="12.2242396"><ele>602.5</ele><time>2026-05-01T08:54:20.947Z</time></trkpt><trkpt lat="42.9689174" lon="12.2242851"><ele>602.6666666666666</ele><time>2026-05-01T08:54:22.932Z</time></trkpt><trkpt lat="42.9689843" lon="12.2243296"><ele>602.8333333333334</ele><time>2026-05-01T08:54:24.951Z</time></trkpt><trkpt lat="42.969053" lon="12.2243718"><ele>603.0</ele><time>2026-05-01T08:54:26.947Z</time></trkpt><trkpt lat="42.9691228" lon="12.2243959"><ele>603.0</ele><time>2026-05-01T08:54:28.94Z</time></trkpt><trkpt lat="42.9691866" lon="12.2244019"><ele>603.0</ele><time>2026-05-01T08:54:30.951Z</time></trkpt><trkpt lat="42.9692504" lon="12.224407"><ele>603.0</ele><time>2026-05-01T08:54:32.946Z</time></trkpt><trkpt lat="42.9693151" lon="12.224417"><ele>603.0</ele><time>2026-05-01T08:54:34.954Z</time></trkpt><trkpt lat="42.9693965" lon="12.2244075"><ele>603.0</ele><time>2026-05-01T08:54:36.94Z</time></trkpt><trkpt lat="42.9694817" lon="12.2244294"><ele>603.0</ele><time>2026-05-01T08:54:38.95Z</time></trkpt><trkpt lat="42.9695843" lon="12.2244494"><ele>602.8</ele><time>2026-05-01T08:54:40.949Z</time></trkpt><trkpt lat="42.9696803" lon="12.2244962"><ele>602.5999999999999</ele><time>2026-05-01T08:54:42.939Z</time></trkpt><trkpt lat="42.9697767" lon="12.2245566"><ele>602.4000000000001</ele><time>2026-05-01T08:54:44.942Z</time></trkpt><trkpt lat="42.9698684" lon="12.2246031"><ele>602.2</ele><time>2026-05-01T08:54:46.957Z</time></trkpt><trkpt lat="42.969966" lon="12.2246797"><ele>602.0</ele><time>2026-05-01T08:54:48.95Z</time></trkpt><trkpt lat="42.9700644" lon="12.224768"><ele>600.6666666666666</ele><time>2026-05-01T08:54:50.953Z</time></trkpt><trkpt lat="42.9701756" lon="12.2248253"><ele>599.3333333333333</ele><time>2026-05-01T08:54:52.945Z</time></trkpt><trkpt lat="42.97024" lon="12.2248343"><ele>598.0</ele><time>2026-05-01T08:54:53.952Z</time></trkpt><trkpt lat="42.9703105" lon="12.2248587"><ele>596.6666666666666</ele><time>2026-05-01T08:54:54.954Z</time></trkpt><trkpt lat="42.9703816" lon="12.2248967"><ele>595.3333333333334</ele><time>2026-05-01T08:54:55.937Z</time></trkpt><trkpt lat="42.9704383" lon="12.2249377"><ele>594.0</ele><time>2026-05-01T08:54:57Z</time></trkpt><trkpt lat="42.9705004" lon="12.2249784"><ele>594.0</ele><time>2026-05-01T08:54:57.94Z</time></trkpt><trkpt lat="42.9705677" lon="12.2250326"><ele>594.0</ele><time>2026-05-01T08:54:58.951Z</time></trkpt><trkpt lat="42.9706356" lon="12.2250733"><ele>594.0</ele><time>2026-05-01T08:54:59.949Z</time></trkpt><trkpt lat="42.9706897" lon="12.2251197"><ele>594.0</ele><time>2026-05-01T08:55:00.945Z</time></trkpt><trkpt lat="42.9707494" lon="12.2251497"><ele>594.0</ele><time>2026-05-01T08:55:01.951Z</time></trkpt><trkpt lat="42.9708122" lon="12.2251856"><ele>594.0</ele><time>2026-05-01T08:55:02.934Z</time></trkpt><trkpt lat="42.9708752" lon="12.225217"><ele>594.0</ele><time>2026-05-01T08:55:03.941Z</time></trkpt><trkpt lat="42.9709346" lon="12.2252604"><ele>592.1428571428571</ele><time>2026-05-01T08:55:04.953Z</time></trkpt><trkpt lat="42.9709975" lon="12.2253069"><ele>590.2857142857143</ele><time>2026-05-01T08:55:05.948Z</time></trkpt><trkpt lat="42.9710563" lon="12.2253612"><ele>588.4285714285714</ele><time>2026-05-01T08:55:06.947Z</time></trkpt><trkpt lat="42.9711171" lon="12.2254076"><ele>586.5714285714286</ele><time>2026-05-01T08:55:07.942Z</time></trkpt><trkpt lat="42.9711723" lon="12.225453"><ele>584.7142857142858</ele><time>2026-05-01T08:55:09Z</time></trkpt><trkpt lat="42.9712343" lon="12.2254961"><ele>582.8571428571429</ele><time>2026-05-01T08:55:09.951Z</time></trkpt><trkpt lat="42.971302" lon="12.2255269"><ele>581.0</ele><time>2026-05-01T08:55:10.95Z</time></trkpt><trkpt lat="42.9713683" lon="12.2255581"><ele>581.0</ele><time>2026-05-01T08:55:11.951Z</time></trkpt><trkpt lat="42.9714342" lon="12.2255958"><ele>581.0</ele><time>2026-05-01T08:55:12.948Z</time></trkpt><trkpt lat="42.9714964" lon="12.2256365"><ele>581.0</ele><time>2026-05-01T08:55:13.949Z</time></trkpt><trkpt lat="42.9716266" lon="12.2256687"><ele>581.0</ele><time>2026-05-01T08:55:15.95Z</time></trkpt><trkpt lat="42.9717568" lon="12.2257015"><ele>581.0</ele><time>2026-05-01T08:55:17.944Z</time></trkpt><trkpt lat="42.9718259" lon="12.2257026"><ele>579.0</ele><time>2026-05-01T08:55:18.953Z</time></trkpt><trkpt lat="42.9719112" lon="12.2256897"><ele>577.0</ele><time>2026-05-01T08:55:19.952Z</time></trkpt><trkpt lat="42.9719797" lon="12.2256604"><ele>575.0</ele><time>2026-05-01T08:55:20.956Z</time></trkpt><trkpt lat="42.9720457" lon="12.2256357"><ele>573.0</ele><time>2026-05-01T08:55:21.948Z</time></trkpt><trkpt lat="42.9721148" lon="12.2255949"><ele>571.0</ele><time>2026-05-01T08:55:22.939Z</time></trkpt><trkpt lat="42.9721826" lon="12.2255434"><ele>569.0</ele><time>2026-05-01T08:55:23.949Z</time></trkpt><trkpt lat="42.9722431" lon="12.225486"><ele>568.6666666666666</ele><time>2026-05-01T08:55:24.947Z</time></trkpt><trkpt lat="42.9723064" lon="12.2254261"><ele>568.3333333333333</ele><time>2026-05-01T08:55:26Z</time></trkpt><trkpt lat="42.9723644" lon="12.2253855"><ele>568.0</ele><time>2026-05-01T08:55:26.949Z</time></trkpt><trkpt lat="42.9724321" lon="12.2253369"><ele>567.6666666666666</ele><time>2026-05-01T08:55:27.947Z</time></trkpt><trkpt lat="42.9724954" lon="12.2252816"><ele>567.3333333333334</ele><time>2026-05-01T08:55:28.949Z</time></trkpt><trkpt lat="42.9725582" lon="12.2252172"><ele>567.0</ele><time>2026-05-01T08:55:29.951Z</time></trkpt><trkpt lat="42.9726229" lon="12.2251442"><ele>565.0</ele><time>2026-05-01T08:55:30.952Z</time></trkpt><trkpt lat="42.9726764" lon="12.2250749"><ele>563.0</ele><time>2026-05-01T08:55:32Z</time></trkpt><trkpt lat="42.9727359" lon="12.2250014"><ele>561.0</ele><time>2026-05-01T08:55:32.962Z</time></trkpt><trkpt lat="42.9727897" lon="12.2249143"><ele>559.0</ele><time>2026-05-01T08:55:33.928Z</time></trkpt><trkpt lat="42.9728385" lon="12.2248477"><ele>557.0</ele><time>2026-05-01T08:55:34.94Z</time></trkpt><trkpt lat="42.9728886" lon="12.224788"><ele>555.0</ele><time>2026-05-01T08:55:35.95Z</time></trkpt><trkpt lat="42.9729855" lon="12.2246914"><ele>555.0</ele><time>2026-05-01T08:55:38Z</time></trkpt><trkpt lat="42.9730903" lon="12.224624"><ele>555.0</ele><time>2026-05-01T08:55:39.952Z</time></trkpt><trkpt lat="42.9731871" lon="12.2245897"><ele>555.0</ele><time>2026-05-01T08:55:41.948Z</time></trkpt><trkpt lat="42.9732899" lon="12.2245612"><ele>555.0</ele><time>2026-05-01T08:55:43.945Z</time></trkpt><trkpt lat="42.9733875" lon="12.2245465"><ele>555.0</ele><time>2026-05-01T08:55:45.947Z</time></trkpt><trkpt lat="42.9734778" lon="12.2245424"><ele>553.5</ele><time>2026-05-01T08:55:47.929Z</time></trkpt><trkpt lat="42.9735519" lon="12.2245569"><ele>552.0</ele><time>2026-05-01T08:55:49.949Z</time></trkpt><trkpt lat="42.9736315" lon="12.224595"><ele>550.5</ele><time>2026-05-01T08:55:52.938Z</time></trkpt><trkpt lat="42.9736864" lon="12.2246659"><ele>549.0</ele><time>2026-05-01T08:55:56.952Z</time></trkpt><trkpt lat="42.9736837" lon="12.2247734"><ele>547.5</ele><time>2026-05-01T08:57:15.938Z</time></trkpt><trkpt lat="42.973749" lon="12.2247364"><ele>546.0</ele><time>2026-05-01T09:00:33.952Z</time></trkpt><trkpt lat="42.9737754" lon="12.224644"><ele>546.0</ele><time>2026-05-01T09:00:56.938Z</time></trkpt><trkpt lat="42.9737997" lon="12.2245636"><ele>546.0</ele><time>2026-05-01T09:01:09.949Z</time></trkpt><trkpt lat="42.9738588" lon="12.2244923"><ele>546.0</ele><time>2026-05-01T09:01:43.934Z</time></trkpt><trkpt lat="42.9739072" lon="12.2244268"><ele>546.0</ele><time>2026-05-01T09:01:47Z</time></trkpt><trkpt lat="42.9739657" lon="12.2243906"><ele>546.0</ele><time>2026-05-01T09:01:49.95Z</time></trkpt><trkpt lat="42.9740503" lon="12.2243414"><ele>546.0</ele><time>2026-05-01T09:01:52.929Z</time></trkpt><trkpt lat="42.9741151" lon="12.2242862"><ele>546.0</ele><time>2026-05-01T09:01:54.93Z</time></trkpt><trkpt lat="42.9741878" lon="12.2242438"><ele>544.4</ele><time>2026-05-01T09:01:56.934Z</time></trkpt><trkpt lat="42.9742698" lon="12.2242234"><ele>542.8</ele><time>2026-05-01T09:01:59.939Z</time></trkpt><trkpt lat="42.9743437" lon="12.2242466"><ele>541.1999999999999</ele><time>2026-05-01T09:02:02.942Z</time></trkpt><trkpt lat="42.9744199" lon="12.2242654"><ele>539.6</ele><time>2026-05-01T09:02:06.95Z</time></trkpt><trkpt lat="42.9746148" lon="12.2241572"><ele>538.0</ele><time>2026-05-01T09:02:12.951Z</time></trkpt><trkpt lat="42.9746765" lon="12.224133"><ele>538.0</ele><time>2026-05-01T09:02:14.999Z</time></trkpt><trkpt lat="42.9747478" lon="12.2241242"><ele>538.0</ele><time>2026-05-01T09:02:16.948Z</time></trkpt><trkpt lat="42.9749264" lon="12.2241237"><ele>538.0</ele><time>2026-05-01T09:02:21.949Z</time></trkpt><trkpt lat="42.97501" lon="12.2240927"><ele>538.0</ele><time>2026-05-01T09:02:23.93Z</time></trkpt><trkpt lat="42.9750784" lon="12.2240279"><ele>538.0</ele><time>2026-05-01T09:02:26.953Z</time></trkpt><trkpt lat="42.975138" lon="12.2239504"><ele>536.1428571428571</ele><time>2026-05-01T09:02:29.947Z</time></trkpt><trkpt lat="42.9751718" lon="12.223861"><ele>534.2857142857143</ele><time>2026-05-01T09:02:31.947Z</time></trkpt><trkpt lat="42.9751973" lon="12.2237682"><ele>532.4285714285714</ele><time>2026-05-01T09:02:33.957Z</time></trkpt><trkpt lat="42.9752446" lon="12.2237034"><ele>530.5714285714286</ele><time>2026-05-01T09:02:35.95Z</time></trkpt><trkpt lat="42.9753067" lon="12.2236322"><ele>528.7142857142858</ele><time>2026-05-01T09:02:39.949Z</time></trkpt><trkpt lat="42.9753467" lon="12.2235513"><ele>526.8571428571429</ele><time>2026-05-01T09:02:41.947Z</time></trkpt><trkpt lat="42.9753981" lon="12.2234679"><ele>525.0</ele><time>2026-05-01T09:02:43.999Z</time></trkpt><trkpt lat="42.9754765" lon="12.2234091"><ele>525.0</ele><time>2026-05-01T09:02:46.958Z</time></trkpt><trkpt lat="42.9755313" lon="12.2233465"><ele>525.0</ele><time>2026-05-01T09:02:49.943Z</time></trkpt><trkpt lat="42.9755486" lon="12.223257"><ele>525.0</ele><time>2026-05-01T09:02:53.94Z</time></trkpt><trkpt lat="42.9755461" lon="12.2231519"><ele>525.0</ele><time>2026-05-01T09:02:55.951Z</time></trkpt><trkpt lat="42.975542" lon="12.223058"><ele>525.0</ele><time>2026-05-01T09:02:57.943Z</time></trkpt><trkpt lat="42.9755127" lon="12.222945"><ele>525.0</ele><time>2026-05-01T09:03:00.945Z</time></trkpt><trkpt lat="42.9754979" lon="12.2228612"><ele>525.0</ele><time>2026-05-01T09:03:03.952Z</time></trkpt><trkpt lat="42.9755142" lon="12.222745"><ele>523.3333333333334</ele><time>2026-05-01T09:03:06.944Z</time></trkpt><trkpt lat="42.9755246" lon="12.2226465"><ele>521.6666666666666</ele><time>2026-05-01T09:03:08.956Z</time></trkpt><trkpt lat="42.9755015" lon="12.2225637"><ele>520.0</ele><time>2026-05-01T09:03:10.941Z</time></trkpt><trkpt lat="42.9754665" lon="12.2224724"><ele>518.3333333333333</ele><time>2026-05-01T09:03:12.952Z</time></trkpt><trkpt lat="42.9754252" lon="12.2223599"><ele>516.6666666666666</ele><time>2026-05-01T09:03:14.95Z</time></trkpt><trkpt lat="42.9753938" lon="12.2222571"><ele>515.0</ele><time>2026-05-01T09:03:16.949Z</time></trkpt><trkpt lat="42.9753312" lon="12.2221802"><ele>513.5</ele><time>2026-05-01T09:03:18.942Z</time></trkpt><trkpt lat="42.9753081" lon="12.2220688"><ele>512.0</ele><time>2026-05-01T09:03:21.935Z</time></trkpt><trkpt lat="42.9753409" lon="12.2219533"><ele>510.5</ele><time>2026-05-01T09:03:23.936Z</time></trkpt><trkpt lat="42.9753287" lon="12.22184"><ele>509.0</ele><time>2026-05-01T09:03:26Z</time></trkpt><trkpt lat="42.9752902" lon="12.221748"><ele>507.49999999999994</ele><time>2026-05-01T09:03:27.948Z</time></trkpt><trkpt lat="42.9752786" lon="12.2216396"><ele>506.0</ele><time>2026-05-01T09:03:30.961Z</time></trkpt><trkpt lat="42.9752523" lon="12.221537"><ele>504.49999999999994</ele><time>2026-05-01T09:03:33.954Z</time></trkpt><trkpt lat="42.9752041" lon="12.2214431"><ele>503.0</ele><time>2026-05-01T09:03:36.947Z</time></trkpt><trkpt lat="42.9751545" lon="12.2213498"><ele>501.5</ele><time>2026-05-01T09:03:39.947Z</time></trkpt><trkpt lat="42.9751153" lon="12.2212383"><ele>500.0</ele><time>2026-05-01T09:03:42.941Z</time></trkpt><trkpt lat="42.9750911" lon="12.2211457"><ele>498.49999999999994</ele><time>2026-05-01T09:03:44.931Z</time></trkpt><trkpt lat="42.975073" lon="12.2210388"><ele>497.0</ele><time>2026-05-01T09:03:46.938Z</time></trkpt><trkpt lat="42.9750586" lon="12.2209202"><ele>497.0</ele><time>2026-05-01T09:03:48.94Z</time></trkpt><trkpt lat="42.9750532" lon="12.220788"><ele>497.00000000000006</ele><time>2026-05-01T09:03:50.955Z</time></trkpt><trkpt lat="42.9750575" lon="12.2206683"><ele>497.00000000000006</ele><time>2026-05-01T09:03:52.939Z</time></trkpt><trkpt lat="42.9750731" lon="12.2205589"><ele>497.0</ele><time>2026-05-01T09:03:54.953Z</time></trkpt><trkpt lat="42.9750948" lon="12.2204533"><ele>497.0</ele><time>2026-05-01T09:03:56.935Z</time></trkpt><trkpt lat="42.9751219" lon="12.2203074"><ele>496.6</ele><time>2026-05-01T09:03:58.951Z</time></trkpt><trkpt lat="42.9751475" lon="12.2201576"><ele>496.20000000000005</ele><time>2026-05-01T09:04:00.954Z</time></trkpt><trkpt lat="42.9751834" lon="12.2200318"><ele>495.8</ele><time>2026-05-01T09:04:02.955Z</time></trkpt><trkpt lat="42.9752435" lon="12.2198864"><ele>495.4</ele><time>2026-05-01T09:04:04.952Z</time></trkpt><trkpt lat="42.9752864" lon="12.2197583"><ele>495.0</ele><time>2026-05-01T09:04:06.934Z</time></trkpt><trkpt lat="42.9753446" lon="12.2196304"><ele>496.1428571428571</ele><time>2026-05-01T09:04:08.953Z</time></trkpt><trkpt lat="42.9754057" lon="12.2195377"><ele>497.2857142857143</ele><time>2026-05-01T09:04:10.93Z</time></trkpt><trkpt lat="42.9754638" lon="12.2194578"><ele>498.42857142857144</ele><time>2026-05-01T09:04:12.936Z</time></trkpt><trkpt lat="42.9755139" lon="12.2194009"><ele>499.57142857142856</ele><time>2026-05-01T09:04:14.936Z</time></trkpt><trkpt lat="42.9755638" lon="12.2193378"><ele>500.7142857142858</ele><time>2026-05-01T09:04:17.94Z</time></trkpt><trkpt lat="42.9756261" lon="12.2192813"><ele>501.8571428571429</ele><time>2026-05-01T09:04:29.951Z</time></trkpt><trkpt lat="42.975676" lon="12.2192286"><ele>503.0</ele><time>2026-05-01T09:04:32.95Z</time></trkpt><trkpt lat="42.9757235" lon="12.2191591"><ele>503.0</ele><time>2026-05-01T09:04:35.944Z</time></trkpt><trkpt lat="42.9757818" lon="12.2190762"><ele>503.00000000000006</ele><time>2026-05-01T09:04:38.956Z</time></trkpt><trkpt lat="42.975847" lon="12.218992"><ele>503.0</ele><time>2026-05-01T09:04:41.949Z</time></trkpt><trkpt lat="42.9758922" lon="12.2189295"><ele>503.0</ele><time>2026-05-01T09:04:43.95Z</time></trkpt><trkpt lat="42.9759417" lon="12.2188728"><ele>503.00000000000006</ele><time>2026-05-01T09:04:45.94Z</time></trkpt><trkpt lat="42.9759879" lon="12.2188134"><ele>503.0</ele><time>2026-05-01T09:04:47.947Z</time></trkpt><trkpt lat="42.9760368" lon="12.2187465"><ele>503.0</ele><time>2026-05-01T09:04:49.95Z</time></trkpt><trkpt lat="42.9760861" lon="12.2186793"><ele>502.14285714285717</ele><time>2026-05-01T09:04:51.949Z</time></trkpt><trkpt lat="42.9761404" lon="12.218619"><ele>501.28571428571433</ele><time>2026-05-01T09:04:53.947Z</time></trkpt><trkpt lat="42.9761912" lon="12.2185633"><ele>500.42857142857144</ele><time>2026-05-01T09:04:55.952Z</time></trkpt><trkpt lat="42.9762494" lon="12.2184988"><ele>499.57142857142856</ele><time>2026-05-01T09:04:57.938Z</time></trkpt><trkpt lat="42.9763106" lon="12.2184356"><ele>498.7142857142857</ele><time>2026-05-01T09:04:59.949Z</time></trkpt><trkpt lat="42.9763573" lon="12.2183624"><ele>497.8571428571429</ele><time>2026-05-01T09:05:01.949Z</time></trkpt><trkpt lat="42.9764138" lon="12.2182896"><ele>497.0</ele><time>2026-05-01T09:05:03.955Z</time></trkpt><trkpt lat="42.9764598" lon="12.2182122"><ele>497.1428571428571</ele><time>2026-05-01T09:05:05.945Z</time></trkpt><trkpt lat="42.976504" lon="12.2181371"><ele>497.2857142857143</ele><time>2026-05-01T09:05:07.948Z</time></trkpt><trkpt lat="42.9765532" lon="12.2180602"><ele>497.42857142857144</ele><time>2026-05-01T09:05:09.946Z</time></trkpt><trkpt lat="42.9765894" lon="12.2179826"><ele>497.57142857142856</ele><time>2026-05-01T09:05:11.941Z</time></trkpt><trkpt lat="42.9766336" lon="12.2178728"><ele>497.71428571428567</ele><time>2026-05-01T09:05:14.955Z</time></trkpt><trkpt lat="42.9766584" lon="12.2177881"><ele>497.85714285714283</ele><time>2026-05-01T09:05:16.95Z</time></trkpt><trkpt lat="42.976693" lon="12.2177002"><ele>498.0</ele><time>2026-05-01T09:05:18.932Z</time></trkpt><trkpt lat="42.9767325" lon="12.2176196"><ele>495.8333333333333</ele><time>2026-05-01T09:05:20.948Z</time></trkpt><trkpt lat="42.9767893" lon="12.2175265"><ele>493.66666666666663</ele><time>2026-05-01T09:05:24Z</time></trkpt><trkpt lat="42.9768471" lon="12.2174328"><ele>491.5</ele><time>2026-05-01T09:05:26.934Z</time></trkpt><trkpt lat="42.9768907" lon="12.2173285"><ele>489.3333333333333</ele><time>2026-05-01T09:05:29.93Z</time></trkpt><trkpt lat="42.9769152" lon="12.2172162"><ele>487.16666666666663</ele><time>2026-05-01T09:05:32.936Z</time></trkpt><trkpt lat="42.9769229" lon="12.2171292"><ele>485.0</ele><time>2026-05-01T09:05:35.93Z</time></trkpt><trkpt lat="42.9769372" lon="12.2170438"><ele>484.99999999999994</ele><time>2026-05-01T09:05:38.942Z</time></trkpt><trkpt lat="42.9769436" lon="12.2169408"><ele>485.0</ele><time>2026-05-01T09:05:41.937Z</time></trkpt><trkpt lat="42.97694" lon="12.216832"><ele>485.0</ele><time>2026-05-01T09:05:44.929Z</time></trkpt><trkpt lat="42.9769246" lon="12.2167284"><ele>485.0</ele><time>2026-05-01T09:05:47.93Z</time></trkpt><trkpt lat="42.976896" lon="12.2166201"><ele>484.99999999999994</ele><time>2026-05-01T09:05:51.934Z</time></trkpt><trkpt lat="42.9768881" lon="12.2165196"><ele>485.0</ele><time>2026-05-01T09:05:54.939Z</time></trkpt><trkpt lat="42.9768813" lon="12.216419"><ele>486.4285714285715</ele><time>2026-05-01T09:05:57.934Z</time></trkpt><trkpt lat="42.9768723" lon="12.2163289"><ele>487.8571428571429</ele><time>2026-05-01T09:06:00.933Z</time></trkpt><trkpt lat="42.9768708" lon="12.2162256"><ele>489.2857142857143</ele><time>2026-05-01T09:06:03.934Z</time></trkpt><trkpt lat="42.9769027" lon="12.2161339"><ele>490.7142857142857</ele><time>2026-05-01T09:06:06.934Z</time></trkpt><trkpt lat="42.9769342" lon="12.2160392"><ele>492.1428571428571</ele><time>2026-05-01T09:06:09.94Z</time></trkpt><trkpt lat="42.9769671" lon="12.2159412"><ele>493.5714285714285</ele><time>2026-05-01T09:06:12.931Z</time></trkpt><trkpt lat="42.9769851" lon="12.2158381"><ele>494.99999999999994</ele><time>2026-05-01T09:06:15.937Z</time></trkpt><trkpt lat="42.9769988" lon="12.2157328"><ele>494.8333333333333</ele><time>2026-05-01T09:06:18.928Z</time></trkpt><trkpt lat="42.977001" lon="12.2156359"><ele>494.66666666666663</ele><time>2026-05-01T09:06:21.929Z</time></trkpt><trkpt lat="42.9769721" lon="12.2155197"><ele>494.5</ele><time>2026-05-01T09:06:25.953Z</time></trkpt><trkpt lat="42.9769581" lon="12.2154257"><ele>494.3333333333333</ele><time>2026-05-01T09:06:27.957Z</time></trkpt><trkpt lat="42.9769464" lon="12.2153269"><ele>494.16666666666663</ele><time>2026-05-01T09:06:29.937Z</time></trkpt><trkpt lat="42.9769501" lon="12.2152179"><ele>494.0</ele><time>2026-05-01T09:06:31.949Z</time></trkpt><trkpt lat="42.9769325" lon="12.2151117"><ele>493.99999999999994</ele><time>2026-05-01T09:06:33.956Z</time></trkpt><trkpt lat="42.9769149" lon="12.2150071"><ele>494.0</ele><time>2026-05-01T09:06:35.93Z</time></trkpt><trkpt lat="42.9768878" lon="12.2148922"><ele>494.0</ele><time>2026-05-01T09:06:38.937Z</time></trkpt><trkpt lat="42.9768444" lon="12.2147844"><ele>494.0</ele><time>2026-05-01T09:06:41.936Z</time></trkpt><trkpt lat="42.9768111" lon="12.214707"><ele>493.99999999999994</ele><time>2026-05-01T09:06:43.935Z</time></trkpt><trkpt lat="42.976778" lon="12.2146254"><ele>494.0</ele><time>2026-05-01T09:06:45.942Z</time></trkpt><trkpt lat="42.9767433" lon="12.2145283"><ele>494.8571428571429</ele><time>2026-05-01T09:06:47.944Z</time></trkpt><trkpt lat="42.9767057" lon="12.2144381"><ele>495.71428571428567</ele><time>2026-05-01T09:06:49.961Z</time></trkpt><trkpt lat="42.9766659" lon="12.2143491"><ele>496.57142857142856</ele><time>2026-05-01T09:06:51.941Z</time></trkpt><trkpt lat="42.9766388" lon="12.2142613"><ele>497.42857142857144</ele><time>2026-05-01T09:06:53.947Z</time></trkpt><trkpt lat="42.9766066" lon="12.2141546"><ele>498.28571428571433</ele><time>2026-05-01T09:06:56.932Z</time></trkpt><trkpt lat="42.9765904" lon="12.214066"><ele>499.1428571428571</ele><time>2026-05-01T09:06:59.957Z</time></trkpt><trkpt lat="42.9765595" lon="12.2139889"><ele>500.0</ele><time>2026-05-01T09:07:02.945Z</time></trkpt><trkpt lat="42.9764995" lon="12.2139284"><ele>496.99999999999994</ele><time>2026-05-01T09:07:06.937Z</time></trkpt><trkpt lat="42.976441" lon="12.2138439"><ele>494.0</ele><time>2026-05-01T09:07:09.934Z</time></trkpt><trkpt lat="42.9764012" lon="12.2137419"><ele>491.0</ele><time>2026-05-01T09:07:12.941Z</time></trkpt><trkpt lat="42.9763648" lon="12.2136592"><ele>488.0</ele><time>2026-05-01T09:07:16.95Z</time></trkpt><trkpt lat="42.9763137" lon="12.2135711"><ele>484.99999999999994</ele><time>2026-05-01T09:07:19.947Z</time></trkpt><trkpt lat="42.9762721" lon="12.2135034"><ele>482.0</ele><time>2026-05-01T09:07:22Z</time></trkpt><trkpt lat="42.9762108" lon="12.2134171"><ele>481.99999999999994</ele><time>2026-05-01T09:07:24.939Z</time></trkpt><trkpt lat="42.9761586" lon="12.2133537"><ele>482.0</ele><time>2026-05-01T09:07:26.949Z</time></trkpt><trkpt lat="42.9760898" lon="12.2133053"><ele>482.0</ele><time>2026-05-01T09:07:28.951Z</time></trkpt><trkpt lat="42.9760323" lon="12.2132571"><ele>482.0</ele><time>2026-05-01T09:07:30.941Z</time></trkpt><trkpt lat="42.9759514" lon="12.2132057"><ele>481.99999999999994</ele><time>2026-05-01T09:07:33.936Z</time></trkpt><trkpt lat="42.9759037" lon="12.2131442"><ele>482.0</ele><time>2026-05-01T09:07:35.95Z</time></trkpt><trkpt lat="42.975826" lon="12.2130856"><ele>480.49999999999994</ele><time>2026-05-01T09:07:38.954Z</time></trkpt><trkpt lat="42.9757417" lon="12.2130543"><ele>479.0</ele><time>2026-05-01T09:07:41.951Z</time></trkpt><trkpt lat="42.9756606" lon="12.2130009"><ele>477.5</ele><time>2026-05-01T09:07:44.958Z</time></trkpt><trkpt lat="42.9756242" lon="12.2129235"><ele>476.0</ele><time>2026-05-01T09:07:47.949Z</time></trkpt><trkpt lat="42.9756404" lon="12.2128245"><ele>474.49999999999994</ele><time>2026-05-01T09:07:50.942Z</time></trkpt><trkpt lat="42.9756586" lon="12.2127193"><ele>473.0</ele><time>2026-05-01T09:07:54.937Z</time></trkpt><trkpt lat="42.9756347" lon="12.2126299"><ele>473.0</ele><time>2026-05-01T09:07:58.943Z</time></trkpt><trkpt lat="42.9755975" lon="12.2125531"><ele>473.0</ele><time>2026-05-01T09:08:01.946Z</time></trkpt><trkpt lat="42.9755545" lon="12.2124654"><ele>473.0</ele><time>2026-05-01T09:08:04.952Z</time></trkpt><trkpt lat="42.9755245" lon="12.2123729"><ele>473.0</ele><time>2026-05-01T09:08:09.941Z</time></trkpt><trkpt lat="42.9755017" lon="12.2122838"><ele>473.0</ele><time>2026-05-01T09:08:14.941Z</time></trkpt><trkpt lat="42.975494" lon="12.2121888"><ele>473.0</ele><time>2026-05-01T09:08:23.951Z</time></trkpt><trkpt lat="42.9755193" lon="12.2121038"><ele>473.0</ele><time>2026-05-01T09:08:34.949Z</time></trkpt><trkpt lat="42.9755325" lon="12.2120179"><ele>470.28571428571433</ele><time>2026-05-01T09:08:38.957Z</time></trkpt><trkpt lat="42.9755351" lon="12.2119225"><ele>467.57142857142856</ele><time>2026-05-01T09:08:42.933Z</time></trkpt><trkpt lat="42.975567" lon="12.2118323"><ele>464.8571428571429</ele><time>2026-05-01T09:08:46.95Z</time></trkpt><trkpt lat="42.97554" lon="12.2117386"><ele>462.14285714285717</ele><time>2026-05-01T09:08:50.945Z</time></trkpt><trkpt lat="42.9755349" lon="12.2116273"><ele>459.42857142857144</ele><time>2026-05-01T09:08:55Z</time></trkpt><trkpt lat="42.975536" lon="12.2115307"><ele>456.7142857142857</ele><time>2026-05-01T09:08:58.933Z</time></trkpt><trkpt lat="42.9755199" lon="12.2114327"><ele>454.0</ele><time>2026-05-01T09:09:02.934Z</time></trkpt><trkpt lat="42.9754658" lon="12.211351"><ele>451.00000000000006</ele><time>2026-05-01T09:09:05.946Z</time></trkpt><trkpt lat="42.9753926" lon="12.211267"><ele>448.0</ele><time>2026-05-01T09:09:08.963Z</time></trkpt><trkpt lat="42.9753375" lon="12.2111791"><ele>445.0</ele><time>2026-05-01T09:09:11.949Z</time></trkpt><trkpt lat="42.9752765" lon="12.2111222"><ele>442.0</ele><time>2026-05-01T09:09:14.949Z</time></trkpt><trkpt lat="42.975208" lon="12.2110631"><ele>439.00000000000006</ele><time>2026-05-01T09:09:18.946Z</time></trkpt><trkpt lat="42.9751816" lon="12.2109632"><ele>436.0</ele><time>2026-05-01T09:09:21.93Z</time></trkpt><trkpt lat="42.9752001" lon="12.2108693"><ele>436.0</ele><time>2026-05-01T09:09:24.947Z</time></trkpt><trkpt lat="42.9752186" lon="12.210764"><ele>436.0</ele><time>2026-05-01T09:09:27.933Z</time></trkpt><trkpt lat="42.9752148" lon="12.210668"><ele>436.0</ele><time>2026-05-01T09:11:01.953Z</time></trkpt><trkpt lat="42.9751582" lon="12.2105959"><ele>436.0</ele><time>2026-05-01T09:11:05.948Z</time></trkpt><trkpt lat="42.9751049" lon="12.2105458"><ele>436.0</ele><time>2026-05-01T09:11:08.947Z</time></trkpt><trkpt lat="42.9750689" lon="12.210454"><ele>436.0</ele><time>2026-05-01T09:11:11.95Z</time></trkpt><trkpt lat="42.9750483" lon="12.210362"><ele>436.0</ele><time>2026-05-01T09:11:13.948Z</time></trkpt><trkpt lat="42.9750287" lon="12.210259"><ele>435.1666666666667</ele><time>2026-05-01T09:11:15.944Z</time></trkpt><trkpt lat="42.9750135" lon="12.2101539"><ele>434.33333333333337</ele><time>2026-05-01T09:11:17.955Z</time></trkpt><trkpt lat="42.9750008" lon="12.2100532"><ele>433.5</ele><time>2026-05-01T09:11:19.941Z</time></trkpt><trkpt lat="42.9749698" lon="12.2099757"><ele>432.66666666666663</ele><time>2026-05-01T09:11:21.952Z</time></trkpt><trkpt lat="42.9749154" lon="12.2098781"><ele>431.8333333333333</ele><time>2026-05-01T09:11:24.949Z</time></trkpt><trkpt lat="42.9748921" lon="12.2097863"><ele>431.0</ele><time>2026-05-01T09:11:26.952Z</time></trkpt><trkpt lat="42.9748682" lon="12.209682"><ele>429.49999999999994</ele><time>2026-05-01T09:11:28.949Z</time></trkpt><trkpt lat="42.9748226" lon="12.2095516"><ele>428.0</ele><time>2026-05-01T09:11:30.947Z</time></trkpt><trkpt lat="42.9747907" lon="12.2094597"><ele>426.5</ele><time>2026-05-01T09:11:32.95Z</time></trkpt><trkpt lat="42.9748207" lon="12.209384"><ele>425.0</ele><time>2026-05-01T09:11:34.954Z</time></trkpt><trkpt lat="42.9748454" lon="12.2092847"><ele>423.49999999999994</ele><time>2026-05-01T09:11:36.949Z</time></trkpt><trkpt lat="42.9748986" lon="12.2091774"><ele>422.0</ele><time>2026-05-01T09:11:39.94Z</time></trkpt><trkpt lat="42.9749578" lon="12.2091274"><ele>422.0</ele><time>2026-05-01T09:11:41.95Z</time></trkpt><trkpt lat="42.9750077" lon="12.2090388"><ele>422.0</ele><time>2026-05-01T09:11:44.95Z</time></trkpt><trkpt lat="42.9750635" lon="12.2089475"><ele>422.0</ele><time>2026-05-01T09:11:47.955Z</time></trkpt><trkpt lat="42.975116" lon="12.2088793"><ele>422.0</ele><time>2026-05-01T09:11:49.934Z</time></trkpt><trkpt lat="42.9752023" lon="12.2087878"><ele>422.0</ele><time>2026-05-01T09:11:51.95Z</time></trkpt><trkpt lat="42.9753116" lon="12.2087486"><ele>418.40000000000003</ele><time>2026-05-01T09:11:53.938Z</time></trkpt><trkpt lat="42.9754055" lon="12.2087421"><ele>414.8</ele><time>2026-05-01T09:11:55.928Z</time></trkpt><trkpt lat="42.9755011" lon="12.2086984"><ele>411.2</ele><time>2026-05-01T09:11:57.947Z</time></trkpt><trkpt lat="42.9756046" lon="12.2086415"><ele>407.6</ele><time>2026-05-01T09:11:59.967Z</time></trkpt><trkpt lat="42.9756499" lon="12.208566"><ele>404.0</ele><time>2026-05-01T09:12:00.951Z</time></trkpt><trkpt lat="42.9757095" lon="12.2084484"><ele>403.99999999999994</ele><time>2026-05-01T09:12:02.928Z</time></trkpt><trkpt lat="42.9757066" lon="12.2083392"><ele>404.0</ele><time>2026-05-01T09:12:04.952Z</time></trkpt><trkpt lat="42.9756982" lon="12.2082432"><ele>404.0</ele><time>2026-05-01T09:12:06.934Z</time></trkpt><trkpt lat="42.9757364" lon="12.2081631"><ele>404.0</ele><time>2026-05-01T09:12:08.951Z</time></trkpt><trkpt lat="42.9757622" lon="12.2080409"><ele>403.99999999999994</ele><time>2026-05-01T09:12:11.953Z</time></trkpt><trkpt lat="42.9757766" lon="12.2079242"><ele>404.0</ele><time>2026-05-01T09:12:13.944Z</time></trkpt><trkpt lat="42.9757771" lon="12.2078039"><ele>404.0</ele><time>2026-05-01T09:12:15.947Z</time></trkpt><trkpt lat="42.9757744" lon="12.2076914"><ele>404.0</ele><time>2026-05-01T09:12:17.938Z</time></trkpt><trkpt lat="42.9757497" lon="12.2075928"><ele>404.0</ele><time>2026-05-01T09:12:20.953Z</time></trkpt><trkpt lat="42.9757126" lon="12.2075012"><ele>404.0</ele><time>2026-05-01T09:12:30.94Z</time></trkpt><trkpt lat="42.975678" lon="12.2074253"><ele>404.0</ele><time>2026-05-01T09:12:32.944Z</time></trkpt><trkpt lat="42.9756483" lon="12.2073425"><ele>404.0</ele><time>2026-05-01T09:12:34.947Z</time></trkpt><trkpt lat="42.9756146" lon="12.2072572"><ele>404.0</ele><time>2026-05-01T09:12:36.947Z</time></trkpt><trkpt lat="42.9755697" lon="12.2071791"><ele>404.16666666666663</ele><time>2026-05-01T09:12:38.952Z</time></trkpt><trkpt lat="42.97553" lon="12.2070959"><ele>404.3333333333333</ele><time>2026-05-01T09:12:40.951Z</time></trkpt><trkpt lat="42.9754853" lon="12.207019"><ele>404.5</ele><time>2026-05-01T09:12:42.95Z</time></trkpt><trkpt lat="42.9754347" lon="12.206965"><ele>404.66666666666663</ele><time>2026-05-01T09:12:44.95Z</time></trkpt><trkpt lat="42.9753561" lon="12.2068918"><ele>404.8333333333333</ele><time>2026-05-01T09:12:47.953Z</time></trkpt><trkpt lat="42.9752638" lon="12.2068445"><ele>405.0</ele><time>2026-05-01T09:12:50.958Z</time></trkpt><trkpt lat="42.975151" lon="12.2068237"><ele>405.0</ele><time>2026-05-01T09:12:52.945Z</time></trkpt><trkpt lat="42.9750575" lon="12.2067781"><ele>405.0</ele><time>2026-05-01T09:12:54.949Z</time></trkpt><trkpt lat="42.9749587" lon="12.206711"><ele>405.0</ele><time>2026-05-01T09:12:56.936Z</time></trkpt><trkpt lat="42.974851" lon="12.2066291"><ele>405.0</ele><time>2026-05-01T09:12:58.949Z</time></trkpt><trkpt lat="42.9747936" lon="12.2065937"><ele>405.0</ele><time>2026-05-01T09:12:59.936Z</time></trkpt><trkpt lat="42.9747293" lon="12.2065591"><ele>404.1666666666667</ele><time>2026-05-01T09:13:00.939Z</time></trkpt><trkpt lat="42.9746678" lon="12.2065245"><ele>403.33333333333337</ele><time>2026-05-01T09:13:01.954Z</time></trkpt><trkpt lat="42.9745678" lon="12.2064444"><ele>402.5</ele><time>2026-05-01T09:13:03.949Z</time></trkpt><trkpt lat="42.9745055" lon="12.2064048"><ele>401.6666666666667</ele><time>2026-05-01T09:13:04.95Z</time></trkpt><trkpt lat="42.9744441" lon="12.2063649"><ele>400.83333333333337</ele><time>2026-05-01T09:13:05.951Z</time></trkpt><trkpt lat="42.974359" lon="12.206256"><ele>400.0</ele><time>2026-05-01T09:13:07.949Z</time></trkpt><trkpt lat="42.9743003" lon="12.2061176"><ele>399.2</ele><time>2026-05-01T09:13:09.935Z</time></trkpt><trkpt lat="42.9742752" lon="12.2059497"><ele>398.4</ele><time>2026-05-01T09:13:11.943Z</time></trkpt><trkpt lat="42.9742577" lon="12.205793"><ele>397.6</ele><time>2026-05-01T09:13:13.934Z</time></trkpt><trkpt lat="42.9742491" lon="12.2057042"><ele>396.8</ele><time>2026-05-01T09:13:14.938Z</time></trkpt><trkpt lat="42.9742405" lon="12.2055618"><ele>396.0</ele><time>2026-05-01T09:13:16.959Z</time></trkpt><trkpt lat="42.974304" lon="12.2054067"><ele>393.5</ele><time>2026-05-01T09:13:19Z</time></trkpt><trkpt lat="42.974341" lon="12.2053217"><ele>391.0</ele><time>2026-05-01T09:13:19.932Z</time></trkpt><trkpt lat="42.9743746" lon="12.2052349"><ele>388.5</ele><time>2026-05-01T09:13:20.924Z</time></trkpt><trkpt lat="42.9744031" lon="12.2051563"><ele>386.0</ele><time>2026-05-01T09:13:21.927Z</time></trkpt><trkpt lat="42.9744369" lon="12.2050759"><ele>383.5</ele><time>2026-05-01T09:13:22.932Z</time></trkpt><trkpt lat="42.9744954" lon="12.2049323"><ele>381.0</ele><time>2026-05-01T09:13:24.932Z</time></trkpt><trkpt lat="42.9745732" lon="12.2047957"><ele>378.0</ele><time>2026-05-01T09:13:26.923Z</time></trkpt><trkpt lat="42.9746521" lon="12.2046857"><ele>375.0</ele><time>2026-05-01T09:13:28.929Z</time></trkpt><trkpt lat="42.9747392" lon="12.2045785"><ele>372.0</ele><time>2026-05-01T09:13:31Z</time></trkpt><trkpt lat="42.9748178" lon="12.2045267"><ele>369.0</ele><time>2026-05-01T09:13:31.93Z</time></trkpt><trkpt lat="42.9748847" lon="12.2044919"><ele>366.0</ele><time>2026-05-01T09:13:32.933Z</time></trkpt><trkpt lat="42.9749436" lon="12.2044582"><ele>366.0</ele><time>2026-05-01T09:13:33.943Z</time></trkpt><trkpt lat="42.9750102" lon="12.2044311"><ele>366.0</ele><time>2026-05-01T09:13:34.927Z</time></trkpt><trkpt lat="42.9750725" lon="12.2043986"><ele>366.0</ele><time>2026-05-01T09:13:35.938Z</time></trkpt><trkpt lat="42.9751333" lon="12.2043674"><ele>366.0</ele><time>2026-05-01T09:13:37Z</time></trkpt><trkpt lat="42.9751954" lon="12.2043349"><ele>366.0</ele><time>2026-05-01T09:13:37.931Z</time></trkpt><trkpt lat="42.975291" lon="12.2042131"><ele>366.0</ele><time>2026-05-01T09:13:39.932Z</time></trkpt><trkpt lat="42.9753398" lon="12.2041569"><ele>365.20000000000005</ele><time>2026-05-01T09:13:40.932Z</time></trkpt><trkpt lat="42.9754429" lon="12.2040899"><ele>364.40000000000003</ele><time>2026-05-01T09:13:42.931Z</time></trkpt><trkpt lat="42.9755021" lon="12.2040449"><ele>363.6</ele><time>2026-05-01T09:13:43.927Z</time></trkpt><trkpt lat="42.9756071" lon="12.2039732"><ele>362.8</ele><time>2026-05-01T09:13:45.927Z</time></trkpt><trkpt lat="42.9756789" lon="12.2038608"><ele>362.0</ele><time>2026-05-01T09:13:47.932Z</time></trkpt><trkpt lat="42.9757324" lon="12.2037838"><ele>360.1666666666667</ele><time>2026-05-01T09:13:49.93Z</time></trkpt><trkpt lat="42.9757493" lon="12.2036844"><ele>358.33333333333337</ele><time>2026-05-01T09:14:05.93Z</time></trkpt><trkpt lat="42.9757996" lon="12.2036265"><ele>356.5</ele><time>2026-05-01T09:14:07.943Z</time></trkpt><trkpt lat="42.9758643" lon="12.2036102"><ele>354.6666666666667</ele><time>2026-05-01T09:14:10.958Z</time></trkpt><trkpt lat="42.9759391" lon="12.2035944"><ele>352.8333333333333</ele><time>2026-05-01T09:14:14.95Z</time></trkpt><trkpt lat="42.9760154" lon="12.2035633"><ele>351.0</ele><time>2026-05-01T09:14:18.938Z</time></trkpt><trkpt lat="42.9761034" lon="12.2035392"><ele>349.8333333333333</ele><time>2026-05-01T09:14:21.937Z</time></trkpt><trkpt lat="42.9761551" lon="12.2035978"><ele>348.6666666666667</ele><time>2026-05-01T09:14:23.954Z</time></trkpt><trkpt lat="42.9761793" lon="12.2037057"><ele>347.5</ele><time>2026-05-01T09:14:26Z</time></trkpt><trkpt lat="42.9762198" lon="12.2038018"><ele>346.33333333333337</ele><time>2026-05-01T09:14:27.931Z</time></trkpt><trkpt lat="42.9762946" lon="12.2038691"><ele>345.1666666666667</ele><time>2026-05-01T09:14:29.933Z</time></trkpt><trkpt lat="42.9763491" lon="12.2039696"><ele>344.0</ele><time>2026-05-01T09:14:32.94Z</time></trkpt><trkpt lat="42.976401" lon="12.204027"><ele>344.0</ele><time>2026-05-01T09:14:34.949Z</time></trkpt><trkpt lat="42.9764451" lon="12.2041156"><ele>344.0</ele><time>2026-05-01T09:14:37.927Z</time></trkpt><trkpt lat="42.9765216" lon="12.2041415"><ele>344.0</ele><time>2026-05-01T09:14:40.948Z</time></trkpt><trkpt lat="42.9765999" lon="12.2041798"><ele>344.0</ele><time>2026-05-01T09:14:44Z</time></trkpt><trkpt lat="42.9766636" lon="12.2042159"><ele>344.0</ele><time>2026-05-01T09:14:45.934Z</time></trkpt><trkpt lat="42.9767403" lon="12.2042664"><ele>344.0</ele><time>2026-05-01T09:14:48.929Z</time></trkpt><trkpt lat="42.9768056" lon="12.2043196"><ele>341.83333333333337</ele><time>2026-05-01T09:14:51.939Z</time></trkpt><trkpt lat="42.9768701" lon="12.2043538"><ele>339.6666666666667</ele><time>2026-05-01T09:14:53.934Z</time></trkpt><trkpt lat="42.9769516" lon="12.2043955"><ele>337.5</ele><time>2026-05-01T09:14:56.942Z</time></trkpt><trkpt lat="42.9770239" lon="12.2044352"><ele>335.3333333333333</ele><time>2026-05-01T09:14:59.929Z</time></trkpt><trkpt lat="42.9770815" lon="12.2043916"><ele>333.16666666666663</ele><time>2026-05-01T09:15:02.953Z</time></trkpt><trkpt lat="42.9771636" lon="12.204365"><ele>331.0</ele><time>2026-05-01T09:15:06.919Z</time></trkpt><trkpt lat="42.9772271" lon="12.2043259"><ele>331.0</ele><time>2026-05-01T09:15:08.93Z</time></trkpt><trkpt lat="42.9773305" lon="12.2042807"><ele>331.0</ele><time>2026-05-01T09:15:10.931Z</time></trkpt><trkpt lat="42.9774203" lon="12.2042687"><ele>331.0</ele><time>2026-05-01T09:15:12.93Z</time></trkpt><trkpt lat="42.9775274" lon="12.2042542"><ele>331.0</ele><time>2026-05-01T09:15:14.929Z</time></trkpt><trkpt lat="42.9775908" lon="12.2042799"><ele>331.0</ele><time>2026-05-01T09:15:15.933Z</time></trkpt><trkpt lat="42.9776732" lon="12.2043276"><ele>330.16666666666663</ele><time>2026-05-01T09:15:17.93Z</time></trkpt><trkpt lat="42.9777086" lon="12.2044196"><ele>329.3333333333333</ele><time>2026-05-01T09:15:20.943Z</time></trkpt><trkpt lat="42.9776919" lon="12.2045615"><ele>328.5</ele><time>2026-05-01T09:15:22.943Z</time></trkpt><trkpt lat="42.9776955" lon="12.2046886"><ele>327.6666666666667</ele><time>2026-05-01T09:15:24.94Z</time></trkpt><trkpt lat="42.9777501" lon="12.2047893"><ele>326.83333333333337</ele><time>2026-05-01T09:15:26.954Z</time></trkpt><trkpt lat="42.9778258" lon="12.2047933"><ele>326.0</ele><time>2026-05-01T09:15:29.963Z</time></trkpt><trkpt lat="42.9778854" lon="12.2048318"><ele>326.0</ele><time>2026-05-01T09:15:41.952Z</time></trkpt><trkpt lat="42.9779537" lon="12.2048873"><ele>326.0</ele><time>2026-05-01T09:15:49.949Z</time></trkpt><trkpt lat="42.9779999" lon="12.2049594"><ele>326.0</ele><time>2026-05-01T09:15:52.95Z</time></trkpt><trkpt lat="42.9780633" lon="12.2050244"><ele>326.0</ele><time>2026-05-01T09:15:55.946Z</time></trkpt><trkpt lat="42.9781324" lon="12.2050557"><ele>326.0</ele><time>2026-05-01T09:15:58.939Z</time></trkpt><trkpt lat="42.9781962" lon="12.2050393"><ele>326.0</ele><time>2026-05-01T09:16:02.951Z</time></trkpt><trkpt lat="42.9782627" lon="12.2050364"><ele>326.0</ele><time>2026-05-01T09:16:05.949Z</time></trkpt><trkpt lat="42.9783214" lon="12.2050828"><ele>324.1666666666667</ele><time>2026-05-01T09:16:08.954Z</time></trkpt><trkpt lat="42.9783731" lon="12.2051319"><ele>322.33333333333337</ele><time>2026-05-01T09:16:10.949Z</time></trkpt><trkpt lat="42.9784262" lon="12.2051825"><ele>320.5</ele><time>2026-05-01T09:16:12.954Z</time></trkpt><trkpt lat="42.9784947" lon="12.2052589"><ele>318.6666666666667</ele><time>2026-05-01T09:16:15.95Z</time></trkpt><trkpt lat="42.9785673" lon="12.2053322"><ele>316.8333333333333</ele><time>2026-05-01T09:16:54.935Z</time></trkpt><trkpt lat="42.9786543" lon="12.2053516"><ele>315.0</ele><time>2026-05-01T09:16:59.945Z</time></trkpt><trkpt lat="42.9787369" lon="12.2053887"><ele>315.0</ele><time>2026-05-01T09:17:02.953Z</time></trkpt><trkpt lat="42.9788145" lon="12.2053523"><ele>315.0</ele><time>2026-05-01T09:17:05.949Z</time></trkpt><trkpt lat="42.9788642" lon="12.2052863"><ele>315.0</ele><time>2026-05-01T09:17:07.94Z</time></trkpt><trkpt lat="42.9789237" lon="12.2052045"><ele>315.0</ele><time>2026-05-01T09:17:09.95Z</time></trkpt><trkpt lat="42.978962" lon="12.2051033"><ele>315.0</ele><time>2026-05-01T09:17:11.946Z</time></trkpt><trkpt lat="42.978981" lon="12.2050047"><ele>315.0</ele><time>2026-05-01T09:17:13.967Z</time></trkpt><trkpt lat="42.9790059" lon="12.2049014"><ele>313.8333333333333</ele><time>2026-05-01T09:17:15.939Z</time></trkpt><trkpt lat="42.9790033" lon="12.2047995"><ele>312.6666666666667</ele><time>2026-05-01T09:17:17.951Z</time></trkpt><trkpt lat="42.9789806" lon="12.2047161"><ele>311.5</ele><time>2026-05-01T09:17:19.948Z</time></trkpt><trkpt lat="42.9789866" lon="12.2045887"><ele>310.33333333333337</ele><time>2026-05-01T09:17:22.951Z</time></trkpt><trkpt lat="42.9789924" lon="12.2044726"><ele>309.1666666666667</ele><time>2026-05-01T09:17:24.95Z</time></trkpt><trkpt lat="42.9789679" lon="12.204371"><ele>308.0</ele><time>2026-05-01T09:17:26.928Z</time></trkpt><trkpt lat="42.9789184" lon="12.204255"><ele>308.0</ele><time>2026-05-01T09:17:28.945Z</time></trkpt><trkpt lat="42.9788684" lon="12.2041604"><ele>308.0</ele><time>2026-05-01T09:17:30.957Z</time></trkpt><trkpt lat="42.9789115" lon="12.2040377"><ele>308.0</ele><time>2026-05-01T09:17:32.948Z</time></trkpt><trkpt lat="42.9789223" lon="12.2039228"><ele>308.0</ele><time>2026-05-01T09:17:34.951Z</time></trkpt><trkpt lat="42.9789288" lon="12.2037966"><ele>308.0</ele><time>2026-05-01T09:17:37Z</time></trkpt><trkpt lat="42.9789296" lon="12.2036808"><ele>308.0</ele><time>2026-05-01T09:17:38.949Z</time></trkpt><trkpt lat="42.9789213" lon="12.2035703"><ele>306.6666666666667</ele><time>2026-05-01T09:17:40.949Z</time></trkpt><trkpt lat="42.9789408" lon="12.2034744"><ele>305.33333333333337</ele><time>2026-05-01T09:17:42.94Z</time></trkpt><trkpt lat="42.9789944" lon="12.2033938"><ele>304.0</ele><time>2026-05-01T09:17:44.945Z</time></trkpt><trkpt lat="42.979059" lon="12.2033295"><ele>302.6666666666667</ele><time>2026-05-01T09:17:46.945Z</time></trkpt><trkpt lat="42.9791237" lon="12.2032995"><ele>301.3333333333333</ele><time>2026-05-01T09:17:48.939Z</time></trkpt><trkpt lat="42.9791935" lon="12.203302"><ele>300.0</ele><time>2026-05-01T09:17:50.941Z</time></trkpt><trkpt lat="42.9792751" lon="12.2033602"><ele>297.6666666666667</ele><time>2026-05-01T09:17:52.953Z</time></trkpt><trkpt lat="42.9793343" lon="12.2034159"><ele>295.3333333333333</ele><time>2026-05-01T09:17:53.949Z</time></trkpt><trkpt lat="42.9794093" lon="12.2035004"><ele>293.0</ele><time>2026-05-01T09:17:55.948Z</time></trkpt><trkpt lat="42.9795094" lon="12.2035026"><ele>290.66666666666663</ele><time>2026-05-01T09:17:57.933Z</time></trkpt><trkpt lat="42.9795682" lon="12.2035441"><ele>288.3333333333333</ele><time>2026-05-01T09:17:58.956Z</time></trkpt><trkpt lat="42.9796317" lon="12.2036196"><ele>286.0</ele><time>2026-05-01T09:18:01Z</time></trkpt><trkpt lat="42.979707" lon="12.2036837"><ele>286.0</ele><time>2026-05-01T09:18:02.954Z</time></trkpt><trkpt lat="42.979813" lon="12.2037322"><ele>286.0</ele><time>2026-05-01T09:18:04.948Z</time></trkpt><trkpt lat="42.9799014" lon="12.2037591"><ele>286.0</ele><time>2026-05-01T09:18:07Z</time></trkpt><trkpt lat="42.9799109" lon="12.2036442"><ele>286.0</ele><time>2026-05-01T09:18:09.93Z</time></trkpt><trkpt lat="42.9799391" lon="12.2035575"><ele>286.0</ele><time>2026-05-01T09:18:12.936Z</time></trkpt><trkpt lat="42.9799694" lon="12.2034716"><ele>286.0</ele><time>2026-05-01T09:18:16.945Z</time></trkpt><trkpt lat="42.9800367" lon="12.2034394"><ele>285.8333333333333</ele><time>2026-05-01T09:18:20.953Z</time></trkpt><trkpt lat="42.9801101" lon="12.2034463"><ele>285.66666666666663</ele><time>2026-05-01T09:18:24.941Z</time></trkpt><trkpt lat="42.9801801" lon="12.2033888"><ele>285.5</ele><time>2026-05-01T09:18:27.939Z</time></trkpt><trkpt lat="42.9802401" lon="12.2033504"><ele>285.3333333333333</ele><time>2026-05-01T09:18:29.952Z</time></trkpt><trkpt lat="42.9802868" lon="12.2032553"><ele>285.1666666666667</ele><time>2026-05-01T09:18:32.946Z</time></trkpt><trkpt lat="42.980323" lon="12.2031831"><ele>285.0</ele><time>2026-05-01T09:18:34.946Z</time></trkpt><trkpt lat="42.9803611" lon="12.2030679"><ele>285.0</ele><time>2026-05-01T09:18:37.949Z</time></trkpt><trkpt lat="42.9804086" lon="12.2029832"><ele>285.0</ele><time>2026-05-01T09:18:40.954Z</time></trkpt><trkpt lat="42.9804661" lon="12.2029112"><ele>285.0</ele><time>2026-05-01T09:18:43.939Z</time></trkpt><trkpt lat="42.9805213" lon="12.2028244"><ele>285.0</ele><time>2026-05-01T09:18:46.947Z</time></trkpt><trkpt lat="42.9805654" lon="12.2027539"><ele>285.0</ele><time>2026-05-01T09:18:50.933Z</time></trkpt><trkpt lat="42.9805721" lon="12.202638"><ele>285.0</ele><time>2026-05-01T09:22:05.925Z</time></trkpt><trkpt lat="42.9805833" lon="12.2025519"><ele>285.0</ele><time>2026-05-01T09:22:07.927Z</time></trkpt><trkpt lat="42.9806038" lon="12.2024238"><ele>285.0</ele><time>2026-05-01T09:22:09.927Z</time></trkpt><trkpt lat="42.980617" lon="12.2023272"><ele>285.0</ele><time>2026-05-01T09:22:10.925Z</time></trkpt><trkpt lat="42.9806385" lon="12.2022134"><ele>285.0</ele><time>2026-05-01T09:22:12Z</time></trkpt><trkpt lat="42.9806595" lon="12.2020902"><ele>285.0</ele><time>2026-05-01T09:22:12.925Z</time></trkpt><trkpt lat="42.9806824" lon="12.2019741"><ele>285.0</ele><time>2026-05-01T09:22:13.929Z</time></trkpt><trkpt lat="42.9807118" lon="12.2018595"><ele>282.8</ele><time>2026-05-01T09:22:14.925Z</time></trkpt><trkpt lat="42.980753" lon="12.2017531"><ele>280.6</ele><time>2026-05-01T09:22:15.926Z</time></trkpt><trkpt lat="42.9807975" lon="12.2016465"><ele>278.4</ele><time>2026-05-01T09:22:16.928Z</time></trkpt><trkpt lat="42.9808605" lon="12.2015414"><ele>276.2</ele><time>2026-05-01T09:22:17.928Z</time></trkpt><trkpt lat="42.9809279" lon="12.2014385"><ele>274.0</ele><time>2026-05-01T09:22:18.928Z</time></trkpt><trkpt lat="42.9809938" lon="12.2013307"><ele>272.2</ele><time>2026-05-01T09:22:19.928Z</time></trkpt><trkpt lat="42.9810673" lon="12.2012238"><ele>270.4</ele><time>2026-05-01T09:22:20.93Z</time></trkpt><trkpt lat="42.9811327" lon="12.2011188"><ele>268.6</ele><time>2026-05-01T09:22:21.943Z</time></trkpt><trkpt lat="42.9812014" lon="12.2010145"><ele>266.8</ele><time>2026-05-01T09:22:22.943Z</time></trkpt><trkpt lat="42.981272" lon="12.2009184"><ele>265.0</ele><time>2026-05-01T09:22:23.932Z</time></trkpt><trkpt lat="42.9813344" lon="12.2008186"><ele>265.0</ele><time>2026-05-01T09:22:24.941Z</time></trkpt><trkpt lat="42.9813986" lon="12.2007142"><ele>265.0</ele><time>2026-05-01T09:22:25.946Z</time></trkpt><trkpt lat="42.9814487" lon="12.2006107"><ele>265.0</ele><time>2026-05-01T09:22:26.935Z</time></trkpt><trkpt lat="42.9814926" lon="12.2004958"><ele>265.0</ele><time>2026-05-01T09:22:27.935Z</time></trkpt><trkpt lat="42.9815317" lon="12.2003866"><ele>265.0</ele><time>2026-05-01T09:22:29Z</time></trkpt><trkpt lat="42.9815718" lon="12.2002615"><ele>263.8</ele><time>2026-05-01T09:22:29.942Z</time></trkpt><trkpt lat="42.9816245" lon="12.2001372"><ele>262.6</ele><time>2026-05-01T09:22:30.94Z</time></trkpt><trkpt lat="42.9816695" lon="12.200012"><ele>261.4</ele><time>2026-05-01T09:22:31.947Z</time></trkpt><trkpt lat="42.9817052" lon="12.199897"><ele>260.2</ele><time>2026-05-01T09:22:32.945Z</time></trkpt><trkpt lat="42.9817275" lon="12.1997874"><ele>259.0</ele><time>2026-05-01T09:22:33.936Z</time></trkpt><trkpt lat="42.9817463" lon="12.1996706"><ele>257.5</ele><time>2026-05-01T09:22:34.946Z</time></trkpt><trkpt lat="42.9817543" lon="12.1995542"><ele>256.0</ele><time>2026-05-01T09:22:35.934Z</time></trkpt><trkpt lat="42.9817634" lon="12.1994459"><ele>254.5</ele><time>2026-05-01T09:22:36.937Z</time></trkpt><trkpt lat="42.9817743" lon="12.1993374"><ele>253.0</ele><time>2026-05-01T09:22:37.941Z</time></trkpt><trkpt lat="42.9817836" lon="12.1992342"><ele>251.49999999999997</ele><time>2026-05-01T09:22:38.947Z</time></trkpt><trkpt lat="42.9817746" lon="12.1991411"><ele>250.0</ele><time>2026-05-01T09:22:39.938Z</time></trkpt><trkpt lat="42.9817523" lon="12.1989709"><ele>248.4</ele><time>2026-05-01T09:22:41.941Z</time></trkpt><trkpt lat="42.9818333" lon="12.198824"><ele>246.8</ele><time>2026-05-01T09:22:43.942Z</time></trkpt><trkpt lat="42.9818777" lon="12.1987248"><ele>245.2</ele><time>2026-05-01T09:22:44.935Z</time></trkpt><trkpt lat="42.981907" lon="12.1986184"><ele>243.6</ele><time>2026-05-01T09:22:45.949Z</time></trkpt><trkpt lat="42.9819347" lon="12.1985087"><ele>242.0</ele><time>2026-05-01T09:22:46.943Z</time></trkpt><trkpt lat="42.9819647" lon="12.1984013"><ele>242.0</ele><time>2026-05-01T09:22:47.952Z</time></trkpt><trkpt lat="42.9819841" lon="12.1982914"><ele>242.0</ele><time>2026-05-01T09:22:48.936Z</time></trkpt><trkpt lat="42.9820132" lon="12.1981827"><ele>242.0</ele><time>2026-05-01T09:22:49.948Z</time></trkpt><trkpt lat="42.9820367" lon="12.1980678"><ele>242.0</ele><time>2026-05-01T09:22:50.945Z</time></trkpt><trkpt lat="42.9820643" lon="12.1979629"><ele>242.0</ele><time>2026-05-01T09:22:51.934Z</time></trkpt><trkpt lat="42.9821008" lon="12.1977814"><ele>242.6</ele><time>2026-05-01T09:22:53.948Z</time></trkpt><trkpt lat="42.9821238" lon="12.1976768"><ele>243.2</ele><time>2026-05-01T09:22:54.938Z</time></trkpt><trkpt lat="42.9821413" lon="12.1975766"><ele>243.8</ele><time>2026-05-01T09:22:55.95Z</time></trkpt><trkpt lat="42.9821718" lon="12.19744"><ele>244.4</ele><time>2026-05-01T09:22:57.932Z</time></trkpt><trkpt lat="42.9822235" lon="12.197292"><ele>245.0</ele><time>2026-05-01T09:22:59.932Z</time></trkpt><trkpt lat="42.9822644" lon="12.1971401"><ele>245.4</ele><time>2026-05-01T09:23:01.949Z</time></trkpt><trkpt lat="42.982307" lon="12.1970335"><ele>245.8</ele><time>2026-05-01T09:23:02.943Z</time></trkpt><trkpt lat="42.9823338" lon="12.1969231"><ele>246.2</ele><time>2026-05-01T09:23:04.949Z</time></trkpt><trkpt lat="42.9823664" lon="12.1967812"><ele>246.6</ele><time>2026-05-01T09:23:06.939Z</time></trkpt><trkpt lat="42.9823936" lon="12.1966465"><ele>247.0</ele><time>2026-05-01T09:23:08.943Z</time></trkpt><trkpt lat="42.9824121" lon="12.1965221"><ele>247.16666666666666</ele><time>2026-05-01T09:23:10.95Z</time></trkpt><trkpt lat="42.982451" lon="12.1964191"><ele>247.33333333333331</ele><time>2026-05-01T09:23:12.93Z</time></trkpt><trkpt lat="42.9825168" lon="12.1964603"><ele>247.5</ele><time>2026-05-01T09:23:14.929Z</time></trkpt><trkpt lat="42.9825905" lon="12.1964882"><ele>247.66666666666669</ele><time>2026-05-01T09:23:16.945Z</time></trkpt><trkpt lat="42.9826545" lon="12.1965336"><ele>247.83333333333334</ele><time>2026-05-01T09:23:18.936Z</time></trkpt><trkpt lat="42.982728" lon="12.1965821"><ele>248.0</ele><time>2026-05-01T09:23:20.944Z</time></trkpt><trkpt lat="42.9827997" lon="12.196638"><ele>247.50000000000003</ele><time>2026-05-01T09:23:22.957Z</time></trkpt><trkpt lat="42.9828705" lon="12.1966872"><ele>247.0</ele><time>2026-05-01T09:23:24.941Z</time></trkpt><trkpt lat="42.9829469" lon="12.1967403"><ele>246.5</ele><time>2026-05-01T09:23:26.934Z</time></trkpt><trkpt lat="42.9830241" lon="12.1968046"><ele>246.0</ele><time>2026-05-01T09:23:28.939Z</time></trkpt><trkpt lat="42.9830919" lon="12.1968594"><ele>245.50000000000003</ele><time>2026-05-01T09:23:30.939Z</time></trkpt><trkpt lat="42.9831569" lon="12.1969174"><ele>245.0</ele><time>2026-05-01T09:23:32.947Z</time></trkpt><trkpt lat="42.9832241" lon="12.1969845"><ele>245.00000000000003</ele><time>2026-05-01T09:23:34.944Z</time></trkpt><trkpt lat="42.9832892" lon="12.1970515"><ele>245.0</ele><time>2026-05-01T09:23:36.935Z</time></trkpt><trkpt lat="42.9833518" lon="12.1971265"><ele>245.0</ele><time>2026-05-01T09:23:38.942Z</time></trkpt><trkpt lat="42.9834161" lon="12.1972055"><ele>245.0</ele><time>2026-05-01T09:23:40.96Z</time></trkpt><trkpt lat="42.9834811" lon="12.1972952"><ele>245.00000000000003</ele><time>2026-05-01T09:23:42.933Z</time></trkpt><trkpt lat="42.983547" lon="12.1973623"><ele>245.0</ele><time>2026-05-01T09:23:44.934Z</time></trkpt><trkpt lat="42.9836007" lon="12.1974483"><ele>243.6</ele><time>2026-05-01T09:23:46.94Z</time></trkpt><trkpt lat="42.9836724" lon="12.197545"><ele>242.2</ele><time>2026-05-01T09:23:48.941Z</time></trkpt><trkpt lat="42.9837363" lon="12.1976333"><ele>240.8</ele><time>2026-05-01T09:23:50.942Z</time></trkpt><trkpt lat="42.9838002" lon="12.1977191"><ele>239.4</ele><time>2026-05-01T09:23:52.95Z</time></trkpt><trkpt lat="42.983857" lon="12.1978041"><ele>238.0</ele><time>2026-05-01T09:23:54.936Z</time></trkpt><trkpt lat="42.9839263" lon="12.1978977"><ele>238.0</ele><time>2026-05-01T09:23:56.94Z</time></trkpt><trkpt lat="42.9839899" lon="12.1979918"><ele>238.0</ele><time>2026-05-01T09:23:58.948Z</time></trkpt><trkpt lat="42.9840506" lon="12.1980871"><ele>238.0</ele><time>2026-05-01T09:24:00.93Z</time></trkpt><trkpt lat="42.984105" lon="12.1981904"><ele>238.0</ele><time>2026-05-01T09:24:02.928Z</time></trkpt><trkpt lat="42.9841429" lon="12.1982893"><ele>238.0</ele><time>2026-05-01T09:24:04.948Z</time></trkpt><trkpt lat="42.9841816" lon="12.1984042"><ele>237.2</ele><time>2026-05-01T09:24:06.936Z</time></trkpt><trkpt lat="42.9842171" lon="12.1985147"><ele>236.4</ele><time>2026-05-01T09:24:08.95Z</time></trkpt><trkpt lat="42.9842483" lon="12.1986344"><ele>235.59999999999997</ele><time>2026-05-01T09:24:10.95Z</time></trkpt><trkpt lat="42.9842767" lon="12.1987473"><ele>234.79999999999998</ele><time>2026-05-01T09:24:12.946Z</time></trkpt><trkpt lat="42.9843085" lon="12.1988719"><ele>234.0</ele><time>2026-05-01T09:24:14.951Z</time></trkpt><trkpt lat="42.9843395" lon="12.1989931"><ele>234.0</ele><time>2026-05-01T09:24:16.945Z</time></trkpt><trkpt lat="42.9843665" lon="12.1991133"><ele>234.0</ele><time>2026-05-01T09:24:18.941Z</time></trkpt><trkpt lat="42.9844041" lon="12.1992283"><ele>234.0</ele><time>2026-05-01T09:24:20.953Z</time></trkpt><trkpt lat="42.9844381" lon="12.1993462"><ele>234.0</ele><time>2026-05-01T09:24:22.94Z</time></trkpt><trkpt lat="42.9844756" lon="12.1994556"><ele>234.0</ele><time>2026-05-01T09:24:24.933Z</time></trkpt><trkpt lat="42.9845109" lon="12.1995551"><ele>234.0</ele><time>2026-05-01T09:24:26.955Z</time></trkpt><trkpt lat="42.9845537" lon="12.1996651"><ele>234.0</ele><time>2026-05-01T09:24:28.955Z</time></trkpt><trkpt lat="42.9845988" lon="12.1997734"><ele>234.0</ele><time>2026-05-01T09:24:30.938Z</time></trkpt><trkpt lat="42.9846425" lon="12.1998738"><ele>234.0</ele><time>2026-05-01T09:24:32.952Z</time></trkpt><trkpt lat="42.9846977" lon="12.199979"><ele>234.0</ele><time>2026-05-01T09:24:34.951Z</time></trkpt><trkpt lat="42.9847357" lon="12.2000881"><ele>234.0</ele><time>2026-05-01T09:24:36.944Z</time></trkpt><trkpt lat="42.9847812" lon="12.2001784"><ele>234.0</ele><time>2026-05-01T09:24:38.944Z</time></trkpt><trkpt lat="42.9848195" lon="12.2002906"><ele>234.0</ele><time>2026-05-01T09:24:40.948Z</time></trkpt><trkpt lat="42.9848664" lon="12.2004042"><ele>233.99999999999997</ele><time>2026-05-01T09:24:42.94Z</time></trkpt><trkpt lat="42.9849199" lon="12.2005163"><ele>233.99999999999997</ele><time>2026-05-01T09:24:44.948Z</time></trkpt><trkpt lat="42.9849571" lon="12.2006134"><ele>234.0</ele><time>2026-05-01T09:24:46.938Z</time></trkpt><trkpt lat="42.985016" lon="12.2007081"><ele>234.0</ele><time>2026-05-01T09:24:48.932Z</time></trkpt><trkpt lat="42.9850811" lon="12.2008137"><ele>234.0</ele><time>2026-05-01T09:24:50.95Z</time></trkpt><trkpt lat="42.9851398" lon="12.2009041"><ele>234.0</ele><time>2026-05-01T09:24:52.953Z</time></trkpt><trkpt lat="42.9851902" lon="12.2009939"><ele>234.0</ele><time>2026-05-01T09:24:54.94Z</time></trkpt><trkpt lat="42.9852389" lon="12.2010812"><ele>234.0</ele><time>2026-05-01T09:24:56.931Z</time></trkpt><trkpt lat="42.9852957" lon="12.2011725"><ele>234.0</ele><time>2026-05-01T09:24:58.938Z</time></trkpt><trkpt lat="42.985356" lon="12.2012582"><ele>234.0</ele><time>2026-05-01T09:25:00.935Z</time></trkpt><trkpt lat="42.9854193" lon="12.2013471"><ele>234.0</ele><time>2026-05-01T09:25:02.946Z</time></trkpt><trkpt lat="42.9854829" lon="12.2014282"><ele>234.0</ele><time>2026-05-01T09:25:04.943Z</time></trkpt><trkpt lat="42.9855419" lon="12.2015175"><ele>234.0</ele><time>2026-05-01T09:25:06.926Z</time></trkpt><trkpt lat="42.985595" lon="12.2016123"><ele>234.0</ele><time>2026-05-01T09:25:08.957Z</time></trkpt><trkpt lat="42.9856594" lon="12.2017002"><ele>234.0</ele><time>2026-05-01T09:25:10.942Z</time></trkpt><trkpt lat="42.985712" lon="12.2018009"><ele>234.0</ele><time>2026-05-01T09:25:12.936Z</time></trkpt><trkpt lat="42.9857771" lon="12.2018869"><ele>233.79999999999998</ele><time>2026-05-01T09:25:14.969Z</time></trkpt><trkpt lat="42.9858352" lon="12.2019756"><ele>233.59999999999997</ele><time>2026-05-01T09:25:16.951Z</time></trkpt><trkpt lat="42.9858957" lon="12.2020744"><ele>233.4</ele><time>2026-05-01T09:25:18.944Z</time></trkpt><trkpt lat="42.9859669" lon="12.20217"><ele>233.2</ele><time>2026-05-01T09:25:20.95Z</time></trkpt><trkpt lat="42.9860276" lon="12.2022709"><ele>233.0</ele><time>2026-05-01T09:25:22.926Z</time></trkpt><trkpt lat="42.9860942" lon="12.2023584"><ele>233.8</ele><time>2026-05-01T09:25:24.928Z</time></trkpt><trkpt lat="42.9861779" lon="12.2024363"><ele>234.60000000000002</ele><time>2026-05-01T09:25:26.93Z</time></trkpt><trkpt lat="42.9862705" lon="12.2025072"><ele>235.39999999999998</ele><time>2026-05-01T09:25:28.927Z</time></trkpt><trkpt lat="42.9863553" lon="12.2025543"><ele>236.2</ele><time>2026-05-01T09:25:30.928Z</time></trkpt><trkpt lat="42.9864331" lon="12.2026067"><ele>237.0</ele><time>2026-05-01T09:25:32.93Z</time></trkpt><trkpt lat="42.9865059" lon="12.202645"><ele>237.0</ele><time>2026-05-01T09:25:34.926Z</time></trkpt><trkpt lat="42.9865868" lon="12.2026961"><ele>237.0</ele><time>2026-05-01T09:25:37Z</time></trkpt><trkpt lat="42.9866671" lon="12.2027389"><ele>237.0</ele><time>2026-05-01T09:25:38.953Z</time></trkpt><trkpt lat="42.9867483" lon="12.20278"><ele>237.0</ele><time>2026-05-01T09:25:40.938Z</time></trkpt><trkpt lat="42.9868233" lon="12.2028213"><ele>237.0</ele><time>2026-05-01T09:25:42.943Z</time></trkpt><trkpt lat="42.9869172" lon="12.2028731"><ele>237.0</ele><time>2026-05-01T09:25:44.945Z</time></trkpt><trkpt lat="42.9869958" lon="12.2029294"><ele>237.0</ele><time>2026-05-01T09:25:46.948Z</time></trkpt><trkpt lat="42.9870833" lon="12.2029874"><ele>237.0</ele><time>2026-05-01T09:25:48.95Z</time></trkpt><trkpt lat="42.9871761" lon="12.2030532"><ele>237.0</ele><time>2026-05-01T09:25:50.94Z</time></trkpt><trkpt lat="42.987255" lon="12.2030924"><ele>237.0</ele><time>2026-05-01T09:25:52.945Z</time></trkpt><trkpt lat="42.9873166" lon="12.2031182"><ele>237.0</ele><time>2026-05-01T09:25:54.948Z</time></trkpt><trkpt lat="42.9873936" lon="12.203166"><ele>237.0</ele><time>2026-05-01T09:25:56.952Z</time></trkpt><trkpt lat="42.9874648" lon="12.2032248"><ele>236.0</ele><time>2026-05-01T09:25:58.942Z</time></trkpt><trkpt lat="42.9875343" lon="12.2032622"><ele>235.0</ele><time>2026-05-01T09:26:00.931Z</time></trkpt><trkpt lat="42.9876157" lon="12.2033286"><ele>234.0</ele><time>2026-05-01T09:26:02.952Z</time></trkpt><trkpt lat="42.9876913" lon="12.203393"><ele>233.0</ele><time>2026-05-01T09:26:04.946Z</time></trkpt><trkpt lat="42.9877922" lon="12.2034349"><ele>232.0</ele><time>2026-05-01T09:26:06.949Z</time></trkpt><trkpt lat="42.9878886" lon="12.2034797"><ele>232.0</ele><time>2026-05-01T09:26:08.928Z</time></trkpt><trkpt lat="42.9879787" lon="12.203526"><ele>232.0</ele><time>2026-05-01T09:26:10.933Z</time></trkpt><trkpt lat="42.9880898" lon="12.2035735"><ele>232.0</ele><time>2026-05-01T09:26:12.934Z</time></trkpt><trkpt lat="42.9881876" lon="12.2036539"><ele>232.0</ele><time>2026-05-01T09:26:14.943Z</time></trkpt><trkpt lat="42.9882788" lon="12.2037045"><ele>232.0</ele><time>2026-05-01T09:26:16.949Z</time></trkpt><trkpt lat="42.9883763" lon="12.203758"><ele>231.8</ele><time>2026-05-01T09:26:18.951Z</time></trkpt><trkpt lat="42.9884729" lon="12.2038159"><ele>231.6</ele><time>2026-05-01T09:26:20.952Z</time></trkpt><trkpt lat="42.9885625" lon="12.2038767"><ele>231.40000000000003</ele><time>2026-05-01T09:26:22.941Z</time></trkpt><trkpt lat="42.9886654" lon="12.2039242"><ele>231.20000000000002</ele><time>2026-05-01T09:26:24.946Z</time></trkpt><trkpt lat="42.9887631" lon="12.2039842"><ele>231.0</ele><time>2026-05-01T09:26:26.949Z</time></trkpt><trkpt lat="42.9888533" lon="12.204028"><ele>231.0</ele><time>2026-05-01T09:26:28.959Z</time></trkpt><trkpt lat="42.9889423" lon="12.2040722"><ele>231.0</ele><time>2026-05-01T09:26:30.937Z</time></trkpt><trkpt lat="42.9890317" lon="12.2041127"><ele>231.0</ele><time>2026-05-01T09:26:32.95Z</time></trkpt><trkpt lat="42.9891164" lon="12.2041717"><ele>231.0</ele><time>2026-05-01T09:26:34.955Z</time></trkpt><trkpt lat="42.9891941" lon="12.2042121"><ele>231.0</ele><time>2026-05-01T09:26:36.949Z</time></trkpt><trkpt lat="42.989271" lon="12.2042519"><ele>231.0</ele><time>2026-05-01T09:26:38.952Z</time></trkpt><trkpt lat="42.9893595" lon="12.2042918"><ele>231.0</ele><time>2026-05-01T09:26:40.929Z</time></trkpt><trkpt lat="42.9894409" lon="12.2043352"><ele>231.0</ele><time>2026-05-01T09:26:42.962Z</time></trkpt><trkpt lat="42.9895223" lon="12.2043779"><ele>231.0</ele><time>2026-05-01T09:26:44.949Z</time></trkpt><trkpt lat="42.9895963" lon="12.2044314"><ele>231.0</ele><time>2026-05-01T09:26:46.951Z</time></trkpt><trkpt lat="42.9896647" lon="12.2044902"><ele>231.0</ele><time>2026-05-01T09:26:48.936Z</time></trkpt><trkpt lat="42.9897268" lon="12.2045786"><ele>231.0</ele><time>2026-05-01T09:26:50.934Z</time></trkpt><trkpt lat="42.989785" lon="12.2046639"><ele>231.0</ele><time>2026-05-01T09:26:52.95Z</time></trkpt><trkpt lat="42.9898378" lon="12.2047478"><ele>231.0</ele><time>2026-05-01T09:26:54.928Z</time></trkpt><trkpt lat="42.9898957" lon="12.2048254"><ele>231.0</ele><time>2026-05-01T09:26:56.943Z</time></trkpt><trkpt lat="42.9899628" lon="12.2048957"><ele>231.0</ele><time>2026-05-01T09:26:58.946Z</time></trkpt><trkpt lat="42.990033" lon="12.2049599"><ele>231.0</ele><time>2026-05-01T09:27:00.96Z</time></trkpt><trkpt lat="42.990106" lon="12.205014"><ele>231.0</ele><time>2026-05-01T09:27:02.944Z</time></trkpt><trkpt lat="42.9901755" lon="12.2050679"><ele>231.16666666666666</ele><time>2026-05-01T09:27:04.94Z</time></trkpt><trkpt lat="42.9902463" lon="12.2051127"><ele>231.33333333333331</ele><time>2026-05-01T09:27:06.947Z</time></trkpt><trkpt lat="42.9903166" lon="12.2051607"><ele>231.5</ele><time>2026-05-01T09:27:08.942Z</time></trkpt><trkpt lat="42.990387" lon="12.2052092"><ele>231.66666666666666</ele><time>2026-05-01T09:27:10.943Z</time></trkpt><trkpt lat="42.9904578" lon="12.2052586"><ele>231.83333333333331</ele><time>2026-05-01T09:27:12.941Z</time></trkpt><trkpt lat="42.9905302" lon="12.2053047"><ele>232.0</ele><time>2026-05-01T09:27:14.952Z</time></trkpt><trkpt lat="42.9906014" lon="12.2053499"><ele>231.99999999999997</ele><time>2026-05-01T09:27:16.943Z</time></trkpt><trkpt lat="42.9906711" lon="12.2054031"><ele>232.0</ele><time>2026-05-01T09:27:18.947Z</time></trkpt><trkpt lat="42.9907435" lon="12.2054584"><ele>232.0</ele><time>2026-05-01T09:27:20.942Z</time></trkpt><trkpt lat="42.9908142" lon="12.2055188"><ele>232.0</ele><time>2026-05-01T09:27:22.95Z</time></trkpt><trkpt lat="42.9908911" lon="12.2055682"><ele>231.99999999999997</ele><time>2026-05-01T09:27:24.945Z</time></trkpt><trkpt lat="42.9909608" lon="12.2056256"><ele>232.0</ele><time>2026-05-01T09:27:26.956Z</time></trkpt><trkpt lat="42.9910351" lon="12.2056746"><ele>231.83333333333331</ele><time>2026-05-01T09:27:28.943Z</time></trkpt><trkpt lat="42.9911057" lon="12.2057119"><ele>231.66666666666666</ele><time>2026-05-01T09:27:30.95Z</time></trkpt><trkpt lat="42.991175" lon="12.2057591"><ele>231.5</ele><time>2026-05-01T09:27:32.952Z</time></trkpt><trkpt lat="42.9912491" lon="12.2057891"><ele>231.33333333333331</ele><time>2026-05-01T09:27:34.951Z</time></trkpt><trkpt lat="42.9913145" lon="12.2058106"><ele>231.16666666666666</ele><time>2026-05-01T09:27:36.935Z</time></trkpt><trkpt lat="42.9914048" lon="12.2058317"><ele>231.0</ele><time>2026-05-01T09:27:39.949Z</time></trkpt><trkpt lat="42.9914769" lon="12.2058405"><ele>231.0</ele><time>2026-05-01T09:27:41.95Z</time></trkpt><trkpt lat="42.9915599" lon="12.2058588"><ele>231.00000000000003</ele><time>2026-05-01T09:27:43.95Z</time></trkpt><trkpt lat="42.9916611" lon="12.205872"><ele>231.00000000000003</ele><time>2026-05-01T09:27:45.935Z</time></trkpt><trkpt lat="42.9917639" lon="12.205936"><ele>231.0</ele><time>2026-05-01T09:27:47.953Z</time></trkpt><trkpt lat="42.9918641" lon="12.2059844"><ele>231.0</ele><time>2026-05-01T09:27:49.945Z</time></trkpt><trkpt lat="42.9919625" lon="12.2060477"><ele>230.4</ele><time>2026-05-01T09:27:51.946Z</time></trkpt><trkpt lat="42.9920513" lon="12.2061067"><ele>229.8</ele><time>2026-05-01T09:27:53.947Z</time></trkpt><trkpt lat="42.9921475" lon="12.206162"><ele>229.20000000000002</ele><time>2026-05-01T09:27:55.945Z</time></trkpt><trkpt lat="42.9922453" lon="12.2062242"><ele>228.60000000000002</ele><time>2026-05-01T09:27:57.951Z</time></trkpt><trkpt lat="42.9923419" lon="12.2062953"><ele>228.0</ele><time>2026-05-01T09:27:59.956Z</time></trkpt><trkpt lat="42.9924239" lon="12.2063766"><ele>228.0</ele><time>2026-05-01T09:28:01.95Z</time></trkpt><trkpt lat="42.9924974" lon="12.2064509"><ele>228.0</ele><time>2026-05-01T09:28:04Z</time></trkpt><trkpt lat="42.9925625" lon="12.2065252"><ele>228.0</ele><time>2026-05-01T09:28:05.947Z</time></trkpt><trkpt lat="42.9926226" lon="12.206602"><ele>228.0</ele><time>2026-05-01T09:28:07.946Z</time></trkpt><trkpt lat="42.9926753" lon="12.2066857"><ele>228.0</ele><time>2026-05-01T09:28:09.942Z</time></trkpt><trkpt lat="42.9927335" lon="12.2067698"><ele>228.0</ele><time>2026-05-01T09:28:11.95Z</time></trkpt><trkpt lat="42.9927847" lon="12.2068599"><ele>227.83333333333334</ele><time>2026-05-01T09:28:13.95Z</time></trkpt><trkpt lat="42.9928335" lon="12.206945"><ele>227.66666666666669</ele><time>2026-05-01T09:28:15.942Z</time></trkpt><trkpt lat="42.9928854" lon="12.2070319"><ele>227.5</ele><time>2026-05-01T09:28:17.949Z</time></trkpt><trkpt lat="42.9929485" lon="12.2071081"><ele>227.33333333333334</ele><time>2026-05-01T09:28:19.959Z</time></trkpt><trkpt lat="42.9930051" lon="12.2071833"><ele>227.16666666666669</ele><time>2026-05-01T09:28:21.945Z</time></trkpt><trkpt lat="42.993051" lon="12.2072623"><ele>227.0</ele><time>2026-05-01T09:28:23.964Z</time></trkpt><trkpt lat="42.9930987" lon="12.2073384"><ele>227.14285714285717</ele><time>2026-05-01T09:28:25.952Z</time></trkpt><trkpt lat="42.9931482" lon="12.20741"><ele>227.2857142857143</ele><time>2026-05-01T09:28:27.933Z</time></trkpt><trkpt lat="42.9931994" lon="12.2074736"><ele>227.42857142857144</ele><time>2026-05-01T09:28:29.947Z</time></trkpt><trkpt lat="42.993253" lon="12.2075275"><ele>227.57142857142856</ele><time>2026-05-01T09:28:31.948Z</time></trkpt><trkpt lat="42.9933156" lon="12.2075779"><ele>227.7142857142857</ele><time>2026-05-01T09:28:34.948Z</time></trkpt><trkpt lat="42.9933749" lon="12.207645"><ele>227.85714285714283</ele><time>2026-05-01T09:28:37.936Z</time></trkpt><trkpt lat="42.9934379" lon="12.2077135"><ele>228.0</ele><time>2026-05-01T09:28:39.938Z</time></trkpt><trkpt lat="42.9935102" lon="12.2077948"><ele>228.0</ele><time>2026-05-01T09:28:41.942Z</time></trkpt><trkpt lat="42.9935602" lon="12.2078674"><ele>228.0</ele><time>2026-05-01T09:28:43.944Z</time></trkpt><trkpt lat="42.9936222" lon="12.2079426"><ele>228.0</ele><time>2026-05-01T09:28:45.92Z</time></trkpt><trkpt lat="42.9936706" lon="12.2080352"><ele>228.0</ele><time>2026-05-01T09:28:47.935Z</time></trkpt><trkpt lat="42.9937255" lon="12.2081336"><ele>228.0</ele><time>2026-05-01T09:28:49.95Z</time></trkpt><trkpt lat="42.993777" lon="12.2082388"><ele>228.0</ele><time>2026-05-01T09:28:51.936Z</time></trkpt><trkpt lat="42.9938207" lon="12.208352"><ele>228.16666666666666</ele><time>2026-05-01T09:28:53.955Z</time></trkpt><trkpt lat="42.9938614" lon="12.208455"><ele>228.33333333333331</ele><time>2026-05-01T09:28:55.949Z</time></trkpt><trkpt lat="42.9939071" lon="12.2085503"><ele>228.5</ele><time>2026-05-01T09:28:57.936Z</time></trkpt><trkpt lat="42.9939727" lon="12.2086256"><ele>228.66666666666666</ele><time>2026-05-01T09:28:59.939Z</time></trkpt><trkpt lat="42.994063" lon="12.2086457"><ele>228.83333333333331</ele><time>2026-05-01T09:29:01.952Z</time></trkpt><trkpt lat="42.9941487" lon="12.2086092"><ele>229.0</ele><time>2026-05-01T09:29:03.949Z</time></trkpt><trkpt lat="42.9942306" lon="12.208573"><ele>229.0</ele><time>2026-05-01T09:29:05.943Z</time></trkpt><trkpt lat="42.9943199" lon="12.208553"><ele>228.99999999999997</ele><time>2026-05-01T09:29:07.952Z</time></trkpt><trkpt lat="42.9944095" lon="12.2085679"><ele>228.99999999999997</ele><time>2026-05-01T09:29:09.95Z</time></trkpt><trkpt lat="42.9944871" lon="12.2086239"><ele>229.0</ele><time>2026-05-01T09:29:11.953Z</time></trkpt><trkpt lat="42.9945614" lon="12.2087068"><ele>229.0</ele><time>2026-05-01T09:29:13.939Z</time></trkpt><trkpt lat="42.9946544" lon="12.2088089"><ele>228.99999999999997</ele><time>2026-05-01T09:29:15.946Z</time></trkpt><trkpt lat="42.9947095" lon="12.2088661"><ele>229.0</ele><time>2026-05-01T09:29:16.949Z</time></trkpt><trkpt lat="42.9947732" lon="12.208943"><ele>229.0</ele><time>2026-05-01T09:29:17.949Z</time></trkpt><trkpt lat="42.9948369" lon="12.2090145"><ele>229.0</ele><time>2026-05-01T09:29:18.946Z</time></trkpt><trkpt lat="42.9949071" lon="12.2090809"><ele>228.99999999999997</ele><time>2026-05-01T09:29:19.953Z</time></trkpt><trkpt lat="42.9949805" lon="12.2091473"><ele>229.0</ele><time>2026-05-01T09:29:20.946Z</time></trkpt><trkpt lat="42.9950584" lon="12.2091998"><ele>228.99999999999997</ele><time>2026-05-01T09:29:21.948Z</time></trkpt><trkpt lat="42.9951313" lon="12.2092391"><ele>229.0</ele><time>2026-05-01T09:29:22.949Z</time></trkpt><trkpt lat="42.9952068" lon="12.2092714"><ele>229.0</ele><time>2026-05-01T09:29:24Z</time></trkpt><trkpt lat="42.9952737" lon="12.2092982"><ele>229.0</ele><time>2026-05-01T09:29:24.949Z</time></trkpt><trkpt lat="42.9953338" lon="12.2093393"><ele>228.99999999999997</ele><time>2026-05-01T09:29:25.944Z</time></trkpt><trkpt lat="42.9954249" lon="12.2094109"><ele>229.0</ele><time>2026-05-01T09:29:27.947Z</time></trkpt><trkpt lat="42.9954604" lon="12.2095172"><ele>229.0</ele><time>2026-05-01T09:29:29.95Z</time></trkpt><trkpt lat="42.995475" lon="12.209624"><ele>229.0</ele><time>2026-05-01T09:29:31.947Z</time></trkpt><trkpt lat="42.9954927" lon="12.209722"><ele>229.0</ele><time>2026-05-01T09:29:33.952Z</time></trkpt><trkpt lat="42.995507" lon="12.2098222"><ele>229.0</ele><time>2026-05-01T09:29:35.95Z</time></trkpt><trkpt lat="42.9955244" lon="12.2099249"><ele>229.0</ele><time>2026-05-01T09:29:37.947Z</time></trkpt><trkpt lat="42.9955393" lon="12.2100227"><ele>229.0</ele><time>2026-05-01T09:29:39.939Z</time></trkpt><trkpt lat="42.9955538" lon="12.2101072"><ele>229.0</ele><time>2026-05-01T09:29:41.927Z</time></trkpt><trkpt lat="42.9955719" lon="12.2101926"><ele>229.42857142857142</ele><time>2026-05-01T09:29:43.94Z</time></trkpt><trkpt lat="42.9955859" lon="12.2102877"><ele>229.8571428571429</ele><time>2026-05-01T09:29:45.944Z</time></trkpt><trkpt lat="42.9955974" lon="12.2103731"><ele>230.2857142857143</ele><time>2026-05-01T09:29:47.954Z</time></trkpt><trkpt lat="42.995611" lon="12.2104631"><ele>230.71428571428572</ele><time>2026-05-01T09:29:49.937Z</time></trkpt><trkpt lat="42.9956247" lon="12.2105573"><ele>231.14285714285717</ele><time>2026-05-01T09:29:51.947Z</time></trkpt><trkpt lat="42.9956384" lon="12.2106585"><ele>231.5714285714286</ele><time>2026-05-01T09:29:53.956Z</time></trkpt><trkpt lat="42.9956582" lon="12.2107594"><ele>232.00000000000003</ele><time>2026-05-01T09:29:55.941Z</time></trkpt><trkpt lat="42.9956728" lon="12.2108546"><ele>232.5714285714286</ele><time>2026-05-01T09:29:57.95Z</time></trkpt><trkpt lat="42.9956873" lon="12.2109499"><ele>233.14285714285717</ele><time>2026-05-01T09:29:59.945Z</time></trkpt><trkpt lat="42.9957058" lon="12.2110426"><ele>233.71428571428572</ele><time>2026-05-01T09:30:01.942Z</time></trkpt><trkpt lat="42.9957233" lon="12.2111434"><ele>234.2857142857143</ele><time>2026-05-01T09:30:03.971Z</time></trkpt><trkpt lat="42.9957337" lon="12.2112291"><ele>234.8571428571429</ele><time>2026-05-01T09:30:05.944Z</time></trkpt><trkpt lat="42.995743" lon="12.2113589"><ele>235.42857142857142</ele><time>2026-05-01T09:30:08.952Z</time></trkpt><trkpt lat="42.9957538" lon="12.2114515"><ele>236.0</ele><time>2026-05-01T09:30:10.936Z</time></trkpt><trkpt lat="42.9957674" lon="12.2115435"><ele>235.71428571428572</ele><time>2026-05-01T09:30:12.938Z</time></trkpt><trkpt lat="42.9957841" lon="12.2116458"><ele>235.42857142857144</ele><time>2026-05-01T09:30:14.934Z</time></trkpt><trkpt lat="42.9958071" lon="12.2117514"><ele>235.14285714285717</ele><time>2026-05-01T09:30:16.951Z</time></trkpt><trkpt lat="42.9958263" lon="12.2118496"><ele>234.85714285714286</ele><time>2026-05-01T09:30:18.949Z</time></trkpt><trkpt lat="42.9958463" lon="12.2119434"><ele>234.5714285714286</ele><time>2026-05-01T09:30:20.952Z</time></trkpt><trkpt lat="42.9958592" lon="12.2120403"><ele>234.2857142857143</ele><time>2026-05-01T09:30:22.955Z</time></trkpt><trkpt lat="42.9958722" lon="12.2121376"><ele>234.0</ele><time>2026-05-01T09:30:24.925Z</time></trkpt><trkpt lat="42.9958894" lon="12.2122367"><ele>234.33333333333334</ele><time>2026-05-01T09:30:26.93Z</time></trkpt><trkpt lat="42.9959051" lon="12.2123337"><ele>234.66666666666669</ele><time>2026-05-01T09:30:28.952Z</time></trkpt><trkpt lat="42.9959266" lon="12.2124263"><ele>235.0</ele><time>2026-05-01T09:30:30.93Z</time></trkpt><trkpt lat="42.9959492" lon="12.2125278"><ele>235.33333333333334</ele><time>2026-05-01T09:30:33Z</time></trkpt><trkpt lat="42.9959698" lon="12.2126349"><ele>235.66666666666669</ele><time>2026-05-01T09:30:34.927Z</time></trkpt><trkpt lat="42.9959922" lon="12.2127443"><ele>236.0</ele><time>2026-05-01T09:30:36.928Z</time></trkpt><trkpt lat="42.9960158" lon="12.2128497"><ele>236.00000000000003</ele><time>2026-05-01T09:30:38.925Z</time></trkpt><trkpt lat="42.9960346" lon="12.2129572"><ele>236.0</ele><time>2026-05-01T09:30:40.927Z</time></trkpt><trkpt lat="42.9960557" lon="12.2130662"><ele>236.0</ele><time>2026-05-01T09:30:42.933Z</time></trkpt><trkpt lat="42.99608" lon="12.2131785"><ele>236.0</ele><time>2026-05-01T09:30:44.938Z</time></trkpt><trkpt lat="42.9960891" lon="12.2133013"><ele>236.00000000000003</ele><time>2026-05-01T09:30:46.938Z</time></trkpt><trkpt lat="42.9961034" lon="12.2134216"><ele>236.0</ele><time>2026-05-01T09:30:48.94Z</time></trkpt><trkpt lat="42.9961191" lon="12.2135406"><ele>236.4</ele><time>2026-05-01T09:30:50.955Z</time></trkpt><trkpt lat="42.9961387" lon="12.2136651"><ele>236.8</ele><time>2026-05-01T09:30:52.949Z</time></trkpt><trkpt lat="42.9961592" lon="12.2137873"><ele>237.20000000000002</ele><time>2026-05-01T09:30:54.947Z</time></trkpt><trkpt lat="42.9961787" lon="12.2139082"><ele>237.60000000000002</ele><time>2026-05-01T09:30:56.957Z</time></trkpt><trkpt lat="42.996201" lon="12.2140478"><ele>238.0</ele><time>2026-05-01T09:30:58.935Z</time></trkpt><trkpt lat="42.9962291" lon="12.2141921"><ele>238.0</ele><time>2026-05-01T09:31:00.951Z</time></trkpt><trkpt lat="42.9962629" lon="12.2143408"><ele>238.0</ele><time>2026-05-01T09:31:02.951Z</time></trkpt><trkpt lat="42.996292" lon="12.2145"><ele>238.0</ele><time>2026-05-01T09:31:04.949Z</time></trkpt><trkpt lat="42.9963165" lon="12.2145817"><ele>238.0</ele><time>2026-05-01T09:31:05.949Z</time></trkpt><trkpt lat="42.9963384" lon="12.2146667"><ele>238.0</ele><time>2026-05-01T09:31:06.952Z</time></trkpt><trkpt lat="42.9963659" lon="12.2148277"><ele>237.66666666666666</ele><time>2026-05-01T09:31:08.953Z</time></trkpt><trkpt lat="42.9963884" lon="12.2149935"><ele>237.33333333333331</ele><time>2026-05-01T09:31:10.949Z</time></trkpt><trkpt lat="42.9964006" lon="12.215081"><ele>237.0</ele><time>2026-05-01T09:31:11.948Z</time></trkpt><trkpt lat="42.99641" lon="12.2151737"><ele>236.66666666666669</ele><time>2026-05-01T09:31:12.945Z</time></trkpt><trkpt lat="42.996424" lon="12.2152664"><ele>236.33333333333334</ele><time>2026-05-01T09:31:13.945Z</time></trkpt><trkpt lat="42.99644" lon="12.2153606"><ele>236.0</ele><time>2026-05-01T09:31:14.95Z</time></trkpt><trkpt lat="42.9964501" lon="12.2154518"><ele>236.0</ele><time>2026-05-01T09:31:15.941Z</time></trkpt><trkpt lat="42.9964599" lon="12.2155419"><ele>236.0</ele><time>2026-05-01T09:31:16.939Z</time></trkpt><trkpt lat="42.996476" lon="12.2156341"><ele>236.0</ele><time>2026-05-01T09:31:17.95Z</time></trkpt><trkpt lat="42.9964916" lon="12.2157327"><ele>236.0</ele><time>2026-05-01T09:31:18.932Z</time></trkpt><trkpt lat="42.9965068" lon="12.2158278"><ele>236.0</ele><time>2026-05-01T09:31:19.941Z</time></trkpt><trkpt lat="42.9965285" lon="12.2159156"><ele>236.0</ele><time>2026-05-01T09:31:20.949Z</time></trkpt><trkpt lat="42.996533" lon="12.2160185"><ele>236.0</ele><time>2026-05-01T09:31:21.949Z</time></trkpt><trkpt lat="42.9965482" lon="12.2161184"><ele>235.50000000000003</ele><time>2026-05-01T09:31:22.95Z</time></trkpt><trkpt lat="42.996556" lon="12.2162199"><ele>235.0</ele><time>2026-05-01T09:31:23.944Z</time></trkpt><trkpt lat="42.9965807" lon="12.2163249"><ele>234.5</ele><time>2026-05-01T09:31:24.947Z</time></trkpt><trkpt lat="42.9965971" lon="12.2164314"><ele>234.0</ele><time>2026-05-01T09:31:25.94Z</time></trkpt><trkpt lat="42.9966107" lon="12.2165331"><ele>233.50000000000003</ele><time>2026-05-01T09:31:26.947Z</time></trkpt><trkpt lat="42.9966257" lon="12.2166385"><ele>233.0</ele><time>2026-05-01T09:31:27.945Z</time></trkpt><trkpt lat="42.9966369" lon="12.2167443"><ele>232.28571428571428</ele><time>2026-05-01T09:31:28.927Z</time></trkpt><trkpt lat="42.9966542" lon="12.2168518"><ele>231.57142857142856</ele><time>2026-05-01T09:31:29.943Z</time></trkpt><trkpt lat="42.9966662" lon="12.2169487"><ele>230.85714285714283</ele><time>2026-05-01T09:31:30.951Z</time></trkpt><trkpt lat="42.9966774" lon="12.2170532"><ele>230.14285714285714</ele><time>2026-05-01T09:31:31.948Z</time></trkpt><trkpt lat="42.9966877" lon="12.2171466"><ele>229.4285714285714</ele><time>2026-05-01T09:31:32.942Z</time></trkpt><trkpt lat="42.9967005" lon="12.2172341"><ele>228.7142857142857</ele><time>2026-05-01T09:31:33.948Z</time></trkpt><trkpt lat="42.9967145" lon="12.2173221"><ele>228.0</ele><time>2026-05-01T09:31:34.943Z</time></trkpt><trkpt lat="42.9967251" lon="12.217414"><ele>227.33333333333334</ele><time>2026-05-01T09:31:35.949Z</time></trkpt><trkpt lat="42.9967397" lon="12.217503"><ele>226.66666666666669</ele><time>2026-05-01T09:31:36.947Z</time></trkpt><trkpt lat="42.9967492" lon="12.2175951"><ele>226.0</ele><time>2026-05-01T09:31:37.934Z</time></trkpt><trkpt lat="42.9967639" lon="12.2176821"><ele>225.33333333333334</ele><time>2026-05-01T09:31:38.929Z</time></trkpt><trkpt lat="42.9967821" lon="12.2177742"><ele>224.66666666666669</ele><time>2026-05-01T09:31:39.921Z</time></trkpt><trkpt lat="42.9968024" lon="12.2178691"><ele>224.0</ele><time>2026-05-01T09:31:40.924Z</time></trkpt><trkpt lat="42.9968297" lon="12.2180285"><ele>224.0</ele><time>2026-05-01T09:31:42.96Z</time></trkpt><trkpt lat="42.9968444" lon="12.2181125"><ele>223.99999999999997</ele><time>2026-05-01T09:31:43.934Z</time></trkpt><trkpt lat="42.9968688" lon="12.2182586"><ele>223.99999999999997</ele><time>2026-05-01T09:31:45.923Z</time></trkpt><trkpt lat="42.996892" lon="12.2183858"><ele>224.0</ele><time>2026-05-01T09:31:47.926Z</time></trkpt><trkpt lat="42.9969251" lon="12.2185107"><ele>224.0</ele><time>2026-05-01T09:31:49.932Z</time></trkpt><trkpt lat="42.9969514" lon="12.2186515"><ele>223.79999999999998</ele><time>2026-05-01T09:31:51.923Z</time></trkpt><trkpt lat="42.9969832" lon="12.2187742"><ele>223.59999999999997</ele><time>2026-05-01T09:31:53.927Z</time></trkpt><trkpt lat="42.9970048" lon="12.2189098"><ele>223.4</ele><time>2026-05-01T09:31:55.928Z</time></trkpt><trkpt lat="42.9970234" lon="12.2190332"><ele>223.2</ele><time>2026-05-01T09:31:57.926Z</time></trkpt><trkpt lat="42.9970579" lon="12.2191616"><ele>223.0</ele><time>2026-05-01T09:31:59.925Z</time></trkpt><trkpt lat="42.9970938" lon="12.2192818"><ele>222.8</ele><time>2026-05-01T09:32:01.943Z</time></trkpt><trkpt lat="42.9971263" lon="12.2193966"><ele>222.60000000000002</ele><time>2026-05-01T09:32:03.955Z</time></trkpt><trkpt lat="42.997163" lon="12.2195144"><ele>222.39999999999998</ele><time>2026-05-01T09:32:05.95Z</time></trkpt><trkpt lat="42.9972065" lon="12.2196412"><ele>222.2</ele><time>2026-05-01T09:32:07.946Z</time></trkpt><trkpt lat="42.9972436" lon="12.2197795"><ele>222.0</ele><time>2026-05-01T09:32:09.944Z</time></trkpt><trkpt lat="42.9972737" lon="12.2199258"><ele>221.39999999999998</ele><time>2026-05-01T09:32:11.944Z</time></trkpt><trkpt lat="42.9972819" lon="12.2200126"><ele>220.79999999999998</ele><time>2026-05-01T09:32:12.942Z</time></trkpt><trkpt lat="42.9972434" lon="12.2201626"><ele>220.2</ele><time>2026-05-01T09:32:14.953Z</time></trkpt><trkpt lat="42.9971903" lon="12.220287"><ele>219.6</ele><time>2026-05-01T09:32:16.943Z</time></trkpt><trkpt lat="42.9971205" lon="12.2203993"><ele>219.0</ele><time>2026-05-01T09:32:18.94Z</time></trkpt><trkpt lat="42.9970364" lon="12.2205038"><ele>219.0</ele><time>2026-05-01T09:32:20.956Z</time></trkpt><trkpt lat="42.9970046" lon="12.2206221"><ele>219.0</ele><time>2026-05-01T09:32:22.943Z</time></trkpt><trkpt lat="42.9970267" lon="12.220739"><ele>219.0</ele><time>2026-05-01T09:32:24.935Z</time></trkpt><trkpt lat="42.997053" lon="12.2208595"><ele>219.0</ele><time>2026-05-01T09:32:26.943Z</time></trkpt><trkpt lat="42.9970742" lon="12.2209671"><ele>219.0</ele><time>2026-05-01T09:32:28.95Z</time></trkpt><trkpt lat="42.9970955" lon="12.2210769"><ele>219.0</ele><time>2026-05-01T09:32:30.947Z</time></trkpt><trkpt lat="42.9971253" lon="12.2211722"><ele>218.83333333333334</ele><time>2026-05-01T09:32:32.939Z</time></trkpt><trkpt lat="42.9971359" lon="12.2212672"><ele>218.66666666666669</ele><time>2026-05-01T09:32:34.947Z</time></trkpt><trkpt lat="42.9971286" lon="12.2213645"><ele>218.5</ele><time>2026-05-01T09:32:36.938Z</time></trkpt><trkpt lat="42.997121" lon="12.2214702"><ele>218.33333333333334</ele><time>2026-05-01T09:32:38.949Z</time></trkpt><trkpt lat="42.9971205" lon="12.221593"><ele>218.16666666666669</ele><time>2026-05-01T09:32:40.939Z</time></trkpt><trkpt lat="42.9971391" lon="12.2217088"><ele>218.0</ele><time>2026-05-01T09:32:42.942Z</time></trkpt><trkpt lat="42.9971759" lon="12.2218259"><ele>218.4</ele><time>2026-05-01T09:32:44.948Z</time></trkpt><trkpt lat="42.9972102" lon="12.2219593"><ele>218.8</ele><time>2026-05-01T09:32:46.941Z</time></trkpt><trkpt lat="42.9972529" lon="12.2220967"><ele>219.2</ele><time>2026-05-01T09:32:48.946Z</time></trkpt><trkpt lat="42.9973018" lon="12.2222455"><ele>219.6</ele><time>2026-05-01T09:32:50.942Z</time></trkpt><trkpt lat="42.9973323" lon="12.2223966"><ele>220.0</ele><time>2026-05-01T09:32:52.941Z</time></trkpt><trkpt lat="42.9973845" lon="12.2225325"><ele>220.2</ele><time>2026-05-01T09:32:54.949Z</time></trkpt><trkpt lat="42.9974417" lon="12.2226682"><ele>220.4</ele><time>2026-05-01T09:32:56.943Z</time></trkpt><trkpt lat="42.9974838" lon="12.2227857"><ele>220.60000000000002</ele><time>2026-05-01T09:32:58.945Z</time></trkpt><trkpt lat="42.997524" lon="12.2228956"><ele>220.8</ele><time>2026-05-01T09:33:00.945Z</time></trkpt><trkpt lat="42.9975621" lon="12.2230117"><ele>221.0</ele><time>2026-05-01T09:33:02.946Z</time></trkpt><trkpt lat="42.9976085" lon="12.2231208"><ele>220.0</ele><time>2026-05-01T09:33:04.95Z</time></trkpt><trkpt lat="42.9976481" lon="12.2232322"><ele>219.00000000000003</ele><time>2026-05-01T09:33:06.934Z</time></trkpt><trkpt lat="42.9976924" lon="12.2233475"><ele>218.00000000000003</ele><time>2026-05-01T09:33:08.943Z</time></trkpt><trkpt lat="42.9977294" lon="12.2234594"><ele>217.0</ele><time>2026-05-01T09:33:10.947Z</time></trkpt><trkpt lat="42.9977715" lon="12.223562"><ele>216.0</ele><time>2026-05-01T09:33:12.951Z</time></trkpt><trkpt lat="42.9978096" lon="12.2236819"><ele>216.0</ele><time>2026-05-01T09:33:14.949Z</time></trkpt><trkpt lat="42.9978621" lon="12.2238036"><ele>216.00000000000003</ele><time>2026-05-01T09:33:16.947Z</time></trkpt><trkpt lat="42.9978957" lon="12.2239208"><ele>216.00000000000003</ele><time>2026-05-01T09:33:18.939Z</time></trkpt><trkpt lat="42.9979274" lon="12.2240339"><ele>216.0</ele><time>2026-05-01T09:33:20.951Z</time></trkpt><trkpt lat="42.9979526" lon="12.2241596"><ele>216.0</ele><time>2026-05-01T09:33:22.95Z</time></trkpt><trkpt lat="42.9979677" lon="12.224272"><ele>216.20000000000002</ele><time>2026-05-01T09:33:24.954Z</time></trkpt><trkpt lat="42.9979805" lon="12.2243909"><ele>216.40000000000003</ele><time>2026-05-01T09:33:26.951Z</time></trkpt><trkpt lat="42.9979945" lon="12.2245228"><ele>216.6</ele><time>2026-05-01T09:33:28.952Z</time></trkpt><trkpt lat="42.9979934" lon="12.2246641"><ele>216.8</ele><time>2026-05-01T09:33:30.95Z</time></trkpt><trkpt lat="42.9979934" lon="12.2247994"><ele>217.0</ele><time>2026-05-01T09:33:32.954Z</time></trkpt><trkpt lat="42.9979925" lon="12.2249314"><ele>217.0</ele><time>2026-05-01T09:33:34.945Z</time></trkpt><trkpt lat="42.9979909" lon="12.2250631"><ele>217.0</ele><time>2026-05-01T09:33:36.949Z</time></trkpt><trkpt lat="42.997983" lon="12.2251945"><ele>217.0</ele><time>2026-05-01T09:33:38.95Z</time></trkpt><trkpt lat="42.9979746" lon="12.225323"><ele>217.0</ele><time>2026-05-01T09:33:40.95Z</time></trkpt><trkpt lat="42.9979805" lon="12.2254624"><ele>217.0</ele><time>2026-05-01T09:33:42.934Z</time></trkpt><trkpt lat="42.997972" lon="12.2255812"><ele>216.6</ele><time>2026-05-01T09:33:44.936Z</time></trkpt><trkpt lat="42.9979649" lon="12.2257052"><ele>216.2</ele><time>2026-05-01T09:33:46.95Z</time></trkpt><trkpt lat="42.9979627" lon="12.2258186"><ele>215.8</ele><time>2026-05-01T09:33:48.944Z</time></trkpt><trkpt lat="42.9979575" lon="12.2259588"><ele>215.4</ele><time>2026-05-01T09:33:50.951Z</time></trkpt><trkpt lat="42.9979559" lon="12.2260893"><ele>215.0</ele><time>2026-05-01T09:33:52.952Z</time></trkpt><trkpt lat="42.9979515" lon="12.2262161"><ele>215.0</ele><time>2026-05-01T09:33:54.942Z</time></trkpt><trkpt lat="42.997947" lon="12.2263405"><ele>215.0</ele><time>2026-05-01T09:33:56.949Z</time></trkpt><trkpt lat="42.9979369" lon="12.2264614"><ele>215.0</ele><time>2026-05-01T09:33:58.949Z</time></trkpt><trkpt lat="42.9979341" lon="12.2265851"><ele>215.0</ele><time>2026-05-01T09:34:00.947Z</time></trkpt><trkpt lat="42.9979254" lon="12.2267086"><ele>215.0</ele><time>2026-05-01T09:34:02.946Z</time></trkpt><trkpt lat="42.9979189" lon="12.2268372"><ele>214.8</ele><time>2026-05-01T09:34:04.949Z</time></trkpt><trkpt lat="42.9979107" lon="12.2269601"><ele>214.6</ele><time>2026-05-01T09:34:06.938Z</time></trkpt><trkpt lat="42.9978928" lon="12.2270868"><ele>214.39999999999998</ele><time>2026-05-01T09:34:08.947Z</time></trkpt><trkpt lat="42.9978757" lon="12.2272163"><ele>214.2</ele><time>2026-05-01T09:34:10.947Z</time></trkpt><trkpt lat="42.9978585" lon="12.2273369"><ele>214.0</ele><time>2026-05-01T09:34:12.947Z</time></trkpt><trkpt lat="42.9978367" lon="12.2274582"><ele>213.99999999999997</ele><time>2026-05-01T09:34:14.942Z</time></trkpt><trkpt lat="42.9978212" lon="12.2275835"><ele>214.0</ele><time>2026-05-01T09:34:16.949Z</time></trkpt><trkpt lat="42.9978042" lon="12.2277039"><ele>214.0</ele><time>2026-05-01T09:34:18.95Z</time></trkpt><trkpt lat="42.9977865" lon="12.22783"><ele>214.0</ele><time>2026-05-01T09:34:20.948Z</time></trkpt><trkpt lat="42.997772" lon="12.2279406"><ele>213.99999999999997</ele><time>2026-05-01T09:34:22.947Z</time></trkpt><trkpt lat="42.9977515" lon="12.2280537"><ele>214.0</ele><time>2026-05-01T09:34:24.953Z</time></trkpt><trkpt lat="42.9977316" lon="12.228175"><ele>214.33333333333331</ele><time>2026-05-01T09:34:26.95Z</time></trkpt><trkpt lat="42.9977153" lon="12.228296"><ele>214.66666666666666</ele><time>2026-05-01T09:34:28.955Z</time></trkpt><trkpt lat="42.9977013" lon="12.228414"><ele>215.0</ele><time>2026-05-01T09:34:30.941Z</time></trkpt><trkpt lat="42.9976827" lon="12.2285288"><ele>215.33333333333331</ele><time>2026-05-01T09:34:32.957Z</time></trkpt><trkpt lat="42.9976679" lon="12.2286412"><ele>215.66666666666666</ele><time>2026-05-01T09:34:34.952Z</time></trkpt><trkpt lat="42.9976511" lon="12.2287559"><ele>216.0</ele><time>2026-05-01T09:34:36.949Z</time></trkpt><trkpt lat="42.9976336" lon="12.2288716"><ele>216.0</ele><time>2026-05-01T09:34:38.952Z</time></trkpt><trkpt lat="42.9976153" lon="12.228989"><ele>216.00000000000003</ele><time>2026-05-01T09:34:40.947Z</time></trkpt><trkpt lat="42.9975959" lon="12.2291049"><ele>216.00000000000003</ele><time>2026-05-01T09:34:42.951Z</time></trkpt><trkpt lat="42.997575" lon="12.2292243"><ele>216.0</ele><time>2026-05-01T09:34:44.949Z</time></trkpt><trkpt lat="42.9975586" lon="12.2293487"><ele>216.0</ele><time>2026-05-01T09:34:46.934Z</time></trkpt><trkpt lat="42.9975433" lon="12.2294747"><ele>216.0</ele><time>2026-05-01T09:34:48.942Z</time></trkpt><trkpt lat="42.9975242" lon="12.2295916"><ele>216.0</ele><time>2026-05-01T09:34:50.951Z</time></trkpt><trkpt lat="42.9975049" lon="12.2297105"><ele>216.0</ele><time>2026-05-01T09:34:52.938Z</time></trkpt><trkpt lat="42.9974893" lon="12.2298345"><ele>216.0</ele><time>2026-05-01T09:34:54.937Z</time></trkpt><trkpt lat="42.9974748" lon="12.229955"><ele>216.0</ele><time>2026-05-01T09:34:56.949Z</time></trkpt><trkpt lat="42.9974609" lon="12.2300681"><ele>216.0</ele><time>2026-05-01T09:34:58.939Z</time></trkpt><trkpt lat="42.997447" lon="12.2301915"><ele>216.0</ele><time>2026-05-01T09:35:00.935Z</time></trkpt><trkpt lat="42.9974286" lon="12.2303048"><ele>216.0</ele><time>2026-05-01T09:35:02.95Z</time></trkpt><trkpt lat="42.9974144" lon="12.2304263"><ele>216.0</ele><time>2026-05-01T09:35:04.947Z</time></trkpt><trkpt lat="42.9973889" lon="12.2305426"><ele>216.0</ele><time>2026-05-01T09:35:06.937Z</time></trkpt><trkpt lat="42.9973723" lon="12.2306615"><ele>216.0</ele><time>2026-05-01T09:35:08.934Z</time></trkpt><trkpt lat="42.9973547" lon="12.2307694"><ele>216.0</ele><time>2026-05-01T09:35:10.93Z</time></trkpt><trkpt lat="42.9973366" lon="12.2308831"><ele>216.0</ele><time>2026-05-01T09:35:12.946Z</time></trkpt><trkpt lat="42.9973229" lon="12.2310011"><ele>216.0</ele><time>2026-05-01T09:35:14.927Z</time></trkpt><trkpt lat="42.9973107" lon="12.2311202"><ele>216.0</ele><time>2026-05-01T09:35:16.943Z</time></trkpt><trkpt lat="42.9972917" lon="12.2312383"><ele>216.0</ele><time>2026-05-01T09:35:18.923Z</time></trkpt><trkpt lat="42.9972734" lon="12.231356"><ele>216.0</ele><time>2026-05-01T09:35:20.938Z</time></trkpt><trkpt lat="42.997256" lon="12.2314683"><ele>216.0</ele><time>2026-05-01T09:35:22.942Z</time></trkpt><trkpt lat="42.9972398" lon="12.2315814"><ele>216.33333333333334</ele><time>2026-05-01T09:35:24.948Z</time></trkpt><trkpt lat="42.9972241" lon="12.2316936"><ele>216.66666666666669</ele><time>2026-05-01T09:35:26.929Z</time></trkpt><trkpt lat="42.9972021" lon="12.2318022"><ele>217.0</ele><time>2026-05-01T09:35:28.942Z</time></trkpt><trkpt lat="42.9971906" lon="12.2319109"><ele>217.33333333333334</ele><time>2026-05-01T09:35:30.929Z</time></trkpt><trkpt lat="42.9971856" lon="12.2320141"><ele>217.66666666666669</ele><time>2026-05-01T09:35:32.951Z</time></trkpt><trkpt lat="42.9971902" lon="12.2321208"><ele>218.0</ele><time>2026-05-01T09:35:34.925Z</time></trkpt><trkpt lat="42.997207" lon="12.2322235"><ele>218.00000000000003</ele><time>2026-05-01T09:35:36.924Z</time></trkpt><trkpt lat="42.9972432" lon="12.2323276"><ele>218.0</ele><time>2026-05-01T09:35:38.927Z</time></trkpt><trkpt lat="42.9972958" lon="12.2324197"><ele>218.0</ele><time>2026-05-01T09:35:40.933Z</time></trkpt><trkpt lat="42.9973634" lon="12.2325048"><ele>218.0</ele><time>2026-05-01T09:35:42.926Z</time></trkpt><trkpt lat="42.9974445" lon="12.2325447"><ele>218.00000000000003</ele><time>2026-05-01T09:35:44.93Z</time></trkpt><trkpt lat="42.9975269" lon="12.2325629"><ele>218.0</ele><time>2026-05-01T09:35:46.936Z</time></trkpt><trkpt lat="42.9976139" lon="12.2325702"><ele>218.0</ele><time>2026-05-01T09:35:49Z</time></trkpt><trkpt lat="42.9977062" lon="12.2325616"><ele>218.0</ele><time>2026-05-01T09:35:50.943Z</time></trkpt><trkpt lat="42.9978011" lon="12.2325716"><ele>218.0</ele><time>2026-05-01T09:35:52.941Z</time></trkpt><trkpt lat="42.9979044" lon="12.2325594"><ele>218.0</ele><time>2026-05-01T09:35:54.943Z</time></trkpt><trkpt lat="42.9979936" lon="12.2325618"><ele>218.0</ele><time>2026-05-01T09:35:56.949Z</time></trkpt><trkpt lat="42.998073" lon="12.2325518"><ele>218.0</ele><time>2026-05-01T09:35:58.937Z</time></trkpt><trkpt lat="42.9981697" lon="12.232558"><ele>218.0</ele><time>2026-05-01T09:36:00.935Z</time></trkpt><trkpt lat="42.9982559" lon="12.2325383"><ele>218.0</ele><time>2026-05-01T09:36:02.95Z</time></trkpt><trkpt lat="42.9983509" lon="12.2325289"><ele>218.0</ele><time>2026-05-01T09:36:04.953Z</time></trkpt><trkpt lat="42.9984484" lon="12.2325339"><ele>218.0</ele><time>2026-05-01T09:36:06.929Z</time></trkpt><trkpt lat="42.9985356" lon="12.232523"><ele>217.60000000000002</ele><time>2026-05-01T09:36:08.949Z</time></trkpt><trkpt lat="42.9986271" lon="12.2325259"><ele>217.20000000000002</ele><time>2026-05-01T09:36:10.941Z</time></trkpt><trkpt lat="42.9987282" lon="12.2325253"><ele>216.8</ele><time>2026-05-01T09:36:12.934Z</time></trkpt><trkpt lat="42.9988261" lon="12.2325347"><ele>216.4</ele><time>2026-05-01T09:36:14.945Z</time></trkpt><trkpt lat="42.9989263" lon="12.2325598"><ele>216.0</ele><time>2026-05-01T09:36:16.948Z</time></trkpt><trkpt lat="42.9990289" lon="12.2325996"><ele>216.0</ele><time>2026-05-01T09:36:18.946Z</time></trkpt><trkpt lat="42.9991384" lon="12.2326349"><ele>216.00000000000003</ele><time>2026-05-01T09:36:20.949Z</time></trkpt><trkpt lat="42.9992424" lon="12.2326797"><ele>216.00000000000003</ele><time>2026-05-01T09:36:22.947Z</time></trkpt><trkpt lat="42.9993518" lon="12.2327121"><ele>216.0</ele><time>2026-05-01T09:36:24.946Z</time></trkpt><trkpt lat="42.9994542" lon="12.2327569"><ele>216.0</ele><time>2026-05-01T09:36:26.951Z</time></trkpt><trkpt lat="42.9995507" lon="12.2327831"><ele>215.8</ele><time>2026-05-01T09:36:28.95Z</time></trkpt><trkpt lat="42.999641" lon="12.2328311"><ele>215.60000000000002</ele><time>2026-05-01T09:36:30.946Z</time></trkpt><trkpt lat="42.9997429" lon="12.2328912"><ele>215.4</ele><time>2026-05-01T09:36:32.941Z</time></trkpt><trkpt lat="42.9998437" lon="12.2329473"><ele>215.2</ele><time>2026-05-01T09:36:34.952Z</time></trkpt><trkpt lat="42.9999399" lon="12.2329979"><ele>215.0</ele><time>2026-05-01T09:36:36.947Z</time></trkpt><trkpt lat="43.0000335" lon="12.2330366"><ele>215.0</ele><time>2026-05-01T09:36:38.937Z</time></trkpt><trkpt lat="43.0001327" lon="12.2330786"><ele>215.0</ele><time>2026-05-01T09:36:40.94Z</time></trkpt><trkpt lat="43.0002246" lon="12.2331176"><ele>215.0</ele><time>2026-05-01T09:36:42.945Z</time></trkpt><trkpt lat="43.0003181" lon="12.2331594"><ele>215.0</ele><time>2026-05-01T09:36:44.952Z</time></trkpt><trkpt lat="43.0004212" lon="12.233204"><ele>215.0</ele><time>2026-05-01T09:36:46.943Z</time></trkpt><trkpt lat="43.0005143" lon="12.2332456"><ele>215.0</ele><time>2026-05-01T09:36:48.941Z</time></trkpt><trkpt lat="43.0006082" lon="12.2332847"><ele>215.0</ele><time>2026-05-01T09:36:50.961Z</time></trkpt><trkpt lat="43.0006902" lon="12.2333192"><ele>215.0</ele><time>2026-05-01T09:36:52.942Z</time></trkpt><trkpt lat="43.0007821" lon="12.2333542"><ele>215.0</ele><time>2026-05-01T09:36:54.93Z</time></trkpt><trkpt lat="43.0008818" lon="12.2334047"><ele>215.0</ele><time>2026-05-01T09:36:56.95Z</time></trkpt><trkpt lat="43.0009818" lon="12.2334354"><ele>215.00000000000003</ele><time>2026-05-01T09:36:58.941Z</time></trkpt><trkpt lat="43.0010733" lon="12.2334712"><ele>215.0</ele><time>2026-05-01T09:37:00.939Z</time></trkpt><trkpt lat="43.0011574" lon="12.2335052"><ele>215.0</ele><time>2026-05-01T09:37:02.954Z</time></trkpt><trkpt lat="43.0012439" lon="12.2335415"><ele>215.0</ele><time>2026-05-01T09:37:04.942Z</time></trkpt><trkpt lat="43.0013022" lon="12.2335793"><ele>215.00000000000003</ele><time>2026-05-01T09:37:05.944Z</time></trkpt><trkpt lat="43.001392" lon="12.2336168"><ele>215.0</ele><time>2026-05-01T09:37:07.937Z</time></trkpt><trkpt lat="43.0014899" lon="12.23367"><ele>215.0</ele><time>2026-05-01T09:37:09.94Z</time></trkpt><trkpt lat="43.0015899" lon="12.2337197"><ele>215.0</ele><time>2026-05-01T09:37:11.952Z</time></trkpt><trkpt lat="43.0016829" lon="12.2337684"><ele>215.0</ele><time>2026-05-01T09:37:13.946Z</time></trkpt><trkpt lat="43.001775" lon="12.2338126"><ele>215.0</ele><time>2026-05-01T09:37:15.932Z</time></trkpt><trkpt lat="43.0018741" lon="12.2338488"><ele>215.0</ele><time>2026-05-01T09:37:17.95Z</time></trkpt><trkpt lat="43.0019756" lon="12.2338925"><ele>214.6</ele><time>2026-05-01T09:37:19.941Z</time></trkpt><trkpt lat="43.0020806" lon="12.2339211"><ele>214.2</ele><time>2026-05-01T09:37:21.953Z</time></trkpt><trkpt lat="43.0021797" lon="12.2339352"><ele>213.8</ele><time>2026-05-01T09:37:23.954Z</time></trkpt><trkpt lat="43.0022833" lon="12.2339445"><ele>213.4</ele><time>2026-05-01T09:37:25.945Z</time></trkpt><trkpt lat="43.0023899" lon="12.2339449"><ele>213.0</ele><time>2026-05-01T09:37:27.952Z</time></trkpt><trkpt lat="43.0024887" lon="12.2339217"><ele>212.8</ele><time>2026-05-01T09:37:29.939Z</time></trkpt><trkpt lat="43.0025852" lon="12.2338909"><ele>212.60000000000002</ele><time>2026-05-01T09:37:31.966Z</time></trkpt><trkpt lat="43.0026727" lon="12.2338522"><ele>212.39999999999998</ele><time>2026-05-01T09:37:33.941Z</time></trkpt><trkpt lat="43.0027527" lon="12.2338095"><ele>212.2</ele><time>2026-05-01T09:37:35.946Z</time></trkpt><trkpt lat="43.0028348" lon="12.2337614"><ele>212.0</ele><time>2026-05-01T09:37:37.946Z</time></trkpt><trkpt lat="43.0029117" lon="12.2337061"><ele>212.0</ele><time>2026-05-01T09:37:39.951Z</time></trkpt><trkpt lat="43.002995" lon="12.2336625"><ele>212.0</ele><time>2026-05-01T09:37:41.948Z</time></trkpt><trkpt lat="43.0030758" lon="12.2336155"><ele>212.0</ele><time>2026-05-01T09:37:43.95Z</time></trkpt><trkpt lat="43.0031589" lon="12.2335555"><ele>212.0</ele><time>2026-05-01T09:37:45.955Z</time></trkpt><trkpt lat="43.0032465" lon="12.2335055"><ele>212.0</ele><time>2026-05-01T09:37:47.938Z</time></trkpt><trkpt lat="43.0033341" lon="12.2334603"><ele>212.2</ele><time>2026-05-01T09:37:49.943Z</time></trkpt><trkpt lat="43.0034143" lon="12.233404"><ele>212.39999999999998</ele><time>2026-05-01T09:37:51.946Z</time></trkpt><trkpt lat="43.0034999" lon="12.2333615"><ele>212.60000000000002</ele><time>2026-05-01T09:37:53.943Z</time></trkpt><trkpt lat="43.0035875" lon="12.2333162"><ele>212.8</ele><time>2026-05-01T09:37:55.949Z</time></trkpt><trkpt lat="43.0036768" lon="12.2332616"><ele>213.0</ele><time>2026-05-01T09:37:57.946Z</time></trkpt><trkpt lat="43.0037749" lon="12.2332042"><ele>213.0</ele><time>2026-05-01T09:37:59.934Z</time></trkpt><trkpt lat="43.0038585" lon="12.233144"><ele>213.0</ele><time>2026-05-01T09:38:01.949Z</time></trkpt><trkpt lat="43.003945" lon="12.233093"><ele>213.0</ele><time>2026-05-01T09:38:03.954Z</time></trkpt><trkpt lat="43.0040339" lon="12.2330381"><ele>213.0</ele><time>2026-05-01T09:38:05.945Z</time></trkpt><trkpt lat="43.0041175" lon="12.2329881"><ele>213.0</ele><time>2026-05-01T09:38:07.95Z</time></trkpt><trkpt lat="43.0042085" lon="12.2329379"><ele>213.0</ele><time>2026-05-01T09:38:09.952Z</time></trkpt><trkpt lat="43.0042957" lon="12.2328829"><ele>213.0</ele><time>2026-05-01T09:38:12Z</time></trkpt><trkpt lat="43.0043827" lon="12.2328268"><ele>213.0</ele><time>2026-05-01T09:38:13.953Z</time></trkpt><trkpt lat="43.004464" lon="12.2327647"><ele>213.0</ele><time>2026-05-01T09:38:15.942Z</time></trkpt><trkpt lat="43.00454" lon="12.232697"><ele>213.0</ele><time>2026-05-01T09:38:17.938Z</time></trkpt><trkpt lat="43.0046141" lon="12.2326245"><ele>213.0</ele><time>2026-05-01T09:38:19.947Z</time></trkpt><trkpt lat="43.0046897" lon="12.2325512"><ele>213.0</ele><time>2026-05-01T09:38:21.95Z</time></trkpt><trkpt lat="43.0047707" lon="12.2324719"><ele>213.0</ele><time>2026-05-01T09:38:23.949Z</time></trkpt><trkpt lat="43.0048565" lon="12.23239"><ele>213.0</ele><time>2026-05-01T09:38:25.958Z</time></trkpt><trkpt lat="43.004942" lon="12.232322"><ele>213.0</ele><time>2026-05-01T09:38:27.947Z</time></trkpt><trkpt lat="43.0050248" lon="12.2322377"><ele>213.0</ele><time>2026-05-01T09:38:29.952Z</time></trkpt><trkpt lat="43.0051031" lon="12.2321611"><ele>213.0</ele><time>2026-05-01T09:38:31.955Z</time></trkpt><trkpt lat="43.0051811" lon="12.2320849"><ele>213.0</ele><time>2026-05-01T09:38:33.939Z</time></trkpt><trkpt lat="43.0052557" lon="12.2320116"><ele>213.0</ele><time>2026-05-01T09:38:35.941Z</time></trkpt><trkpt lat="43.0053349" lon="12.2319308"><ele>213.0</ele><time>2026-05-01T09:38:37.95Z</time></trkpt><trkpt lat="43.0054244" lon="12.231846"><ele>213.0</ele><time>2026-05-01T09:38:39.951Z</time></trkpt><trkpt lat="43.0055089" lon="12.2317602"><ele>213.0</ele><time>2026-05-01T09:38:41.942Z</time></trkpt><trkpt lat="43.0055939" lon="12.2316743"><ele>213.0</ele><time>2026-05-01T09:38:43.94Z</time></trkpt><trkpt lat="43.0056902" lon="12.231598"><ele>213.0</ele><time>2026-05-01T09:38:45.952Z</time></trkpt><trkpt lat="43.0057689" lon="12.2315256"><ele>213.0</ele><time>2026-05-01T09:38:47.946Z</time></trkpt><trkpt lat="43.0058483" lon="12.2314515"><ele>213.2</ele><time>2026-05-01T09:38:49.952Z</time></trkpt><trkpt lat="43.005945" lon="12.2313827"><ele>213.4</ele><time>2026-05-01T09:38:51.946Z</time></trkpt><trkpt lat="43.006026" lon="12.2313267"><ele>213.59999999999997</ele><time>2026-05-01T09:38:53.95Z</time></trkpt><trkpt lat="43.0061009" lon="12.2312824"><ele>213.79999999999998</ele><time>2026-05-01T09:38:55.95Z</time></trkpt><trkpt lat="43.0061939" lon="12.2312494"><ele>214.0</ele><time>2026-05-01T09:38:57.951Z</time></trkpt><trkpt lat="43.0062947" lon="12.2312192"><ele>214.0</ele><time>2026-05-01T09:38:59.939Z</time></trkpt><trkpt lat="43.0063887" lon="12.2312078"><ele>213.99999999999997</ele><time>2026-05-01T09:39:01.951Z</time></trkpt><trkpt lat="43.0064863" lon="12.2312153"><ele>213.99999999999997</ele><time>2026-05-01T09:39:03.95Z</time></trkpt><trkpt lat="43.0065838" lon="12.2312348"><ele>214.0</ele><time>2026-05-01T09:39:06Z</time></trkpt><trkpt lat="43.0066834" lon="12.2312699"><ele>214.0</ele><time>2026-05-01T09:39:07.943Z</time></trkpt><trkpt lat="43.0067736" lon="12.2312995"><ele>213.79999999999998</ele><time>2026-05-01T09:39:09.95Z</time></trkpt><trkpt lat="43.0068575" lon="12.2313544"><ele>213.59999999999997</ele><time>2026-05-01T09:39:11.941Z</time></trkpt><trkpt lat="43.0069476" lon="12.2314012"><ele>213.4</ele><time>2026-05-01T09:39:13.954Z</time></trkpt><trkpt lat="43.0070253" lon="12.2314624"><ele>213.2</ele><time>2026-05-01T09:39:15.95Z</time></trkpt><trkpt lat="43.0071117" lon="12.231511"><ele>213.0</ele><time>2026-05-01T09:39:17.952Z</time></trkpt><trkpt lat="43.007208" lon="12.2315672"><ele>213.0</ele><time>2026-05-01T09:39:19.946Z</time></trkpt><trkpt lat="43.0072919" lon="12.2316031"><ele>213.0</ele><time>2026-05-01T09:39:21.945Z</time></trkpt><trkpt lat="43.00737" lon="12.2316404"><ele>213.0</ele><time>2026-05-01T09:39:23.948Z</time></trkpt><trkpt lat="43.0074529" lon="12.2316891"><ele>213.0</ele><time>2026-05-01T09:39:25.938Z</time></trkpt><trkpt lat="43.0075334" lon="12.2317355"><ele>213.0</ele><time>2026-05-01T09:39:27.939Z</time></trkpt><trkpt lat="43.0076134" lon="12.2317829"><ele>213.0</ele><time>2026-05-01T09:39:29.944Z</time></trkpt><trkpt lat="43.0076939" lon="12.23183"><ele>213.66666666666666</ele><time>2026-05-01T09:39:31.942Z</time></trkpt><trkpt lat="43.007782" lon="12.2318715"><ele>214.33333333333331</ele><time>2026-05-01T09:39:33.938Z</time></trkpt><trkpt lat="43.0078646" lon="12.2319221"><ele>215.0</ele><time>2026-05-01T09:39:35.965Z</time></trkpt><trkpt lat="43.0079467" lon="12.2319708"><ele>215.66666666666666</ele><time>2026-05-01T09:39:37.936Z</time></trkpt><trkpt lat="43.0080275" lon="12.2320211"><ele>216.33333333333331</ele><time>2026-05-01T09:39:39.931Z</time></trkpt><trkpt lat="43.0081004" lon="12.2320706"><ele>217.0</ele><time>2026-05-01T09:39:41.935Z</time></trkpt><trkpt lat="43.008177" lon="12.232113"><ele>216.99999999999997</ele><time>2026-05-01T09:39:43.951Z</time></trkpt><trkpt lat="43.0082588" lon="12.2321493"><ele>217.0</ele><time>2026-05-01T09:39:45.924Z</time></trkpt><trkpt lat="43.0083425" lon="12.232172"><ele>217.0</ele><time>2026-05-01T09:39:47.949Z</time></trkpt><trkpt lat="43.008429" lon="12.2321565"><ele>217.0</ele><time>2026-05-01T09:39:49.946Z</time></trkpt><trkpt lat="43.0085193" lon="12.2321458"><ele>216.99999999999997</ele><time>2026-05-01T09:39:51.944Z</time></trkpt><trkpt lat="43.0086073" lon="12.2321309"><ele>217.0</ele><time>2026-05-01T09:39:53.949Z</time></trkpt><trkpt lat="43.0086965" lon="12.2320983"><ele>217.66666666666666</ele><time>2026-05-01T09:39:55.928Z</time></trkpt><trkpt lat="43.0087844" lon="12.232069"><ele>218.33333333333331</ele><time>2026-05-01T09:39:57.931Z</time></trkpt><trkpt lat="43.0088653" lon="12.2320586"><ele>219.0</ele><time>2026-05-01T09:39:59.947Z</time></trkpt><trkpt lat="43.0089305" lon="12.2320697"><ele>219.66666666666669</ele><time>2026-05-01T09:40:01.934Z</time></trkpt><trkpt lat="43.0090008" lon="12.2321315"><ele>220.33333333333334</ele><time>2026-05-01T09:40:03.946Z</time></trkpt><trkpt lat="43.0090613" lon="12.2321931"><ele>221.0</ele><time>2026-05-01T09:40:05.939Z</time></trkpt><trkpt lat="43.0091421" lon="12.2322944"><ele>220.60000000000002</ele><time>2026-05-01T09:40:07.939Z</time></trkpt><trkpt lat="43.0092097" lon="12.2323753"><ele>220.20000000000002</ele><time>2026-05-01T09:40:10Z</time></trkpt><trkpt lat="43.0092879" lon="12.2324643"><ele>219.79999999999998</ele><time>2026-05-01T09:40:11.949Z</time></trkpt><trkpt lat="43.0093606" lon="12.2325567"><ele>219.39999999999998</ele><time>2026-05-01T09:40:13.945Z</time></trkpt><trkpt lat="43.0094274" lon="12.2326309"><ele>219.0</ele><time>2026-05-01T09:40:15.922Z</time></trkpt><trkpt lat="43.00949" lon="12.232705"><ele>219.0</ele><time>2026-05-01T09:40:17.93Z</time></trkpt><trkpt lat="43.0095629" lon="12.2327744"><ele>218.99999999999997</ele><time>2026-05-01T09:40:19.924Z</time></trkpt><trkpt lat="43.0096299" lon="12.2328581"><ele>218.99999999999997</ele><time>2026-05-01T09:40:21.923Z</time></trkpt><trkpt lat="43.009702" lon="12.2329397"><ele>219.0</ele><time>2026-05-01T09:40:23.923Z</time></trkpt><trkpt lat="43.009781" lon="12.2330245"><ele>219.0</ele><time>2026-05-01T09:40:25.927Z</time></trkpt><trkpt lat="43.0098593" lon="12.2331107"><ele>219.0</ele><time>2026-05-01T09:40:27.935Z</time></trkpt><trkpt lat="43.009933" lon="12.2331834"><ele>218.99999999999997</ele><time>2026-05-01T09:40:29.931Z</time></trkpt><trkpt lat="43.0100183" lon="12.2332386"><ele>218.99999999999997</ele><time>2026-05-01T09:40:31.945Z</time></trkpt><trkpt lat="43.0101082" lon="12.2333046"><ele>219.0</ele><time>2026-05-01T09:40:33.948Z</time></trkpt><trkpt lat="43.010199" lon="12.2333594"><ele>219.0</ele><time>2026-05-01T09:40:35.939Z</time></trkpt><trkpt lat="43.0102991" lon="12.2333939"><ele>219.0</ele><time>2026-05-01T09:40:37.948Z</time></trkpt><trkpt lat="43.0104033" lon="12.2334332"><ele>218.99999999999997</ele><time>2026-05-01T09:40:39.951Z</time></trkpt><trkpt lat="43.010503" lon="12.2334769"><ele>218.99999999999997</ele><time>2026-05-01T09:40:41.925Z</time></trkpt><trkpt lat="43.0105586" lon="12.2335176"><ele>219.0</ele><time>2026-05-01T09:40:42.935Z</time></trkpt><trkpt lat="43.0106607" lon="12.2335807"><ele>219.0</ele><time>2026-05-01T09:40:44.948Z</time></trkpt><trkpt lat="43.0107509" lon="12.2336415"><ele>219.0</ele><time>2026-05-01T09:40:46.932Z</time></trkpt><trkpt lat="43.0108301" lon="12.2337185"><ele>218.99999999999997</ele><time>2026-05-01T09:40:48.931Z</time></trkpt><trkpt lat="43.0109216" lon="12.2337913"><ele>218.99999999999997</ele><time>2026-05-01T09:40:50.933Z</time></trkpt><trkpt lat="43.011035" lon="12.2339326"><ele>219.0</ele><time>2026-05-01T09:40:52.927Z</time></trkpt><trkpt lat="43.0110888" lon="12.2340083"><ele>219.0</ele><time>2026-05-01T09:40:54.925Z</time></trkpt><trkpt lat="43.0110785" lon="12.2341081"><ele>219.0</ele><time>2026-05-01T09:40:56.935Z</time></trkpt><trkpt lat="43.0110303" lon="12.2342609"><ele>219.0</ele><time>2026-05-01T09:40:58.951Z</time></trkpt><trkpt lat="43.0110134" lon="12.2343514"><ele>219.0</ele><time>2026-05-01T09:40:59.926Z</time></trkpt><trkpt lat="43.0109863" lon="12.2344296"><ele>219.0</ele><time>2026-05-01T09:41:00.931Z</time></trkpt><trkpt lat="43.010926" lon="12.2345414"><ele>219.0</ele><time>2026-05-01T09:41:02.925Z</time></trkpt><trkpt lat="43.0109491" lon="12.2346468"><ele>219.0</ele><time>2026-05-01T09:41:05.948Z</time></trkpt><trkpt lat="43.0110083" lon="12.2347152"><ele>219.0</ele><time>2026-05-01T09:41:07.928Z</time></trkpt><trkpt lat="43.0110821" lon="12.2347815"><ele>219.0</ele><time>2026-05-01T09:41:09.932Z</time></trkpt><trkpt lat="43.0111487" lon="12.2348495"><ele>219.0</ele><time>2026-05-01T09:41:11.935Z</time></trkpt><trkpt lat="43.0112077" lon="12.2349264"><ele>219.0</ele><time>2026-05-01T09:41:13.949Z</time></trkpt><trkpt lat="43.0112664" lon="12.234992"><ele>219.0</ele><time>2026-05-01T09:41:15.937Z</time></trkpt><trkpt lat="43.0113263" lon="12.2350614"><ele>219.0</ele><time>2026-05-01T09:41:17.942Z</time></trkpt><trkpt lat="43.0113998" lon="12.2351424"><ele>218.33333333333334</ele><time>2026-05-01T09:41:19.955Z</time></trkpt><trkpt lat="43.0114676" lon="12.2352006"><ele>217.66666666666669</ele><time>2026-05-01T09:41:21.93Z</time></trkpt><trkpt lat="43.0115339" lon="12.2352795"><ele>217.0</ele><time>2026-05-01T09:41:23.915Z</time></trkpt><trkpt lat="43.0116039" lon="12.2353278"><ele>216.33333333333334</ele><time>2026-05-01T09:41:25.936Z</time></trkpt><trkpt lat="43.0116657" lon="12.2353982"><ele>215.66666666666669</ele><time>2026-05-01T09:41:27.929Z</time></trkpt><trkpt lat="43.0117368" lon="12.2354827"><ele>215.0</ele><time>2026-05-01T09:41:29.952Z</time></trkpt><trkpt lat="43.0118082" lon="12.2355337"><ele>215.00000000000003</ele><time>2026-05-01T09:41:31.941Z</time></trkpt><trkpt lat="43.0118682" lon="12.2355946"><ele>215.0</ele><time>2026-05-01T09:41:33.934Z</time></trkpt><trkpt lat="43.0119186" lon="12.2356692"><ele>215.0</ele><time>2026-05-01T09:41:35.934Z</time></trkpt><trkpt lat="43.0119983" lon="12.2357403"><ele>215.0</ele><time>2026-05-01T09:41:38.933Z</time></trkpt><trkpt lat="43.0120694" lon="12.2358235"><ele>215.00000000000003</ele><time>2026-05-01T09:41:40.94Z</time></trkpt><trkpt lat="43.0121416" lon="12.2359289"><ele>215.0</ele><time>2026-05-01T09:41:42.983Z</time></trkpt><trkpt lat="43.0122082" lon="12.236043"><ele>214.8</ele><time>2026-05-01T09:41:44.946Z</time></trkpt><trkpt lat="43.0122846" lon="12.236141"><ele>214.6</ele><time>2026-05-01T09:41:46.948Z</time></trkpt><trkpt lat="43.0123477" lon="12.236238"><ele>214.39999999999998</ele><time>2026-05-01T09:41:48.925Z</time></trkpt><trkpt lat="43.0123928" lon="12.236344"><ele>214.2</ele><time>2026-05-01T09:41:50.945Z</time></trkpt><trkpt lat="43.0124518" lon="12.2364626"><ele>214.0</ele><time>2026-05-01T09:41:52.951Z</time></trkpt><trkpt lat="43.0124957" lon="12.2365793"><ele>213.66666666666666</ele><time>2026-05-01T09:41:54.93Z</time></trkpt><trkpt lat="43.0125353" lon="12.2366745"><ele>213.33333333333331</ele><time>2026-05-01T09:41:56.939Z</time></trkpt><trkpt lat="43.012575" lon="12.23676"><ele>213.0</ele><time>2026-05-01T09:41:58.943Z</time></trkpt><trkpt lat="43.0126137" lon="12.236848"><ele>212.66666666666669</ele><time>2026-05-01T09:42:00.931Z</time></trkpt><trkpt lat="43.0126575" lon="12.2369469"><ele>212.33333333333334</ele><time>2026-05-01T09:42:02.945Z</time></trkpt><trkpt lat="43.0126967" lon="12.2370304"><ele>212.0</ele><time>2026-05-01T09:42:04.937Z</time></trkpt><trkpt lat="43.0127433" lon="12.2371254"><ele>212.0</ele><time>2026-05-01T09:42:06.949Z</time></trkpt><trkpt lat="43.0127884" lon="12.237252"><ele>212.0</ele><time>2026-05-01T09:42:08.929Z</time></trkpt><trkpt lat="43.0128114" lon="12.2373795"><ele>212.0</ele><time>2026-05-01T09:42:10.939Z</time></trkpt><trkpt lat="43.0128415" lon="12.2375102"><ele>212.0</ele><time>2026-05-01T09:42:12.932Z</time></trkpt><trkpt lat="43.0128803" lon="12.2376433"><ele>212.0</ele><time>2026-05-01T09:42:14.936Z</time></trkpt><trkpt lat="43.012911" lon="12.2377688"><ele>211.8</ele><time>2026-05-01T09:42:16.945Z</time></trkpt><trkpt lat="43.0129355" lon="12.2379003"><ele>211.6</ele><time>2026-05-01T09:42:18.932Z</time></trkpt><trkpt lat="43.0129667" lon="12.2380276"><ele>211.4</ele><time>2026-05-01T09:42:20.95Z</time></trkpt><trkpt lat="43.0129875" lon="12.2381383"><ele>211.20000000000002</ele><time>2026-05-01T09:42:22.95Z</time></trkpt><trkpt lat="43.0130006" lon="12.238261"><ele>211.0</ele><time>2026-05-01T09:42:24.941Z</time></trkpt><trkpt lat="43.0130355" lon="12.2383936"><ele>211.0</ele><time>2026-05-01T09:42:26.927Z</time></trkpt><trkpt lat="43.0130678" lon="12.2385032"><ele>211.0</ele><time>2026-05-01T09:42:28.939Z</time></trkpt><trkpt lat="43.0130865" lon="12.2386095"><ele>211.0</ele><time>2026-05-01T09:42:30.925Z</time></trkpt><trkpt lat="43.0131151" lon="12.2387261"><ele>211.0</ele><time>2026-05-01T09:42:32.946Z</time></trkpt><trkpt lat="43.0131398" lon="12.2388586"><ele>211.0</ele><time>2026-05-01T09:42:34.925Z</time></trkpt><trkpt lat="43.0131715" lon="12.2389947"><ele>210.8</ele><time>2026-05-01T09:42:36.933Z</time></trkpt><trkpt lat="43.0131923" lon="12.2391376"><ele>210.60000000000002</ele><time>2026-05-01T09:42:38.948Z</time></trkpt><trkpt lat="43.0132175" lon="12.2392741"><ele>210.4</ele><time>2026-05-01T09:42:40.942Z</time></trkpt><trkpt lat="43.0132432" lon="12.2394103"><ele>210.2</ele><time>2026-05-01T09:42:42.938Z</time></trkpt><trkpt lat="43.0132708" lon="12.2395264"><ele>210.0</ele><time>2026-05-01T09:42:44.942Z</time></trkpt><trkpt lat="43.0132972" lon="12.2396444"><ele>210.0</ele><time>2026-05-01T09:42:46.936Z</time></trkpt><trkpt lat="43.0133277" lon="12.2397583"><ele>210.0</ele><time>2026-05-01T09:42:48.947Z</time></trkpt><trkpt lat="43.0133377" lon="12.2398707"><ele>210.0</ele><time>2026-05-01T09:42:50.946Z</time></trkpt><trkpt lat="43.0133595" lon="12.239989"><ele>210.0</ele><time>2026-05-01T09:42:52.939Z</time></trkpt><trkpt lat="43.0133885" lon="12.2401183"><ele>210.0</ele><time>2026-05-01T09:42:54.936Z</time></trkpt><trkpt lat="43.0134198" lon="12.240227"><ele>210.0</ele><time>2026-05-01T09:42:56.95Z</time></trkpt><trkpt lat="43.0134399" lon="12.2403434"><ele>210.16666666666666</ele><time>2026-05-01T09:42:58.944Z</time></trkpt><trkpt lat="43.0134736" lon="12.2404335"><ele>210.33333333333331</ele><time>2026-05-01T09:43:00.933Z</time></trkpt><trkpt lat="43.0135168" lon="12.240549"><ele>210.5</ele><time>2026-05-01T09:43:02.946Z</time></trkpt><trkpt lat="43.0135157" lon="12.2406366"><ele>210.66666666666666</ele><time>2026-05-01T09:43:04.918Z</time></trkpt><trkpt lat="43.0135412" lon="12.2407728"><ele>210.83333333333331</ele><time>2026-05-01T09:43:06.942Z</time></trkpt><trkpt lat="43.0135713" lon="12.2409094"><ele>211.0</ele><time>2026-05-01T09:43:08.942Z</time></trkpt><trkpt lat="43.0136056" lon="12.2410467"><ele>211.0</ele><time>2026-05-01T09:43:11Z</time></trkpt><trkpt lat="43.0136405" lon="12.2411777"><ele>211.0</ele><time>2026-05-01T09:43:12.922Z</time></trkpt><trkpt lat="43.0136705" lon="12.241304"><ele>211.0</ele><time>2026-05-01T09:43:14.948Z</time></trkpt><trkpt lat="43.0137071" lon="12.2414374"><ele>211.0</ele><time>2026-05-01T09:43:16.945Z</time></trkpt><trkpt lat="43.0137429" lon="12.2415611"><ele>211.0</ele><time>2026-05-01T09:43:18.944Z</time></trkpt><trkpt lat="43.013781" lon="12.2416817"><ele>211.20000000000002</ele><time>2026-05-01T09:43:20.944Z</time></trkpt><trkpt lat="43.0138275" lon="12.2417912"><ele>211.4</ele><time>2026-05-01T09:43:22.944Z</time></trkpt><trkpt lat="43.0138801" lon="12.2418896"><ele>211.6</ele><time>2026-05-01T09:43:24.937Z</time></trkpt><trkpt lat="43.0139282" lon="12.2419961"><ele>211.8</ele><time>2026-05-01T09:43:26.953Z</time></trkpt><trkpt lat="43.013981" lon="12.2421119"><ele>212.0</ele><time>2026-05-01T09:43:28.944Z</time></trkpt><trkpt lat="43.014042" lon="12.2422233"><ele>212.0</ele><time>2026-05-01T09:43:30.942Z</time></trkpt><trkpt lat="43.0141083" lon="12.2423354"><ele>212.0</ele><time>2026-05-01T09:43:32.946Z</time></trkpt><trkpt lat="43.0141651" lon="12.242434"><ele>212.0</ele><time>2026-05-01T09:43:34.95Z</time></trkpt><trkpt lat="43.0142306" lon="12.2425348"><ele>212.0</ele><time>2026-05-01T09:43:36.947Z</time></trkpt><trkpt lat="43.0142994" lon="12.2426447"><ele>212.0</ele><time>2026-05-01T09:43:39Z</time></trkpt><trkpt lat="43.0143777" lon="12.2427519"><ele>212.0</ele><time>2026-05-01T09:43:40.943Z</time></trkpt><trkpt lat="43.0144527" lon="12.2428473"><ele>212.0</ele><time>2026-05-01T09:43:42.951Z</time></trkpt><trkpt lat="43.0145215" lon="12.2429464"><ele>212.0</ele><time>2026-05-01T09:43:44.937Z</time></trkpt><trkpt lat="43.0145945" lon="12.2430313"><ele>212.0</ele><time>2026-05-01T09:43:46.95Z</time></trkpt><trkpt lat="43.0146571" lon="12.2431131"><ele>212.0</ele><time>2026-05-01T09:43:48.943Z</time></trkpt><trkpt lat="43.0147256" lon="12.2431906"><ele>212.00000000000003</ele><time>2026-05-01T09:43:50.934Z</time></trkpt><trkpt lat="43.0148161" lon="12.2432708"><ele>212.0</ele><time>2026-05-01T09:43:52.954Z</time></trkpt><trkpt lat="43.014898" lon="12.2433485"><ele>212.0</ele><time>2026-05-01T09:43:54.951Z</time></trkpt><trkpt lat="43.0149794" lon="12.2433909"><ele>212.0</ele><time>2026-05-01T09:43:57Z</time></trkpt><trkpt lat="43.0150558" lon="12.243431"><ele>212.00000000000003</ele><time>2026-05-01T09:43:58.935Z</time></trkpt><trkpt lat="43.0151062" lon="12.2435009"><ele>212.0</ele><time>2026-05-01T09:44:00.932Z</time></trkpt><trkpt lat="43.0151647" lon="12.2435663"><ele>212.2</ele><time>2026-05-01T09:44:02.945Z</time></trkpt><trkpt lat="43.0152252" lon="12.2436484"><ele>212.39999999999998</ele><time>2026-05-01T09:44:04.94Z</time></trkpt><trkpt lat="43.0152798" lon="12.2437439"><ele>212.60000000000002</ele><time>2026-05-01T09:44:06.941Z</time></trkpt><trkpt lat="43.0153402" lon="12.2438284"><ele>212.8</ele><time>2026-05-01T09:44:08.947Z</time></trkpt><trkpt lat="43.0154128" lon="12.2439259"><ele>213.0</ele><time>2026-05-01T09:44:10.951Z</time></trkpt><trkpt lat="43.0155008" lon="12.2440165"><ele>213.0</ele><time>2026-05-01T09:44:12.942Z</time></trkpt><trkpt lat="43.0155528" lon="12.2441107"><ele>213.0</ele><time>2026-05-01T09:44:14.955Z</time></trkpt><trkpt lat="43.0156256" lon="12.2441961"><ele>213.0</ele><time>2026-05-01T09:44:16.934Z</time></trkpt><trkpt lat="43.0156724" lon="12.2442896"><ele>213.0</ele><time>2026-05-01T09:44:18.944Z</time></trkpt><trkpt lat="43.0157301" lon="12.2443543"><ele>213.0</ele><time>2026-05-01T09:44:20.944Z</time></trkpt><trkpt lat="43.0158092" lon="12.2444216"><ele>213.0</ele><time>2026-05-01T09:44:22.941Z</time></trkpt><trkpt lat="43.0158836" lon="12.2444865"><ele>213.0</ele><time>2026-05-01T09:44:24.944Z</time></trkpt><trkpt lat="43.0159374" lon="12.2445803"><ele>213.0</ele><time>2026-05-01T09:44:26.948Z</time></trkpt><trkpt lat="43.0160042" lon="12.2446859"><ele>213.0</ele><time>2026-05-01T09:44:28.942Z</time></trkpt><trkpt lat="43.0160685" lon="12.2447942"><ele>213.0</ele><time>2026-05-01T09:44:30.946Z</time></trkpt><trkpt lat="43.0161285" lon="12.2448862"><ele>213.0</ele><time>2026-05-01T09:44:32.947Z</time></trkpt><trkpt lat="43.0161922" lon="12.2449719"><ele>213.0</ele><time>2026-05-01T09:44:34.932Z</time></trkpt><trkpt lat="43.0162489" lon="12.2450545"><ele>213.0</ele><time>2026-05-01T09:44:36.932Z</time></trkpt><trkpt lat="43.0163224" lon="12.2451471"><ele>213.0</ele><time>2026-05-01T09:44:38.942Z</time></trkpt><trkpt lat="43.0163965" lon="12.2452413"><ele>213.0</ele><time>2026-05-01T09:44:40.965Z</time></trkpt><trkpt lat="43.0164745" lon="12.2453395"><ele>213.0</ele><time>2026-05-01T09:44:42.946Z</time></trkpt><trkpt lat="43.0165367" lon="12.2454523"><ele>213.0</ele><time>2026-05-01T09:44:44.95Z</time></trkpt><trkpt lat="43.0166058" lon="12.2455623"><ele>213.0</ele><time>2026-05-01T09:44:46.949Z</time></trkpt><trkpt lat="43.0166652" lon="12.2456697"><ele>213.0</ele><time>2026-05-01T09:44:48.945Z</time></trkpt><trkpt lat="43.0167342" lon="12.2457725"><ele>213.0</ele><time>2026-05-01T09:44:50.948Z</time></trkpt><trkpt lat="43.0167817" lon="12.2458686"><ele>213.0</ele><time>2026-05-01T09:44:52.939Z</time></trkpt><trkpt lat="43.0168322" lon="12.2459725"><ele>213.2</ele><time>2026-05-01T09:44:54.923Z</time></trkpt><trkpt lat="43.016892" lon="12.2460917"><ele>213.4</ele><time>2026-05-01T09:44:56.949Z</time></trkpt><trkpt lat="43.0169422" lon="12.2462038"><ele>213.59999999999997</ele><time>2026-05-01T09:44:58.943Z</time></trkpt><trkpt lat="43.0169933" lon="12.246329"><ele>213.79999999999998</ele><time>2026-05-01T09:45:00.93Z</time></trkpt><trkpt lat="43.0170367" lon="12.2464562"><ele>214.0</ele><time>2026-05-01T09:45:02.946Z</time></trkpt><trkpt lat="43.0170842" lon="12.2465848"><ele>213.6</ele><time>2026-05-01T09:45:04.939Z</time></trkpt><trkpt lat="43.0171323" lon="12.2467299"><ele>213.2</ele><time>2026-05-01T09:45:06.942Z</time></trkpt><trkpt lat="43.017175" lon="12.246869"><ele>212.79999999999998</ele><time>2026-05-01T09:45:08.927Z</time></trkpt><trkpt lat="43.0172126" lon="12.2470074"><ele>212.39999999999998</ele><time>2026-05-01T09:45:10.943Z</time></trkpt><trkpt lat="43.0172409" lon="12.2471354"><ele>212.0</ele><time>2026-05-01T09:45:12.934Z</time></trkpt><trkpt lat="43.017265" lon="12.2472681"><ele>211.6</ele><time>2026-05-01T09:45:14.942Z</time></trkpt><trkpt lat="43.0172999" lon="12.2473986"><ele>211.2</ele><time>2026-05-01T09:45:16.948Z</time></trkpt><trkpt lat="43.0173294" lon="12.2475229"><ele>210.8</ele><time>2026-05-01T09:45:18.933Z</time></trkpt><trkpt lat="43.0173441" lon="12.2476529"><ele>210.4</ele><time>2026-05-01T09:45:20.926Z</time></trkpt><trkpt lat="43.0173671" lon="12.247793"><ele>210.0</ele><time>2026-05-01T09:45:22.941Z</time></trkpt><trkpt lat="43.0173815" lon="12.2479262"><ele>210.0</ele><time>2026-05-01T09:45:24.926Z</time></trkpt><trkpt lat="43.0173918" lon="12.2480611"><ele>210.0</ele><time>2026-05-01T09:45:26.948Z</time></trkpt><trkpt lat="43.0174051" lon="12.2481847"><ele>210.0</ele><time>2026-05-01T09:45:28.922Z</time></trkpt><trkpt lat="43.0174217" lon="12.2483054"><ele>210.0</ele><time>2026-05-01T09:45:30.923Z</time></trkpt><trkpt lat="43.0174405" lon="12.248419"><ele>210.0</ele><time>2026-05-01T09:45:32.926Z</time></trkpt><trkpt lat="43.0174743" lon="12.248538"><ele>210.4</ele><time>2026-05-01T09:45:34.926Z</time></trkpt><trkpt lat="43.0175262" lon="12.2486395"><ele>210.8</ele><time>2026-05-01T09:45:36.928Z</time></trkpt><trkpt lat="43.0176102" lon="12.2487411"><ele>211.2</ele><time>2026-05-01T09:45:38.938Z</time></trkpt><trkpt lat="43.017686" lon="12.2488383"><ele>211.6</ele><time>2026-05-01T09:45:40.922Z</time></trkpt><trkpt lat="43.0177356" lon="12.2489622"><ele>212.0</ele><time>2026-05-01T09:45:42.926Z</time></trkpt><trkpt lat="43.0177755" lon="12.2491005"><ele>212.0</ele><time>2026-05-01T09:45:44.957Z</time></trkpt><trkpt lat="43.0178128" lon="12.2492335"><ele>212.0</ele><time>2026-05-01T09:45:46.949Z</time></trkpt><trkpt lat="43.017851" lon="12.2493605"><ele>212.0</ele><time>2026-05-01T09:45:48.939Z</time></trkpt><trkpt lat="43.0178725" lon="12.2494806"><ele>212.0</ele><time>2026-05-01T09:45:50.943Z</time></trkpt><trkpt lat="43.0179051" lon="12.2496137"><ele>212.0</ele><time>2026-05-01T09:45:52.955Z</time></trkpt><trkpt lat="43.0179411" lon="12.2497581"><ele>212.0</ele><time>2026-05-01T09:45:54.944Z</time></trkpt><trkpt lat="43.0179745" lon="12.249892"><ele>212.0</ele><time>2026-05-01T09:45:56.949Z</time></trkpt><trkpt lat="43.0180056" lon="12.2500201"><ele>212.0</ele><time>2026-05-01T09:45:58.95Z</time></trkpt><trkpt lat="43.0180394" lon="12.2501548"><ele>212.0</ele><time>2026-05-01T09:46:00.939Z</time></trkpt><trkpt lat="43.0180667" lon="12.2502929"><ele>212.0</ele><time>2026-05-01T09:46:02.945Z</time></trkpt><trkpt lat="43.0181115" lon="12.2504189"><ele>212.0</ele><time>2026-05-01T09:46:04.953Z</time></trkpt><trkpt lat="43.0181388" lon="12.2505354"><ele>212.0</ele><time>2026-05-01T09:46:06.941Z</time></trkpt><trkpt lat="43.0181809" lon="12.2506624"><ele>212.0</ele><time>2026-05-01T09:46:08.934Z</time></trkpt><trkpt lat="43.0182019" lon="12.2507682"><ele>212.0</ele><time>2026-05-01T09:46:10.956Z</time></trkpt><trkpt lat="43.0182444" lon="12.2508871"><ele>212.0</ele><time>2026-05-01T09:46:12.949Z</time></trkpt><trkpt lat="43.0183176" lon="12.2509867"><ele>212.0</ele><time>2026-05-01T09:46:14.949Z</time></trkpt><trkpt lat="43.0184225" lon="12.2510181"><ele>212.0</ele><time>2026-05-01T09:46:16.939Z</time></trkpt><trkpt lat="43.0185248" lon="12.2510584"><ele>212.0</ele><time>2026-05-01T09:46:18.948Z</time></trkpt><trkpt lat="43.0186167" lon="12.2511153"><ele>212.0</ele><time>2026-05-01T09:46:20.946Z</time></trkpt><trkpt lat="43.0187099" lon="12.2511727"><ele>212.0</ele><time>2026-05-01T09:46:22.951Z</time></trkpt><trkpt lat="43.0187909" lon="12.2512122"><ele>212.0</ele><time>2026-05-01T09:46:24.928Z</time></trkpt><trkpt lat="43.0188748" lon="12.2512603"><ele>212.0</ele><time>2026-05-01T09:46:26.934Z</time></trkpt><trkpt lat="43.0189636" lon="12.2513048"><ele>212.0</ele><time>2026-05-01T09:46:28.938Z</time></trkpt><trkpt lat="43.0190535" lon="12.2513438"><ele>212.0</ele><time>2026-05-01T09:46:30.948Z</time></trkpt><trkpt lat="43.019142" lon="12.2513838"><ele>212.0</ele><time>2026-05-01T09:46:32.943Z</time></trkpt><trkpt lat="43.0192213" lon="12.2514291"><ele>212.00000000000003</ele><time>2026-05-01T09:46:34.941Z</time></trkpt><trkpt lat="43.0193015" lon="12.2514703"><ele>212.0</ele><time>2026-05-01T09:46:36.932Z</time></trkpt><trkpt lat="43.0193871" lon="12.2515081"><ele>212.0</ele><time>2026-05-01T09:46:38.955Z</time></trkpt><trkpt lat="43.0194757" lon="12.2515469"><ele>212.0</ele><time>2026-05-01T09:46:40.952Z</time></trkpt><trkpt lat="43.0195533" lon="12.2515857"><ele>212.00000000000003</ele><time>2026-05-01T09:46:42.94Z</time></trkpt><trkpt lat="43.0196273" lon="12.2516205"><ele>212.0</ele><time>2026-05-01T09:46:44.949Z</time></trkpt><trkpt lat="43.0197063" lon="12.251671"><ele>212.00000000000003</ele><time>2026-05-01T09:46:46.951Z</time></trkpt><trkpt lat="43.0197837" lon="12.2517197"><ele>212.0</ele><time>2026-05-01T09:46:48.934Z</time></trkpt><trkpt lat="43.0198651" lon="12.2517636"><ele>212.0</ele><time>2026-05-01T09:46:50.948Z</time></trkpt><trkpt lat="43.0199434" lon="12.2518027"><ele>212.0</ele><time>2026-05-01T09:46:52.944Z</time></trkpt><trkpt lat="43.020027" lon="12.2518319"><ele>212.00000000000003</ele><time>2026-05-01T09:46:54.946Z</time></trkpt><trkpt lat="43.0201137" lon="12.2518616"><ele>212.0</ele><time>2026-05-01T09:46:56.935Z</time></trkpt><trkpt lat="43.0202033" lon="12.2518716"><ele>212.50000000000003</ele><time>2026-05-01T09:46:58.944Z</time></trkpt><trkpt lat="43.0202889" lon="12.2518719"><ele>213.0</ele><time>2026-05-01T09:47:00.939Z</time></trkpt><trkpt lat="43.0203688" lon="12.2518642"><ele>213.5</ele><time>2026-05-01T09:47:02.924Z</time></trkpt><trkpt lat="43.020451" lon="12.251868"><ele>214.0</ele><time>2026-05-01T09:47:04.952Z</time></trkpt><trkpt lat="43.0205336" lon="12.2518895"><ele>214.50000000000003</ele><time>2026-05-01T09:47:06.94Z</time></trkpt><trkpt lat="43.0206089" lon="12.2519295"><ele>215.0</ele><time>2026-05-01T09:47:08.945Z</time></trkpt><trkpt lat="43.0206883" lon="12.2519841"><ele>215.0</ele><time>2026-05-01T09:47:10.937Z</time></trkpt><trkpt lat="43.0207688" lon="12.2520413"><ele>215.0</ele><time>2026-05-01T09:47:12.947Z</time></trkpt><trkpt lat="43.0208493" lon="12.2521244"><ele>215.0</ele><time>2026-05-01T09:47:14.948Z</time></trkpt><trkpt lat="43.0209323" lon="12.2521827"><ele>215.0</ele><time>2026-05-01T09:47:16.94Z</time></trkpt><trkpt lat="43.0210095" lon="12.2522575"><ele>215.0</ele><time>2026-05-01T09:47:18.936Z</time></trkpt><trkpt lat="43.0210903" lon="12.2523286"><ele>214.50000000000003</ele><time>2026-05-01T09:47:20.948Z</time></trkpt><trkpt lat="43.0211624" lon="12.2523892"><ele>214.0</ele><time>2026-05-01T09:47:22.949Z</time></trkpt><trkpt lat="43.0212391" lon="12.2524469"><ele>213.5</ele><time>2026-05-01T09:47:24.931Z</time></trkpt><trkpt lat="43.0213069" lon="12.2525062"><ele>213.0</ele><time>2026-05-01T09:47:26.949Z</time></trkpt><trkpt lat="43.0213731" lon="12.2525623"><ele>212.50000000000003</ele><time>2026-05-01T09:47:28.937Z</time></trkpt><trkpt lat="43.0214328" lon="12.2526022"><ele>212.0</ele><time>2026-05-01T09:47:30.95Z</time></trkpt><trkpt lat="43.0215095" lon="12.2526502"><ele>212.0</ele><time>2026-05-01T09:47:33.933Z</time></trkpt><trkpt lat="43.0215779" lon="12.2526517"><ele>212.0</ele><time>2026-05-01T09:47:37.937Z</time></trkpt><trkpt lat="43.0216157" lon="12.2527412"><ele>212.0</ele><time>2026-05-01T09:47:43.94Z</time></trkpt><trkpt lat="43.0216634" lon="12.2528131"><ele>212.0</ele><time>2026-05-01T09:47:46.938Z</time></trkpt><trkpt lat="43.0217314" lon="12.2528848"><ele>212.0</ele><time>2026-05-01T09:47:49.925Z</time></trkpt><trkpt lat="43.0217861" lon="12.2529368"><ele>212.0</ele><time>2026-05-01T09:47:51.935Z</time></trkpt><trkpt lat="43.0218439" lon="12.2529875"><ele>212.0</ele><time>2026-05-01T09:47:54Z</time></trkpt><trkpt lat="43.0219066" lon="12.2530372"><ele>212.00000000000003</ele><time>2026-05-01T09:47:55.947Z</time></trkpt><trkpt lat="43.0219696" lon="12.2530859"><ele>212.0</ele><time>2026-05-01T09:47:57.937Z</time></trkpt><trkpt lat="43.0220426" lon="12.2531446"><ele>212.0</ele><time>2026-05-01T09:48:00Z</time></trkpt><trkpt lat="43.0221188" lon="12.2532027"><ele>212.0</ele><time>2026-05-01T09:48:01.938Z</time></trkpt><trkpt lat="43.0221986" lon="12.2532632"><ele>212.00000000000003</ele><time>2026-05-01T09:48:03.942Z</time></trkpt><trkpt lat="43.0222978" lon="12.2533274"><ele>212.0</ele><time>2026-05-01T09:48:05.936Z</time></trkpt><trkpt lat="43.022371" lon="12.2534053"><ele>212.0</ele><time>2026-05-01T09:48:07.944Z</time></trkpt><trkpt lat="43.0224389" lon="12.2534677"><ele>212.0</ele><time>2026-05-01T09:48:09.931Z</time></trkpt><trkpt lat="43.0225159" lon="12.2535263"><ele>212.0</ele><time>2026-05-01T09:48:11.932Z</time></trkpt><trkpt lat="43.0225979" lon="12.2535832"><ele>212.0</ele><time>2026-05-01T09:48:13.948Z</time></trkpt><trkpt lat="43.0226921" lon="12.2536346"><ele>212.0</ele><time>2026-05-01T09:48:15.946Z</time></trkpt><trkpt lat="43.0227875" lon="12.2537037"><ele>211.8</ele><time>2026-05-01T09:48:17.948Z</time></trkpt><trkpt lat="43.0228408" lon="12.2537539"><ele>211.6</ele><time>2026-05-01T09:48:18.952Z</time></trkpt><trkpt lat="43.022944" lon="12.2538193"><ele>211.4</ele><time>2026-05-01T09:48:20.943Z</time></trkpt><trkpt lat="43.023045" lon="12.2538828"><ele>211.20000000000002</ele><time>2026-05-01T09:48:22.932Z</time></trkpt><trkpt lat="43.0231357" lon="12.2539397"><ele>211.0</ele><time>2026-05-01T09:48:24.949Z</time></trkpt><trkpt lat="43.0232338" lon="12.2539906"><ele>211.20000000000002</ele><time>2026-05-01T09:48:26.95Z</time></trkpt><trkpt lat="43.0233226" lon="12.2540342"><ele>211.4</ele><time>2026-05-01T09:48:29Z</time></trkpt><trkpt lat="43.0234129" lon="12.2540857"><ele>211.6</ele><time>2026-05-01T09:48:30.936Z</time></trkpt><trkpt lat="43.0235071" lon="12.2541368"><ele>211.8</ele><time>2026-05-01T09:48:32.95Z</time></trkpt><trkpt lat="43.0236076" lon="12.2541829"><ele>212.0</ele><time>2026-05-01T09:48:34.95Z</time></trkpt><trkpt lat="43.0237007" lon="12.2542171"><ele>212.0</ele><time>2026-05-01T09:48:36.952Z</time></trkpt><trkpt lat="43.0237949" lon="12.2542622"><ele>212.0</ele><time>2026-05-01T09:48:38.943Z</time></trkpt><trkpt lat="43.0238838" lon="12.2543032"><ele>212.0</ele><time>2026-05-01T09:48:40.948Z</time></trkpt><trkpt lat="43.0239657" lon="12.2543454"><ele>212.0</ele><time>2026-05-01T09:48:42.949Z</time></trkpt><trkpt lat="43.0240617" lon="12.2543854"><ele>212.0</ele><time>2026-05-01T09:48:44.939Z</time></trkpt><trkpt lat="43.0241578" lon="12.2544285"><ele>211.8</ele><time>2026-05-01T09:48:46.952Z</time></trkpt><trkpt lat="43.0242557" lon="12.2545008"><ele>211.6</ele><time>2026-05-01T09:48:48.951Z</time></trkpt><trkpt lat="43.0243484" lon="12.254549"><ele>211.4</ele><time>2026-05-01T09:48:50.945Z</time></trkpt><trkpt lat="43.0244354" lon="12.2546036"><ele>211.20000000000002</ele><time>2026-05-01T09:48:52.951Z</time></trkpt><trkpt lat="43.0245313" lon="12.2546585"><ele>211.0</ele><time>2026-05-01T09:48:54.941Z</time></trkpt><trkpt lat="43.0246123" lon="12.2547145"><ele>210.8</ele><time>2026-05-01T09:48:56.948Z</time></trkpt><trkpt lat="43.0246904" lon="12.2547917"><ele>210.60000000000002</ele><time>2026-05-01T09:48:58.949Z</time></trkpt><trkpt lat="43.0247645" lon="12.2548681"><ele>210.4</ele><time>2026-05-01T09:49:00.932Z</time></trkpt><trkpt lat="43.0248357" lon="12.2549491"><ele>210.2</ele><time>2026-05-01T09:49:02.934Z</time></trkpt><trkpt lat="43.0248964" lon="12.2550515"><ele>210.0</ele><time>2026-05-01T09:49:04.948Z</time></trkpt><trkpt lat="43.0249712" lon="12.2551396"><ele>210.2</ele><time>2026-05-01T09:49:06.947Z</time></trkpt><trkpt lat="43.0250471" lon="12.2552414"><ele>210.4</ele><time>2026-05-01T09:49:08.949Z</time></trkpt><trkpt lat="43.0251246" lon="12.2553355"><ele>210.60000000000002</ele><time>2026-05-01T09:49:10.932Z</time></trkpt><trkpt lat="43.0251925" lon="12.2554224"><ele>210.8</ele><time>2026-05-01T09:49:12.943Z</time></trkpt><trkpt lat="43.0252653" lon="12.2555093"><ele>211.0</ele><time>2026-05-01T09:49:14.95Z</time></trkpt><trkpt lat="43.0253536" lon="12.2555871"><ele>211.0</ele><time>2026-05-01T09:49:16.937Z</time></trkpt><trkpt lat="43.0254147" lon="12.2556736"><ele>211.0</ele><time>2026-05-01T09:49:18.944Z</time></trkpt><trkpt lat="43.0255035" lon="12.2557857"><ele>211.0</ele><time>2026-05-01T09:49:20.943Z</time></trkpt><trkpt lat="43.0255609" lon="12.2558584"><ele>211.0</ele><time>2026-05-01T09:49:22.937Z</time></trkpt><trkpt lat="43.0256423" lon="12.2559414"><ele>211.0</ele><time>2026-05-01T09:49:24.947Z</time></trkpt><trkpt lat="43.0257254" lon="12.2560196"><ele>211.0</ele><time>2026-05-01T09:49:26.94Z</time></trkpt><trkpt lat="43.0258086" lon="12.2560825"><ele>211.0</ele><time>2026-05-01T09:49:28.934Z</time></trkpt><trkpt lat="43.0259025" lon="12.256137"><ele>211.0</ele><time>2026-05-01T09:49:31Z</time></trkpt><trkpt lat="43.0259783" lon="12.2561872"><ele>211.0</ele><time>2026-05-01T09:49:32.932Z</time></trkpt><trkpt lat="43.0260694" lon="12.2562317"><ele>211.0</ele><time>2026-05-01T09:49:34.955Z</time></trkpt><trkpt lat="43.0261495" lon="12.2562635"><ele>211.0</ele><time>2026-05-01T09:49:36.937Z</time></trkpt><trkpt lat="43.026234" lon="12.2563101"><ele>211.0</ele><time>2026-05-01T09:49:38.95Z</time></trkpt><trkpt lat="43.0263178" lon="12.2563495"><ele>211.0</ele><time>2026-05-01T09:49:40.945Z</time></trkpt><trkpt lat="43.02641" lon="12.2563905"><ele>211.0</ele><time>2026-05-01T09:49:42.934Z</time></trkpt><trkpt lat="43.0264978" lon="12.256431"><ele>211.0</ele><time>2026-05-01T09:49:44.932Z</time></trkpt><trkpt lat="43.0265827" lon="12.2564838"><ele>210.66666666666666</ele><time>2026-05-01T09:49:46.939Z</time></trkpt><trkpt lat="43.0266615" lon="12.2565271"><ele>210.33333333333331</ele><time>2026-05-01T09:49:48.926Z</time></trkpt><trkpt lat="43.0267313" lon="12.2565708"><ele>210.0</ele><time>2026-05-01T09:49:50.931Z</time></trkpt><trkpt lat="43.0268035" lon="12.2566065"><ele>209.66666666666669</ele><time>2026-05-01T09:49:52.944Z</time></trkpt><trkpt lat="43.0268748" lon="12.2566429"><ele>209.33333333333334</ele><time>2026-05-01T09:49:54.933Z</time></trkpt><trkpt lat="43.0269491" lon="12.2566813"><ele>209.0</ele><time>2026-05-01T09:49:56.941Z</time></trkpt><trkpt lat="43.0270263" lon="12.2567276"><ele>209.00000000000003</ele><time>2026-05-01T09:49:58.922Z</time></trkpt><trkpt lat="43.0271056" lon="12.2567706"><ele>209.0</ele><time>2026-05-01T09:50:00.935Z</time></trkpt><trkpt lat="43.0271816" lon="12.2568154"><ele>209.0</ele><time>2026-05-01T09:50:02.924Z</time></trkpt><trkpt lat="43.0272558" lon="12.2568657"><ele>209.0</ele><time>2026-05-01T09:50:04.94Z</time></trkpt><trkpt lat="43.027327" lon="12.2569182"><ele>209.00000000000003</ele><time>2026-05-01T09:50:06.925Z</time></trkpt><trkpt lat="43.0273948" lon="12.2569697"><ele>209.0</ele><time>2026-05-01T09:50:08.936Z</time></trkpt><trkpt lat="43.0274657" lon="12.2570271"><ele>209.33333333333334</ele><time>2026-05-01T09:50:10.928Z</time></trkpt><trkpt lat="43.0275378" lon="12.257088"><ele>209.66666666666669</ele><time>2026-05-01T09:50:12.922Z</time></trkpt><trkpt lat="43.0276063" lon="12.2571508"><ele>210.0</ele><time>2026-05-01T09:50:15Z</time></trkpt><trkpt lat="43.0276742" lon="12.2572035"><ele>210.33333333333331</ele><time>2026-05-01T09:50:16.924Z</time></trkpt><trkpt lat="43.0277426" lon="12.2572536"><ele>210.66666666666666</ele><time>2026-05-01T09:50:18.926Z</time></trkpt><trkpt lat="43.0278131" lon="12.2573092"><ele>211.0</ele><time>2026-05-01T09:50:21Z</time></trkpt><trkpt lat="43.0278844" lon="12.2573657"><ele>211.0</ele><time>2026-05-01T09:50:22.931Z</time></trkpt><trkpt lat="43.0279621" lon="12.2574519"><ele>211.0</ele><time>2026-05-01T09:50:24.934Z</time></trkpt><trkpt lat="43.0280311" lon="12.2575268"><ele>211.0</ele><time>2026-05-01T09:50:27Z</time></trkpt><trkpt lat="43.028107" lon="12.2576153"><ele>211.0</ele><time>2026-05-01T09:50:28.939Z</time></trkpt><trkpt lat="43.0281747" lon="12.257698"><ele>211.0</ele><time>2026-05-01T09:50:30.934Z</time></trkpt><trkpt lat="43.0282507" lon="12.2577532"><ele>211.33333333333331</ele><time>2026-05-01T09:50:32.938Z</time></trkpt><trkpt lat="43.0283261" lon="12.2578364"><ele>211.66666666666666</ele><time>2026-05-01T09:50:34.954Z</time></trkpt><trkpt lat="43.0283893" lon="12.2579156"><ele>212.0</ele><time>2026-05-01T09:50:36.934Z</time></trkpt><trkpt lat="43.0284496" lon="12.2579959"><ele>212.33333333333331</ele><time>2026-05-01T09:50:38.958Z</time></trkpt><trkpt lat="43.0285104" lon="12.2580827"><ele>212.66666666666666</ele><time>2026-05-01T09:50:40.926Z</time></trkpt><trkpt lat="43.0285745" lon="12.2581676"><ele>213.0</ele><time>2026-05-01T09:50:42.933Z</time></trkpt><trkpt lat="43.0286458" lon="12.2582501"><ele>212.33333333333334</ele><time>2026-05-01T09:50:44.931Z</time></trkpt><trkpt lat="43.0287121" lon="12.2583166"><ele>211.66666666666669</ele><time>2026-05-01T09:50:46.953Z</time></trkpt><trkpt lat="43.0287728" lon="12.2583863"><ele>211.0</ele><time>2026-05-01T09:50:48.941Z</time></trkpt><trkpt lat="43.0288346" lon="12.2584616"><ele>210.33333333333334</ele><time>2026-05-01T09:50:50.939Z</time></trkpt><trkpt lat="43.0288932" lon="12.2585402"><ele>209.66666666666669</ele><time>2026-05-01T09:50:52.949Z</time></trkpt><trkpt lat="43.0289568" lon="12.2586157"><ele>209.0</ele><time>2026-05-01T09:50:54.932Z</time></trkpt><trkpt lat="43.0290274" lon="12.2586808"><ele>209.00000000000003</ele><time>2026-05-01T09:50:56.934Z</time></trkpt><trkpt lat="43.0291002" lon="12.2587288"><ele>209.0</ele><time>2026-05-01T09:50:58.928Z</time></trkpt><trkpt lat="43.0291736" lon="12.2587803"><ele>209.0</ele><time>2026-05-01T09:51:00.932Z</time></trkpt><trkpt lat="43.0292553" lon="12.2588222"><ele>209.0</ele><time>2026-05-01T09:51:02.94Z</time></trkpt><trkpt lat="43.0293418" lon="12.2588595"><ele>209.00000000000003</ele><time>2026-05-01T09:51:04.951Z</time></trkpt><trkpt lat="43.0294309" lon="12.2588924"><ele>209.0</ele><time>2026-05-01T09:51:06.933Z</time></trkpt><trkpt lat="43.0295122" lon="12.2589216"><ele>209.66666666666669</ele><time>2026-05-01T09:51:08.937Z</time></trkpt><trkpt lat="43.0295928" lon="12.2589423"><ele>210.33333333333334</ele><time>2026-05-01T09:51:10.932Z</time></trkpt><trkpt lat="43.0296637" lon="12.2589561"><ele>211.0</ele><time>2026-05-01T09:51:12.939Z</time></trkpt><trkpt lat="43.0297472" lon="12.2589749"><ele>211.66666666666669</ele><time>2026-05-01T09:51:14.942Z</time></trkpt><trkpt lat="43.0298337" lon="12.2590028"><ele>212.33333333333334</ele><time>2026-05-01T09:51:16.937Z</time></trkpt><trkpt lat="43.0299159" lon="12.2590265"><ele>213.0</ele><time>2026-05-01T09:51:18.933Z</time></trkpt><trkpt lat="43.0299954" lon="12.2590745"><ele>213.0</ele><time>2026-05-01T09:51:20.936Z</time></trkpt><trkpt lat="43.0300979" lon="12.259137"><ele>213.0</ele><time>2026-05-01T09:51:22.945Z</time></trkpt><trkpt lat="43.0301664" lon="12.2592122"><ele>213.0</ele><time>2026-05-01T09:51:24.941Z</time></trkpt><trkpt lat="43.0302281" lon="12.259279"><ele>213.0</ele><time>2026-05-01T09:51:26.931Z</time></trkpt><trkpt lat="43.0302936" lon="12.2593734"><ele>213.0</ele><time>2026-05-01T09:51:28.938Z</time></trkpt><trkpt lat="43.030347" lon="12.2594596"><ele>213.0</ele><time>2026-05-01T09:51:30.934Z</time></trkpt><trkpt lat="43.0304082" lon="12.2595613"><ele>213.0</ele><time>2026-05-01T09:51:32.952Z</time></trkpt><trkpt lat="43.0304722" lon="12.2596749"><ele>213.0</ele><time>2026-05-01T09:51:34.95Z</time></trkpt><trkpt lat="43.0305299" lon="12.2597978"><ele>213.0</ele><time>2026-05-01T09:51:36.944Z</time></trkpt><trkpt lat="43.030586" lon="12.2599117"><ele>213.0</ele><time>2026-05-01T09:51:38.921Z</time></trkpt><trkpt lat="43.0306419" lon="12.2600154"><ele>212.4</ele><time>2026-05-01T09:51:40.954Z</time></trkpt><trkpt lat="43.0307264" lon="12.2601102"><ele>211.8</ele><time>2026-05-01T09:51:42.929Z</time></trkpt><trkpt lat="43.0307925" lon="12.2602269"><ele>211.2</ele><time>2026-05-01T09:51:44.941Z</time></trkpt><trkpt lat="43.0308561" lon="12.260347"><ele>210.6</ele><time>2026-05-01T09:51:46.942Z</time></trkpt><trkpt lat="43.0308918" lon="12.2604184"><ele>210.0</ele><time>2026-05-01T09:51:47.936Z</time></trkpt><trkpt lat="43.0309583" lon="12.260535"><ele>209.8</ele><time>2026-05-01T09:51:49.927Z</time></trkpt><trkpt lat="43.0310205" lon="12.2606415"><ele>209.6</ele><time>2026-05-01T09:51:51.925Z</time></trkpt><trkpt lat="43.0310699" lon="12.260754"><ele>209.39999999999998</ele><time>2026-05-01T09:51:53.952Z</time></trkpt><trkpt lat="43.0311284" lon="12.2608627"><ele>209.2</ele><time>2026-05-01T09:51:56Z</time></trkpt><trkpt lat="43.0311996" lon="12.2609817"><ele>209.0</ele><time>2026-05-01T09:51:57.933Z</time></trkpt><trkpt lat="43.031276" lon="12.2610969"><ele>209.0</ele><time>2026-05-01T09:51:59.943Z</time></trkpt><trkpt lat="43.0313574" lon="12.2611955"><ele>209.0</ele><time>2026-05-01T09:52:01.924Z</time></trkpt><trkpt lat="43.0314406" lon="12.2612692"><ele>209.0</ele><time>2026-05-01T09:52:03.944Z</time></trkpt><trkpt lat="43.031525" lon="12.2613291"><ele>209.0</ele><time>2026-05-01T09:52:05.932Z</time></trkpt><trkpt lat="43.0316064" lon="12.2613876"><ele>209.0</ele><time>2026-05-01T09:52:07.95Z</time></trkpt><trkpt lat="43.0316974" lon="12.2614588"><ele>209.0</ele><time>2026-05-01T09:52:09.925Z</time></trkpt><trkpt lat="43.0317831" lon="12.2615183"><ele>209.0</ele><time>2026-05-01T09:52:11.937Z</time></trkpt><trkpt lat="43.0318798" lon="12.261575"><ele>209.0</ele><time>2026-05-01T09:52:13.949Z</time></trkpt><trkpt lat="43.03198" lon="12.2616333"><ele>209.0</ele><time>2026-05-01T09:52:15.95Z</time></trkpt><trkpt lat="43.0320738" lon="12.2616973"><ele>209.0</ele><time>2026-05-01T09:52:17.938Z</time></trkpt><trkpt lat="43.0321523" lon="12.2617581"><ele>209.0</ele><time>2026-05-01T09:52:19.947Z</time></trkpt><trkpt lat="43.0322435" lon="12.2618307"><ele>209.0</ele><time>2026-05-01T09:52:21.95Z</time></trkpt><trkpt lat="43.0323385" lon="12.2619004"><ele>209.0</ele><time>2026-05-01T09:52:23.936Z</time></trkpt><trkpt lat="43.0324223" lon="12.261981"><ele>209.0</ele><time>2026-05-01T09:52:25.944Z</time></trkpt><trkpt lat="43.0325026" lon="12.2620503"><ele>209.0</ele><time>2026-05-01T09:52:27.927Z</time></trkpt><trkpt lat="43.032584" lon="12.2621149"><ele>209.0</ele><time>2026-05-01T09:52:29.95Z</time></trkpt><trkpt lat="43.03267" lon="12.2621775"><ele>209.0</ele><time>2026-05-01T09:52:31.949Z</time></trkpt><trkpt lat="43.0327577" lon="12.2622344"><ele>209.0</ele><time>2026-05-01T09:52:33.934Z</time></trkpt><trkpt lat="43.0328434" lon="12.2623033"><ele>209.0</ele><time>2026-05-01T09:52:35.954Z</time></trkpt><trkpt lat="43.0329228" lon="12.2623634"><ele>209.0</ele><time>2026-05-01T09:52:37.939Z</time></trkpt><trkpt lat="43.0329952" lon="12.2624458"><ele>209.0</ele><time>2026-05-01T09:52:39.924Z</time></trkpt><trkpt lat="43.0330661" lon="12.262539"><ele>209.0</ele><time>2026-05-01T09:52:41.95Z</time></trkpt><trkpt lat="43.0331244" lon="12.2626487"><ele>209.0</ele><time>2026-05-01T09:52:43.951Z</time></trkpt><trkpt lat="43.0331772" lon="12.2627547"><ele>209.0</ele><time>2026-05-01T09:52:45.937Z</time></trkpt><trkpt lat="43.0332161" lon="12.2628692"><ele>209.0</ele><time>2026-05-01T09:52:47.939Z</time></trkpt><trkpt lat="43.0332668" lon="12.262983"><ele>209.0</ele><time>2026-05-01T09:52:49.945Z</time></trkpt><trkpt lat="43.0333078" lon="12.2631009"><ele>209.0</ele><time>2026-05-01T09:52:51.935Z</time></trkpt><trkpt lat="43.0333439" lon="12.2632305"><ele>209.0</ele><time>2026-05-01T09:52:53.936Z</time></trkpt><trkpt lat="43.0333772" lon="12.2633629"><ele>209.0</ele><time>2026-05-01T09:52:55.928Z</time></trkpt><trkpt lat="43.0334127" lon="12.2634963"><ele>209.0</ele><time>2026-05-01T09:52:57.937Z</time></trkpt><trkpt lat="43.0334435" lon="12.2636276"><ele>208.79999999999998</ele><time>2026-05-01T09:52:59.941Z</time></trkpt><trkpt lat="43.033473" lon="12.2637625"><ele>208.6</ele><time>2026-05-01T09:53:01.949Z</time></trkpt><trkpt lat="43.0334989" lon="12.2638906"><ele>208.4</ele><time>2026-05-01T09:53:03.932Z</time></trkpt><trkpt lat="43.0335229" lon="12.2640202"><ele>208.2</ele><time>2026-05-01T09:53:05.949Z</time></trkpt><trkpt lat="43.03354" lon="12.2641562"><ele>208.0</ele><time>2026-05-01T09:53:07.94Z</time></trkpt><trkpt lat="43.033564" lon="12.2642909"><ele>207.8</ele><time>2026-05-01T09:53:09.939Z</time></trkpt><trkpt lat="43.0335878" lon="12.2644178"><ele>207.60000000000002</ele><time>2026-05-01T09:53:11.94Z</time></trkpt><trkpt lat="43.0336089" lon="12.2645498"><ele>207.39999999999998</ele><time>2026-05-01T09:53:13.942Z</time></trkpt><trkpt lat="43.0336309" lon="12.2646992"><ele>207.2</ele><time>2026-05-01T09:53:15.953Z</time></trkpt><trkpt lat="43.0336487" lon="12.2648358"><ele>207.0</ele><time>2026-05-01T09:53:17.941Z</time></trkpt><trkpt lat="43.0336654" lon="12.2649745"><ele>207.0</ele><time>2026-05-01T09:53:19.933Z</time></trkpt><trkpt lat="43.033686" lon="12.2650969"><ele>207.0</ele><time>2026-05-01T09:53:21.933Z</time></trkpt><trkpt lat="43.0337096" lon="12.2652169"><ele>207.0</ele><time>2026-05-01T09:53:23.94Z</time></trkpt><trkpt lat="43.0337312" lon="12.2653483"><ele>207.0</ele><time>2026-05-01T09:53:25.95Z</time></trkpt><trkpt lat="43.0337541" lon="12.2654871"><ele>207.0</ele><time>2026-05-01T09:53:27.949Z</time></trkpt><trkpt lat="43.0337797" lon="12.2656206"><ele>207.2</ele><time>2026-05-01T09:53:29.943Z</time></trkpt><trkpt lat="43.0337983" lon="12.2657543"><ele>207.39999999999998</ele><time>2026-05-01T09:53:31.933Z</time></trkpt><trkpt lat="43.0338148" lon="12.265872"><ele>207.60000000000002</ele><time>2026-05-01T09:53:34Z</time></trkpt><trkpt lat="43.0338419" lon="12.266003"><ele>207.8</ele><time>2026-05-01T09:53:35.949Z</time></trkpt><trkpt lat="43.0338548" lon="12.2661261"><ele>208.0</ele><time>2026-05-01T09:53:37.948Z</time></trkpt><trkpt lat="43.033878" lon="12.2662545"><ele>208.0</ele><time>2026-05-01T09:53:39.925Z</time></trkpt><trkpt lat="43.0339002" lon="12.2663773"><ele>208.0</ele><time>2026-05-01T09:53:41.946Z</time></trkpt><trkpt lat="43.0339192" lon="12.26651"><ele>208.0</ele><time>2026-05-01T09:53:43.941Z</time></trkpt><trkpt lat="43.0339564" lon="12.2666422"><ele>208.0</ele><time>2026-05-01T09:53:45.937Z</time></trkpt><trkpt lat="43.0339706" lon="12.2667518"><ele>208.0</ele><time>2026-05-01T09:53:47.952Z</time></trkpt><trkpt lat="43.0339714" lon="12.2668646"><ele>207.8</ele><time>2026-05-01T09:53:49.943Z</time></trkpt><trkpt lat="43.0339796" lon="12.2669807"><ele>207.60000000000002</ele><time>2026-05-01T09:53:52Z</time></trkpt><trkpt lat="43.033987" lon="12.2670975"><ele>207.39999999999998</ele><time>2026-05-01T09:53:53.949Z</time></trkpt><trkpt lat="43.0339748" lon="12.2672075"><ele>207.2</ele><time>2026-05-01T09:53:55.938Z</time></trkpt><trkpt lat="43.033969" lon="12.2673482"><ele>207.0</ele><time>2026-05-01T09:53:57.936Z</time></trkpt><trkpt lat="43.0339586" lon="12.2674783"><ele>207.0</ele><time>2026-05-01T09:53:59.937Z</time></trkpt><trkpt lat="43.0339386" lon="12.2675945"><ele>207.0</ele><time>2026-05-01T09:54:01.947Z</time></trkpt><trkpt lat="43.0339246" lon="12.2677058"><ele>207.0</ele><time>2026-05-01T09:54:03.925Z</time></trkpt><trkpt lat="43.033913" lon="12.2678296"><ele>207.0</ele><time>2026-05-01T09:54:05.939Z</time></trkpt><trkpt lat="43.033892" lon="12.2679446"><ele>207.0</ele><time>2026-05-01T09:54:07.932Z</time></trkpt><trkpt lat="43.0338672" lon="12.2680662"><ele>207.0</ele><time>2026-05-01T09:54:09.947Z</time></trkpt><trkpt lat="43.0338468" lon="12.268185"><ele>207.0</ele><time>2026-05-01T09:54:11.944Z</time></trkpt><trkpt lat="43.033819" lon="12.2683107"><ele>207.0</ele><time>2026-05-01T09:54:13.932Z</time></trkpt><trkpt lat="43.0337922" lon="12.2684253"><ele>207.0</ele><time>2026-05-01T09:54:15.95Z</time></trkpt><trkpt lat="43.0337678" lon="12.2685275"><ele>207.0</ele><time>2026-05-01T09:54:17.93Z</time></trkpt><trkpt lat="43.0337365" lon="12.2686352"><ele>207.0</ele><time>2026-05-01T09:54:19.95Z</time></trkpt><trkpt lat="43.0337109" lon="12.2687362"><ele>207.0</ele><time>2026-05-01T09:54:21.938Z</time></trkpt><trkpt lat="43.033684" lon="12.268839"><ele>207.0</ele><time>2026-05-01T09:54:23.944Z</time></trkpt><trkpt lat="43.0336476" lon="12.2689326"><ele>207.0</ele><time>2026-05-01T09:54:25.933Z</time></trkpt><trkpt lat="43.0336083" lon="12.2690286"><ele>207.0</ele><time>2026-05-01T09:54:27.923Z</time></trkpt><trkpt lat="43.0335596" lon="12.2691482"><ele>207.0</ele><time>2026-05-01T09:54:29.933Z</time></trkpt><trkpt lat="43.0335118" lon="12.2692592"><ele>207.0</ele><time>2026-05-01T09:54:31.949Z</time></trkpt><trkpt lat="43.0334607" lon="12.2693746"><ele>207.6</ele><time>2026-05-01T09:54:33.926Z</time></trkpt><trkpt lat="43.0333976" lon="12.2694688"><ele>208.2</ele><time>2026-05-01T09:54:35.943Z</time></trkpt><trkpt lat="43.0333521" lon="12.2695694"><ele>208.8</ele><time>2026-05-01T09:54:37.937Z</time></trkpt><trkpt lat="43.0332996" lon="12.2696802"><ele>209.4</ele><time>2026-05-01T09:54:39.942Z</time></trkpt><trkpt lat="43.0332418" lon="12.2697984"><ele>210.0</ele><time>2026-05-01T09:54:41.928Z</time></trkpt><trkpt lat="43.0331883" lon="12.2699208"><ele>210.2</ele><time>2026-05-01T09:54:43.941Z</time></trkpt><trkpt lat="43.0331346" lon="12.2700212"><ele>210.4</ele><time>2026-05-01T09:54:45.924Z</time></trkpt><trkpt lat="43.0330868" lon="12.2701285"><ele>210.60000000000002</ele><time>2026-05-01T09:54:47.923Z</time></trkpt><trkpt lat="43.033029" lon="12.2702268"><ele>210.8</ele><time>2026-05-01T09:54:49.926Z</time></trkpt><trkpt lat="43.0329817" lon="12.2703389"><ele>211.0</ele><time>2026-05-01T09:54:51.933Z</time></trkpt><trkpt lat="43.0329281" lon="12.2704256"><ele>211.0</ele><time>2026-05-01T09:54:53.924Z</time></trkpt><trkpt lat="43.0328777" lon="12.2705191"><ele>211.0</ele><time>2026-05-01T09:54:55.933Z</time></trkpt><trkpt lat="43.032845" lon="12.2706028"><ele>211.0</ele><time>2026-05-01T09:54:57.945Z</time></trkpt><trkpt lat="43.0328018" lon="12.2706778"><ele>211.0</ele><time>2026-05-01T09:54:59.932Z</time></trkpt><trkpt lat="43.0327496" lon="12.2707427"><ele>211.0</ele><time>2026-05-01T09:55:01.932Z</time></trkpt><trkpt lat="43.0326932" lon="12.2707991"><ele>211.0</ele><time>2026-05-01T09:55:03.934Z</time></trkpt><trkpt lat="43.032635" lon="12.2708429"><ele>211.0</ele><time>2026-05-01T09:55:05.937Z</time></trkpt><trkpt lat="43.0325804" lon="12.2708887"><ele>211.16666666666666</ele><time>2026-05-01T09:55:07.936Z</time></trkpt><trkpt lat="43.0325245" lon="12.2709484"><ele>211.33333333333331</ele><time>2026-05-01T09:55:09.933Z</time></trkpt><trkpt lat="43.0324741" lon="12.2710262"><ele>211.5</ele><time>2026-05-01T09:55:11.946Z</time></trkpt><trkpt lat="43.0324317" lon="12.2711154"><ele>211.66666666666669</ele><time>2026-05-01T09:55:14Z</time></trkpt><trkpt lat="43.0324088" lon="12.271218"><ele>211.83333333333334</ele><time>2026-05-01T09:55:15.931Z</time></trkpt><trkpt lat="43.032388" lon="12.2713181"><ele>212.0</ele><time>2026-05-01T09:55:17.915Z</time></trkpt><trkpt lat="43.0323691" lon="12.2714166"><ele>212.42857142857144</ele><time>2026-05-01T09:55:19.945Z</time></trkpt><trkpt lat="43.0323496" lon="12.271515"><ele>212.85714285714283</ele><time>2026-05-01T09:55:21.936Z</time></trkpt><trkpt lat="43.0323258" lon="12.271608"><ele>213.28571428571428</ele><time>2026-05-01T09:55:23.947Z</time></trkpt><trkpt lat="43.0323029" lon="12.2716931"><ele>213.71428571428572</ele><time>2026-05-01T09:55:25.943Z</time></trkpt><trkpt lat="43.0322895" lon="12.2717792"><ele>214.14285714285717</ele><time>2026-05-01T09:55:27.933Z</time></trkpt><trkpt lat="43.032276" lon="12.2718722"><ele>214.57142857142856</ele><time>2026-05-01T09:55:29.941Z</time></trkpt><trkpt lat="43.0322502" lon="12.2719673"><ele>215.0</ele><time>2026-05-01T09:55:31.931Z</time></trkpt><trkpt lat="43.0322286" lon="12.2720566"><ele>215.0</ele><time>2026-05-01T09:55:33.932Z</time></trkpt><trkpt lat="43.032207" lon="12.2721513"><ele>215.0</ele><time>2026-05-01T09:55:35.932Z</time></trkpt><trkpt lat="43.0321937" lon="12.2722362"><ele>215.0</ele><time>2026-05-01T09:55:37.933Z</time></trkpt><trkpt lat="43.0321789" lon="12.2723234"><ele>215.0</ele><time>2026-05-01T09:55:39.93Z</time></trkpt><trkpt lat="43.0321464" lon="12.2724243"><ele>215.0</ele><time>2026-05-01T09:55:41.946Z</time></trkpt><trkpt lat="43.0321129" lon="12.2725214"><ele>215.0</ele><time>2026-05-01T09:55:44Z</time></trkpt><trkpt lat="43.0320755" lon="12.2726094"><ele>215.0</ele><time>2026-05-01T09:55:45.938Z</time></trkpt><trkpt lat="43.0320232" lon="12.2726857"><ele>216.00000000000003</ele><time>2026-05-01T09:55:47.95Z</time></trkpt><trkpt lat="43.0319641" lon="12.2727499"><ele>217.0</ele><time>2026-05-01T09:55:49.943Z</time></trkpt><trkpt lat="43.0319034" lon="12.2728064"><ele>218.0</ele><time>2026-05-01T09:55:51.935Z</time></trkpt><trkpt lat="43.0318416" lon="12.2728662"><ele>219.0</ele><time>2026-05-01T09:55:53.938Z</time></trkpt><trkpt lat="43.0317838" lon="12.2729347"><ele>220.00000000000003</ele><time>2026-05-01T09:55:55.939Z</time></trkpt><trkpt lat="43.0317387" lon="12.2730179"><ele>221.0</ele><time>2026-05-01T09:55:57.937Z</time></trkpt><trkpt lat="43.0317184" lon="12.273114"><ele>221.83333333333334</ele><time>2026-05-01T09:55:59.942Z</time></trkpt><trkpt lat="43.0317047" lon="12.2732319"><ele>222.66666666666669</ele><time>2026-05-01T09:56:02.947Z</time></trkpt><trkpt lat="43.0317077" lon="12.273322"><ele>223.5</ele><time>2026-05-01T09:56:04.942Z</time></trkpt><trkpt lat="43.0317409" lon="12.2734441"><ele>224.33333333333331</ele><time>2026-05-01T09:56:06.941Z</time></trkpt><trkpt lat="43.031786" lon="12.2735471"><ele>225.16666666666666</ele><time>2026-05-01T09:56:08.952Z</time></trkpt><trkpt lat="43.0318413" lon="12.2736302"><ele>226.0</ele><time>2026-05-01T09:56:10.946Z</time></trkpt><trkpt lat="43.0318999" lon="12.2737047"><ele>226.0</ele><time>2026-05-01T09:56:12.932Z</time></trkpt><trkpt lat="43.0319527" lon="12.2737773"><ele>226.00000000000003</ele><time>2026-05-01T09:56:14.938Z</time></trkpt><trkpt lat="43.0320256" lon="12.2738779"><ele>226.00000000000003</ele><time>2026-05-01T09:56:16.945Z</time></trkpt><trkpt lat="43.0321039" lon="12.2739558"><ele>226.0</ele><time>2026-05-01T09:56:18.945Z</time></trkpt><trkpt lat="43.0321848" lon="12.2740241"><ele>226.0</ele><time>2026-05-01T09:56:20.949Z</time></trkpt><trkpt lat="43.0322651" lon="12.2740938"><ele>225.60000000000002</ele><time>2026-05-01T09:56:22.934Z</time></trkpt><trkpt lat="43.0323465" lon="12.2741758"><ele>225.20000000000002</ele><time>2026-05-01T09:56:24.949Z</time></trkpt><trkpt lat="43.0324175" lon="12.2742788"><ele>224.79999999999998</ele><time>2026-05-01T09:56:26.946Z</time></trkpt><trkpt lat="43.0324799" lon="12.2743908"><ele>224.39999999999998</ele><time>2026-05-01T09:56:28.949Z</time></trkpt><trkpt lat="43.0325331" lon="12.2745005"><ele>224.0</ele><time>2026-05-01T09:56:30.934Z</time></trkpt><trkpt lat="43.0325867" lon="12.2746044"><ele>224.0</ele><time>2026-05-01T09:56:32.946Z</time></trkpt><trkpt lat="43.0326441" lon="12.274711"><ele>223.99999999999997</ele><time>2026-05-01T09:56:34.952Z</time></trkpt><trkpt lat="43.0326976" lon="12.2748194"><ele>223.99999999999997</ele><time>2026-05-01T09:56:36.934Z</time></trkpt><trkpt lat="43.0327486" lon="12.2749211"><ele>224.0</ele><time>2026-05-01T09:56:38.946Z</time></trkpt><trkpt lat="43.0327975" lon="12.2750203"><ele>224.0</ele><time>2026-05-01T09:56:40.948Z</time></trkpt><trkpt lat="43.032847" lon="12.2751205"><ele>224.50000000000003</ele><time>2026-05-01T09:56:42.945Z</time></trkpt><trkpt lat="43.032897" lon="12.2752172"><ele>225.0</ele><time>2026-05-01T09:56:44.942Z</time></trkpt><trkpt lat="43.0329449" lon="12.2753172"><ele>225.5</ele><time>2026-05-01T09:56:46.95Z</time></trkpt><trkpt lat="43.0329941" lon="12.2754215"><ele>226.0</ele><time>2026-05-01T09:56:48.935Z</time></trkpt><trkpt lat="43.033041" lon="12.2755205"><ele>226.50000000000003</ele><time>2026-05-01T09:56:50.946Z</time></trkpt><trkpt lat="43.0330912" lon="12.275621"><ele>227.0</ele><time>2026-05-01T09:56:52.936Z</time></trkpt><trkpt lat="43.0331439" lon="12.2757184"><ele>227.0</ele><time>2026-05-01T09:56:54.939Z</time></trkpt><trkpt lat="43.0332043" lon="12.2758156"><ele>227.0</ele><time>2026-05-01T09:56:56.933Z</time></trkpt><trkpt lat="43.033272" lon="12.2759046"><ele>227.0</ele><time>2026-05-01T09:56:58.95Z</time></trkpt><trkpt lat="43.0333458" lon="12.2759833"><ele>227.0</ele><time>2026-05-01T09:57:00.937Z</time></trkpt><trkpt lat="43.0334162" lon="12.2760525"><ele>227.0</ele><time>2026-05-01T09:57:02.95Z</time></trkpt><trkpt lat="43.0334921" lon="12.2761345"><ele>227.0</ele><time>2026-05-01T09:57:04.949Z</time></trkpt><trkpt lat="43.0335655" lon="12.2762193"><ele>227.0</ele><time>2026-05-01T09:57:06.935Z</time></trkpt><trkpt lat="43.0336409" lon="12.2762979"><ele>227.0</ele><time>2026-05-01T09:57:08.933Z</time></trkpt><trkpt lat="43.0337146" lon="12.276377"><ele>227.0</ele><time>2026-05-01T09:57:10.947Z</time></trkpt><trkpt lat="43.0337875" lon="12.2764601"><ele>227.0</ele><time>2026-05-01T09:57:13Z</time></trkpt><trkpt lat="43.033862" lon="12.2765453"><ele>227.00000000000003</ele><time>2026-05-01T09:57:14.946Z</time></trkpt><trkpt lat="43.033934" lon="12.2766229"><ele>227.0</ele><time>2026-05-01T09:57:16.932Z</time></trkpt><trkpt lat="43.0340032" lon="12.2767031"><ele>227.0</ele><time>2026-05-01T09:57:18.933Z</time></trkpt><trkpt lat="43.0340691" lon="12.2767757"><ele>227.0</ele><time>2026-05-01T09:57:20.934Z</time></trkpt><trkpt lat="43.0341327" lon="12.2768572"><ele>227.00000000000003</ele><time>2026-05-01T09:57:22.935Z</time></trkpt><trkpt lat="43.0341951" lon="12.2769439"><ele>227.0</ele><time>2026-05-01T09:57:24.933Z</time></trkpt><trkpt lat="43.0342568" lon="12.2770231"><ele>227.33333333333334</ele><time>2026-05-01T09:57:26.942Z</time></trkpt><trkpt lat="43.0343192" lon="12.2771055"><ele>227.66666666666669</ele><time>2026-05-01T09:57:28.948Z</time></trkpt><trkpt lat="43.0343801" lon="12.2771915"><ele>228.0</ele><time>2026-05-01T09:57:30.934Z</time></trkpt><trkpt lat="43.0344412" lon="12.2772753"><ele>228.33333333333331</ele><time>2026-05-01T09:57:32.941Z</time></trkpt><trkpt lat="43.0345035" lon="12.2773609"><ele>228.66666666666666</ele><time>2026-05-01T09:57:34.95Z</time></trkpt><trkpt lat="43.0345658" lon="12.277444"><ele>229.0</ele><time>2026-05-01T09:57:36.949Z</time></trkpt><trkpt lat="43.0346304" lon="12.2775266"><ele>229.2</ele><time>2026-05-01T09:57:38.943Z</time></trkpt><trkpt lat="43.0346974" lon="12.2776082"><ele>229.39999999999998</ele><time>2026-05-01T09:57:40.935Z</time></trkpt><trkpt lat="43.0347666" lon="12.2776835"><ele>229.6</ele><time>2026-05-01T09:57:42.94Z</time></trkpt><trkpt lat="43.0348417" lon="12.2777589"><ele>229.8</ele><time>2026-05-01T09:57:44.928Z</time></trkpt><trkpt lat="43.0349119" lon="12.2778374"><ele>230.0</ele><time>2026-05-01T09:57:46.922Z</time></trkpt><trkpt lat="43.0349846" lon="12.2779057"><ele>230.2</ele><time>2026-05-01T09:57:48.937Z</time></trkpt><trkpt lat="43.0350582" lon="12.2779698"><ele>230.4</ele><time>2026-05-01T09:57:50.929Z</time></trkpt><trkpt lat="43.035134" lon="12.2780379"><ele>230.60000000000002</ele><time>2026-05-01T09:57:52.943Z</time></trkpt><trkpt lat="43.0352112" lon="12.2781055"><ele>230.8</ele><time>2026-05-01T09:57:54.946Z</time></trkpt><trkpt lat="43.0352881" lon="12.2781784"><ele>231.0</ele><time>2026-05-01T09:57:56.934Z</time></trkpt><trkpt lat="43.0353653" lon="12.2782539"><ele>231.0</ele><time>2026-05-01T09:57:58.951Z</time></trkpt><trkpt lat="43.0354427" lon="12.2783274"><ele>231.00000000000003</ele><time>2026-05-01T09:58:00.933Z</time></trkpt><trkpt lat="43.0355171" lon="12.2783973"><ele>231.00000000000003</ele><time>2026-05-01T09:58:02.936Z</time></trkpt><trkpt lat="43.0355931" lon="12.2784649"><ele>231.0</ele><time>2026-05-01T09:58:04.924Z</time></trkpt><trkpt lat="43.0356694" lon="12.2785381"><ele>231.0</ele><time>2026-05-01T09:58:06.935Z</time></trkpt><trkpt lat="43.0357464" lon="12.2786113"><ele>231.0</ele><time>2026-05-01T09:58:08.929Z</time></trkpt><trkpt lat="43.035817" lon="12.2786887"><ele>231.00000000000003</ele><time>2026-05-01T09:58:10.947Z</time></trkpt><trkpt lat="43.0358875" lon="12.2787719"><ele>231.00000000000003</ele><time>2026-05-01T09:58:12.946Z</time></trkpt><trkpt lat="43.035955" lon="12.2788579"><ele>231.0</ele><time>2026-05-01T09:58:14.945Z</time></trkpt><trkpt lat="43.0360178" lon="12.2789513"><ele>231.0</ele><time>2026-05-01T09:58:16.947Z</time></trkpt><trkpt lat="43.0360822" lon="12.2790459"><ele>231.0</ele><time>2026-05-01T09:58:18.934Z</time></trkpt><trkpt lat="43.036155" lon="12.2791393"><ele>231.0</ele><time>2026-05-01T09:58:20.952Z</time></trkpt></trkseg></trk></gpx>